<?xml version="1.0" encoding="utf-8"?>
<gpx xmlns:xsi="http://www.w3.org/2001/XMLSchema-instance" xmlns:xsd="http://www.w3.org/2001/XMLSchema" version="1.1" creator="Shapelink.com" xmlns="http://www.topografix.com/GPX/1/1" xmlns:gpxtpx="http://www.garmin.com/xmlschemas/TrackPointExtension/v1">
  <metadata>
    <name>Cycling 131.21 km, 2020-07-26</name>
    <desc></desc>
    <author><name>Marian Moron</name></author> 
    <time>2020-07-26T08:43:47Z</time>
  </metadata>
  <trk>
    <name>Cycling 131.21 km, 2020-07-26</name>
    <trkseg>
      <trkpt lat="51.231114003551" lon="4.457446056437">
        <ele>0.8</ele>
        <time>2020-07-26T08:43:47Z</time>
      </trkpt>
      <trkpt lat="51.231159852544" lon="4.456539218676">
        <ele>0</ele>
        <time>2020-07-26T08:43:59Z</time>
      </trkpt>
      <trkpt lat="51.230881154369" lon="4.455895824032">
        <ele>1.6</ele>
        <time>2020-07-26T08:44:15Z</time>
      </trkpt>
      <trkpt lat="51.23084251381" lon="4.455854333627">
        <ele>1.4</ele>
        <time>2020-07-26T08:44:16Z</time>
      </trkpt>
      <trkpt lat="51.230719886613" lon="4.455716032277">
        <ele>1.2</ele>
        <time>2020-07-26T08:44:19Z</time>
      </trkpt>
      <trkpt lat="51.230589548068" lon="4.455470610245">
        <ele>0.8</ele>
        <time>2020-07-26T08:44:23Z</time>
      </trkpt>
      <trkpt lat="51.230088981" lon="4.455066518846">
        <ele>0</ele>
        <time>2020-07-26T08:44:34Z</time>
      </trkpt>
      <trkpt lat="51.229560334567" lon="4.454809110697">
        <ele>0</ele>
        <time>2020-07-26T08:44:45Z</time>
      </trkpt>
      <trkpt lat="51.229014924334" lon="4.454612471323">
        <ele>0</ele>
        <time>2020-07-26T08:44:56Z</time>
      </trkpt>
      <trkpt lat="51.228453169396" lon="4.454470733394">
        <ele>0</ele>
        <time>2020-07-26T08:45:07Z</time>
      </trkpt>
      <trkpt lat="51.227874231563" lon="4.45438222053">
        <ele>0</ele>
        <time>2020-07-26T08:45:18Z</time>
      </trkpt>
      <trkpt lat="51.227317757222" lon="4.4543595894">
        <ele>0</ele>
        <time>2020-07-26T08:45:29Z</time>
      </trkpt>
      <trkpt lat="51.226757008112" lon="4.454355146993">
        <ele>0</ele>
        <time>2020-07-26T08:45:41Z</time>
      </trkpt>
      <trkpt lat="51.226222578168" lon="4.454376017924">
        <ele>0</ele>
        <time>2020-07-26T08:46:00Z</time>
      </trkpt>
      <trkpt lat="51.225669037492" lon="4.454407198592">
        <ele>0</ele>
        <time>2020-07-26T08:46:15Z</time>
      </trkpt>
      <trkpt lat="51.225104851803" lon="4.454420693451">
        <ele>0</ele>
        <time>2020-07-26T08:46:27Z</time>
      </trkpt>
      <trkpt lat="51.224533876775" lon="4.454409210248">
        <ele>0</ele>
        <time>2020-07-26T08:46:38Z</time>
      </trkpt>
      <trkpt lat="51.223941276445" lon="4.454392194991">
        <ele>0</ele>
        <time>2020-07-26T08:46:48Z</time>
      </trkpt>
      <trkpt lat="51.223390920891" lon="4.454320362108">
        <ele>0</ele>
        <time>2020-07-26T08:46:58Z</time>
      </trkpt>
      <trkpt lat="51.222812234515" lon="4.45424894832">
        <ele>0</ele>
        <time>2020-07-26T08:47:08Z</time>
      </trkpt>
      <trkpt lat="51.222259196753" lon="4.454249870329">
        <ele>0</ele>
        <time>2020-07-26T08:47:18Z</time>
      </trkpt>
      <trkpt lat="51.221705236982" lon="4.454211481227">
        <ele>0</ele>
        <time>2020-07-26T08:47:29Z</time>
      </trkpt>
      <trkpt lat="51.221197629118" lon="4.454188682459">
        <ele>0</ele>
        <time>2020-07-26T08:47:40Z</time>
      </trkpt>
      <trkpt lat="51.220635957999" lon="4.454310303828">
        <ele>0</ele>
        <time>2020-07-26T08:47:54Z</time>
      </trkpt>
      <trkpt lat="51.220478713555" lon="4.454539548793">
        <ele>0</ele>
        <time>2020-07-26T08:47:59Z</time>
      </trkpt>
      <trkpt lat="51.220151484179" lon="4.455064674828">
        <ele>0</ele>
        <time>2020-07-26T08:48:07Z</time>
      </trkpt>
      <trkpt lat="51.219671201309" lon="4.455614611287">
        <ele>11.4</ele>
        <time>2020-07-26T08:48:53Z</time>
      </trkpt>
      <trkpt lat="51.219184212919" lon="4.456048961345">
        <ele>21</ele>
        <time>2020-07-26T08:49:06Z</time>
      </trkpt>
      <trkpt lat="51.218688255896" lon="4.456450119079">
        <ele>20.2</ele>
        <time>2020-07-26T08:49:17Z</time>
      </trkpt>
      <trkpt lat="51.218190119579" lon="4.456894359779">
        <ele>12.8</ele>
        <time>2020-07-26T08:49:30Z</time>
      </trkpt>
      <trkpt lat="51.217780579945" lon="4.457543202658">
        <ele>5.4</ele>
        <time>2020-07-26T08:49:47Z</time>
      </trkpt>
      <trkpt lat="51.217743699585" lon="4.457592320592">
        <ele>4.6</ele>
        <time>2020-07-26T08:49:48Z</time>
      </trkpt>
      <trkpt lat="51.217429881249" lon="4.458085763045">
        <ele>1.2</ele>
        <time>2020-07-26T08:49:56Z</time>
      </trkpt>
      <trkpt lat="51.217093515602" lon="4.458797889269">
        <ele>0</ele>
        <time>2020-07-26T08:50:05Z</time>
      </trkpt>
      <trkpt lat="51.216834347254" lon="4.459267024212">
        <ele>0</ele>
        <time>2020-07-26T08:50:12Z</time>
      </trkpt>
      <trkpt lat="51.216505106222" lon="4.460021646669">
        <ele>0</ele>
        <time>2020-07-26T08:50:22Z</time>
      </trkpt>
      <trkpt lat="51.216194640646" lon="4.460795547496">
        <ele>0</ele>
        <time>2020-07-26T08:50:32Z</time>
      </trkpt>
      <trkpt lat="51.215867662727" lon="4.461578836051">
        <ele>0</ele>
        <time>2020-07-26T08:50:42Z</time>
      </trkpt>
      <trkpt lat="51.215530542709" lon="4.462260535978">
        <ele>0</ele>
        <time>2020-07-26T08:50:52Z</time>
      </trkpt>
      <trkpt lat="51.215465331527" lon="4.462400597527">
        <ele>0</ele>
        <time>2020-07-26T08:50:54Z</time>
      </trkpt>
      <trkpt lat="51.215378075948" lon="4.462903343889">
        <ele>0</ele>
        <time>2020-07-26T08:51:03Z</time>
      </trkpt>
      <trkpt lat="51.215402299639" lon="4.462896219274">
        <ele>0</ele>
        <time>2020-07-26T08:51:04Z</time>
      </trkpt>
      <trkpt lat="51.215617379193" lon="4.46296863889">
        <ele>0.6</ele>
        <time>2020-07-26T08:51:13Z</time>
      </trkpt>
      <trkpt lat="51.215774288361" lon="4.463144574971">
        <ele>0</ele>
        <time>2020-07-26T08:51:18Z</time>
      </trkpt>
      <trkpt lat="51.215871769858" lon="4.463179695132">
        <ele>0</ele>
        <time>2020-07-26T08:51:20Z</time>
      </trkpt>
      <trkpt lat="51.215970257183" lon="4.463183299349">
        <ele>0</ele>
        <time>2020-07-26T08:51:22Z</time>
      </trkpt>
      <trkpt lat="51.216524468411" lon="4.463172402879">
        <ele>0</ele>
        <time>2020-07-26T08:51:32Z</time>
      </trkpt>
      <trkpt lat="51.217094269973" lon="4.463171816146">
        <ele>0</ele>
        <time>2020-07-26T08:51:43Z</time>
      </trkpt>
      <trkpt lat="51.217656192549" lon="4.463145161704">
        <ele>0</ele>
        <time>2020-07-26T08:51:55Z</time>
      </trkpt>
      <trkpt lat="51.217711848365" lon="4.463221185537">
        <ele>0</ele>
        <time>2020-07-26T08:51:57Z</time>
      </trkpt>
      <trkpt lat="51.217685613018" lon="4.464115534267">
        <ele>5.2</ele>
        <time>2020-07-26T08:52:10Z</time>
      </trkpt>
      <trkpt lat="51.217655605816" lon="4.465008458074">
        <ele>12</ele>
        <time>2020-07-26T08:52:20Z</time>
      </trkpt>
      <trkpt lat="51.217640099301" lon="4.465940190078">
        <ele>15.8</ele>
        <time>2020-07-26T08:52:30Z</time>
      </trkpt>
      <trkpt lat="51.217591987195" lon="4.466613340467">
        <ele>22</ele>
        <time>2020-07-26T08:52:37Z</time>
      </trkpt>
      <trkpt lat="51.217496601173" lon="4.467506934826">
        <ele>27.4</ele>
        <time>2020-07-26T08:52:47Z</time>
      </trkpt>
      <trkpt lat="51.217441615909" lon="4.467922593247">
        <ele>30.2</ele>
        <time>2020-07-26T08:52:52Z</time>
      </trkpt>
      <trkpt lat="51.217429965068" lon="4.468140355009">
        <ele>32.6</ele>
        <time>2020-07-26T08:52:55Z</time>
      </trkpt>
      <trkpt lat="51.217404148816" lon="4.469271157138">
        <ele>30.8</ele>
        <time>2020-07-26T08:53:14Z</time>
      </trkpt>
      <trkpt lat="51.217336842159" lon="4.470145892222">
        <ele>38.2</ele>
        <time>2020-07-26T08:53:26Z</time>
      </trkpt>
      <trkpt lat="51.217286383121" lon="4.471003947325">
        <ele>35.6</ele>
        <time>2020-07-26T08:53:35Z</time>
      </trkpt>
      <trkpt lat="51.217277917402" lon="4.471948000722">
        <ele>28.6</ele>
        <time>2020-07-26T08:53:46Z</time>
      </trkpt>
      <trkpt lat="51.217241959051" lon="4.472810414413">
        <ele>28.4</ele>
        <time>2020-07-26T08:53:55Z</time>
      </trkpt>
      <trkpt lat="51.217292837184" lon="4.473704595505">
        <ele>9</ele>
        <time>2020-07-26T08:54:05Z</time>
      </trkpt>
      <trkpt lat="51.21723366097" lon="4.474572457431">
        <ele>9.2</ele>
        <time>2020-07-26T08:54:15Z</time>
      </trkpt>
      <trkpt lat="51.21716912034" lon="4.475484575789">
        <ele>14.6</ele>
        <time>2020-07-26T08:54:26Z</time>
      </trkpt>
      <trkpt lat="51.217122600795" lon="4.476383786021">
        <ele>17.8</ele>
        <time>2020-07-26T08:54:36Z</time>
      </trkpt>
      <trkpt lat="51.217119164216" lon="4.477283666805">
        <ele>12.2</ele>
        <time>2020-07-26T08:54:45Z</time>
      </trkpt>
      <trkpt lat="51.217087564453" lon="4.478180613924">
        <ele>10.6</ele>
        <time>2020-07-26T08:54:54Z</time>
      </trkpt>
      <trkpt lat="51.217034842302" lon="4.47905350499">
        <ele>7.4</ele>
        <time>2020-07-26T08:55:03Z</time>
      </trkpt>
      <trkpt lat="51.21698890949" lon="4.479951541756">
        <ele>6.8</ele>
        <time>2020-07-26T08:55:13Z</time>
      </trkpt>
      <trkpt lat="51.216960494849" lon="4.480851171083">
        <ele>5.6</ele>
        <time>2020-07-26T08:55:24Z</time>
      </trkpt>
      <trkpt lat="51.216962590324" lon="4.481546533507">
        <ele>6</ele>
        <time>2020-07-26T08:55:33Z</time>
      </trkpt>
      <trkpt lat="51.216988825671" lon="4.481693971128">
        <ele>5.2</ele>
        <time>2020-07-26T08:55:35Z</time>
      </trkpt>
      <trkpt lat="51.217064262771" lon="4.481817520334">
        <ele>4.6</ele>
        <time>2020-07-26T08:55:38Z</time>
      </trkpt>
      <trkpt lat="51.217593412118" lon="4.481594980889">
        <ele>4.2</ele>
        <time>2020-07-26T08:55:50Z</time>
      </trkpt>
      <trkpt lat="51.218141588378" lon="4.481335812541">
        <ele>6.4</ele>
        <time>2020-07-26T08:56:01Z</time>
      </trkpt>
      <trkpt lat="51.218691776294" lon="4.481062730239">
        <ele>6.8</ele>
        <time>2020-07-26T08:56:12Z</time>
      </trkpt>
      <trkpt lat="51.219209442438" lon="4.480803813348">
        <ele>6</ele>
        <time>2020-07-26T08:56:23Z</time>
      </trkpt>
      <trkpt lat="51.219266942272" lon="4.480746397333">
        <ele>6.6</ele>
        <time>2020-07-26T08:56:25Z</time>
      </trkpt>
      <trkpt lat="51.219495684323" lon="4.481252580274">
        <ele>7.2</ele>
        <time>2020-07-26T08:57:31Z</time>
      </trkpt>
      <trkpt lat="51.219700370321" lon="4.482111473567">
        <ele>5.4</ele>
        <time>2020-07-26T08:57:44Z</time>
      </trkpt>
      <trkpt lat="51.219874210927" lon="4.483014539473">
        <ele>5</ele>
        <time>2020-07-26T08:57:55Z</time>
      </trkpt>
      <trkpt lat="51.220047380981" lon="4.483878042811">
        <ele>4.2</ele>
        <time>2020-07-26T08:58:05Z</time>
      </trkpt>
      <trkpt lat="51.220241505785" lon="4.484753783723">
        <ele>4.6</ele>
        <time>2020-07-26T08:58:15Z</time>
      </trkpt>
      <trkpt lat="51.220462033574" lon="4.485615023948">
        <ele>8</ele>
        <time>2020-07-26T08:58:25Z</time>
      </trkpt>
      <trkpt lat="51.220580218364" lon="4.486455728518">
        <ele>12.6</ele>
        <time>2020-07-26T08:58:34Z</time>
      </trkpt>
      <trkpt lat="51.220700750086" lon="4.487344377556">
        <ele>9</ele>
        <time>2020-07-26T08:58:44Z</time>
      </trkpt>
      <trkpt lat="51.220837375056" lon="4.488177706054">
        <ele>7.6</ele>
        <time>2020-07-26T08:58:53Z</time>
      </trkpt>
      <trkpt lat="51.221018424096" lon="4.489036264071">
        <ele>6.6</ele>
        <time>2020-07-26T08:59:02Z</time>
      </trkpt>
      <trkpt lat="51.221198048213" lon="4.489905467101">
        <ele>6</ele>
        <time>2020-07-26T08:59:11Z</time>
      </trkpt>
      <trkpt lat="51.221360657073" lon="4.490788835542">
        <ele>4.2</ele>
        <time>2020-07-26T08:59:20Z</time>
      </trkpt>
      <trkpt lat="51.221541287018" lon="4.491669186499">
        <ele>3.6</ele>
        <time>2020-07-26T08:59:29Z</time>
      </trkpt>
      <trkpt lat="51.221724766809" lon="4.492574431699">
        <ele>2.6</ele>
        <time>2020-07-26T08:59:39Z</time>
      </trkpt>
      <trkpt lat="51.221897517768" lon="4.493467606963">
        <ele>2</ele>
        <time>2020-07-26T08:59:49Z</time>
      </trkpt>
      <trkpt lat="51.222056270954" lon="4.494351729775">
        <ele>1.4</ele>
        <time>2020-07-26T08:59:59Z</time>
      </trkpt>
      <trkpt lat="51.222218628357" lon="4.495179190943">
        <ele>0.8</ele>
        <time>2020-07-26T09:00:08Z</time>
      </trkpt>
      <trkpt lat="51.222394983533" lon="4.496038000417">
        <ele>0.4</ele>
        <time>2020-07-26T09:00:17Z</time>
      </trkpt>
      <trkpt lat="51.222567734492" lon="4.496934193165">
        <ele>0</ele>
        <time>2020-07-26T09:00:26Z</time>
      </trkpt>
      <trkpt lat="51.222676280097" lon="4.497573899773">
        <ele>0.4</ele>
        <time>2020-07-26T09:00:33Z</time>
      </trkpt>
      <trkpt lat="51.222865627218" lon="4.498421477501">
        <ele>1</ele>
        <time>2020-07-26T09:03:18Z</time>
      </trkpt>
      <trkpt lat="51.223053465597" lon="4.49929998444">
        <ele>0.6</ele>
        <time>2020-07-26T09:03:32Z</time>
      </trkpt>
      <trkpt lat="51.223218169932" lon="4.500117890242">
        <ele>0.4</ele>
        <time>2020-07-26T09:03:41Z</time>
      </trkpt>
      <trkpt lat="51.223377342213" lon="4.500973766051">
        <ele>0.4</ele>
        <time>2020-07-26T09:03:50Z</time>
      </trkpt>
      <trkpt lat="51.22344883982" lon="4.501361764202">
        <ele>0.4</ele>
        <time>2020-07-26T09:03:54Z</time>
      </trkpt>
      <trkpt lat="51.223470968036" lon="4.501614981401">
        <ele>0.2</ele>
        <time>2020-07-26T09:03:57Z</time>
      </trkpt>
      <trkpt lat="51.223640533873" lon="4.502435820868">
        <ele>1</ele>
        <time>2020-07-26T09:04:08Z</time>
      </trkpt>
      <trkpt lat="51.223823929845" lon="4.503296725817">
        <ele>1.4</ele>
        <time>2020-07-26T09:04:17Z</time>
      </trkpt>
      <trkpt lat="51.224012690233" lon="4.504155535291">
        <ele>2.6</ele>
        <time>2020-07-26T09:04:26Z</time>
      </trkpt>
      <trkpt lat="51.224186195563" lon="4.50500135282">
        <ele>2</ele>
        <time>2020-07-26T09:04:35Z</time>
      </trkpt>
      <trkpt lat="51.224359533255" lon="4.505889918039">
        <ele>1.6</ele>
        <time>2020-07-26T09:04:44Z</time>
      </trkpt>
      <trkpt lat="51.224536642802" lon="4.506764401666">
        <ele>1</ele>
        <time>2020-07-26T09:04:53Z</time>
      </trkpt>
      <trkpt lat="51.224711656874" lon="4.50763829856">
        <ele>1.2</ele>
        <time>2020-07-26T09:05:02Z</time>
      </trkpt>
      <trkpt lat="51.224879797788" lon="4.508496856577">
        <ele>1.2</ele>
        <time>2020-07-26T09:05:11Z</time>
      </trkpt>
      <trkpt lat="51.225055230955" lon="4.509368909453">
        <ele>1.4</ele>
        <time>2020-07-26T09:05:20Z</time>
      </trkpt>
      <trkpt lat="51.225253881985" lon="4.510239285949">
        <ele>2</ele>
        <time>2020-07-26T09:05:30Z</time>
      </trkpt>
      <trkpt lat="51.225449180255" lon="4.511046546738">
        <ele>2.2</ele>
        <time>2020-07-26T09:05:39Z</time>
      </trkpt>
      <trkpt lat="51.225642550688" lon="4.511880461969">
        <ele>2</ele>
        <time>2020-07-26T09:05:48Z</time>
      </trkpt>
      <trkpt lat="51.225830556705" lon="4.512743797669">
        <ele>2.4</ele>
        <time>2020-07-26T09:05:58Z</time>
      </trkpt>
      <trkpt lat="51.226019400912" lon="4.513641499159">
        <ele>4.8</ele>
        <time>2020-07-26T09:06:08Z</time>
      </trkpt>
      <trkpt lat="51.226190810767" lon="4.514533920052">
        <ele>4.2</ele>
        <time>2020-07-26T09:06:18Z</time>
      </trkpt>
      <trkpt lat="51.226344534813" lon="4.515390131137">
        <ele>3.6</ele>
        <time>2020-07-26T09:06:27Z</time>
      </trkpt>
      <trkpt lat="51.22650739513" lon="4.516222537626">
        <ele>4</ele>
        <time>2020-07-26T09:06:36Z</time>
      </trkpt>
      <trkpt lat="51.22669012055" lon="4.5171064928">
        <ele>8.2</ele>
        <time>2020-07-26T09:06:45Z</time>
      </trkpt>
      <trkpt lat="51.226799420526" lon="4.517970331414">
        <ele>9.6</ele>
        <time>2020-07-26T09:06:54Z</time>
      </trkpt>
      <trkpt lat="51.226861446586" lon="4.518888652378">
        <ele>5.4</ele>
        <time>2020-07-26T09:07:03Z</time>
      </trkpt>
      <trkpt lat="51.22699019257" lon="4.519784845126">
        <ele>4.4</ele>
        <time>2020-07-26T09:07:12Z</time>
      </trkpt>
      <trkpt lat="51.227204182477" lon="4.520598643797">
        <ele>8.6</ele>
        <time>2020-07-26T09:07:20Z</time>
      </trkpt>
      <trkpt lat="51.227371401382" lon="4.521524340833">
        <ele>12</ele>
        <time>2020-07-26T09:07:29Z</time>
      </trkpt>
      <trkpt lat="51.227527220903" lon="4.522363871937">
        <ele>14.2</ele>
        <time>2020-07-26T09:07:38Z</time>
      </trkpt>
      <trkpt lat="51.227560748503" lon="4.52298891022">
        <ele>13.4</ele>
        <time>2020-07-26T09:07:45Z</time>
      </trkpt>
      <trkpt lat="51.22754255978" lon="4.523235254261">
        <ele>12.4</ele>
        <time>2020-07-26T09:07:48Z</time>
      </trkpt>
      <trkpt lat="51.227648926091" lon="4.523918043835">
        <ele>9.6</ele>
        <time>2020-07-26T09:07:56Z</time>
      </trkpt>
      <trkpt lat="51.227731068711" lon="4.524167656817">
        <ele>9</ele>
        <time>2020-07-26T09:07:59Z</time>
      </trkpt>
      <trkpt lat="51.227916727796" lon="4.525039877331">
        <ele>6.2</ele>
        <time>2020-07-26T09:08:08Z</time>
      </trkpt>
      <trkpt lat="51.22805804663" lon="4.5259493973">
        <ele>4.6</ele>
        <time>2020-07-26T09:08:17Z</time>
      </trkpt>
      <trkpt lat="51.228191402659" lon="4.526850954464">
        <ele>3.4</ele>
        <time>2020-07-26T09:08:27Z</time>
      </trkpt>
      <trkpt lat="51.228317382616" lon="4.527719989856">
        <ele>3.2</ele>
        <time>2020-07-26T09:08:37Z</time>
      </trkpt>
      <trkpt lat="51.228357531917" lon="4.528147299118">
        <ele>2.6</ele>
        <time>2020-07-26T09:08:41Z</time>
      </trkpt>
      <trkpt lat="51.22837152969" lon="4.529056651449">
        <ele>5</ele>
        <time>2020-07-26T09:08:51Z</time>
      </trkpt>
      <trkpt lat="51.228327440896" lon="4.52995762188">
        <ele>0.4</ele>
        <time>2020-07-26T09:09:00Z</time>
      </trkpt>
      <trkpt lat="51.228271449804" lon="4.530600765067">
        <ele>0</ele>
        <time>2020-07-26T09:09:07Z</time>
      </trkpt>
      <trkpt lat="51.227880937083" lon="4.531130333509">
        <ele>4</ele>
        <time>2020-07-26T09:09:23Z</time>
      </trkpt>
      <trkpt lat="51.227758393705" lon="4.531085657982">
        <ele>4.2</ele>
        <time>2020-07-26T09:09:28Z</time>
      </trkpt>
      <trkpt lat="51.227671808678" lon="4.531120023772">
        <ele>3</ele>
        <time>2020-07-26T09:09:32Z</time>
      </trkpt>
      <trkpt lat="51.227646662978" lon="4.53119981946">
        <ele>2.6</ele>
        <time>2020-07-26T09:09:34Z</time>
      </trkpt>
      <trkpt lat="51.227639286906" lon="4.531574155114">
        <ele>2</ele>
        <time>2020-07-26T09:09:40Z</time>
      </trkpt>
      <trkpt lat="51.227683040424" lon="4.53187959155">
        <ele>2.4</ele>
        <time>2020-07-26T09:09:44Z</time>
      </trkpt>
      <trkpt lat="51.22767331742" lon="4.53212434303">
        <ele>3.2</ele>
        <time>2020-07-26T09:09:47Z</time>
      </trkpt>
      <trkpt lat="51.22743443327" lon="4.532912325449">
        <ele>5.2</ele>
        <time>2020-07-26T09:09:57Z</time>
      </trkpt>
      <trkpt lat="51.227185826116" lon="4.533732075269">
        <ele>4.6</ele>
        <time>2020-07-26T09:10:07Z</time>
      </trkpt>
      <trkpt lat="51.226923556465" lon="4.534554842573">
        <ele>4.6</ele>
        <time>2020-07-26T09:10:19Z</time>
      </trkpt>
      <trkpt lat="51.226687522161" lon="4.535322540794">
        <ele>1.8</ele>
        <time>2020-07-26T09:10:32Z</time>
      </trkpt>
      <trkpt lat="51.2264093269" lon="4.536154025274">
        <ele>0.6</ele>
        <time>2020-07-26T09:10:42Z</time>
      </trkpt>
      <trkpt lat="51.226140770824" lon="4.536986934677">
        <ele>0</ele>
        <time>2020-07-26T09:10:51Z</time>
      </trkpt>
      <trkpt lat="51.225869867816" lon="4.53781649132">
        <ele>0</ele>
        <time>2020-07-26T09:11:00Z</time>
      </trkpt>
      <trkpt lat="51.225611453839" lon="4.53864378485">
        <ele>0.6</ele>
        <time>2020-07-26T09:11:09Z</time>
      </trkpt>
      <trkpt lat="51.225359577744" lon="4.539430761441">
        <ele>1.8</ele>
        <time>2020-07-26T09:11:18Z</time>
      </trkpt>
      <trkpt lat="51.225173751021" lon="4.540339862315">
        <ele>2.2</ele>
        <time>2020-07-26T09:11:27Z</time>
      </trkpt>
      <trkpt lat="51.224963030055" lon="4.541201186359">
        <ele>2.2</ele>
        <time>2020-07-26T09:11:36Z</time>
      </trkpt>
      <trkpt lat="51.22469522835" lon="4.542058487091">
        <ele>1.8</ele>
        <time>2020-07-26T09:11:45Z</time>
      </trkpt>
      <trkpt lat="51.224468246498" lon="4.542911261597">
        <ele>2.2</ele>
        <time>2020-07-26T09:11:55Z</time>
      </trkpt>
      <trkpt lat="51.224375375046" lon="4.543281741577">
        <ele>2</ele>
        <time>2020-07-26T09:12:01Z</time>
      </trkpt>
      <trkpt lat="51.224627502598" lon="4.543309737123">
        <ele>3.2</ele>
        <time>2020-07-26T09:12:46Z</time>
      </trkpt>
      <trkpt lat="51.224590789876" lon="4.543721120775">
        <ele>3.2</ele>
        <time>2020-07-26T09:12:51Z</time>
      </trkpt>
      <trkpt lat="51.224391216837" lon="4.544586971045">
        <ele>3</ele>
        <time>2020-07-26T09:13:03Z</time>
      </trkpt>
      <trkpt lat="51.224132383765" lon="4.545351148868">
        <ele>3.2</ele>
        <time>2020-07-26T09:13:12Z</time>
      </trkpt>
      <trkpt lat="51.22385703835" lon="4.546185734651">
        <ele>2.4</ele>
        <time>2020-07-26T09:13:21Z</time>
      </trkpt>
      <trkpt lat="51.223613627974" lon="4.54699802458">
        <ele>2.6</ele>
        <time>2020-07-26T09:13:31Z</time>
      </trkpt>
      <trkpt lat="51.223356219825" lon="4.547799250401">
        <ele>4</ele>
        <time>2020-07-26T09:13:41Z</time>
      </trkpt>
      <trkpt lat="51.223115324019" lon="4.548571558667">
        <ele>4.2</ele>
        <time>2020-07-26T09:13:50Z</time>
      </trkpt>
      <trkpt lat="51.222866884503" lon="4.54935585305">
        <ele>4.2</ele>
        <time>2020-07-26T09:13:59Z</time>
      </trkpt>
      <trkpt lat="51.222586007034" lon="4.550116007561">
        <ele>4.4</ele>
        <time>2020-07-26T09:14:08Z</time>
      </trkpt>
      <trkpt lat="51.222301609167" lon="4.550883286687">
        <ele>5.2</ele>
        <time>2020-07-26T09:14:17Z</time>
      </trkpt>
      <trkpt lat="51.222030538521" lon="4.551753244088">
        <ele>5.2</ele>
        <time>2020-07-26T09:14:26Z</time>
      </trkpt>
      <trkpt lat="51.221779668254" lon="4.552545668914">
        <ele>5.2</ele>
        <time>2020-07-26T09:14:34Z</time>
      </trkpt>
      <trkpt lat="51.221538185715" lon="4.553319150646">
        <ele>4.8</ele>
        <time>2020-07-26T09:14:42Z</time>
      </trkpt>
      <trkpt lat="51.221255715685" lon="4.554147198547">
        <ele>4.8</ele>
        <time>2020-07-26T09:14:51Z</time>
      </trkpt>
      <trkpt lat="51.22101222149" lon="4.554929732731">
        <ele>6.4</ele>
        <time>2020-07-26T09:15:00Z</time>
      </trkpt>
      <trkpt lat="51.220737546627" lon="4.555719307711">
        <ele>6.4</ele>
        <time>2020-07-26T09:15:09Z</time>
      </trkpt>
      <trkpt lat="51.220466811257" lon="4.556564706145">
        <ele>4.4</ele>
        <time>2020-07-26T09:15:18Z</time>
      </trkpt>
      <trkpt lat="51.220218371741" lon="4.557414798443">
        <ele>5.6</ele>
        <time>2020-07-26T09:15:27Z</time>
      </trkpt>
      <trkpt lat="51.219972111519" lon="4.558235889367">
        <ele>7.8</ele>
        <time>2020-07-26T09:15:36Z</time>
      </trkpt>
      <trkpt lat="51.219736915405" lon="4.559018926465">
        <ele>8.6</ele>
        <time>2020-07-26T09:15:45Z</time>
      </trkpt>
      <trkpt lat="51.219475483944" lon="4.559860301587">
        <ele>9.8</ele>
        <time>2020-07-26T09:15:55Z</time>
      </trkpt>
      <trkpt lat="51.219214639216" lon="4.560613834397">
        <ele>9.6</ele>
        <time>2020-07-26T09:16:04Z</time>
      </trkpt>
      <trkpt lat="51.218938874706" lon="4.561389495423">
        <ele>7.2</ele>
        <time>2020-07-26T09:16:13Z</time>
      </trkpt>
      <trkpt lat="51.218677946159" lon="4.562189966873">
        <ele>7</ele>
        <time>2020-07-26T09:16:22Z</time>
      </trkpt>
      <trkpt lat="51.218415341232" lon="4.563035449126">
        <ele>4.4</ele>
        <time>2020-07-26T09:16:31Z</time>
      </trkpt>
      <trkpt lat="51.217890131378" lon="4.564678720621">
        <ele>4.6</ele>
        <time>2020-07-26T09:16:49Z</time>
      </trkpt>
      <trkpt lat="51.217630543935" lon="4.565503415762">
        <ele>3.8</ele>
        <time>2020-07-26T09:16:58Z</time>
      </trkpt>
      <trkpt lat="51.217364167153" lon="4.566321573021">
        <ele>3.4</ele>
        <time>2020-07-26T09:17:07Z</time>
      </trkpt>
      <trkpt lat="51.21711128523" lon="4.567127660344">
        <ele>3.6</ele>
        <time>2020-07-26T09:17:16Z</time>
      </trkpt>
      <trkpt lat="51.216852955072" lon="4.567911451813">
        <ele>4.4</ele>
        <time>2020-07-26T09:17:25Z</time>
      </trkpt>
      <trkpt lat="51.216584482815" lon="4.568699015137">
        <ele>3.6</ele>
        <time>2020-07-26T09:17:34Z</time>
      </trkpt>
      <trkpt lat="51.216329421598" lon="4.569539132974">
        <ele>2.4</ele>
        <time>2020-07-26T09:17:43Z</time>
      </trkpt>
      <trkpt lat="51.216081401177" lon="4.570316051285">
        <ele>3</ele>
        <time>2020-07-26T09:17:52Z</time>
      </trkpt>
      <trkpt lat="51.215841930294" lon="4.571095316528">
        <ele>4.2</ele>
        <time>2020-07-26T09:18:01Z</time>
      </trkpt>
      <trkpt lat="51.215578990091" lon="4.571894614512">
        <ele>4.2</ele>
        <time>2020-07-26T09:18:10Z</time>
      </trkpt>
      <trkpt lat="51.215315546974" lon="4.572706904441">
        <ele>3.4</ele>
        <time>2020-07-26T09:18:19Z</time>
      </trkpt>
      <trkpt lat="51.215062413594" lon="4.573496479421">
        <ele>2.8</ele>
        <time>2020-07-26T09:18:28Z</time>
      </trkpt>
      <trkpt lat="51.214819757589" lon="4.574267111307">
        <ele>3.2</ele>
        <time>2020-07-26T09:18:37Z</time>
      </trkpt>
      <trkpt lat="51.214583807104" lon="4.57504134741">
        <ele>2.6</ele>
        <time>2020-07-26T09:18:46Z</time>
      </trkpt>
      <trkpt lat="51.214531504048" lon="4.575192053972">
        <ele>1.8</ele>
        <time>2020-07-26T09:18:48Z</time>
      </trkpt>
      <trkpt lat="51.214403344797" lon="4.575462789342">
        <ele>2.2</ele>
        <time>2020-07-26T09:18:52Z</time>
      </trkpt>
      <trkpt lat="51.214142751526" lon="4.576288490311">
        <ele>2.8</ele>
        <time>2020-07-26T09:19:02Z</time>
      </trkpt>
      <trkpt lat="51.214009814592" lon="4.576603901208">
        <ele>4</ele>
        <time>2020-07-26T09:19:06Z</time>
      </trkpt>
      <trkpt lat="51.213919290072" lon="4.576821076237">
        <ele>3.8</ele>
        <time>2020-07-26T09:19:09Z</time>
      </trkpt>
      <trkpt lat="51.213675292963" lon="4.577493388436">
        <ele>5.2</ele>
        <time>2020-07-26T09:19:19Z</time>
      </trkpt>
      <trkpt lat="51.213608070125" lon="4.577881051311">
        <ele>4.6</ele>
        <time>2020-07-26T09:19:25Z</time>
      </trkpt>
      <trkpt lat="51.213531291921" lon="4.578071152803">
        <ele>4.2</ele>
        <time>2020-07-26T09:19:28Z</time>
      </trkpt>
      <trkpt lat="51.21325225847" lon="4.57892384349">
        <ele>2.8</ele>
        <time>2020-07-26T09:19:38Z</time>
      </trkpt>
      <trkpt lat="51.212996442882" lon="4.579744263862">
        <ele>2</ele>
        <time>2020-07-26T09:19:47Z</time>
      </trkpt>
      <trkpt lat="51.212743896235" lon="4.580528055331">
        <ele>2.8</ele>
        <time>2020-07-26T09:19:56Z</time>
      </trkpt>
      <trkpt lat="51.212485985172" lon="4.581332717731">
        <ele>3.8</ele>
        <time>2020-07-26T09:20:05Z</time>
      </trkpt>
      <trkpt lat="51.212215752716" lon="4.582166884419">
        <ele>4.8</ele>
        <time>2020-07-26T09:20:14Z</time>
      </trkpt>
      <trkpt lat="51.211942335138" lon="4.582970038077">
        <ele>4.8</ele>
        <time>2020-07-26T09:20:23Z</time>
      </trkpt>
      <trkpt lat="51.211677886193" lon="4.583787440965">
        <ele>4</ele>
        <time>2020-07-26T09:20:32Z</time>
      </trkpt>
      <trkpt lat="51.211421064777" lon="4.58460844807">
        <ele>4</ele>
        <time>2020-07-26T09:20:41Z</time>
      </trkpt>
      <trkpt lat="51.211173379632" lon="4.585411853185">
        <ele>5.6</ele>
        <time>2020-07-26T09:20:50Z</time>
      </trkpt>
      <trkpt lat="51.210914211284" lon="4.586225651856">
        <ele>5.8</ele>
        <time>2020-07-26T09:20:59Z</time>
      </trkpt>
      <trkpt lat="51.210657473687" lon="4.587007180212">
        <ele>7</ele>
        <time>2020-07-26T09:21:08Z</time>
      </trkpt>
      <trkpt lat="51.210402496289" lon="4.587847884782">
        <ele>5.4</ele>
        <time>2020-07-26T09:21:18Z</time>
      </trkpt>
      <trkpt lat="51.210161684302" lon="4.588620276867">
        <ele>4</ele>
        <time>2020-07-26T09:21:27Z</time>
      </trkpt>
      <trkpt lat="51.209884159593" lon="4.589409097476">
        <ele>3.8</ele>
        <time>2020-07-26T09:21:36Z</time>
      </trkpt>
      <trkpt lat="51.209616274069" lon="4.590212334953">
        <ele>4.8</ele>
        <time>2020-07-26T09:21:45Z</time>
      </trkpt>
      <trkpt lat="51.209352328038" lon="4.590980955183">
        <ele>5</ele>
        <time>2020-07-26T09:21:54Z</time>
      </trkpt>
      <trkpt lat="51.20908645417" lon="4.591807326704">
        <ele>4.2</ele>
        <time>2020-07-26T09:22:04Z</time>
      </trkpt>
      <trkpt lat="51.208838769025" lon="4.59258466411">
        <ele>3.2</ele>
        <time>2020-07-26T09:22:13Z</time>
      </trkpt>
      <trkpt lat="51.208584043084" lon="4.593361247145">
        <ele>5.4</ele>
        <time>2020-07-26T09:22:22Z</time>
      </trkpt>
      <trkpt lat="51.208322108709" lon="4.5941361538">
        <ele>5.6</ele>
        <time>2020-07-26T09:22:31Z</time>
      </trkpt>
      <trkpt lat="51.208062688904" lon="4.594963614968">
        <ele>4.8</ele>
        <time>2020-07-26T09:22:40Z</time>
      </trkpt>
      <trkpt lat="51.207790947706" lon="4.595825358107">
        <ele>2</ele>
        <time>2020-07-26T09:22:49Z</time>
      </trkpt>
      <trkpt lat="51.207530438254" lon="4.596675534224">
        <ele>4.4</ele>
        <time>2020-07-26T09:22:58Z</time>
      </trkpt>
      <trkpt lat="51.207230869148" lon="4.597489668171">
        <ele>2.6</ele>
        <time>2020-07-26T09:23:07Z</time>
      </trkpt>
      <trkpt lat="51.206959714683" lon="4.598347723274">
        <ele>4</ele>
        <time>2020-07-26T09:23:16Z</time>
      </trkpt>
      <trkpt lat="51.206740863274" lon="4.599143668498">
        <ele>8.8</ele>
        <time>2020-07-26T09:23:24Z</time>
      </trkpt>
      <trkpt lat="51.206497369079" lon="4.599923185198">
        <ele>11.6</ele>
        <time>2020-07-26T09:23:33Z</time>
      </trkpt>
      <trkpt lat="51.206278685308" lon="4.600589881524">
        <ele>13.2</ele>
        <time>2020-07-26T09:23:43Z</time>
      </trkpt>
      <trkpt lat="51.206230824659" lon="4.600842092895">
        <ele>14.4</ele>
        <time>2020-07-26T09:32:55Z</time>
      </trkpt>
      <trkpt lat="51.205938631625" lon="4.601615071713">
        <ele>14.6</ele>
        <time>2020-07-26T09:33:07Z</time>
      </trkpt>
      <trkpt lat="51.205666806608" lon="4.60241495643">
        <ele>14.2</ele>
        <time>2020-07-26T09:33:17Z</time>
      </trkpt>
      <trkpt lat="51.205406548613" lon="4.603182487013">
        <ele>14.2</ele>
        <time>2020-07-26T09:33:26Z</time>
      </trkpt>
      <trkpt lat="51.205266235607" lon="4.603619016365">
        <ele>14</ele>
        <time>2020-07-26T09:33:31Z</time>
      </trkpt>
      <trkpt lat="51.205216698578" lon="4.603806519468">
        <ele>13.6</ele>
        <time>2020-07-26T09:33:33Z</time>
      </trkpt>
      <trkpt lat="51.204952417271" lon="4.604657701413">
        <ele>11.6</ele>
        <time>2020-07-26T09:33:42Z</time>
      </trkpt>
      <trkpt lat="51.204818306871" lon="4.605042095347">
        <ele>10.4</ele>
        <time>2020-07-26T09:40:27Z</time>
      </trkpt>
      <trkpt lat="51.204456041153" lon="4.605796466347">
        <ele>9.2</ele>
        <time>2020-07-26T09:40:40Z</time>
      </trkpt>
      <trkpt lat="51.204258982684" lon="4.606202401764">
        <ele>8.4</ele>
        <time>2020-07-26T09:40:45Z</time>
      </trkpt>
      <trkpt lat="51.204002999458" lon="4.606996083875">
        <ele>7.8</ele>
        <time>2020-07-26T09:40:54Z</time>
      </trkpt>
      <trkpt lat="51.203740059255" lon="4.607795046583">
        <ele>7.2</ele>
        <time>2020-07-26T09:41:03Z</time>
      </trkpt>
      <trkpt lat="51.203479549803" lon="4.608617143335">
        <ele>5.8</ele>
        <time>2020-07-26T09:41:12Z</time>
      </trkpt>
      <trkpt lat="51.203217196333" lon="4.609423398296">
        <ele>5.4</ele>
        <time>2020-07-26T09:41:21Z</time>
      </trkpt>
      <trkpt lat="51.202952495931" lon="4.610221187538">
        <ele>5.4</ele>
        <time>2020-07-26T09:41:30Z</time>
      </trkpt>
      <trkpt lat="51.202701038931" lon="4.610992909071">
        <ele>5.4</ele>
        <time>2020-07-26T09:41:38Z</time>
      </trkpt>
      <trkpt lat="51.202461148953" lon="4.611782232594">
        <ele>5.4</ele>
        <time>2020-07-26T09:41:46Z</time>
      </trkpt>
      <trkpt lat="51.202217906215" lon="4.612562000751">
        <ele>6</ele>
        <time>2020-07-26T09:41:54Z</time>
      </trkpt>
      <trkpt lat="51.20195261908" lon="4.613338164691">
        <ele>5.8</ele>
        <time>2020-07-26T09:42:02Z</time>
      </trkpt>
      <trkpt lat="51.201694875655" lon="4.614103348342">
        <ele>5.2</ele>
        <time>2020-07-26T09:42:10Z</time>
      </trkpt>
      <trkpt lat="51.201447106691" lon="4.614879763739">
        <ele>5</ele>
        <time>2020-07-26T09:42:18Z</time>
      </trkpt>
      <trkpt lat="51.201196068786" lon="4.615649473616">
        <ele>5.2</ele>
        <time>2020-07-26T09:42:26Z</time>
      </trkpt>
      <trkpt lat="51.200929943461" lon="4.616487412159">
        <ele>5.8</ele>
        <time>2020-07-26T09:42:35Z</time>
      </trkpt>
      <trkpt lat="51.200665494516" lon="4.617313867499">
        <ele>6.2</ele>
        <time>2020-07-26T09:42:44Z</time>
      </trkpt>
      <trkpt lat="51.200403895417" lon="4.618148704739">
        <ele>6.4</ele>
        <time>2020-07-26T09:42:53Z</time>
      </trkpt>
      <trkpt lat="51.200127376536" lon="4.618993181164">
        <ele>6.2</ele>
        <time>2020-07-26T09:43:03Z</time>
      </trkpt>
      <trkpt lat="51.199851109112" lon="4.619807566568">
        <ele>6.2</ele>
        <time>2020-07-26T09:43:13Z</time>
      </trkpt>
      <trkpt lat="51.199583642683" lon="4.620613402434">
        <ele>6.6</ele>
        <time>2020-07-26T09:43:22Z</time>
      </trkpt>
      <trkpt lat="51.199331263674" lon="4.621421836689">
        <ele>6.8</ele>
        <time>2020-07-26T09:43:31Z</time>
      </trkpt>
      <trkpt lat="51.199067150005" lon="4.62222976803">
        <ele>6.6</ele>
        <time>2020-07-26T09:43:40Z</time>
      </trkpt>
      <trkpt lat="51.198814603358" lon="4.623086565848">
        <ele>6.4</ele>
        <time>2020-07-26T09:43:49Z</time>
      </trkpt>
      <trkpt lat="51.198580413072" lon="4.623967587357">
        <ele>6.6</ele>
        <time>2020-07-26T09:43:58Z</time>
      </trkpt>
      <trkpt lat="51.198444961568" lon="4.624455246299">
        <ele>6.8</ele>
        <time>2020-07-26T09:44:03Z</time>
      </trkpt>
      <trkpt lat="51.198203227572" lon="4.625305506235">
        <ele>7.2</ele>
        <time>2020-07-26T09:44:12Z</time>
      </trkpt>
      <trkpt lat="51.19797373115" lon="4.626160627673">
        <ele>7.6</ele>
        <time>2020-07-26T09:44:21Z</time>
      </trkpt>
      <trkpt lat="51.197750102058" lon="4.627022454631">
        <ele>8</ele>
        <time>2020-07-26T09:44:30Z</time>
      </trkpt>
      <trkpt lat="51.197685142333" lon="4.627320347357">
        <ele>7.2</ele>
        <time>2020-07-26T09:44:33Z</time>
      </trkpt>
      <trkpt lat="51.197595120727" lon="4.62743828069">
        <ele>6.8</ele>
        <time>2020-07-26T09:44:35Z</time>
      </trkpt>
      <trkpt lat="51.197481126887" lon="4.627496534895">
        <ele>7.2</ele>
        <time>2020-07-26T09:44:37Z</time>
      </trkpt>
      <trkpt lat="51.196989109357" lon="4.627635003883">
        <ele>7</ele>
        <time>2020-07-26T09:44:45Z</time>
      </trkpt>
      <trkpt lat="51.196892298412" lon="4.627730976638">
        <ele>6.4</ele>
        <time>2020-07-26T09:44:47Z</time>
      </trkpt>
      <trkpt lat="51.196818872968" lon="4.627890316557">
        <ele>5.4</ele>
        <time>2020-07-26T09:44:49Z</time>
      </trkpt>
      <trkpt lat="51.196711333191" lon="4.628353667989">
        <ele>4.2</ele>
        <time>2020-07-26T09:44:54Z</time>
      </trkpt>
      <trkpt lat="51.196611169486" lon="4.628782318355">
        <ele>5.6</ele>
        <time>2020-07-26T09:45:18Z</time>
      </trkpt>
      <trkpt lat="51.196458535087" lon="4.629467873956">
        <ele>5.2</ele>
        <time>2020-07-26T09:45:29Z</time>
      </trkpt>
      <trkpt lat="51.196463815684" lon="4.629635092861">
        <ele>4</ele>
        <time>2020-07-26T09:45:31Z</time>
      </trkpt>
      <trkpt lat="51.196517962758" lon="4.629779512998">
        <ele>3.4</ele>
        <time>2020-07-26T09:45:33Z</time>
      </trkpt>
      <trkpt lat="51.196813257095" lon="4.630249821407">
        <ele>0</ele>
        <time>2020-07-26T09:45:40Z</time>
      </trkpt>
      <trkpt lat="51.19686145302" lon="4.630440341994">
        <ele>0</ele>
        <time>2020-07-26T09:45:42Z</time>
      </trkpt>
      <trkpt lat="51.196860363373" lon="4.630655589186">
        <ele>0</ele>
        <time>2020-07-26T09:45:44Z</time>
      </trkpt>
      <trkpt lat="51.196788111395" lon="4.631605845189">
        <ele>0</ele>
        <time>2020-07-26T09:45:53Z</time>
      </trkpt>
      <trkpt lat="51.196646792561" lon="4.632481250825">
        <ele>0</ele>
        <time>2020-07-26T09:46:02Z</time>
      </trkpt>
      <trkpt lat="51.196501366596" lon="4.633335114978">
        <ele>0</ele>
        <time>2020-07-26T09:46:11Z</time>
      </trkpt>
      <trkpt lat="51.196380834874" lon="4.634262069299">
        <ele>0</ele>
        <time>2020-07-26T09:46:21Z</time>
      </trkpt>
      <trkpt lat="51.196276144943" lon="4.635196902606">
        <ele>1.2</ele>
        <time>2020-07-26T09:46:31Z</time>
      </trkpt>
      <trkpt lat="51.196192828857" lon="4.636133328474">
        <ele>2</ele>
        <time>2020-07-26T09:46:41Z</time>
      </trkpt>
      <trkpt lat="51.196107752572" lon="4.636994233423">
        <ele>4.2</ele>
        <time>2020-07-26T09:46:50Z</time>
      </trkpt>
      <trkpt lat="51.196042373752" lon="4.637861927711">
        <ele>4.8</ele>
        <time>2020-07-26T09:46:59Z</time>
      </trkpt>
      <trkpt lat="51.195974396543" lon="4.638524516906">
        <ele>4.2</ele>
        <time>2020-07-26T09:47:06Z</time>
      </trkpt>
      <trkpt lat="51.19591094556" lon="4.638784104349">
        <ele>3.6</ele>
        <time>2020-07-26T09:47:09Z</time>
      </trkpt>
      <trkpt lat="51.195809943665" lon="4.638896421809">
        <ele>3.2</ele>
        <time>2020-07-26T09:47:11Z</time>
      </trkpt>
      <trkpt lat="51.195669211564" lon="4.638904300795">
        <ele>2.4</ele>
        <time>2020-07-26T09:47:13Z</time>
      </trkpt>
      <trkpt lat="51.195537196639" lon="4.6388200627">
        <ele>1.8</ele>
        <time>2020-07-26T09:47:15Z</time>
      </trkpt>
      <trkpt lat="51.195431752337" lon="4.638681174617">
        <ele>1.6</ele>
        <time>2020-07-26T09:47:17Z</time>
      </trkpt>
      <trkpt lat="51.19518591121" lon="4.638513955712">
        <ele>1.4</ele>
        <time>2020-07-26T09:47:21Z</time>
      </trkpt>
      <trkpt lat="51.194615439096" lon="4.638348497006">
        <ele>1</ele>
        <time>2020-07-26T09:47:30Z</time>
      </trkpt>
      <trkpt lat="51.194041027489" lon="4.63816878907">
        <ele>1.2</ele>
        <time>2020-07-26T09:47:40Z</time>
      </trkpt>
      <trkpt lat="51.193936505196" lon="4.638150097433">
        <ele>1.4</ele>
        <time>2020-07-26T09:47:42Z</time>
      </trkpt>
      <trkpt lat="51.19384899816" lon="4.638191252562">
        <ele>1.8</ele>
        <time>2020-07-26T09:47:44Z</time>
      </trkpt>
      <trkpt lat="51.193783200245" lon="4.638300552538">
        <ele>2.2</ele>
        <time>2020-07-26T09:47:46Z</time>
      </trkpt>
      <trkpt lat="51.193765514436" lon="4.639173862699">
        <ele>0.2</ele>
        <time>2020-07-26T09:48:02Z</time>
      </trkpt>
      <trkpt lat="51.193732405931" lon="4.640057650235">
        <ele>5.2</ele>
        <time>2020-07-26T09:48:17Z</time>
      </trkpt>
      <trkpt lat="51.19368974206" lon="4.640136440095">
        <ele>5.8</ele>
        <time>2020-07-26T09:48:19Z</time>
      </trkpt>
      <trkpt lat="51.193574239478" lon="4.640054046018">
        <ele>8.2</ele>
        <time>2020-07-26T09:48:23Z</time>
      </trkpt>
      <trkpt lat="51.191906409016" lon="4.637156674645">
        <ele>4.6</ele>
        <time>2020-07-26T09:49:12Z</time>
      </trkpt>
      <trkpt lat="51.191878916384" lon="4.63716715202">
        <ele>4.6</ele>
        <time>2020-07-26T09:50:40Z</time>
      </trkpt>
      <trkpt lat="51.191820997455" lon="4.637240996559">
        <ele>4.8</ele>
        <time>2020-07-26T09:50:44Z</time>
      </trkpt>
      <trkpt lat="51.191810771537" lon="4.637307884121">
        <ele>4.6</ele>
        <time>2020-07-26T09:50:46Z</time>
      </trkpt>
      <trkpt lat="51.19188847175" lon="4.637591359979">
        <ele>3.8</ele>
        <time>2020-07-26T09:50:53Z</time>
      </trkpt>
      <trkpt lat="51.192040351778" lon="4.63790978836">
        <ele>0</ele>
        <time>2020-07-26T09:52:11Z</time>
      </trkpt>
      <trkpt lat="51.191881598592" lon="4.637786155335">
        <ele>1</ele>
        <time>2020-07-26T09:53:32Z</time>
      </trkpt>
      <trkpt lat="51.191674900938" lon="4.637035137095">
        <ele>7</ele>
        <time>2020-07-26T09:53:47Z</time>
      </trkpt>
      <trkpt lat="51.19164874941" lon="4.636890465501">
        <ele>6.8</ele>
        <time>2020-07-26T09:53:49Z</time>
      </trkpt>
      <trkpt lat="51.191625783004" lon="4.636737914921">
        <ele>6.6</ele>
        <time>2020-07-26T09:53:51Z</time>
      </trkpt>
      <trkpt lat="51.191566690609" lon="4.636598440105">
        <ele>6.6</ele>
        <time>2020-07-26T09:53:53Z</time>
      </trkpt>
      <trkpt lat="51.19120031776" lon="4.63589980874">
        <ele>7.6</ele>
        <time>2020-07-26T09:54:03Z</time>
      </trkpt>
      <trkpt lat="51.190805697908" lon="4.635195477683">
        <ele>12</ele>
        <time>2020-07-26T09:54:13Z</time>
      </trkpt>
      <trkpt lat="51.190421890707" lon="4.634491146626">
        <ele>14.4</ele>
        <time>2020-07-26T09:54:24Z</time>
      </trkpt>
      <trkpt lat="51.190041017171" lon="4.63382528849">
        <ele>10.8</ele>
        <time>2020-07-26T09:54:34Z</time>
      </trkpt>
      <trkpt lat="51.189613037357" lon="4.633199076741">
        <ele>7.2</ele>
        <time>2020-07-26T09:54:44Z</time>
      </trkpt>
      <trkpt lat="51.189154128332" lon="4.632593819742">
        <ele>2.6</ele>
        <time>2020-07-26T09:54:54Z</time>
      </trkpt>
      <trkpt lat="51.188748360553" lon="4.632018569945">
        <ele>2.8</ele>
        <time>2020-07-26T09:55:03Z</time>
      </trkpt>
      <trkpt lat="51.188462286306" lon="4.631696621166">
        <ele>1.8</ele>
        <time>2020-07-26T09:55:09Z</time>
      </trkpt>
      <trkpt lat="51.188092728335" lon="4.631194880632">
        <ele>0.2</ele>
        <time>2020-07-26T09:55:18Z</time>
      </trkpt>
      <trkpt lat="51.187985188558" lon="4.631227234766">
        <ele>0</ele>
        <time>2020-07-26T09:55:21Z</time>
      </trkpt>
      <trkpt lat="51.187930287113" lon="4.631350783972">
        <ele>0</ele>
        <time>2020-07-26T09:55:23Z</time>
      </trkpt>
      <trkpt lat="51.187881420636" lon="4.631605174637">
        <ele>0</ele>
        <time>2020-07-26T09:55:26Z</time>
      </trkpt>
      <trkpt lat="51.187888377613" lon="4.631784379659">
        <ele>0</ele>
        <time>2020-07-26T09:55:28Z</time>
      </trkpt>
      <trkpt lat="51.187999940702" lon="4.632698258216">
        <ele>0</ele>
        <time>2020-07-26T09:55:37Z</time>
      </trkpt>
      <trkpt lat="51.188138912604" lon="4.633627391831">
        <ele>0</ele>
        <time>2020-07-26T09:55:46Z</time>
      </trkpt>
      <trkpt lat="51.188276208126" lon="4.634550658116">
        <ele>0</ele>
        <time>2020-07-26T09:55:55Z</time>
      </trkpt>
      <trkpt lat="51.188364637171" lon="4.635484317957">
        <ele>0</ele>
        <time>2020-07-26T09:56:04Z</time>
      </trkpt>
      <trkpt lat="51.188451976569" lon="4.636414541219">
        <ele>0.2</ele>
        <time>2020-07-26T09:56:14Z</time>
      </trkpt>
      <trkpt lat="51.18854577003" lon="4.637267651001">
        <ele>1</ele>
        <time>2020-07-26T09:56:23Z</time>
      </trkpt>
      <trkpt lat="51.188619279293" lon="4.638208351638">
        <ele>3</ele>
        <time>2020-07-26T09:56:32Z</time>
      </trkpt>
      <trkpt lat="51.188702930655" lon="4.639157601813">
        <ele>2.6</ele>
        <time>2020-07-26T09:56:41Z</time>
      </trkpt>
      <trkpt lat="51.188692704737" lon="4.640091932206">
        <ele>0.6</ele>
        <time>2020-07-26T09:56:50Z</time>
      </trkpt>
      <trkpt lat="51.188650292323" lon="4.640999775795">
        <ele>0.8</ele>
        <time>2020-07-26T09:56:59Z</time>
      </trkpt>
      <trkpt lat="51.188627242098" lon="4.641899405122">
        <ele>3.4</ele>
        <time>2020-07-26T09:57:08Z</time>
      </trkpt>
      <trkpt lat="51.188574017033" lon="4.642815379154">
        <ele>3.4</ele>
        <time>2020-07-26T09:57:17Z</time>
      </trkpt>
      <trkpt lat="51.188537471949" lon="4.643773178867">
        <ele>2.2</ele>
        <time>2020-07-26T09:57:26Z</time>
      </trkpt>
      <trkpt lat="51.188500172494" lon="4.644641627526">
        <ele>1.2</ele>
        <time>2020-07-26T09:57:34Z</time>
      </trkpt>
      <trkpt lat="51.188465471428" lon="4.645522481397">
        <ele>1</ele>
        <time>2020-07-26T09:57:42Z</time>
      </trkpt>
      <trkpt lat="51.188428339611" lon="4.646405849838">
        <ele>2</ele>
        <time>2020-07-26T09:57:50Z</time>
      </trkpt>
      <trkpt lat="51.188398500047" lon="4.647365996483">
        <ele>3.6</ele>
        <time>2020-07-26T09:57:59Z</time>
      </trkpt>
      <trkpt lat="51.188404199739" lon="4.648234193685">
        <ele>4.4</ele>
        <time>2020-07-26T09:58:07Z</time>
      </trkpt>
      <trkpt lat="51.188519869959" lon="4.649154274848">
        <ele>6.2</ele>
        <time>2020-07-26T09:58:16Z</time>
      </trkpt>
      <trkpt lat="51.188670241245" lon="4.649997745445">
        <ele>3.2</ele>
        <time>2020-07-26T09:58:25Z</time>
      </trkpt>
      <trkpt lat="51.188865623334" lon="4.650872145253">
        <ele>2.2</ele>
        <time>2020-07-26T09:58:34Z</time>
      </trkpt>
      <trkpt lat="51.189043738709" lon="4.65169047015">
        <ele>1.4</ele>
        <time>2020-07-26T09:58:42Z</time>
      </trkpt>
      <trkpt lat="51.18921548384" lon="4.652564869958">
        <ele>2</ele>
        <time>2020-07-26T09:58:50Z</time>
      </trkpt>
      <trkpt lat="51.189353869009" lon="4.653439102128">
        <ele>3.8</ele>
        <time>2020-07-26T09:58:58Z</time>
      </trkpt>
      <trkpt lat="51.18959434572" lon="4.654283913829">
        <ele>4.8</ele>
        <time>2020-07-26T09:59:06Z</time>
      </trkpt>
      <trkpt lat="51.189916294499" lon="4.655028561825">
        <ele>1.6</ele>
        <time>2020-07-26T09:59:17Z</time>
      </trkpt>
      <trkpt lat="51.190026516484" lon="4.655224111552">
        <ele>0</ele>
        <time>2020-07-26T09:59:20Z</time>
      </trkpt>
      <trkpt lat="51.190467404424" lon="4.655717805462">
        <ele>0</ele>
        <time>2020-07-26T09:59:29Z</time>
      </trkpt>
      <trkpt lat="51.190498920368" lon="4.655864488712">
        <ele>0</ele>
        <time>2020-07-26T09:59:31Z</time>
      </trkpt>
      <trkpt lat="51.190479390541" lon="4.656121896861">
        <ele>0</ele>
        <time>2020-07-26T09:59:35Z</time>
      </trkpt>
      <trkpt lat="51.19053898585" lon="4.656366480703">
        <ele>0</ele>
        <time>2020-07-26T09:59:39Z</time>
      </trkpt>
      <trkpt lat="51.190643340505" lon="4.656732685914">
        <ele>0</ele>
        <time>2020-07-26T09:59:44Z</time>
      </trkpt>
      <trkpt lat="51.190783485873" lon="4.657645474824">
        <ele>0</ele>
        <time>2020-07-26T09:59:54Z</time>
      </trkpt>
      <trkpt lat="51.190949866588" lon="4.658497075864">
        <ele>1.8</ele>
        <time>2020-07-26T10:00:03Z</time>
      </trkpt>
      <trkpt lat="51.191255722119" lon="4.659365859799">
        <ele>0</ele>
        <time>2020-07-26T10:00:12Z</time>
      </trkpt>
      <trkpt lat="51.191391844175" lon="4.659720665626">
        <ele>0</ele>
        <time>2020-07-26T10:00:18Z</time>
      </trkpt>
      <trkpt lat="51.191524864928" lon="4.66049817067">
        <ele>3.4</ele>
        <time>2020-07-26T10:00:34Z</time>
      </trkpt>
      <trkpt lat="51.1913059297" lon="4.661318088128">
        <ele>3</ele>
        <time>2020-07-26T10:00:44Z</time>
      </trkpt>
      <trkpt lat="51.191095124915" lon="4.662180418">
        <ele>4</ele>
        <time>2020-07-26T10:00:53Z</time>
      </trkpt>
      <trkpt lat="51.190889768365" lon="4.663035958533">
        <ele>4</ele>
        <time>2020-07-26T10:01:02Z</time>
      </trkpt>
      <trkpt lat="51.190697068484" lon="4.663890577057">
        <ele>3.8</ele>
        <time>2020-07-26T10:01:11Z</time>
      </trkpt>
      <trkpt lat="51.19052306024" lon="4.664703872814">
        <ele>4.2</ele>
        <time>2020-07-26T10:01:19Z</time>
      </trkpt>
      <trkpt lat="51.190338155526" lon="4.665560419175">
        <ele>3</ele>
        <time>2020-07-26T10:01:27Z</time>
      </trkpt>
      <trkpt lat="51.190164566377" lon="4.666406823437">
        <ele>2.6</ele>
        <time>2020-07-26T10:01:35Z</time>
      </trkpt>
      <trkpt lat="51.189992737427" lon="4.66724392379">
        <ele>3.2</ele>
        <time>2020-07-26T10:01:43Z</time>
      </trkpt>
      <trkpt lat="51.189916713594" lon="4.667415166007">
        <ele>3.2</ele>
        <time>2020-07-26T10:01:45Z</time>
      </trkpt>
      <trkpt lat="51.189789895447" lon="4.66748783708">
        <ele>2.8</ele>
        <time>2020-07-26T10:01:47Z</time>
      </trkpt>
      <trkpt lat="51.189201988981" lon="4.667692187802">
        <ele>2.4</ele>
        <time>2020-07-26T10:01:56Z</time>
      </trkpt>
      <trkpt lat="51.188829832621" lon="4.667801403959">
        <ele>1.2</ele>
        <time>2020-07-26T10:02:02Z</time>
      </trkpt>
      <trkpt lat="51.188279812343" lon="4.667555479013">
        <ele>0.4</ele>
        <time>2020-07-26T10:02:11Z</time>
      </trkpt>
      <trkpt lat="51.188029780266" lon="4.667392786334">
        <ele>0.2</ele>
        <time>2020-07-26T10:02:16Z</time>
      </trkpt>
      <trkpt lat="51.18789533459" lon="4.667531590598">
        <ele>0</ele>
        <time>2020-07-26T10:02:20Z</time>
      </trkpt>
      <trkpt lat="51.187880582446" lon="4.667695121467">
        <ele>0</ele>
        <time>2020-07-26T10:02:22Z</time>
      </trkpt>
      <trkpt lat="51.187880750084" lon="4.667851276264">
        <ele>0</ele>
        <time>2020-07-26T10:02:24Z</time>
      </trkpt>
      <trkpt lat="51.187921989032" lon="4.667998210971">
        <ele>0</ele>
        <time>2020-07-26T10:02:26Z</time>
      </trkpt>
      <trkpt lat="51.188025924592" lon="4.668106588938">
        <ele>0</ele>
        <time>2020-07-26T10:02:28Z</time>
      </trkpt>
      <trkpt lat="51.188570412816" lon="4.668350837504">
        <ele>0</ele>
        <time>2020-07-26T10:02:36Z</time>
      </trkpt>
      <trkpt lat="51.188828491517" lon="4.668494922365">
        <ele>0</ele>
        <time>2020-07-26T10:02:40Z</time>
      </trkpt>
      <trkpt lat="51.188942066262" lon="4.668619477399">
        <ele>0</ele>
        <time>2020-07-26T10:02:42Z</time>
      </trkpt>
      <trkpt lat="51.189371303361" lon="4.669390025466">
        <ele>0</ele>
        <time>2020-07-26T10:02:51Z</time>
      </trkpt>
      <trkpt lat="51.189504827028" lon="4.669656402248">
        <ele>0</ele>
        <time>2020-07-26T10:02:54Z</time>
      </trkpt>
      <trkpt lat="51.189551262754" lon="4.669863435178">
        <ele>0.6</ele>
        <time>2020-07-26T10:02:56Z</time>
      </trkpt>
      <trkpt lat="51.189528212529" lon="4.670083460053">
        <ele>2.4</ele>
        <time>2020-07-26T10:02:58Z</time>
      </trkpt>
      <trkpt lat="51.189355796846" lon="4.670934390541">
        <ele>5.4</ele>
        <time>2020-07-26T10:03:06Z</time>
      </trkpt>
      <trkpt lat="51.189165360078" lon="4.671845167795">
        <ele>6.4</ele>
        <time>2020-07-26T10:03:15Z</time>
      </trkpt>
      <trkpt lat="51.188977270242" lon="4.672702049432">
        <ele>4.4</ele>
        <time>2020-07-26T10:03:24Z</time>
      </trkpt>
      <trkpt lat="51.188781385239" lon="4.673600505293">
        <ele>4.8</ele>
        <time>2020-07-26T10:03:33Z</time>
      </trkpt>
      <trkpt lat="51.188615255981" lon="4.674461913156">
        <ele>4</ele>
        <time>2020-07-26T10:03:42Z</time>
      </trkpt>
      <trkpt lat="51.188436218597" lon="4.675319213888">
        <ele>3.2</ele>
        <time>2020-07-26T10:03:51Z</time>
      </trkpt>
      <trkpt lat="51.188258019403" lon="4.67623937887">
        <ele>3</ele>
        <time>2020-07-26T10:04:00Z</time>
      </trkpt>
      <trkpt lat="51.188093482706" lon="4.67710271457">
        <ele>2.2</ele>
        <time>2020-07-26T10:04:08Z</time>
      </trkpt>
      <trkpt lat="51.187916037883" lon="4.677961943139">
        <ele>1.8</ele>
        <time>2020-07-26T10:04:16Z</time>
      </trkpt>
      <trkpt lat="51.187727026038" lon="4.678851262729">
        <ele>0</ele>
        <time>2020-07-26T10:04:25Z</time>
      </trkpt>
      <trkpt lat="51.1875592204" lon="4.679753741902">
        <ele>0.6</ele>
        <time>2020-07-26T10:04:34Z</time>
      </trkpt>
      <trkpt lat="51.187394264608" lon="4.680571899161">
        <ele>0</ele>
        <time>2020-07-26T10:04:42Z</time>
      </trkpt>
      <trkpt lat="51.187223190029" lon="4.681386619841">
        <ele>0</ele>
        <time>2020-07-26T10:04:50Z</time>
      </trkpt>
      <trkpt lat="51.187045493749" lon="4.682268563359">
        <ele>0</ele>
        <time>2020-07-26T10:04:59Z</time>
      </trkpt>
      <trkpt lat="51.186885734735" lon="4.683099042011">
        <ele>0</ele>
        <time>2020-07-26T10:05:08Z</time>
      </trkpt>
      <trkpt lat="51.186707954636" lon="4.683957935304">
        <ele>0</ele>
        <time>2020-07-26T10:05:17Z</time>
      </trkpt>
      <trkpt lat="51.186518439877" lon="4.684850607654">
        <ele>0</ele>
        <time>2020-07-26T10:05:26Z</time>
      </trkpt>
      <trkpt lat="51.186352645895" lon="4.68573774795">
        <ele>0</ele>
        <time>2020-07-26T10:05:35Z</time>
      </trkpt>
      <trkpt lat="51.186169585199" lon="4.686604771686">
        <ele>0</ele>
        <time>2020-07-26T10:05:44Z</time>
      </trkpt>
      <trkpt lat="51.186012173117" lon="4.687481602245">
        <ele>0</ele>
        <time>2020-07-26T10:05:53Z</time>
      </trkpt>
      <trkpt lat="51.185824586195" lon="4.688378633183">
        <ele>0</ele>
        <time>2020-07-26T10:06:02Z</time>
      </trkpt>
      <trkpt lat="51.185650242675" lon="4.689270802619">
        <ele>0</ele>
        <time>2020-07-26T10:06:11Z</time>
      </trkpt>
      <trkpt lat="51.185509426755" lon="4.690181915149">
        <ele>0</ele>
        <time>2020-07-26T10:06:20Z</time>
      </trkpt>
      <trkpt lat="51.185378752934" lon="4.691069809816">
        <ele>0</ele>
        <time>2020-07-26T10:06:29Z</time>
      </trkpt>
      <trkpt lat="51.18524916876" lon="4.691938090837">
        <ele>0</ele>
        <time>2020-07-26T10:06:38Z</time>
      </trkpt>
      <trkpt lat="51.185118914034" lon="4.692825734047">
        <ele>0</ele>
        <time>2020-07-26T10:06:47Z</time>
      </trkpt>
      <trkpt lat="51.185021013442" lon="4.693703318977">
        <ele>0</ele>
        <time>2020-07-26T10:06:56Z</time>
      </trkpt>
      <trkpt lat="51.184996203018" lon="4.693924517318">
        <ele>0</ele>
        <time>2020-07-26T10:06:59Z</time>
      </trkpt>
      <trkpt lat="51.184937948813" lon="4.693984028808">
        <ele>0.4</ele>
        <time>2020-07-26T10:07:01Z</time>
      </trkpt>
      <trkpt lat="51.184842562791" lon="4.693958296375">
        <ele>1.4</ele>
        <time>2020-07-26T10:07:03Z</time>
      </trkpt>
      <trkpt lat="51.184748014959" lon="4.693915800142">
        <ele>2.2</ele>
        <time>2020-07-26T10:07:05Z</time>
      </trkpt>
      <trkpt lat="51.184656316973" lon="4.693914375219">
        <ele>2.4</ele>
        <time>2020-07-26T10:07:07Z</time>
      </trkpt>
      <trkpt lat="51.184573000887" lon="4.693968019379">
        <ele>2.2</ele>
        <time>2020-07-26T10:07:09Z</time>
      </trkpt>
      <trkpt lat="51.184088610886" lon="4.694430448802">
        <ele>2.8</ele>
        <time>2020-07-26T10:07:19Z</time>
      </trkpt>
      <trkpt lat="51.18363481482" lon="4.694895308976">
        <ele>2.4</ele>
        <time>2020-07-26T10:07:28Z</time>
      </trkpt>
      <trkpt lat="51.183166769524" lon="4.695349691775">
        <ele>1.2</ele>
        <time>2020-07-26T10:07:37Z</time>
      </trkpt>
      <trkpt lat="51.182671399234" lon="4.695847325178">
        <ele>1.2</ele>
        <time>2020-07-26T10:07:47Z</time>
      </trkpt>
      <trkpt lat="51.182198324798" lon="4.696374714326">
        <ele>3.8</ele>
        <time>2020-07-26T10:07:57Z</time>
      </trkpt>
      <trkpt lat="51.181730782416" lon="4.696803280873">
        <ele>4</ele>
        <time>2020-07-26T10:08:07Z</time>
      </trkpt>
      <trkpt lat="51.181664146311" lon="4.696806968909">
        <ele>4.8</ele>
        <time>2020-07-26T10:08:11Z</time>
      </trkpt>
      <trkpt lat="51.181588206297" lon="4.697701988191">
        <ele>3.2</ele>
        <time>2020-07-26T10:08:24Z</time>
      </trkpt>
      <trkpt lat="51.181532382843" lon="4.69864335938">
        <ele>4.2</ele>
        <time>2020-07-26T10:08:33Z</time>
      </trkpt>
      <trkpt lat="51.181467590756" lon="4.699593280107">
        <ele>4.2</ele>
        <time>2020-07-26T10:08:42Z</time>
      </trkpt>
      <trkpt lat="51.181412270216" lon="4.700516127297">
        <ele>5.6</ele>
        <time>2020-07-26T10:08:50Z</time>
      </trkpt>
      <trkpt lat="51.181351501441" lon="4.70147811796">
        <ele>3.4</ele>
        <time>2020-07-26T10:08:59Z</time>
      </trkpt>
      <trkpt lat="51.181282602223" lon="4.702380429495">
        <ele>4.2</ele>
        <time>2020-07-26T10:09:08Z</time>
      </trkpt>
      <trkpt lat="51.181218480688" lon="4.703233539277">
        <ele>5.6</ele>
        <time>2020-07-26T10:09:16Z</time>
      </trkpt>
      <trkpt lat="51.181158466284" lon="4.704114812243">
        <ele>4.8</ele>
        <time>2020-07-26T10:09:25Z</time>
      </trkpt>
      <trkpt lat="51.181090489075" lon="4.705021733823">
        <ele>4.8</ele>
        <time>2020-07-26T10:09:34Z</time>
      </trkpt>
      <trkpt lat="51.181030474671" lon="4.705903509703">
        <ele>4.2</ele>
        <time>2020-07-26T10:09:42Z</time>
      </trkpt>
      <trkpt lat="51.180972471923" lon="4.706797690795">
        <ele>4.4</ele>
        <time>2020-07-26T10:09:50Z</time>
      </trkpt>
      <trkpt lat="51.180911786967" lon="4.707687764756">
        <ele>5</ele>
        <time>2020-07-26T10:09:58Z</time>
      </trkpt>
      <trkpt lat="51.180848335984" lon="4.708597368544">
        <ele>5</ele>
        <time>2020-07-26T10:10:06Z</time>
      </trkpt>
      <trkpt lat="51.18078329244" lon="4.709517701164">
        <ele>4.8</ele>
        <time>2020-07-26T10:10:14Z</time>
      </trkpt>
      <trkpt lat="51.180722439846" lon="4.710440129259">
        <ele>4.8</ele>
        <time>2020-07-26T10:10:22Z</time>
      </trkpt>
      <trkpt lat="51.180656222836" lon="4.711382590095">
        <ele>5</ele>
        <time>2020-07-26T10:10:30Z</time>
      </trkpt>
      <trkpt lat="51.180592268939" lon="4.712297390661">
        <ele>4.8</ele>
        <time>2020-07-26T10:10:38Z</time>
      </trkpt>
      <trkpt lat="51.180528063585" lon="4.713189141002">
        <ele>5.4</ele>
        <time>2020-07-26T10:10:46Z</time>
      </trkpt>
      <trkpt lat="51.180470396113" lon="4.714101091722">
        <ele>4.2</ele>
        <time>2020-07-26T10:10:54Z</time>
      </trkpt>
      <trkpt lat="51.180403257094" lon="4.715003403257">
        <ele>4</ele>
        <time>2020-07-26T10:11:02Z</time>
      </trkpt>
      <trkpt lat="51.180345086708" lon="4.71588408949">
        <ele>3.2</ele>
        <time>2020-07-26T10:11:10Z</time>
      </trkpt>
      <trkpt lat="51.180282222458" lon="4.716756812918">
        <ele>3.2</ele>
        <time>2020-07-26T10:11:18Z</time>
      </trkpt>
      <trkpt lat="51.18022086695" lon="4.71761411365">
        <ele>3</ele>
        <time>2020-07-26T10:11:26Z</time>
      </trkpt>
      <trkpt lat="51.180156745415" lon="4.718491279485">
        <ele>2.2</ele>
        <time>2020-07-26T10:11:34Z</time>
      </trkpt>
      <trkpt lat="51.180091450414" lon="4.719412701752">
        <ele>2.6</ele>
        <time>2020-07-26T10:11:43Z</time>
      </trkpt>
      <trkpt lat="51.180012492916" lon="4.720277210918">
        <ele>3.8</ele>
        <time>2020-07-26T10:11:53Z</time>
      </trkpt>
      <trkpt lat="51.179927668088" lon="4.721200896298">
        <ele>6.2</ele>
        <time>2020-07-26T10:12:05Z</time>
      </trkpt>
      <trkpt lat="51.179854997015" lon="4.722055598641">
        <ele>5.8</ele>
        <time>2020-07-26T10:12:14Z</time>
      </trkpt>
      <trkpt lat="51.179684844445" lon="4.722793708755">
        <ele>4</ele>
        <time>2020-07-26T10:12:21Z</time>
      </trkpt>
      <trkpt lat="51.179610580811" lon="4.723558976225">
        <ele>1.8</ele>
        <time>2020-07-26T10:12:28Z</time>
      </trkpt>
      <trkpt lat="51.179554338262" lon="4.724470172574">
        <ele>2.4</ele>
        <time>2020-07-26T10:12:36Z</time>
      </trkpt>
      <trkpt lat="51.179472279461" lon="4.725398467999">
        <ele>1.6</ele>
        <time>2020-07-26T10:12:44Z</time>
      </trkpt>
      <trkpt lat="51.179397512913" lon="4.726297510593">
        <ele>1.4</ele>
        <time>2020-07-26T10:12:52Z</time>
      </trkpt>
      <trkpt lat="51.179436740205" lon="4.727202839612">
        <ele>5.6</ele>
        <time>2020-07-26T10:13:00Z</time>
      </trkpt>
      <trkpt lat="51.17946817233" lon="4.7281208253">
        <ele>7</ele>
        <time>2020-07-26T10:13:09Z</time>
      </trkpt>
      <trkpt lat="51.179401284768" lon="4.729036044961">
        <ele>8</ele>
        <time>2020-07-26T10:13:19Z</time>
      </trkpt>
      <trkpt lat="51.179202047005" lon="4.729906924371">
        <ele>9.2</ele>
        <time>2020-07-26T10:13:27Z</time>
      </trkpt>
      <trkpt lat="51.178978334094" lon="4.730750394968">
        <ele>6.2</ele>
        <time>2020-07-26T10:13:35Z</time>
      </trkpt>
      <trkpt lat="51.178886217013" lon="4.731642145309">
        <ele>5.2</ele>
        <time>2020-07-26T10:13:43Z</time>
      </trkpt>
      <trkpt lat="51.178816228148" lon="4.732597011357">
        <ele>4.2</ele>
        <time>2020-07-26T10:13:52Z</time>
      </trkpt>
      <trkpt lat="51.178759315047" lon="4.733476691762">
        <ele>3</ele>
        <time>2020-07-26T10:13:59Z</time>
      </trkpt>
      <trkpt lat="51.178685386689" lon="4.734380260582">
        <ele>2.4</ele>
        <time>2020-07-26T10:14:06Z</time>
      </trkpt>
      <trkpt lat="51.1785570598" lon="4.736082037739">
        <ele>2.8</ele>
        <time>2020-07-26T10:14:19Z</time>
      </trkpt>
      <trkpt lat="51.178493776455" lon="4.736992479717">
        <ele>3.2</ele>
        <time>2020-07-26T10:14:26Z</time>
      </trkpt>
      <trkpt lat="51.178446334901" lon="4.737867801534">
        <ele>3.2</ele>
        <time>2020-07-26T10:14:33Z</time>
      </trkpt>
      <trkpt lat="51.178384727936" lon="4.738761563531">
        <ele>2.6</ele>
        <time>2020-07-26T10:14:41Z</time>
      </trkpt>
      <trkpt lat="51.178314403795" lon="4.739680052133">
        <ele>4.8</ele>
        <time>2020-07-26T10:14:50Z</time>
      </trkpt>
      <trkpt lat="51.178261262549" lon="4.740176595889">
        <ele>4.6</ele>
        <time>2020-07-26T10:14:55Z</time>
      </trkpt>
      <trkpt lat="51.178099156603" lon="4.741011936043">
        <ele>3.2</ele>
        <time>2020-07-26T10:15:04Z</time>
      </trkpt>
      <trkpt lat="51.178005614599" lon="4.741898824882">
        <ele>3.2</ele>
        <time>2020-07-26T10:15:13Z</time>
      </trkpt>
      <trkpt lat="51.177939146132" lon="4.742826198298">
        <ele>2.2</ele>
        <time>2020-07-26T10:15:24Z</time>
      </trkpt>
      <trkpt lat="51.177885334334" lon="4.743712416585">
        <ele>1.6</ele>
        <time>2020-07-26T10:15:32Z</time>
      </trkpt>
      <trkpt lat="51.177834456201" lon="4.744594360103">
        <ele>2</ele>
        <time>2020-07-26T10:15:41Z</time>
      </trkpt>
      <trkpt lat="51.177818279134" lon="4.745476555078">
        <ele>2.6</ele>
        <time>2020-07-26T10:15:49Z</time>
      </trkpt>
      <trkpt lat="51.177734208677" lon="4.746331676516">
        <ele>2.8</ele>
        <time>2020-07-26T10:15:57Z</time>
      </trkpt>
      <trkpt lat="51.177624238149" lon="4.747255697172">
        <ele>3.8</ele>
        <time>2020-07-26T10:16:06Z</time>
      </trkpt>
      <trkpt lat="51.177512004508" lon="4.748189524651">
        <ele>7.6</ele>
        <time>2020-07-26T10:16:15Z</time>
      </trkpt>
      <trkpt lat="51.177369176932" lon="4.749113880583">
        <ele>8.4</ele>
        <time>2020-07-26T10:16:24Z</time>
      </trkpt>
      <trkpt lat="51.177236407636" lon="4.750014599557">
        <ele>9.2</ele>
        <time>2020-07-26T10:16:33Z</time>
      </trkpt>
      <trkpt lat="51.177125347461" lon="4.750784057977">
        <ele>6.6</ele>
        <time>2020-07-26T10:16:41Z</time>
      </trkpt>
      <trkpt lat="51.177001211522" lon="4.75169743362">
        <ele>5.6</ele>
        <time>2020-07-26T10:16:50Z</time>
      </trkpt>
      <trkpt lat="51.176980592048" lon="4.752583232812">
        <ele>3.2</ele>
        <time>2020-07-26T10:16:58Z</time>
      </trkpt>
      <trkpt lat="51.177027614507" lon="4.753513288436">
        <ele>2.8</ele>
        <time>2020-07-26T10:17:07Z</time>
      </trkpt>
      <trkpt lat="51.1770483178" lon="4.75440981646">
        <ele>1</ele>
        <time>2020-07-26T10:17:17Z</time>
      </trkpt>
      <trkpt lat="51.177102045779" lon="4.755320593714">
        <ele>0</ele>
        <time>2020-07-26T10:17:27Z</time>
      </trkpt>
      <trkpt lat="51.177171028816" lon="4.756269592432">
        <ele>0</ele>
        <time>2020-07-26T10:17:37Z</time>
      </trkpt>
      <trkpt lat="51.177187373521" lon="4.757139968928">
        <ele>1</ele>
        <time>2020-07-26T10:17:46Z</time>
      </trkpt>
      <trkpt lat="51.177082935047" lon="4.757986037914">
        <ele>1.4</ele>
        <time>2020-07-26T10:17:55Z</time>
      </trkpt>
      <trkpt lat="51.17696198423" lon="4.758898407729">
        <ele>1.4</ele>
        <time>2020-07-26T10:18:05Z</time>
      </trkpt>
      <trkpt lat="51.176848660942" lon="4.759805161671">
        <ele>1.2</ele>
        <time>2020-07-26T10:18:16Z</time>
      </trkpt>
      <trkpt lat="51.176867604036" lon="4.760715687468">
        <ele>1</ele>
        <time>2020-07-26T10:18:26Z</time>
      </trkpt>
      <trkpt lat="51.177003809911" lon="4.761615149157">
        <ele>1.4</ele>
        <time>2020-07-26T10:18:36Z</time>
      </trkpt>
      <trkpt lat="51.177266833933" lon="4.761997699073">
        <ele>3.2</ele>
        <time>2020-07-26T10:18:45Z</time>
      </trkpt>
      <trkpt lat="51.177762958594" lon="4.761679186873">
        <ele>4.8</ele>
        <time>2020-07-26T10:18:54Z</time>
      </trkpt>
      <trkpt lat="51.178361090978" lon="4.76161154494">
        <ele>1.2</ele>
        <time>2020-07-26T10:19:24Z</time>
      </trkpt>
      <trkpt lat="51.178301579488" lon="4.76246566055">
        <ele>1.2</ele>
        <time>2020-07-26T10:19:35Z</time>
      </trkpt>
      <trkpt lat="51.178236619763" lon="4.763355650692">
        <ele>0.4</ele>
        <time>2020-07-26T10:19:44Z</time>
      </trkpt>
      <trkpt lat="51.178177443549" lon="4.764274893665">
        <ele>0.4</ele>
        <time>2020-07-26T10:19:53Z</time>
      </trkpt>
      <trkpt lat="51.178095803843" lon="4.765297317827">
        <ele>0</ele>
        <time>2020-07-26T10:20:02Z</time>
      </trkpt>
      <trkpt lat="51.178021624028" lon="4.766190409272">
        <ele>0</ele>
        <time>2020-07-26T10:20:12Z</time>
      </trkpt>
      <trkpt lat="51.177956580484" lon="4.767090206237">
        <ele>0</ele>
        <time>2020-07-26T10:20:21Z</time>
      </trkpt>
      <trkpt lat="51.17787728771" lon="4.767972065936">
        <ele>0</ele>
        <time>2020-07-26T10:20:30Z</time>
      </trkpt>
      <trkpt lat="51.17780687975" lon="4.768907569795">
        <ele>0</ele>
        <time>2020-07-26T10:20:39Z</time>
      </trkpt>
      <trkpt lat="51.177705542579" lon="4.769756320989">
        <ele>0</ele>
        <time>2020-07-26T10:20:47Z</time>
      </trkpt>
      <trkpt lat="51.177599511544" lon="4.770656872325">
        <ele>0</ele>
        <time>2020-07-26T10:20:56Z</time>
      </trkpt>
      <trkpt lat="51.177625160158" lon="4.771583072275">
        <ele>0</ele>
        <time>2020-07-26T10:21:05Z</time>
      </trkpt>
      <trkpt lat="51.177610827109" lon="4.772529724061">
        <ele>0</ele>
        <time>2020-07-26T10:21:14Z</time>
      </trkpt>
      <trkpt lat="51.177569755799" lon="4.773466820481">
        <ele>0</ele>
        <time>2020-07-26T10:21:23Z</time>
      </trkpt>
      <trkpt lat="51.177530947602" lon="4.774373322966">
        <ele>0</ele>
        <time>2020-07-26T10:21:32Z</time>
      </trkpt>
      <trkpt lat="51.177480404745" lon="4.775286363333">
        <ele>0</ele>
        <time>2020-07-26T10:21:41Z</time>
      </trkpt>
      <trkpt lat="51.177405470559" lon="4.776187417583">
        <ele>0</ele>
        <time>2020-07-26T10:21:50Z</time>
      </trkpt>
      <trkpt lat="51.177302959922" lon="4.777088555652">
        <ele>0</ele>
        <time>2020-07-26T10:21:59Z</time>
      </trkpt>
      <trkpt lat="51.177221571673" lon="4.777978713432">
        <ele>0</ele>
        <time>2020-07-26T10:22:08Z</time>
      </trkpt>
      <trkpt lat="51.177145715478" lon="4.778916480404">
        <ele>0</ele>
        <time>2020-07-26T10:22:17Z</time>
      </trkpt>
      <trkpt lat="51.177059801003" lon="4.779809990944">
        <ele>0</ele>
        <time>2020-07-26T10:22:26Z</time>
      </trkpt>
      <trkpt lat="51.176955949262" lon="4.780724037139">
        <ele>0</ele>
        <time>2020-07-26T10:22:35Z</time>
      </trkpt>
      <trkpt lat="51.176858216308" lon="4.781578823301">
        <ele>0</ele>
        <time>2020-07-26T10:22:44Z</time>
      </trkpt>
      <trkpt lat="51.176742462269" lon="4.782505358527">
        <ele>0</ele>
        <time>2020-07-26T10:22:54Z</time>
      </trkpt>
      <trkpt lat="51.17662587004" lon="4.783347152744">
        <ele>1.2</ele>
        <time>2020-07-26T10:23:03Z</time>
      </trkpt>
      <trkpt lat="51.176485473215" lon="4.784253655229">
        <ele>4.4</ele>
        <time>2020-07-26T10:23:12Z</time>
      </trkpt>
      <trkpt lat="51.176343819105" lon="4.785182202111">
        <ele>8</ele>
        <time>2020-07-26T10:23:21Z</time>
      </trkpt>
      <trkpt lat="51.176206858859" lon="4.786050902227">
        <ele>7.4</ele>
        <time>2020-07-26T10:23:30Z</time>
      </trkpt>
      <trkpt lat="51.176085908042" lon="4.786966960078">
        <ele>6</ele>
        <time>2020-07-26T10:23:39Z</time>
      </trkpt>
      <trkpt lat="51.175965627777" lon="4.787804898621">
        <ele>5</ele>
        <time>2020-07-26T10:23:47Z</time>
      </trkpt>
      <trkpt lat="51.175819782717" lon="4.788726237069">
        <ele>3.8</ele>
        <time>2020-07-26T10:23:57Z</time>
      </trkpt>
      <trkpt lat="51.175677122779" lon="4.789580687955">
        <ele>2.8</ele>
        <time>2020-07-26T10:24:06Z</time>
      </trkpt>
      <trkpt lat="51.175516525575" lon="4.790442431094">
        <ele>0</ele>
        <time>2020-07-26T10:24:15Z</time>
      </trkpt>
      <trkpt lat="51.175385432659" lon="4.791326721544">
        <ele>0</ele>
        <time>2020-07-26T10:24:24Z</time>
      </trkpt>
      <trkpt lat="51.17524956206" lon="4.792160804413">
        <ele>0</ele>
        <time>2020-07-26T10:24:33Z</time>
      </trkpt>
      <trkpt lat="51.175112601814" lon="4.793014836204">
        <ele>0</ele>
        <time>2020-07-26T10:24:42Z</time>
      </trkpt>
      <trkpt lat="51.174984442563" lon="4.793862497751">
        <ele>0</ele>
        <time>2020-07-26T10:24:51Z</time>
      </trkpt>
      <trkpt lat="51.174879165899" lon="4.794716445723">
        <ele>0</ele>
        <time>2020-07-26T10:25:01Z</time>
      </trkpt>
      <trkpt lat="51.174754862322" lon="4.795562514709">
        <ele>0</ele>
        <time>2020-07-26T10:25:10Z</time>
      </trkpt>
      <trkpt lat="51.174588481607" lon="4.796446972797">
        <ele>0</ele>
        <time>2020-07-26T10:25:20Z</time>
      </trkpt>
      <trkpt lat="51.174416904114" lon="4.797391193832">
        <ele>0</ele>
        <time>2020-07-26T10:25:31Z</time>
      </trkpt>
      <trkpt lat="51.17423619035" lon="4.798261067414">
        <ele>0</ele>
        <time>2020-07-26T10:25:42Z</time>
      </trkpt>
      <trkpt lat="51.174101828493" lon="4.79916245694">
        <ele>0</ele>
        <time>2020-07-26T10:25:52Z</time>
      </trkpt>
      <trkpt lat="51.1739386329" lon="4.800058314412">
        <ele>0</ele>
        <time>2020-07-26T10:26:02Z</time>
      </trkpt>
      <trkpt lat="51.173776526954" lon="4.800962553784">
        <ele>0</ele>
        <time>2020-07-26T10:26:12Z</time>
      </trkpt>
      <trkpt lat="51.17361844432" lon="4.801872157572">
        <ele>0</ele>
        <time>2020-07-26T10:26:22Z</time>
      </trkpt>
      <trkpt lat="51.173453823804" lon="4.802775558754">
        <ele>2</ele>
        <time>2020-07-26T10:26:32Z</time>
      </trkpt>
      <trkpt lat="51.173293813333" lon="4.803680636316">
        <ele>3.2</ele>
        <time>2020-07-26T10:26:42Z</time>
      </trkpt>
      <trkpt lat="51.173122571116" lon="4.804645225368">
        <ele>3.2</ele>
        <time>2020-07-26T10:26:52Z</time>
      </trkpt>
      <trkpt lat="51.172984688861" lon="4.805518535529">
        <ele>0.8</ele>
        <time>2020-07-26T10:27:01Z</time>
      </trkpt>
      <trkpt lat="51.172992232571" lon="4.806310122165">
        <ele>0.4</ele>
        <time>2020-07-26T10:27:09Z</time>
      </trkpt>
      <trkpt lat="51.172882010586" lon="4.807240261608">
        <ele>0</ele>
        <time>2020-07-26T10:27:19Z</time>
      </trkpt>
      <trkpt lat="51.172724430866" lon="4.808075517943">
        <ele>1.8</ele>
        <time>2020-07-26T10:27:28Z</time>
      </trkpt>
      <trkpt lat="51.172580262186" lon="4.808937596358">
        <ele>3.4</ele>
        <time>2020-07-26T10:27:38Z</time>
      </trkpt>
      <trkpt lat="51.172451264745" lon="4.809812582899">
        <ele>4.8</ele>
        <time>2020-07-26T10:27:48Z</time>
      </trkpt>
      <trkpt lat="51.172305084409" lon="4.810691173657">
        <ele>2.8</ele>
        <time>2020-07-26T10:27:57Z</time>
      </trkpt>
      <trkpt lat="51.17223375444" lon="4.811192578915">
        <ele>1</ele>
        <time>2020-07-26T10:28:02Z</time>
      </trkpt>
      <trkpt lat="51.172053878866" lon="4.812030601277">
        <ele>0</ele>
        <time>2020-07-26T10:28:11Z</time>
      </trkpt>
      <trkpt lat="51.171842738805" lon="4.812924279455">
        <ele>0</ele>
        <time>2020-07-26T10:28:20Z</time>
      </trkpt>
      <trkpt lat="51.171633358943" lon="4.813737072298">
        <ele>0</ele>
        <time>2020-07-26T10:28:28Z</time>
      </trkpt>
      <trkpt lat="51.171453734826" lon="4.814626308069">
        <ele>0</ele>
        <time>2020-07-26T10:28:37Z</time>
      </trkpt>
      <trkpt lat="51.171286432102" lon="4.815444800604">
        <ele>0</ele>
        <time>2020-07-26T10:28:45Z</time>
      </trkpt>
      <trkpt lat="51.17109130147" lon="4.816282990604">
        <ele>0</ele>
        <time>2020-07-26T10:28:55Z</time>
      </trkpt>
      <trkpt lat="51.170886866929" lon="4.817108440116">
        <ele>0</ele>
        <time>2020-07-26T10:29:04Z</time>
      </trkpt>
      <trkpt lat="51.170659382163" lon="4.817978900431">
        <ele>0</ele>
        <time>2020-07-26T10:29:14Z</time>
      </trkpt>
      <trkpt lat="51.170428628456" lon="4.818852797325">
        <ele>0</ele>
        <time>2020-07-26T10:29:24Z</time>
      </trkpt>
      <trkpt lat="51.170259649352" lon="4.819697609026">
        <ele>0</ele>
        <time>2020-07-26T10:29:34Z</time>
      </trkpt>
      <trkpt lat="51.170018753546" lon="4.820530266972">
        <ele>0</ele>
        <time>2020-07-26T10:29:44Z</time>
      </trkpt>
      <trkpt lat="51.16977031403" lon="4.821293019872">
        <ele>0</ele>
        <time>2020-07-26T10:29:54Z</time>
      </trkpt>
      <trkpt lat="51.169555988847" lon="4.821947897719">
        <ele>1.6</ele>
        <time>2020-07-26T10:30:03Z</time>
      </trkpt>
      <trkpt lat="51.169463033576" lon="4.822002882983">
        <ele>1.8</ele>
        <time>2020-07-26T10:30:07Z</time>
      </trkpt>
      <trkpt lat="51.169386339191" lon="4.821905401486">
        <ele>1.4</ele>
        <time>2020-07-26T10:30:11Z</time>
      </trkpt>
      <trkpt lat="51.169037149237" lon="4.822355090421">
        <ele>4.2</ele>
        <time>2020-07-26T10:30:30Z</time>
      </trkpt>
      <trkpt lat="51.168889543978" lon="4.82318246777">
        <ele>3.2</ele>
        <time>2020-07-26T10:30:41Z</time>
      </trkpt>
      <trkpt lat="51.168630040354" lon="4.823978999727">
        <ele>2.8</ele>
        <time>2020-07-26T10:30:51Z</time>
      </trkpt>
      <trkpt lat="51.168504395673" lon="4.824361465824">
        <ele>3.6</ele>
        <time>2020-07-26T10:30:56Z</time>
      </trkpt>
      <trkpt lat="51.168448404581" lon="4.82451518987">
        <ele>3.4</ele>
        <time>2020-07-26T10:30:58Z</time>
      </trkpt>
      <trkpt lat="51.168210274802" lon="4.82532404322">
        <ele>4.4</ele>
        <time>2020-07-26T10:31:08Z</time>
      </trkpt>
      <trkpt lat="51.167956889965" lon="4.826126023412">
        <ele>4.2</ele>
        <time>2020-07-26T10:31:19Z</time>
      </trkpt>
      <trkpt lat="51.167698056893" lon="4.826908389958">
        <ele>3.6</ele>
        <time>2020-07-26T10:31:30Z</time>
      </trkpt>
      <trkpt lat="51.167649441873" lon="4.827012074061">
        <ele>4.4</ele>
        <time>2020-07-26T10:31:32Z</time>
      </trkpt>
      <trkpt lat="51.167196819273" lon="4.827563519262">
        <ele>2.4</ele>
        <time>2020-07-26T10:31:44Z</time>
      </trkpt>
      <trkpt lat="51.16699674332" lon="4.827859484151">
        <ele>2.2</ele>
        <time>2020-07-26T10:31:49Z</time>
      </trkpt>
      <trkpt lat="51.166941925694" lon="4.828014046387">
        <ele>2.4</ele>
        <time>2020-07-26T10:31:51Z</time>
      </trkpt>
      <trkpt lat="51.166874870494" lon="4.82837002568">
        <ele>2.4</ele>
        <time>2020-07-26T10:31:55Z</time>
      </trkpt>
      <trkpt lat="51.166801109774" lon="4.828479158018">
        <ele>2.4</ele>
        <time>2020-07-26T10:31:57Z</time>
      </trkpt>
      <trkpt lat="51.166715530575" lon="4.828542022268">
        <ele>2.2</ele>
        <time>2020-07-26T10:31:59Z</time>
      </trkpt>
      <trkpt lat="51.166291909349" lon="4.828645874009">
        <ele>7.2</ele>
        <time>2020-07-26T10:32:09Z</time>
      </trkpt>
      <trkpt lat="51.166241282673" lon="4.828485276805">
        <ele>7.6</ele>
        <time>2020-07-26T10:32:13Z</time>
      </trkpt>
      <trkpt lat="51.166129384308" lon="4.828573622031">
        <ele>9.6</ele>
        <time>2020-07-26T10:32:18Z</time>
      </trkpt>
      <trkpt lat="51.166135503095" lon="4.828655932289">
        <ele>10</ele>
        <time>2020-07-26T10:32:20Z</time>
      </trkpt>
      <trkpt lat="51.166176658224" lon="4.828775039088">
        <ele>9.6</ele>
        <time>2020-07-26T10:32:22Z</time>
      </trkpt>
      <trkpt lat="51.166333986487" lon="4.829294884526">
        <ele>8.4</ele>
        <time>2020-07-26T10:32:35Z</time>
      </trkpt>
      <trkpt lat="51.166607068789" lon="4.8300614931">
        <ele>7</ele>
        <time>2020-07-26T10:32:46Z</time>
      </trkpt>
      <trkpt lat="51.166713770376" lon="4.830265843822">
        <ele>6.6</ele>
        <time>2020-07-26T10:32:49Z</time>
      </trkpt>
      <trkpt lat="51.166851401174" lon="4.830422333895">
        <ele>6.8</ele>
        <time>2020-07-26T10:32:51Z</time>
      </trkpt>
      <trkpt lat="51.168086306501" lon="4.831238647136">
        <ele>6.2</ele>
        <time>2020-07-26T10:33:22Z</time>
      </trkpt>
      <trkpt lat="51.16817775303" lon="4.831294135314">
        <ele>6.2</ele>
        <time>2020-07-26T10:33:24Z</time>
      </trkpt>
      <trkpt lat="51.168386127064" lon="4.831320538299">
        <ele>6</ele>
        <time>2020-07-26T10:33:27Z</time>
      </trkpt>
      <trkpt lat="51.168653342036" lon="4.831283490301">
        <ele>5.4</ele>
        <time>2020-07-26T10:33:33Z</time>
      </trkpt>
      <trkpt lat="51.168812095222" lon="4.831303271585">
        <ele>5.4</ele>
        <time>2020-07-26T10:33:37Z</time>
      </trkpt>
      <trkpt lat="51.168779321993" lon="4.831477279829">
        <ele>5</ele>
        <time>2020-07-26T10:33:41Z</time>
      </trkpt>
      <trkpt lat="51.168684774161" lon="4.831518854053">
        <ele>4.4</ele>
        <time>2020-07-26T10:33:43Z</time>
      </trkpt>
      <trkpt lat="51.168247155162" lon="4.831581047751">
        <ele>3.4</ele>
        <time>2020-07-26T10:33:50Z</time>
      </trkpt>
      <trkpt lat="51.168051940711" lon="4.831569648367">
        <ele>2.4</ele>
        <time>2020-07-26T10:33:53Z</time>
      </trkpt>
      <trkpt lat="51.167938114509" lon="4.831637206481">
        <ele>1.6</ele>
        <time>2020-07-26T10:33:55Z</time>
      </trkpt>
      <trkpt lat="51.167867287454" lon="4.831784979378">
        <ele>1</ele>
        <time>2020-07-26T10:33:57Z</time>
      </trkpt>
      <trkpt lat="51.167885979091" lon="4.832004501339">
        <ele>0.8</ele>
        <time>2020-07-26T10:33:59Z</time>
      </trkpt>
      <trkpt lat="51.167959907449" lon="4.83257773948">
        <ele>0.6</ele>
        <time>2020-07-26T10:34:04Z</time>
      </trkpt>
      <trkpt lat="51.167911711524" lon="4.833485415431">
        <ele>3.4</ele>
        <time>2020-07-26T10:34:13Z</time>
      </trkpt>
      <trkpt lat="51.167911292429" lon="4.834370795528">
        <ele>6</ele>
        <time>2020-07-26T10:34:23Z</time>
      </trkpt>
      <trkpt lat="51.16797323467" lon="4.835305712654">
        <ele>6.2</ele>
        <time>2020-07-26T10:34:32Z</time>
      </trkpt>
      <trkpt lat="51.168015479446" lon="4.836160917911">
        <ele>6.8</ele>
        <time>2020-07-26T10:34:40Z</time>
      </trkpt>
      <trkpt lat="51.168047163028" lon="4.837118047072">
        <ele>7.2</ele>
        <time>2020-07-26T10:34:49Z</time>
      </trkpt>
      <trkpt lat="51.167866616902" lon="4.838000325866">
        <ele>9.4</ele>
        <time>2020-07-26T10:34:58Z</time>
      </trkpt>
      <trkpt lat="51.167777265848" lon="4.838130664411">
        <ele>10</ele>
        <time>2020-07-26T10:35:00Z</time>
      </trkpt>
      <trkpt lat="51.167603928156" lon="4.838254632712">
        <ele>10</ele>
        <time>2020-07-26T10:35:03Z</time>
      </trkpt>
      <trkpt lat="51.167358757581" lon="4.838359825557">
        <ele>9.6</ele>
        <time>2020-07-26T10:35:07Z</time>
      </trkpt>
      <trkpt lat="51.167256246944" lon="4.838466359506">
        <ele>9</ele>
        <time>2020-07-26T10:35:09Z</time>
      </trkpt>
      <trkpt lat="51.16718365969" lon="4.838613964765">
        <ele>8.2</ele>
        <time>2020-07-26T10:35:11Z</time>
      </trkpt>
      <trkpt lat="51.166972016715" lon="4.8394324573">
        <ele>9.4</ele>
        <time>2020-07-26T10:35:19Z</time>
      </trkpt>
      <trkpt lat="51.166855256848" lon="4.840285399444">
        <ele>12.4</ele>
        <time>2020-07-26T10:35:28Z</time>
      </trkpt>
      <trkpt lat="51.166876798331" lon="4.841215957982">
        <ele>10.4</ele>
        <time>2020-07-26T10:35:37Z</time>
      </trkpt>
      <trkpt lat="51.166908146637" lon="4.842108630332">
        <ele>8.8</ele>
        <time>2020-07-26T10:35:46Z</time>
      </trkpt>
      <trkpt lat="51.166991797999" lon="4.843041200526">
        <ele>10.6</ele>
        <time>2020-07-26T10:35:56Z</time>
      </trkpt>
      <trkpt lat="51.167186090441" lon="4.843841252881">
        <ele>10.8</ele>
        <time>2020-07-26T10:36:05Z</time>
      </trkpt>
      <trkpt lat="51.167300419557" lon="4.844343244872">
        <ele>10.8</ele>
        <time>2020-07-26T10:36:11Z</time>
      </trkpt>
      <trkpt lat="51.167263539197" lon="4.844471068847">
        <ele>10.2</ele>
        <time>2020-07-26T10:36:13Z</time>
      </trkpt>
      <trkpt lat="51.167180726025" lon="4.844534603649">
        <ele>9</ele>
        <time>2020-07-26T10:36:15Z</time>
      </trkpt>
      <trkpt lat="51.166625844245" lon="4.844716658517">
        <ele>7.4</ele>
        <time>2020-07-26T10:36:25Z</time>
      </trkpt>
      <trkpt lat="51.166070375732" lon="4.844981945652">
        <ele>7.2</ele>
        <time>2020-07-26T10:36:35Z</time>
      </trkpt>
      <trkpt lat="51.165532257752" lon="4.845220913621">
        <ele>7.4</ele>
        <time>2020-07-26T10:36:45Z</time>
      </trkpt>
      <trkpt lat="51.165142499402" lon="4.84533834404">
        <ele>5</ele>
        <time>2020-07-26T10:36:52Z</time>
      </trkpt>
      <trkpt lat="51.164714016674" lon="4.845563230417">
        <ele>6</ele>
        <time>2020-07-26T10:37:01Z</time>
      </trkpt>
      <trkpt lat="51.164559538257" lon="4.845865733188">
        <ele>7.8</ele>
        <time>2020-07-26T10:37:10Z</time>
      </trkpt>
      <trkpt lat="51.164372957163" lon="4.845652916747">
        <ele>12.2</ele>
        <time>2020-07-26T10:37:55Z</time>
      </trkpt>
      <trkpt lat="51.164246390473" lon="4.84556549353">
        <ele>11</ele>
        <time>2020-07-26T10:37:58Z</time>
      </trkpt>
      <trkpt lat="51.164189058277" lon="4.845447392559">
        <ele>10</ele>
        <time>2020-07-26T10:38:00Z</time>
      </trkpt>
      <trkpt lat="51.16419802691" lon="4.845288974649">
        <ele>9.6</ele>
        <time>2020-07-26T10:38:02Z</time>
      </trkpt>
      <trkpt lat="51.164494075618" lon="4.844461848757">
        <ele>5.8</ele>
        <time>2020-07-26T10:38:12Z</time>
      </trkpt>
      <trkpt lat="51.164604716698" lon="4.844094889175">
        <ele>4.4</ele>
        <time>2020-07-26T10:38:16Z</time>
      </trkpt>
      <trkpt lat="51.164804708832" lon="4.843271451319">
        <ele>1.6</ele>
        <time>2020-07-26T10:38:25Z</time>
      </trkpt>
      <trkpt lat="51.164816694949" lon="4.843148488846">
        <ele>1.4</ele>
        <time>2020-07-26T10:38:27Z</time>
      </trkpt>
      <trkpt lat="51.16479230362" lon="4.843081852741">
        <ele>0.6</ele>
        <time>2020-07-26T10:38:29Z</time>
      </trkpt>
      <trkpt lat="51.164748885378" lon="4.843081685103">
        <ele>0</ele>
        <time>2020-07-26T10:38:31Z</time>
      </trkpt>
      <trkpt lat="51.164508911581" lon="4.843930436297">
        <ele>0</ele>
        <time>2020-07-26T10:38:43Z</time>
      </trkpt>
      <trkpt lat="51.164241780428" lon="4.844748425918">
        <ele>0</ele>
        <time>2020-07-26T10:38:52Z</time>
      </trkpt>
      <trkpt lat="51.163943636245" lon="4.84549173281">
        <ele>1.6</ele>
        <time>2020-07-26T10:39:00Z</time>
      </trkpt>
      <trkpt lat="51.163725539207" lon="4.846399827856">
        <ele>3.2</ele>
        <time>2020-07-26T10:39:09Z</time>
      </trkpt>
      <trkpt lat="51.163490846007" lon="4.847274898216">
        <ele>1.8</ele>
        <time>2020-07-26T10:39:17Z</time>
      </trkpt>
      <trkpt lat="51.163244837242" lon="4.848106298877">
        <ele>0.6</ele>
        <time>2020-07-26T10:39:25Z</time>
      </trkpt>
      <trkpt lat="51.16302875186" lon="4.848908530526">
        <ele>0.8</ele>
        <time>2020-07-26T10:39:33Z</time>
      </trkpt>
      <trkpt lat="51.162798333429" lon="4.849703218465">
        <ele>2</ele>
        <time>2020-07-26T10:39:41Z</time>
      </trkpt>
      <trkpt lat="51.162574788156" lon="4.850525231398">
        <ele>2.2</ele>
        <time>2020-07-26T10:39:50Z</time>
      </trkpt>
      <trkpt lat="51.162309501021" lon="4.851339532983">
        <ele>2</ele>
        <time>2020-07-26T10:40:00Z</time>
      </trkpt>
      <trkpt lat="51.162102468091" lon="4.852161965011">
        <ele>1</ele>
        <time>2020-07-26T10:40:09Z</time>
      </trkpt>
      <trkpt lat="51.161878587542" lon="4.852993281853">
        <ele>0.2</ele>
        <time>2020-07-26T10:40:19Z</time>
      </trkpt>
      <trkpt lat="51.161652276242" lon="4.853792998932">
        <ele>2</ele>
        <time>2020-07-26T10:40:28Z</time>
      </trkpt>
      <trkpt lat="51.161426300218" lon="4.854601349368">
        <ele>4.2</ele>
        <time>2020-07-26T10:40:37Z</time>
      </trkpt>
      <trkpt lat="51.161176435779" lon="4.855430486916">
        <ele>5.6</ele>
        <time>2020-07-26T10:40:46Z</time>
      </trkpt>
      <trkpt lat="51.160960434216" lon="4.856270437115">
        <ele>3.2</ele>
        <time>2020-07-26T10:40:55Z</time>
      </trkpt>
      <trkpt lat="51.160739571151" lon="4.857145339837">
        <ele>0</ele>
        <time>2020-07-26T10:41:04Z</time>
      </trkpt>
      <trkpt lat="51.16052340195" lon="4.858039856205">
        <ele>0</ele>
        <time>2020-07-26T10:41:13Z</time>
      </trkpt>
      <trkpt lat="51.16033816196" lon="4.858790371531">
        <ele>2.8</ele>
        <time>2020-07-26T10:41:28Z</time>
      </trkpt>
      <trkpt lat="51.160176642747" lon="4.859469975983">
        <ele>17.4</ele>
        <time>2020-07-26T10:42:06Z</time>
      </trkpt>
      <trkpt lat="51.160060469613" lon="4.859847496759">
        <ele>13.6</ele>
        <time>2020-07-26T10:42:13Z</time>
      </trkpt>
      <trkpt lat="51.15996013827" lon="4.860008010144">
        <ele>12.4</ele>
        <time>2020-07-26T10:42:16Z</time>
      </trkpt>
      <trkpt lat="51.159915798019" lon="4.860146143856">
        <ele>11.8</ele>
        <time>2020-07-26T10:42:18Z</time>
      </trkpt>
      <trkpt lat="51.159678422611" lon="4.860939825967">
        <ele>8.8</ele>
        <time>2020-07-26T10:42:28Z</time>
      </trkpt>
      <trkpt lat="51.159424702498" lon="4.861730322956">
        <ele>8.8</ele>
        <time>2020-07-26T10:42:38Z</time>
      </trkpt>
      <trkpt lat="51.159222614889" lon="4.862537835202">
        <ele>8.4</ele>
        <time>2020-07-26T10:42:47Z</time>
      </trkpt>
      <trkpt lat="51.159017258339" lon="4.863392202269">
        <ele>9.8</ele>
        <time>2020-07-26T10:42:56Z</time>
      </trkpt>
      <trkpt lat="51.158798239292" lon="4.864271128303">
        <ele>9.4</ele>
        <time>2020-07-26T10:43:05Z</time>
      </trkpt>
      <trkpt lat="51.158574191105" lon="4.865057518161">
        <ele>9.2</ele>
        <time>2020-07-26T10:43:13Z</time>
      </trkpt>
      <trkpt lat="51.158366319985" lon="4.865897300722">
        <ele>8</ele>
        <time>2020-07-26T10:43:21Z</time>
      </trkpt>
      <trkpt lat="51.158143445264" lon="4.866718391646">
        <ele>8.4</ele>
        <time>2020-07-26T10:43:29Z</time>
      </trkpt>
      <trkpt lat="51.157922330742" lon="4.867512492852">
        <ele>10.8</ele>
        <time>2020-07-26T10:43:37Z</time>
      </trkpt>
      <trkpt lat="51.157691325578" lon="4.868341295124">
        <ele>10.2</ele>
        <time>2020-07-26T10:43:46Z</time>
      </trkpt>
      <trkpt lat="51.157455123636" lon="4.869185100997">
        <ele>10.4</ele>
        <time>2020-07-26T10:43:55Z</time>
      </trkpt>
      <trkpt lat="51.157233003286" lon="4.869999318763">
        <ele>11.2</ele>
        <time>2020-07-26T10:44:04Z</time>
      </trkpt>
      <trkpt lat="51.156997052801" lon="4.870844549559">
        <ele>12.2</ele>
        <time>2020-07-26T10:44:13Z</time>
      </trkpt>
      <trkpt lat="51.156845088954" lon="4.871666143397">
        <ele>12</ele>
        <time>2020-07-26T10:44:22Z</time>
      </trkpt>
      <trkpt lat="51.156666638303" lon="4.8725241985">
        <ele>13.4</ele>
        <time>2020-07-26T10:44:31Z</time>
      </trkpt>
      <trkpt lat="51.156475530983" lon="4.873407483122">
        <ele>12.6</ele>
        <time>2020-07-26T10:44:40Z</time>
      </trkpt>
      <trkpt lat="51.156222229965" lon="4.874254977031">
        <ele>14.6</ele>
        <time>2020-07-26T10:44:50Z</time>
      </trkpt>
      <trkpt lat="51.155998097959" lon="4.875118564188">
        <ele>13.4</ele>
        <time>2020-07-26T10:45:01Z</time>
      </trkpt>
      <trkpt lat="51.155782096396" lon="4.87592054438">
        <ele>13.8</ele>
        <time>2020-07-26T10:45:15Z</time>
      </trkpt>
      <trkpt lat="51.155692745342" lon="4.876530495243">
        <ele>9.4</ele>
        <time>2020-07-26T10:45:26Z</time>
      </trkpt>
      <trkpt lat="51.156204627975" lon="4.876977166694">
        <ele>5.4</ele>
        <time>2020-07-26T10:45:38Z</time>
      </trkpt>
      <trkpt lat="51.1566551551" lon="4.877526851696">
        <ele>3.2</ele>
        <time>2020-07-26T10:45:48Z</time>
      </trkpt>
      <trkpt lat="51.156846430058" lon="4.877883501541">
        <ele>2.8</ele>
        <time>2020-07-26T10:45:54Z</time>
      </trkpt>
      <trkpt lat="51.157068885684" lon="4.878220118645">
        <ele>14</ele>
        <time>2020-07-26T10:50:18Z</time>
      </trkpt>
      <trkpt lat="51.157375579405" lon="4.879022601751">
        <ele>13.8</ele>
        <time>2020-07-26T10:50:33Z</time>
      </trkpt>
      <trkpt lat="51.157644806033" lon="4.879780157873">
        <ele>13.2</ele>
        <time>2020-07-26T10:50:42Z</time>
      </trkpt>
      <trkpt lat="51.157935406506" lon="4.880618766968">
        <ele>12.2</ele>
        <time>2020-07-26T10:50:52Z</time>
      </trkpt>
      <trkpt lat="51.158208907903" lon="4.881385459361">
        <ele>12</ele>
        <time>2020-07-26T10:51:00Z</time>
      </trkpt>
      <trkpt lat="51.15848408568" lon="4.88213404685">
        <ele>12.4</ele>
        <time>2020-07-26T10:51:07Z</time>
      </trkpt>
      <trkpt lat="51.158763119131" lon="4.882957736163">
        <ele>12.2</ele>
        <time>2020-07-26T10:51:17Z</time>
      </trkpt>
      <trkpt lat="51.159028657723" lon="4.883708083851">
        <ele>14.6</ele>
        <time>2020-07-26T10:51:25Z</time>
      </trkpt>
      <trkpt lat="51.159321186033" lon="4.884256008654">
        <ele>12.6</ele>
        <time>2020-07-26T10:51:33Z</time>
      </trkpt>
      <trkpt lat="51.159343314249" lon="4.884548369326">
        <ele>12</ele>
        <time>2020-07-26T10:51:41Z</time>
      </trkpt>
      <trkpt lat="51.159351277054" lon="4.884557505597">
        <ele>11.6</ele>
        <time>2020-07-26T10:51:43Z</time>
      </trkpt>
      <trkpt lat="51.159424451041" lon="4.884567228601">
        <ele>17.8</ele>
        <time>2020-07-26T10:52:21Z</time>
      </trkpt>
      <trkpt lat="51.159622096243" lon="4.884694884938">
        <ele>17.8</ele>
        <time>2020-07-26T10:52:28Z</time>
      </trkpt>
      <trkpt lat="51.159794260469" lon="4.884845842957">
        <ele>17</ele>
        <time>2020-07-26T10:52:34Z</time>
      </trkpt>
      <trkpt lat="51.159674483118" lon="4.884830084985">
        <ele>16.4</ele>
        <time>2020-07-26T10:53:17Z</time>
      </trkpt>
      <trkpt lat="51.159601141493" lon="4.885148848642">
        <ele>14.8</ele>
        <time>2020-07-26T10:53:23Z</time>
      </trkpt>
      <trkpt lat="51.159537187596" lon="4.886018554586">
        <ele>13.2</ele>
        <time>2020-07-26T10:53:33Z</time>
      </trkpt>
      <trkpt lat="51.159468539835" lon="4.886932852238">
        <ele>12.2</ele>
        <time>2020-07-26T10:53:42Z</time>
      </trkpt>
      <trkpt lat="51.159407351965" lon="4.887865254794">
        <ele>11.8</ele>
        <time>2020-07-26T10:53:51Z</time>
      </trkpt>
      <trkpt lat="51.159351360873" lon="4.888801429205">
        <ele>15.6</ele>
        <time>2020-07-26T10:54:00Z</time>
      </trkpt>
      <trkpt lat="51.159164193046" lon="4.889697202858">
        <ele>18</ele>
        <time>2020-07-26T10:54:10Z</time>
      </trkpt>
      <trkpt lat="51.158915921168" lon="4.890546205509">
        <ele>19.2</ele>
        <time>2020-07-26T10:54:19Z</time>
      </trkpt>
      <trkpt lat="51.15870369146" lon="4.891340222896">
        <ele>20</ele>
        <time>2020-07-26T10:54:30Z</time>
      </trkpt>
      <trkpt lat="51.15848492387" lon="4.892155195033">
        <ele>18.8</ele>
        <time>2020-07-26T10:54:41Z</time>
      </trkpt>
      <trkpt lat="51.15849162939" lon="4.892302632654">
        <ele>18.6</ele>
        <time>2020-07-26T10:54:43Z</time>
      </trkpt>
      <trkpt lat="51.15857209563" lon="4.893232436821">
        <ele>18.4</ele>
        <time>2020-07-26T10:54:53Z</time>
      </trkpt>
      <trkpt lat="51.158703104727" lon="4.894062161102">
        <ele>17</ele>
        <time>2020-07-26T10:55:02Z</time>
      </trkpt>
      <trkpt lat="51.158978450142" lon="4.894830278418">
        <ele>15.8</ele>
        <time>2020-07-26T10:55:11Z</time>
      </trkpt>
      <trkpt lat="51.159000829815" lon="4.894924490974">
        <ele>16.8</ele>
        <time>2020-07-26T10:55:12Z</time>
      </trkpt>
      <trkpt lat="51.1590523785" lon="4.895837112246">
        <ele>20</ele>
        <time>2020-07-26T10:55:21Z</time>
      </trkpt>
      <trkpt lat="51.159060257486" lon="4.896721151239">
        <ele>20</ele>
        <time>2020-07-26T10:55:30Z</time>
      </trkpt>
      <trkpt lat="51.159067382101" lon="4.897344177866">
        <ele>20.8</ele>
        <time>2020-07-26T10:55:38Z</time>
      </trkpt>
      <trkpt lat="51.159000829815" lon="4.897283576729">
        <ele>18.8</ele>
        <time>2020-07-26T10:55:41Z</time>
      </trkpt>
      <trkpt lat="51.158636803898" lon="4.896649485994">
        <ele>20</ele>
        <time>2020-07-26T10:55:57Z</time>
      </trkpt>
      <trkpt lat="51.158654824983" lon="4.896669854011">
        <ele>19.8</ele>
        <time>2020-07-26T10:55:59Z</time>
      </trkpt>
      <trkpt lat="51.158840735525" lon="4.89703622686">
        <ele>16.4</ele>
        <time>2020-07-26T10:56:07Z</time>
      </trkpt>
      <trkpt lat="51.159194703162" lon="4.897688003404">
        <ele>13.8</ele>
        <time>2020-07-26T10:56:17Z</time>
      </trkpt>
      <trkpt lat="51.159464097428" lon="4.898144481678">
        <ele>13.4</ele>
        <time>2020-07-26T10:56:24Z</time>
      </trkpt>
      <trkpt lat="51.159469210387" lon="4.898361321431">
        <ele>15.6</ele>
        <time>2020-07-26T10:56:28Z</time>
      </trkpt>
      <trkpt lat="51.15935496509" lon="4.898427873717">
        <ele>21.4</ele>
        <time>2020-07-26T10:57:32Z</time>
      </trkpt>
      <trkpt lat="51.159062604418" lon="4.898272138015">
        <ele>20.4</ele>
        <time>2020-07-26T10:57:42Z</time>
      </trkpt>
      <trkpt lat="51.159398383332" lon="4.898471627235">
        <ele>18.2</ele>
        <time>2020-07-26T10:57:53Z</time>
      </trkpt>
      <trkpt lat="51.159431994751" lon="4.898587129817">
        <ele>18</ele>
        <time>2020-07-26T10:57:55Z</time>
      </trkpt>
      <trkpt lat="51.159625532822" lon="4.89943345026">
        <ele>12.6</ele>
        <time>2020-07-26T10:58:05Z</time>
      </trkpt>
      <trkpt lat="51.159785543293" lon="4.900316148149">
        <ele>10.8</ele>
        <time>2020-07-26T10:58:14Z</time>
      </trkpt>
      <trkpt lat="51.159818735617" lon="4.900688975061">
        <ele>10.4</ele>
        <time>2020-07-26T10:58:18Z</time>
      </trkpt>
      <trkpt lat="51.159784034551" lon="4.900842699107">
        <ele>10.6</ele>
        <time>2020-07-26T10:58:20Z</time>
      </trkpt>
      <trkpt lat="51.159690744004" lon="4.900952082902">
        <ele>10.4</ele>
        <time>2020-07-26T10:58:22Z</time>
      </trkpt>
      <trkpt lat="51.159222866346" lon="4.901520291903">
        <ele>10.6</ele>
        <time>2020-07-26T10:58:31Z</time>
      </trkpt>
      <trkpt lat="51.1587925396" lon="4.902187239686">
        <ele>11.4</ele>
        <time>2020-07-26T10:58:40Z</time>
      </trkpt>
      <trkpt lat="51.15853605346" lon="4.903060717485">
        <ele>13.8</ele>
        <time>2020-07-26T10:58:49Z</time>
      </trkpt>
      <trkpt lat="51.158384592527" lon="4.903957664604">
        <ele>14.6</ele>
        <time>2020-07-26T10:58:58Z</time>
      </trkpt>
      <trkpt lat="51.15824855429" lon="4.904889061332">
        <ele>14</ele>
        <time>2020-07-26T10:59:07Z</time>
      </trkpt>
      <trkpt lat="51.158188539886" lon="4.905759773104">
        <ele>12.6</ele>
        <time>2020-07-26T10:59:15Z</time>
      </trkpt>
      <trkpt lat="51.158027942682" lon="4.906674992765">
        <ele>12.6</ele>
        <time>2020-07-26T10:59:24Z</time>
      </trkpt>
      <trkpt lat="51.157846893642" lon="4.907576801386">
        <ele>12</ele>
        <time>2020-07-26T10:59:33Z</time>
      </trkpt>
      <trkpt lat="51.157731642517" lon="4.908469725193">
        <ele>12.8</ele>
        <time>2020-07-26T10:59:42Z</time>
      </trkpt>
      <trkpt lat="51.157577331738" lon="4.909345633743">
        <ele>16.2</ele>
        <time>2020-07-26T10:59:51Z</time>
      </trkpt>
      <trkpt lat="51.157420757846" lon="4.910201258095">
        <ele>14.8</ele>
        <time>2020-07-26T11:00:00Z</time>
      </trkpt>
      <trkpt lat="51.157301483409" lon="4.910769886191">
        <ele>16</ele>
        <time>2020-07-26T11:00:07Z</time>
      </trkpt>
      <trkpt lat="51.157316738467" lon="4.911457118172">
        <ele>18.6</ele>
        <time>2020-07-26T11:00:15Z</time>
      </trkpt>
      <trkpt lat="51.157334759552" lon="4.911540434258">
        <ele>19.2</ele>
        <time>2020-07-26T11:00:17Z</time>
      </trkpt>
      <trkpt lat="51.157462415889" lon="4.911926504572">
        <ele>25</ele>
        <time>2020-07-26T11:01:37Z</time>
      </trkpt>
      <trkpt lat="51.157510779452" lon="4.912270162472">
        <ele>28.8</ele>
        <time>2020-07-26T11:01:42Z</time>
      </trkpt>
      <trkpt lat="51.157540954292" lon="4.912431849323">
        <ele>30</ele>
        <time>2020-07-26T11:01:44Z</time>
      </trkpt>
      <trkpt lat="51.15770708355" lon="4.913306584407">
        <ele>27.4</ele>
        <time>2020-07-26T11:01:53Z</time>
      </trkpt>
      <trkpt lat="51.157913110652" lon="4.914170087745">
        <ele>16.4</ele>
        <time>2020-07-26T11:02:01Z</time>
      </trkpt>
      <trkpt lat="51.158111426406" lon="4.915040212784">
        <ele>10.4</ele>
        <time>2020-07-26T11:02:09Z</time>
      </trkpt>
      <trkpt lat="51.15829381655" lon="4.915916875705">
        <ele>8.6</ele>
        <time>2020-07-26T11:02:18Z</time>
      </trkpt>
      <trkpt lat="51.158464136758" lon="4.916774344075">
        <ele>10</ele>
        <time>2020-07-26T11:02:27Z</time>
      </trkpt>
      <trkpt lat="51.158624231048" lon="4.917603481623">
        <ele>10.8</ele>
        <time>2020-07-26T11:02:36Z</time>
      </trkpt>
      <trkpt lat="51.158606377601" lon="4.918498500905">
        <ele>12.4</ele>
        <time>2020-07-26T11:02:45Z</time>
      </trkpt>
      <trkpt lat="51.158577040951" lon="4.918574273281">
        <ele>11.8</ele>
        <time>2020-07-26T11:02:46Z</time>
      </trkpt>
      <trkpt lat="51.158474530314" lon="4.918623642672">
        <ele>10.8</ele>
        <time>2020-07-26T11:02:48Z</time>
      </trkpt>
      <trkpt lat="51.158079072272" lon="4.918662786145">
        <ele>11</ele>
        <time>2020-07-26T11:02:55Z</time>
      </trkpt>
      <trkpt lat="51.158032888003" lon="4.91877719908">
        <ele>10.8</ele>
        <time>2020-07-26T11:02:57Z</time>
      </trkpt>
      <trkpt lat="51.158051328183" lon="4.918931006945">
        <ele>10.4</ele>
        <time>2020-07-26T11:02:59Z</time>
      </trkpt>
      <trkpt lat="51.158214523776" lon="4.919825942408">
        <ele>8.8</ele>
        <time>2020-07-26T11:03:09Z</time>
      </trkpt>
      <trkpt lat="51.158353998592" lon="4.920734540368">
        <ele>12.2</ele>
        <time>2020-07-26T11:03:18Z</time>
      </trkpt>
      <trkpt lat="51.158445445121" lon="4.921617741171">
        <ele>14.2</ele>
        <time>2020-07-26T11:03:27Z</time>
      </trkpt>
      <trkpt lat="51.158438320506" lon="4.921833910372">
        <ele>13.4</ele>
        <time>2020-07-26T11:03:29Z</time>
      </trkpt>
      <trkpt lat="51.158143529083" lon="4.922845018969">
        <ele>10.8</ele>
        <time>2020-07-26T11:03:40Z</time>
      </trkpt>
      <trkpt lat="51.157764248108" lon="4.923525880706">
        <ele>8.6</ele>
        <time>2020-07-26T11:03:49Z</time>
      </trkpt>
      <trkpt lat="51.15752016718" lon="4.924034578217">
        <ele>8.2</ele>
        <time>2020-07-26T11:03:56Z</time>
      </trkpt>
      <trkpt lat="51.157418913828" lon="4.924922556703">
        <ele>10.8</ele>
        <time>2020-07-26T11:04:05Z</time>
      </trkpt>
      <trkpt lat="51.157422685683" lon="4.925849091929">
        <ele>10.4</ele>
        <time>2020-07-26T11:04:14Z</time>
      </trkpt>
      <trkpt lat="51.157558137187" lon="4.92670731467">
        <ele>12</ele>
        <time>2020-07-26T11:04:23Z</time>
      </trkpt>
      <trkpt lat="51.157715046355" lon="4.927564280126">
        <ele>11.8</ele>
        <time>2020-07-26T11:04:32Z</time>
      </trkpt>
      <trkpt lat="51.157679255642" lon="4.928475560294">
        <ele>13</ele>
        <time>2020-07-26T11:04:41Z</time>
      </trkpt>
      <trkpt lat="51.157690738845" lon="4.929348116084">
        <ele>13.4</ele>
        <time>2020-07-26T11:04:50Z</time>
      </trkpt>
      <trkpt lat="51.157686044981" lon="4.930304155598">
        <ele>11.8</ele>
        <time>2020-07-26T11:04:59Z</time>
      </trkpt>
      <trkpt lat="51.157680596746" lon="4.931178974501">
        <ele>12.2</ele>
        <time>2020-07-26T11:05:07Z</time>
      </trkpt>
      <trkpt lat="51.157678836547" lon="4.932112466704">
        <ele>13</ele>
        <time>2020-07-26T11:05:16Z</time>
      </trkpt>
      <trkpt lat="51.157659055263" lon="4.933050401314">
        <ele>13.8</ele>
        <time>2020-07-26T11:05:25Z</time>
      </trkpt>
      <trkpt lat="51.157665425507" lon="4.933963274043">
        <ele>14</ele>
        <time>2020-07-26T11:05:34Z</time>
      </trkpt>
      <trkpt lat="51.157627204043" lon="4.934854605289">
        <ele>14</ele>
        <time>2020-07-26T11:05:43Z</time>
      </trkpt>
      <trkpt lat="51.157613709184" lon="4.935754653711">
        <ele>13.6</ele>
        <time>2020-07-26T11:05:52Z</time>
      </trkpt>
      <trkpt lat="51.157563082508" lon="4.936746735395">
        <ele>17</ele>
        <time>2020-07-26T11:06:01Z</time>
      </trkpt>
      <trkpt lat="51.157460236595" lon="4.937651142405">
        <ele>19.6</ele>
        <time>2020-07-26T11:06:11Z</time>
      </trkpt>
      <trkpt lat="51.157328137851" lon="4.938501150884">
        <ele>16</ele>
        <time>2020-07-26T11:06:20Z</time>
      </trkpt>
      <trkpt lat="51.157262172298" lon="4.938762079431">
        <ele>15.4</ele>
        <time>2020-07-26T11:06:23Z</time>
      </trkpt>
      <trkpt lat="51.157190842329" lon="4.938906499568">
        <ele>15.4</ele>
        <time>2020-07-26T11:06:25Z</time>
      </trkpt>
      <trkpt lat="51.157088080235" lon="4.938984032143">
        <ele>15.2</ele>
        <time>2020-07-26T11:06:27Z</time>
      </trkpt>
      <trkpt lat="51.156806280757" lon="4.939092158653">
        <ele>15.4</ele>
        <time>2020-07-26T11:06:32Z</time>
      </trkpt>
      <trkpt lat="51.156677618592" lon="4.939266585992">
        <ele>14.4</ele>
        <time>2020-07-26T11:06:37Z</time>
      </trkpt>
      <trkpt lat="51.156719947187" lon="4.93950815235">
        <ele>13.2</ele>
        <time>2020-07-26T11:06:41Z</time>
      </trkpt>
      <trkpt lat="51.156865792247" lon="4.940290435077">
        <ele>12.4</ele>
        <time>2020-07-26T11:06:51Z</time>
      </trkpt>
      <trkpt lat="51.156867384808" lon="4.940545161018">
        <ele>12.4</ele>
        <time>2020-07-26T11:06:54Z</time>
      </trkpt>
      <trkpt lat="51.156902924064" lon="4.940712463742">
        <ele>13.2</ele>
        <time>2020-07-26T11:06:56Z</time>
      </trkpt>
      <trkpt lat="51.157066287295" lon="4.941610835784">
        <ele>17.8</ele>
        <time>2020-07-26T11:07:06Z</time>
      </trkpt>
      <trkpt lat="51.157263597221" lon="4.94247534495">
        <ele>15.4</ele>
        <time>2020-07-26T11:07:15Z</time>
      </trkpt>
      <trkpt lat="51.157495440575" lon="4.943288473069">
        <ele>14.8</ele>
        <time>2020-07-26T11:07:24Z</time>
      </trkpt>
      <trkpt lat="51.15773222925" lon="4.944133871503">
        <ele>15.4</ele>
        <time>2020-07-26T11:07:33Z</time>
      </trkpt>
      <trkpt lat="51.157949823374" lon="4.94493291803">
        <ele>16.2</ele>
        <time>2020-07-26T11:07:42Z</time>
      </trkpt>
      <trkpt lat="51.158165657299" lon="4.945728444159">
        <ele>15.4</ele>
        <time>2020-07-26T11:07:50Z</time>
      </trkpt>
      <trkpt lat="51.158396159549" lon="4.946574596964">
        <ele>15.4</ele>
        <time>2020-07-26T11:07:59Z</time>
      </trkpt>
      <trkpt lat="51.158628338179" lon="4.947400381752">
        <ele>15.6</ele>
        <time>2020-07-26T11:08:08Z</time>
      </trkpt>
      <trkpt lat="51.158867222329" lon="4.948218874287">
        <ele>16.2</ele>
        <time>2020-07-26T11:08:17Z</time>
      </trkpt>
      <trkpt lat="51.159078278571" lon="4.949084137824">
        <ele>16.2</ele>
        <time>2020-07-26T11:08:26Z</time>
      </trkpt>
      <trkpt lat="51.159250275159" lon="4.9498975174">
        <ele>16.6</ele>
        <time>2020-07-26T11:08:34Z</time>
      </trkpt>
      <trkpt lat="51.159424367222" lon="4.950710729338">
        <ele>17.4</ele>
        <time>2020-07-26T11:08:42Z</time>
      </trkpt>
      <trkpt lat="51.159620838958" lon="4.951539196334">
        <ele>17.6</ele>
        <time>2020-07-26T11:08:50Z</time>
      </trkpt>
      <trkpt lat="51.159881432229" lon="4.9523198865">
        <ele>18</ele>
        <time>2020-07-26T11:08:58Z</time>
      </trkpt>
      <trkpt lat="51.160192652176" lon="4.953097391544">
        <ele>18.8</ele>
        <time>2020-07-26T11:09:06Z</time>
      </trkpt>
      <trkpt lat="51.160517115525" lon="4.953852014001">
        <ele>20</ele>
        <time>2020-07-26T11:09:14Z</time>
      </trkpt>
      <trkpt lat="51.160840489227" lon="4.95459808692">
        <ele>20</ele>
        <time>2020-07-26T11:09:22Z</time>
      </trkpt>
      <trkpt lat="51.16123083431" lon="4.955317673035">
        <ele>19.4</ele>
        <time>2020-07-26T11:09:31Z</time>
      </trkpt>
      <trkpt lat="51.161541551343" lon="4.956040695729">
        <ele>19</ele>
        <time>2020-07-26T11:09:40Z</time>
      </trkpt>
      <trkpt lat="51.161860147362" lon="4.956785343725">
        <ele>18.4</ele>
        <time>2020-07-26T11:09:49Z</time>
      </trkpt>
      <trkpt lat="51.162214282637" lon="4.957462349788">
        <ele>18.4</ele>
        <time>2020-07-26T11:09:58Z</time>
      </trkpt>
      <trkpt lat="51.162494321916" lon="4.958061655638">
        <ele>18.4</ele>
        <time>2020-07-26T11:10:09Z</time>
      </trkpt>
      <trkpt lat="51.162548301352" lon="4.958377569449">
        <ele>19.2</ele>
        <time>2020-07-26T11:10:13Z</time>
      </trkpt>
      <trkpt lat="51.162821802749" lon="4.959150799724">
        <ele>21</ele>
        <time>2020-07-26T11:10:22Z</time>
      </trkpt>
      <trkpt lat="51.16312933466" lon="4.959979937272">
        <ele>20.2</ele>
        <time>2020-07-26T11:10:31Z</time>
      </trkpt>
      <trkpt lat="51.163404680075" lon="4.960752748452">
        <ele>21.4</ele>
        <time>2020-07-26T11:10:40Z</time>
      </trkpt>
      <trkpt lat="51.163635936696" lon="4.961350126465">
        <ele>23.2</ele>
        <time>2020-07-26T11:10:48Z</time>
      </trkpt>
      <trkpt lat="51.163688072114" lon="4.961469736178">
        <ele>25</ele>
        <time>2020-07-26T11:10:50Z</time>
      </trkpt>
      <trkpt lat="51.163748505613" lon="4.961665202086">
        <ele>27</ele>
        <time>2020-07-26T11:10:53Z</time>
      </trkpt>
      <trkpt lat="51.1638216796" lon="4.961764946696">
        <ele>26.4</ele>
        <time>2020-07-26T11:10:55Z</time>
      </trkpt>
      <trkpt lat="51.163888986257" lon="4.961845245298">
        <ele>27.6</ele>
        <time>2020-07-26T11:10:57Z</time>
      </trkpt>
      <trkpt lat="51.163929051739" lon="4.962004082303">
        <ele>27.2</ele>
        <time>2020-07-26T11:10:59Z</time>
      </trkpt>
      <trkpt lat="51.164003399192" lon="4.962477743472">
        <ele>25.4</ele>
        <time>2020-07-26T11:11:04Z</time>
      </trkpt>
      <trkpt lat="51.163955203267" lon="4.962644375644">
        <ele>24.8</ele>
        <time>2020-07-26T11:11:06Z</time>
      </trkpt>
      <trkpt lat="51.163853866096" lon="4.962747389195">
        <ele>24.8</ele>
        <time>2020-07-26T11:11:08Z</time>
      </trkpt>
      <trkpt lat="51.16330619275" lon="4.9631241556">
        <ele>23.8</ele>
        <time>2020-07-26T11:11:17Z</time>
      </trkpt>
      <trkpt lat="51.162768661503" lon="4.963524558963">
        <ele>24.6</ele>
        <time>2020-07-26T11:11:27Z</time>
      </trkpt>
      <trkpt lat="51.162661121726" lon="4.963620950813">
        <ele>24.2</ele>
        <time>2020-07-26T11:11:28Z</time>
      </trkpt>
      <trkpt lat="51.162142952668" lon="4.964018169054">
        <ele>22.8</ele>
        <time>2020-07-26T11:11:39Z</time>
      </trkpt>
      <trkpt lat="51.16165579664" lon="4.964429385068">
        <ele>20.8</ele>
        <time>2020-07-26T11:11:48Z</time>
      </trkpt>
      <trkpt lat="51.161178698892" lon="4.964857281063">
        <ele>20.8</ele>
        <time>2020-07-26T11:11:57Z</time>
      </trkpt>
      <trkpt lat="51.160672767408" lon="4.965282578669">
        <ele>20</ele>
        <time>2020-07-26T11:12:06Z</time>
      </trkpt>
      <trkpt lat="51.160186533389" lon="4.965711731949">
        <ele>17.8</ele>
        <time>2020-07-26T11:12:15Z</time>
      </trkpt>
      <trkpt lat="51.159691833651" lon="4.966144824722">
        <ele>16.6</ele>
        <time>2020-07-26T11:12:24Z</time>
      </trkpt>
      <trkpt lat="51.159380446066" lon="4.966390498211">
        <ele>17.4</ele>
        <time>2020-07-26T11:12:30Z</time>
      </trkpt>
      <trkpt lat="51.159309367554" lon="4.966507760992">
        <ele>17</ele>
        <time>2020-07-26T11:12:32Z</time>
      </trkpt>
      <trkpt lat="51.159269385891" lon="4.966668274377">
        <ele>16</ele>
        <time>2020-07-26T11:12:34Z</time>
      </trkpt>
      <trkpt lat="51.159145082314" lon="4.967583158762">
        <ele>16</ele>
        <time>2020-07-26T11:12:44Z</time>
      </trkpt>
      <trkpt lat="51.159073752345" lon="4.968157738007">
        <ele>16</ele>
        <time>2020-07-26T11:12:51Z</time>
      </trkpt>
      <trkpt lat="51.158945676913" lon="4.968767940327">
        <ele>19.2</ele>
        <time>2020-07-26T11:13:33Z</time>
      </trkpt>
      <trkpt lat="51.158968978595" lon="4.968879587235">
        <ele>19.2</ele>
        <time>2020-07-26T11:13:37Z</time>
      </trkpt>
      <trkpt lat="51.159035698519" lon="4.969177815237">
        <ele>20</ele>
        <time>2020-07-26T11:13:45Z</time>
      </trkpt>
      <trkpt lat="51.159158074259" lon="4.969535554729">
        <ele>21.8</ele>
        <time>2020-07-26T11:13:54Z</time>
      </trkpt>
      <trkpt lat="51.158673684258" lon="4.969916176808">
        <ele>17.4</ele>
        <time>2020-07-26T11:14:08Z</time>
      </trkpt>
      <trkpt lat="51.158516188357" lon="4.970044503697">
        <ele>14</ele>
        <time>2020-07-26T11:14:13Z</time>
      </trkpt>
      <trkpt lat="51.158994878666" lon="4.969627504172">
        <ele>11.4</ele>
        <time>2020-07-26T11:14:28Z</time>
      </trkpt>
      <trkpt lat="51.159090264688" lon="4.969558353497">
        <ele>13.2</ele>
        <time>2020-07-26T11:14:30Z</time>
      </trkpt>
      <trkpt lat="51.159186572719" lon="4.969633455321">
        <ele>19.4</ele>
        <time>2020-07-26T11:14:33Z</time>
      </trkpt>
      <trkpt lat="51.159395701124" lon="4.970431663658">
        <ele>22.8</ele>
        <time>2020-07-26T11:14:42Z</time>
      </trkpt>
      <trkpt lat="51.159662413182" lon="4.971070532076">
        <ele>20.8</ele>
        <time>2020-07-26T11:14:49Z</time>
      </trkpt>
      <trkpt lat="51.159822004558" lon="4.971957672372">
        <ele>20</ele>
        <time>2020-07-26T11:14:57Z</time>
      </trkpt>
      <trkpt lat="51.159995258431" lon="4.972850763817">
        <ele>23.2</ele>
        <time>2020-07-26T11:15:05Z</time>
      </trkpt>
      <trkpt lat="51.160164237535" lon="4.973735892457">
        <ele>23.8</ele>
        <time>2020-07-26T11:15:13Z</time>
      </trkpt>
      <trkpt lat="51.16032726549" lon="4.974618171251">
        <ele>23</ele>
        <time>2020-07-26T11:15:21Z</time>
      </trkpt>
      <trkpt lat="51.160499513535" lon="4.975501791149">
        <ele>22.6</ele>
        <time>2020-07-26T11:15:29Z</time>
      </trkpt>
      <trkpt lat="51.160672851227" lon="4.976356577311">
        <ele>21.6</ele>
        <time>2020-07-26T11:15:37Z</time>
      </trkpt>
      <trkpt lat="51.160687854828" lon="4.976570567218">
        <ele>22</ele>
        <time>2020-07-26T11:15:39Z</time>
      </trkpt>
      <trkpt lat="51.160692213416" lon="4.977509759113">
        <ele>21.8</ele>
        <time>2020-07-26T11:15:48Z</time>
      </trkpt>
      <trkpt lat="51.160754993847" lon="4.978448531913">
        <ele>23.8</ele>
        <time>2020-07-26T11:15:57Z</time>
      </trkpt>
      <trkpt lat="51.160839064304" lon="4.97905144198">
        <ele>24</ele>
        <time>2020-07-26T11:16:03Z</time>
      </trkpt>
      <trkpt lat="51.161089347838" lon="4.979917627526">
        <ele>26</ele>
        <time>2020-07-26T11:16:12Z</time>
      </trkpt>
      <trkpt lat="51.161404088183" lon="4.980739724278">
        <ele>34.6</ele>
        <time>2020-07-26T11:16:21Z</time>
      </trkpt>
      <trkpt lat="51.161448344615" lon="4.980954217099">
        <ele>32.8</ele>
        <time>2020-07-26T11:16:23Z</time>
      </trkpt>
      <trkpt lat="51.161357568638" lon="4.982254501246">
        <ele>26</ele>
        <time>2020-07-26T11:16:35Z</time>
      </trkpt>
      <trkpt lat="51.161339044639" lon="4.983117334032">
        <ele>25.4</ele>
        <time>2020-07-26T11:16:43Z</time>
      </trkpt>
      <trkpt lat="51.161316413509" lon="4.984029368571">
        <ele>22</ele>
        <time>2020-07-26T11:16:51Z</time>
      </trkpt>
      <trkpt lat="51.16137667937" lon="4.984633368285">
        <ele>20.8</ele>
        <time>2020-07-26T11:16:57Z</time>
      </trkpt>
      <trkpt lat="51.161447674063" lon="4.984792875842">
        <ele>20.6</ele>
        <time>2020-07-26T11:16:59Z</time>
      </trkpt>
      <trkpt lat="51.161765012797" lon="4.98536636544">
        <ele>20.6</ele>
        <time>2020-07-26T11:17:07Z</time>
      </trkpt>
      <trkpt lat="51.161804743003" lon="4.985488992637">
        <ele>21.8</ele>
        <time>2020-07-26T11:17:09Z</time>
      </trkpt>
      <trkpt lat="51.161984199482" lon="4.986394573113">
        <ele>30.2</ele>
        <time>2020-07-26T11:17:26Z</time>
      </trkpt>
      <trkpt lat="51.162022169489" lon="4.986906204289">
        <ele>32.2</ele>
        <time>2020-07-26T11:17:31Z</time>
      </trkpt>
      <trkpt lat="51.161982355464" lon="4.987113488676">
        <ele>32.4</ele>
        <time>2020-07-26T11:17:33Z</time>
      </trkpt>
      <trkpt lat="51.161775154896" lon="4.987937261808">
        <ele>24.6</ele>
        <time>2020-07-26T11:17:41Z</time>
      </trkpt>
      <trkpt lat="51.161768617014" lon="4.988038934255">
        <ele>25.2</ele>
        <time>2020-07-26T11:17:42Z</time>
      </trkpt>
      <trkpt lat="51.161879509551" lon="4.98889095439">
        <ele>24</ele>
        <time>2020-07-26T11:17:51Z</time>
      </trkpt>
      <trkpt lat="51.162088805594" lon="4.98964700177">
        <ele>23.2</ele>
        <time>2020-07-26T11:18:01Z</time>
      </trkpt>
      <trkpt lat="51.162098863874" lon="4.989821093833">
        <ele>25</ele>
        <time>2020-07-26T11:18:04Z</time>
      </trkpt>
      <trkpt lat="51.162002388205" lon="4.989960736287">
        <ele>23.8</ele>
        <time>2020-07-26T11:18:07Z</time>
      </trkpt>
      <trkpt lat="51.161843215924" lon="4.990318978693">
        <ele>26.6</ele>
        <time>2020-07-26T11:18:15Z</time>
      </trkpt>
      <trkpt lat="51.161672811897" lon="4.990518970827">
        <ele>26</ele>
        <time>2020-07-26T11:18:19Z</time>
      </trkpt>
      <trkpt lat="51.161584047576" lon="4.990571357702">
        <ele>24.6</ele>
        <time>2020-07-26T11:18:21Z</time>
      </trkpt>
      <trkpt lat="51.161021789724" lon="4.990668503923">
        <ele>23</ele>
        <time>2020-07-26T11:18:32Z</time>
      </trkpt>
      <trkpt lat="51.160865048194" lon="4.990715777839">
        <ele>25.6</ele>
        <time>2020-07-26T11:18:35Z</time>
      </trkpt>
      <trkpt lat="51.16077737352" lon="4.990773612949">
        <ele>25.4</ele>
        <time>2020-07-26T11:18:37Z</time>
      </trkpt>
      <trkpt lat="51.16070948013" lon="4.990881152726">
        <ele>24.4</ele>
        <time>2020-07-26T11:18:39Z</time>
      </trkpt>
      <trkpt lat="51.160665475155" lon="4.99103923536">
        <ele>24.4</ele>
        <time>2020-07-26T11:18:41Z</time>
      </trkpt>
      <trkpt lat="51.160609567882" lon="4.991741973856">
        <ele>25.8</ele>
        <time>2020-07-26T11:18:51Z</time>
      </trkpt>
      <trkpt lat="51.160792041845" lon="4.992636238767">
        <ele>32.8</ele>
        <time>2020-07-26T11:19:04Z</time>
      </trkpt>
      <trkpt lat="51.160980550776" lon="4.993530419859">
        <ele>39.8</ele>
        <time>2020-07-26T11:19:14Z</time>
      </trkpt>
      <trkpt lat="51.161158414694" lon="4.994356707561">
        <ele>36.2</ele>
        <time>2020-07-26T11:19:23Z</time>
      </trkpt>
      <trkpt lat="51.161330830377" lon="4.995231191188">
        <ele>35.6</ele>
        <time>2020-07-26T11:19:35Z</time>
      </trkpt>
      <trkpt lat="51.161400316328" lon="4.996097628191">
        <ele>29.8</ele>
        <time>2020-07-26T11:19:45Z</time>
      </trkpt>
      <trkpt lat="51.161424791476" lon="4.996372805968">
        <ele>29</ele>
        <time>2020-07-26T11:19:48Z</time>
      </trkpt>
      <trkpt lat="51.161463096759" lon="4.996630884669">
        <ele>28</ele>
        <time>2020-07-26T11:19:51Z</time>
      </trkpt>
      <trkpt lat="51.161518584937" lon="4.996761474671">
        <ele>27.4</ele>
        <time>2020-07-26T11:19:53Z</time>
      </trkpt>
      <trkpt lat="51.161646660369" lon="4.996907738826">
        <ele>27.6</ele>
        <time>2020-07-26T11:19:56Z</time>
      </trkpt>
      <trkpt lat="51.162143958496" lon="4.997339155219">
        <ele>30.6</ele>
        <time>2020-07-26T11:20:05Z</time>
      </trkpt>
      <trkpt lat="51.162627845583" lon="4.997794962941">
        <ele>34.8</ele>
        <time>2020-07-26T11:20:14Z</time>
      </trkpt>
      <trkpt lat="51.163106284435" lon="4.998244065143">
        <ele>37</ele>
        <time>2020-07-26T11:20:24Z</time>
      </trkpt>
      <trkpt lat="51.163138638569" lon="4.998283795349">
        <ele>37</ele>
        <time>2020-07-26T11:20:25Z</time>
      </trkpt>
      <trkpt lat="51.163171327979" lon="4.99844296763">
        <ele>32.4</ele>
        <time>2020-07-26T11:20:29Z</time>
      </trkpt>
      <trkpt lat="51.162848038096" lon="4.999134893475">
        <ele>24.4</ele>
        <time>2020-07-26T11:20:41Z</time>
      </trkpt>
      <trkpt lat="51.162612758163" lon="4.999754651161">
        <ele>19.8</ele>
        <time>2020-07-26T11:20:51Z</time>
      </trkpt>
      <trkpt lat="51.162270357548" lon="5.000458395485">
        <ele>26.2</ele>
        <time>2020-07-26T11:21:09Z</time>
      </trkpt>
      <trkpt lat="51.16184522758" lon="5.000998944216">
        <ele>23.8</ele>
        <time>2020-07-26T11:21:20Z</time>
      </trkpt>
      <trkpt lat="51.161394029903" lon="5.001503283139">
        <ele>19.2</ele>
        <time>2020-07-26T11:21:30Z</time>
      </trkpt>
      <trkpt lat="51.160914333766" lon="5.001969484417">
        <ele>15.4</ele>
        <time>2020-07-26T11:21:39Z</time>
      </trkpt>
      <trkpt lat="51.160457771673" lon="5.002445827794">
        <ele>15.4</ele>
        <time>2020-07-26T11:21:47Z</time>
      </trkpt>
      <trkpt lat="51.16000623872" lon="5.002922590266">
        <ele>14.8</ele>
        <time>2020-07-26T11:21:55Z</time>
      </trkpt>
      <trkpt lat="51.159576163431" lon="5.003417541461">
        <ele>15.6</ele>
        <time>2020-07-26T11:22:04Z</time>
      </trkpt>
      <trkpt lat="51.15946979712" lon="5.003525081238">
        <ele>16.2</ele>
        <time>2020-07-26T11:22:06Z</time>
      </trkpt>
      <trkpt lat="51.159017593615" lon="5.004020367709">
        <ele>16.2</ele>
        <time>2020-07-26T11:22:14Z</time>
      </trkpt>
      <trkpt lat="51.158559019866" lon="5.004646076544">
        <ele>15.6</ele>
        <time>2020-07-26T11:22:23Z</time>
      </trkpt>
      <trkpt lat="51.158099524108" lon="5.005241107625">
        <ele>13.4</ele>
        <time>2020-07-26T11:22:32Z</time>
      </trkpt>
      <trkpt lat="51.157546067251" lon="5.005560709472">
        <ele>14.8</ele>
        <time>2020-07-26T11:22:42Z</time>
      </trkpt>
      <trkpt lat="51.157015325343" lon="5.005793810111">
        <ele>20.8</ele>
        <time>2020-07-26T11:22:53Z</time>
      </trkpt>
      <trkpt lat="51.156955143301" lon="5.005736394096">
        <ele>20.6</ele>
        <time>2020-07-26T11:22:56Z</time>
      </trkpt>
      <trkpt lat="51.156938714777" lon="5.005951222193">
        <ele>19.2</ele>
        <time>2020-07-26T11:23:00Z</time>
      </trkpt>
      <trkpt lat="51.156929075592" lon="5.006111316483">
        <ele>19.2</ele>
        <time>2020-07-26T11:23:02Z</time>
      </trkpt>
      <trkpt lat="51.156994035317" lon="5.006981525341">
        <ele>19.4</ele>
        <time>2020-07-26T11:23:11Z</time>
      </trkpt>
      <trkpt lat="51.157156225082" lon="5.007901355047">
        <ele>22.6</ele>
        <time>2020-07-26T11:23:20Z</time>
      </trkpt>
      <trkpt lat="51.15731229606" lon="5.008755638295">
        <ele>21.2</ele>
        <time>2020-07-26T11:23:28Z</time>
      </trkpt>
      <trkpt lat="51.157401730933" lon="5.00965794983">
        <ele>20.2</ele>
        <time>2020-07-26T11:23:36Z</time>
      </trkpt>
      <trkpt lat="51.157579008118" lon="5.010471664682">
        <ele>20.2</ele>
        <time>2020-07-26T11:23:45Z</time>
      </trkpt>
      <trkpt lat="51.157773971112" lon="5.011371713104">
        <ele>19.6</ele>
        <time>2020-07-26T11:23:55Z</time>
      </trkpt>
      <trkpt lat="51.158011933253" lon="5.012146871216">
        <ele>19</ele>
        <time>2020-07-26T11:24:03Z</time>
      </trkpt>
      <trkpt lat="51.158370510935" lon="5.012922280785">
        <ele>20.2</ele>
        <time>2020-07-26T11:24:12Z</time>
      </trkpt>
      <trkpt lat="51.158736716146" lon="5.01365443975">
        <ele>19.6</ele>
        <time>2020-07-26T11:24:20Z</time>
      </trkpt>
      <trkpt lat="51.158869569261" lon="5.01393942435">
        <ele>19.2</ele>
        <time>2020-07-26T11:24:24Z</time>
      </trkpt>
      <trkpt lat="51.158845429389" lon="5.014065823402">
        <ele>18.6</ele>
        <time>2020-07-26T11:24:26Z</time>
      </trkpt>
      <trkpt lat="51.158770495203" lon="5.014177386491">
        <ele>18.2</ele>
        <time>2020-07-26T11:24:28Z</time>
      </trkpt>
      <trkpt lat="51.158658848295" lon="5.014322896275">
        <ele>16.8</ele>
        <time>2020-07-26T11:24:33Z</time>
      </trkpt>
      <trkpt lat="51.158661362865" lon="5.014320381705">
        <ele>21</ele>
        <time>2020-07-26T11:25:35Z</time>
      </trkpt>
      <trkpt lat="51.158665889091" lon="5.01431828623">
        <ele>21.2</ele>
        <time>2020-07-26T11:25:37Z</time>
      </trkpt>
      <trkpt lat="51.158355591153" lon="5.014765125319">
        <ele>17.6</ele>
        <time>2020-07-26T11:26:45Z</time>
      </trkpt>
      <trkpt lat="51.157935490325" lon="5.01530483586">
        <ele>15.4</ele>
        <time>2020-07-26T11:26:54Z</time>
      </trkpt>
      <trkpt lat="51.157432911601" lon="5.015732815674">
        <ele>18</ele>
        <time>2020-07-26T11:27:05Z</time>
      </trkpt>
      <trkpt lat="51.157007278719" lon="5.016302868693">
        <ele>17.8</ele>
        <time>2020-07-26T11:27:17Z</time>
      </trkpt>
      <trkpt lat="51.156606456261" lon="5.016911143176">
        <ele>14.4</ele>
        <time>2020-07-26T11:27:26Z</time>
      </trkpt>
      <trkpt lat="51.15616732852" lon="5.017527799559">
        <ele>15.2</ele>
        <time>2020-07-26T11:27:35Z</time>
      </trkpt>
      <trkpt lat="51.155776396704" lon="5.018127440685">
        <ele>17.4</ele>
        <time>2020-07-26T11:27:45Z</time>
      </trkpt>
      <trkpt lat="51.155740438353" lon="5.018202710147">
        <ele>17.6</ele>
        <time>2020-07-26T11:27:46Z</time>
      </trkpt>
      <trkpt lat="51.155687297107" lon="5.018380574065">
        <ele>17.6</ele>
        <time>2020-07-26T11:27:48Z</time>
      </trkpt>
      <trkpt lat="51.155588390687" lon="5.019279868116">
        <ele>16.4</ele>
        <time>2020-07-26T11:27:57Z</time>
      </trkpt>
      <trkpt lat="51.155561233331" lon="5.02019483632">
        <ele>16.8</ele>
        <time>2020-07-26T11:28:05Z</time>
      </trkpt>
      <trkpt lat="51.155551426508" lon="5.021136458966">
        <ele>18</ele>
        <time>2020-07-26T11:28:13Z</time>
      </trkpt>
      <trkpt lat="51.15553952421" lon="5.022041787985">
        <ele>18.4</ele>
        <time>2020-07-26T11:28:21Z</time>
      </trkpt>
      <trkpt lat="51.155525861713" lon="5.022917025983">
        <ele>20.2</ele>
        <time>2020-07-26T11:28:29Z</time>
      </trkpt>
      <trkpt lat="51.155503314402" lon="5.023821013898">
        <ele>20.2</ele>
        <time>2020-07-26T11:28:38Z</time>
      </trkpt>
      <trkpt lat="51.15549258557" lon="5.024706477814">
        <ele>20.8</ele>
        <time>2020-07-26T11:28:47Z</time>
      </trkpt>
      <trkpt lat="51.155490573914" lon="5.02566570245">
        <ele>18.8</ele>
        <time>2020-07-26T11:28:56Z</time>
      </trkpt>
      <trkpt lat="51.155490825371" lon="5.02660196068">
        <ele>18.6</ele>
        <time>2020-07-26T11:29:05Z</time>
      </trkpt>
      <trkpt lat="51.155508762637" lon="5.027512318839">
        <ele>18.2</ele>
        <time>2020-07-26T11:29:13Z</time>
      </trkpt>
      <trkpt lat="51.155524520609" lon="5.028452768019">
        <ele>18</ele>
        <time>2020-07-26T11:29:21Z</time>
      </trkpt>
      <trkpt lat="51.155528543921" lon="5.029387098412">
        <ele>19</ele>
        <time>2020-07-26T11:29:29Z</time>
      </trkpt>
      <trkpt lat="51.155553857259" lon="5.030323608099">
        <ele>19</ele>
        <time>2020-07-26T11:29:37Z</time>
      </trkpt>
      <trkpt lat="51.155760471094" lon="5.031170682913">
        <ele>18.8</ele>
        <time>2020-07-26T11:29:45Z</time>
      </trkpt>
      <trkpt lat="51.156007066592" lon="5.031952798002">
        <ele>18.8</ele>
        <time>2020-07-26T11:29:53Z</time>
      </trkpt>
      <trkpt lat="51.156251650434" lon="5.032788221975">
        <ele>19.2</ele>
        <time>2020-07-26T11:30:01Z</time>
      </trkpt>
      <trkpt lat="51.15650847185" lon="5.033641583214">
        <ele>20.4</ele>
        <time>2020-07-26T11:30:09Z</time>
      </trkpt>
      <trkpt lat="51.156775100089" lon="5.034525622207">
        <ele>19.6</ele>
        <time>2020-07-26T11:30:17Z</time>
      </trkpt>
      <trkpt lat="51.157017001723" lon="5.035301199414">
        <ele>19.6</ele>
        <time>2020-07-26T11:30:24Z</time>
      </trkpt>
      <trkpt lat="51.157278097908" lon="5.036170486263">
        <ele>20</ele>
        <time>2020-07-26T11:30:32Z</time>
      </trkpt>
      <trkpt lat="51.157501475543" lon="5.036952936628">
        <ele>21.2</ele>
        <time>2020-07-26T11:30:39Z</time>
      </trkpt>
      <trkpt lat="51.157773803474" lon="5.037804118573">
        <ele>21.8</ele>
        <time>2020-07-26T11:30:47Z</time>
      </trkpt>
      <trkpt lat="51.158015788927" lon="5.038660581115">
        <ele>22.4</ele>
        <time>2020-07-26T11:30:55Z</time>
      </trkpt>
      <trkpt lat="51.158266491556" lon="5.039445965145">
        <ele>23.2</ele>
        <time>2020-07-26T11:31:03Z</time>
      </trkpt>
      <trkpt lat="51.158334804041" lon="5.039711922832">
        <ele>23.2</ele>
        <time>2020-07-26T11:31:06Z</time>
      </trkpt>
      <trkpt lat="51.158315106576" lon="5.03986296467">
        <ele>22.4</ele>
        <time>2020-07-26T11:31:08Z</time>
      </trkpt>
      <trkpt lat="51.158226426074" lon="5.03994343091">
        <ele>22</ele>
        <time>2020-07-26T11:31:10Z</time>
      </trkpt>
      <trkpt lat="51.15754028374" lon="5.040437041001">
        <ele>17.2</ele>
        <time>2020-07-26T11:31:22Z</time>
      </trkpt>
      <trkpt lat="51.157023623424" lon="5.04084616154">
        <ele>17.4</ele>
        <time>2020-07-26T11:31:30Z</time>
      </trkpt>
      <trkpt lat="51.156499670855" lon="5.041249750025">
        <ele>16.8</ele>
        <time>2020-07-26T11:31:38Z</time>
      </trkpt>
      <trkpt lat="51.155955350269" lon="5.041661133677">
        <ele>16.4</ele>
        <time>2020-07-26T11:31:47Z</time>
      </trkpt>
      <trkpt lat="51.155427374388" lon="5.042123060186">
        <ele>17.4</ele>
        <time>2020-07-26T11:31:56Z</time>
      </trkpt>
      <trkpt lat="51.15490669076" lon="5.042575431329">
        <ele>18.2</ele>
        <time>2020-07-26T11:32:05Z</time>
      </trkpt>
      <trkpt lat="51.154376703223" lon="5.042989664827">
        <ele>18.8</ele>
        <time>2020-07-26T11:32:14Z</time>
      </trkpt>
      <trkpt lat="51.153888960462" lon="5.043391912208">
        <ele>18.4</ele>
        <time>2020-07-26T11:32:23Z</time>
      </trkpt>
      <trkpt lat="51.153407504126" lon="5.043809414647">
        <ele>18.2</ele>
        <time>2020-07-26T11:32:32Z</time>
      </trkpt>
      <trkpt lat="51.153288648784" lon="5.043889377973">
        <ele>18.2</ele>
        <time>2020-07-26T11:32:34Z</time>
      </trkpt>
      <trkpt lat="51.152764360939" lon="5.044340240374">
        <ele>20.2</ele>
        <time>2020-07-26T11:32:43Z</time>
      </trkpt>
      <trkpt lat="51.152277121092" lon="5.044739805547">
        <ele>18</ele>
        <time>2020-07-26T11:32:51Z</time>
      </trkpt>
      <trkpt lat="51.151911418795" lon="5.045012971668">
        <ele>16.8</ele>
        <time>2020-07-26T11:32:57Z</time>
      </trkpt>
      <trkpt lat="51.151762723889" lon="5.04517373651">
        <ele>16.2</ele>
        <time>2020-07-26T11:33:00Z</time>
      </trkpt>
      <trkpt lat="51.151483606619" lon="5.045414716135">
        <ele>16.6</ele>
        <time>2020-07-26T11:33:05Z</time>
      </trkpt>
      <trkpt lat="51.150945823915" lon="5.045823501398">
        <ele>17.4</ele>
        <time>2020-07-26T11:33:14Z</time>
      </trkpt>
      <trkpt lat="51.150457662059" lon="5.046204039658">
        <ele>17</ele>
        <time>2020-07-26T11:33:23Z</time>
      </trkpt>
      <trkpt lat="51.149956759715" lon="5.046599413881">
        <ele>18.2</ele>
        <time>2020-07-26T11:33:32Z</time>
      </trkpt>
      <trkpt lat="51.149482344175" lon="5.047008115325">
        <ele>19</ele>
        <time>2020-07-26T11:33:41Z</time>
      </trkpt>
      <trkpt lat="51.148969539533" lon="5.047415391846">
        <ele>18.8</ele>
        <time>2020-07-26T11:33:50Z</time>
      </trkpt>
      <trkpt lat="51.148455226149" lon="5.047833732475">
        <ele>19.8</ele>
        <time>2020-07-26T11:33:59Z</time>
      </trkpt>
      <trkpt lat="51.147964382085" lon="5.048222568816">
        <ele>18.2</ele>
        <time>2020-07-26T11:34:09Z</time>
      </trkpt>
      <trkpt lat="51.147481668464" lon="5.048595647185">
        <ele>21.2</ele>
        <time>2020-07-26T11:34:22Z</time>
      </trkpt>
      <trkpt lat="51.146945143045" lon="5.048978700015">
        <ele>19.6</ele>
        <time>2020-07-26T11:34:32Z</time>
      </trkpt>
      <trkpt lat="51.146449688936" lon="5.049362507216">
        <ele>14.6</ele>
        <time>2020-07-26T11:34:43Z</time>
      </trkpt>
      <trkpt lat="51.145963706374" lon="5.049741369096">
        <ele>9.6</ele>
        <time>2020-07-26T11:34:53Z</time>
      </trkpt>
      <trkpt lat="51.145457439614" lon="5.05010564647">
        <ele>0.8</ele>
        <time>2020-07-26T11:35:02Z</time>
      </trkpt>
      <trkpt lat="51.14494815537" lon="5.050533626284">
        <ele>0</ele>
        <time>2020-07-26T11:35:12Z</time>
      </trkpt>
      <trkpt lat="51.144484887757" lon="5.051063278545">
        <ele>0</ele>
        <time>2020-07-26T11:35:23Z</time>
      </trkpt>
      <trkpt lat="51.144037378116" lon="5.051666272431">
        <ele>3.4</ele>
        <time>2020-07-26T11:35:33Z</time>
      </trkpt>
      <trkpt lat="51.143616355279" lon="5.052319390079">
        <ele>10.6</ele>
        <time>2020-07-26T11:35:42Z</time>
      </trkpt>
      <trkpt lat="51.143223327988" lon="5.052969909338">
        <ele>21.4</ele>
        <time>2020-07-26T11:35:51Z</time>
      </trkpt>
      <trkpt lat="51.142867516333" lon="5.053631241248">
        <ele>23</ele>
        <time>2020-07-26T11:36:03Z</time>
      </trkpt>
      <trkpt lat="51.142837006217" lon="5.053684214856">
        <ele>23</ele>
        <time>2020-07-26T11:36:04Z</time>
      </trkpt>
      <trkpt lat="51.142450097713" lon="5.054322747998">
        <ele>24.8</ele>
        <time>2020-07-26T11:36:17Z</time>
      </trkpt>
      <trkpt lat="51.142073415127" lon="5.054938817648">
        <ele>22.2</ele>
        <time>2020-07-26T11:36:27Z</time>
      </trkpt>
      <trkpt lat="51.141659768362" lon="5.055525550648">
        <ele>18</ele>
        <time>2020-07-26T11:36:37Z</time>
      </trkpt>
      <trkpt lat="51.141244696674" lon="5.05620850786">
        <ele>9.8</ele>
        <time>2020-07-26T11:36:47Z</time>
      </trkpt>
      <trkpt lat="51.140880838395" lon="5.056851734866">
        <ele>17.6</ele>
        <time>2020-07-26T11:36:55Z</time>
      </trkpt>
      <trkpt lat="51.140468951829" lon="5.057488340171">
        <ele>16.2</ele>
        <time>2020-07-26T11:37:03Z</time>
      </trkpt>
      <trkpt lat="51.140018676161" lon="5.058133411195">
        <ele>8</ele>
        <time>2020-07-26T11:37:12Z</time>
      </trkpt>
      <trkpt lat="51.139611818735" lon="5.058756521641">
        <ele>7.2</ele>
        <time>2020-07-26T11:37:20Z</time>
      </trkpt>
      <trkpt lat="51.139220551643" lon="5.059403101407">
        <ele>15.8</ele>
        <time>2020-07-26T11:37:28Z</time>
      </trkpt>
      <trkpt lat="51.139004298623" lon="5.059828566651">
        <ele>19.2</ele>
        <time>2020-07-26T11:37:34Z</time>
      </trkpt>
      <trkpt lat="51.138936572871" lon="5.059978854118">
        <ele>20</ele>
        <time>2020-07-26T11:37:36Z</time>
      </trkpt>
      <trkpt lat="51.138530050721" lon="5.060604562953">
        <ele>20.4</ele>
        <time>2020-07-26T11:37:45Z</time>
      </trkpt>
      <trkpt lat="51.138113721748" lon="5.061286011423">
        <ele>21</ele>
        <time>2020-07-26T11:37:54Z</time>
      </trkpt>
      <trkpt lat="51.137729579271" lon="5.061906104385">
        <ele>21.4</ele>
        <time>2020-07-26T11:38:03Z</time>
      </trkpt>
      <trkpt lat="51.137618686734" lon="5.062013476524">
        <ele>21.6</ele>
        <time>2020-07-26T11:38:05Z</time>
      </trkpt>
      <trkpt lat="51.13721333805" lon="5.062652009666">
        <ele>22</ele>
        <time>2020-07-26T11:38:13Z</time>
      </trkpt>
      <trkpt lat="51.136801283846" lon="5.06333982838">
        <ele>21.6</ele>
        <time>2020-07-26T11:38:22Z</time>
      </trkpt>
      <trkpt lat="51.136560723316" lon="5.063840814543">
        <ele>21.8</ele>
        <time>2020-07-26T11:38:29Z</time>
      </trkpt>
      <trkpt lat="51.136346230495" lon="5.064125882962">
        <ele>21</ele>
        <time>2020-07-26T11:38:34Z</time>
      </trkpt>
      <trkpt lat="51.135943899295" lon="5.064740108594">
        <ele>18.6</ele>
        <time>2020-07-26T11:38:44Z</time>
      </trkpt>
      <trkpt lat="51.135556152601" lon="5.06538920293">
        <ele>18.8</ele>
        <time>2020-07-26T11:38:54Z</time>
      </trkpt>
      <trkpt lat="51.135182319861" lon="5.066027736072">
        <ele>18</ele>
        <time>2020-07-26T11:39:04Z</time>
      </trkpt>
      <trkpt lat="51.134880320004" lon="5.066483627613">
        <ele>19.8</ele>
        <time>2020-07-26T11:39:11Z</time>
      </trkpt>
      <trkpt lat="51.13450766073" lon="5.067112270113">
        <ele>23.2</ele>
        <time>2020-07-26T11:39:21Z</time>
      </trkpt>
      <trkpt lat="51.13425452735" lon="5.067640665089">
        <ele>26.4</ele>
        <time>2020-07-26T11:39:29Z</time>
      </trkpt>
      <trkpt lat="51.13406761098" lon="5.068302080818">
        <ele>25.4</ele>
        <time>2020-07-26T11:39:38Z</time>
      </trkpt>
      <trkpt lat="51.134058642347" lon="5.068451027181">
        <ele>24.4</ele>
        <time>2020-07-26T11:39:40Z</time>
      </trkpt>
      <trkpt lat="51.134130223773" lon="5.068631908583">
        <ele>23</ele>
        <time>2020-07-26T11:39:43Z</time>
      </trkpt>
      <trkpt lat="51.134230387478" lon="5.068627466176">
        <ele>22.2</ele>
        <time>2020-07-26T11:39:45Z</time>
      </trkpt>
      <trkpt lat="51.134337005246" lon="5.068575749853">
        <ele>20.8</ele>
        <time>2020-07-26T11:39:47Z</time>
      </trkpt>
      <trkpt lat="51.134835057744" lon="5.068236953455">
        <ele>18</ele>
        <time>2020-07-26T11:39:56Z</time>
      </trkpt>
      <trkpt lat="51.135394633388" lon="5.067980383496">
        <ele>18.2</ele>
        <time>2020-07-26T11:40:05Z</time>
      </trkpt>
      <trkpt lat="51.135959070534" lon="5.067726244288">
        <ele>19.6</ele>
        <time>2020-07-26T11:40:14Z</time>
      </trkpt>
      <trkpt lat="51.136532560132" lon="5.067580147771">
        <ele>19.8</ele>
        <time>2020-07-26T11:40:23Z</time>
      </trkpt>
      <trkpt lat="51.136714531181" lon="5.067505213585">
        <ele>19.8</ele>
        <time>2020-07-26T11:40:26Z</time>
      </trkpt>
      <trkpt lat="51.137256253378" lon="5.06734050925">
        <ele>21.2</ele>
        <time>2020-07-26T11:40:35Z</time>
      </trkpt>
      <trkpt lat="51.13779085096" lon="5.067146132989">
        <ele>24.2</ele>
        <time>2020-07-26T11:40:45Z</time>
      </trkpt>
      <trkpt lat="51.137931499242" lon="5.067053177718">
        <ele>24</ele>
        <time>2020-07-26T11:40:48Z</time>
      </trkpt>
      <trkpt lat="51.137990172542" lon="5.06694907452">
        <ele>24</ele>
        <time>2020-07-26T11:40:50Z</time>
      </trkpt>
      <trkpt lat="51.13802554416" lon="5.066827034056">
        <ele>24</ele>
        <time>2020-07-26T11:40:52Z</time>
      </trkpt>
      <trkpt lat="51.138224781923" lon="5.066164109585">
        <ele>23.6</ele>
        <time>2020-07-26T11:41:02Z</time>
      </trkpt>
      <trkpt lat="51.138306086353" lon="5.066071154314">
        <ele>23.4</ele>
        <time>2020-07-26T11:41:04Z</time>
      </trkpt>
      <trkpt lat="51.138404825135" lon="5.066036872343">
        <ele>23</ele>
        <time>2020-07-26T11:41:06Z</time>
      </trkpt>
      <trkpt lat="51.138952247024" lon="5.065903432495">
        <ele>21.6</ele>
        <time>2020-07-26T11:41:15Z</time>
      </trkpt>
      <trkpt lat="51.139544260621" lon="5.065807543559">
        <ele>20</ele>
        <time>2020-07-26T11:41:25Z</time>
      </trkpt>
      <trkpt lat="51.13977652307" lon="5.065739147255">
        <ele>19.4</ele>
        <time>2020-07-26T11:41:29Z</time>
      </trkpt>
      <trkpt lat="51.140078774384" lon="5.065598247516">
        <ele>19</ele>
        <time>2020-07-26T11:41:35Z</time>
      </trkpt>
      <trkpt lat="51.140226798738" lon="5.065352406389">
        <ele>21.8</ele>
        <time>2020-07-26T11:41:41Z</time>
      </trkpt>
      <trkpt lat="51.140252028257" lon="5.064434839796">
        <ele>25.6</ele>
        <time>2020-07-26T11:41:52Z</time>
      </trkpt>
      <trkpt lat="51.140290249721" lon="5.063565552947">
        <ele>27.4</ele>
        <time>2020-07-26T11:42:02Z</time>
      </trkpt>
      <trkpt lat="51.140405500846" lon="5.062656032978">
        <ele>30.2</ele>
        <time>2020-07-26T11:42:13Z</time>
      </trkpt>
      <trkpt lat="51.140548160784" lon="5.061827985077">
        <ele>28.4</ele>
        <time>2020-07-26T11:42:22Z</time>
      </trkpt>
      <trkpt lat="51.140788888952" lon="5.061042265771">
        <ele>30.4</ele>
        <time>2020-07-26T11:42:31Z</time>
      </trkpt>
      <trkpt lat="51.141003800868" lon="5.060176415501">
        <ele>30.6</ele>
        <time>2020-07-26T11:42:41Z</time>
      </trkpt>
      <trkpt lat="51.141186107193" lon="5.059357922966">
        <ele>34</ele>
        <time>2020-07-26T11:42:51Z</time>
      </trkpt>
      <trkpt lat="51.141390457915" lon="5.058520990251">
        <ele>34.8</ele>
        <time>2020-07-26T11:43:00Z</time>
      </trkpt>
      <trkpt lat="51.141619199966" lon="5.057726302312">
        <ele>35</ele>
        <time>2020-07-26T11:43:10Z</time>
      </trkpt>
      <trkpt lat="51.141852049148" lon="5.056931614373">
        <ele>31</ele>
        <time>2020-07-26T11:43:20Z</time>
      </trkpt>
      <trkpt lat="51.142014658008" lon="5.056048581208">
        <ele>28</ele>
        <time>2020-07-26T11:43:30Z</time>
      </trkpt>
      <trkpt lat="51.142170728986" lon="5.055188598268">
        <ele>23.4</ele>
        <time>2020-07-26T11:43:41Z</time>
      </trkpt>
      <trkpt lat="51.142235353435" lon="5.054973183438">
        <ele>24.4</ele>
        <time>2020-07-26T11:43:44Z</time>
      </trkpt>
      <trkpt lat="51.142430316429" lon="5.054647211347">
        <ele>25.8</ele>
        <time>2020-07-26T11:43:49Z</time>
      </trkpt>
      <trkpt lat="51.143137329694" lon="5.05351288882">
        <ele>25.2</ele>
        <time>2020-07-26T11:44:05Z</time>
      </trkpt>
      <trkpt lat="51.143579139643" lon="5.052885755062">
        <ele>24.4</ele>
        <time>2020-07-26T11:44:14Z</time>
      </trkpt>
      <trkpt lat="51.143987002897" lon="5.052232637414">
        <ele>22.8</ele>
        <time>2020-07-26T11:44:22Z</time>
      </trkpt>
      <trkpt lat="51.144410456485" lon="5.051588320761">
        <ele>20.6</ele>
        <time>2020-07-26T11:44:30Z</time>
      </trkpt>
      <trkpt lat="51.1448953494" lon="5.051051208609">
        <ele>19.6</ele>
        <time>2020-07-26T11:44:39Z</time>
      </trkpt>
      <trkpt lat="51.145416033028" lon="5.050620378949">
        <ele>22.8</ele>
        <time>2020-07-26T11:44:48Z</time>
      </trkpt>
      <trkpt lat="51.145913163517" lon="5.050218215387">
        <ele>21.6</ele>
        <time>2020-07-26T11:44:57Z</time>
      </trkpt>
      <trkpt lat="51.146417586259" lon="5.049770454289">
        <ele>21</ele>
        <time>2020-07-26T11:45:06Z</time>
      </trkpt>
      <trkpt lat="51.146903401183" lon="5.049366865804">
        <ele>18.4</ele>
        <time>2020-07-26T11:45:15Z</time>
      </trkpt>
      <trkpt lat="51.147398436197" lon="5.04896486988">
        <ele>16</ele>
        <time>2020-07-26T11:45:25Z</time>
      </trkpt>
      <trkpt lat="51.147583843825" lon="5.048794298215">
        <ele>17.2</ele>
        <time>2020-07-26T11:45:29Z</time>
      </trkpt>
      <trkpt lat="51.147690293955" lon="5.048667899163">
        <ele>17.4</ele>
        <time>2020-07-26T11:45:32Z</time>
      </trkpt>
      <trkpt lat="51.148202930959" lon="5.048299598477">
        <ele>19</ele>
        <time>2020-07-26T11:45:43Z</time>
      </trkpt>
      <trkpt lat="51.148448269172" lon="5.04807806486">
        <ele>20</ele>
        <time>2020-07-26T11:45:48Z</time>
      </trkpt>
      <trkpt lat="51.148942717453" lon="5.047649414494">
        <ele>20</ele>
        <time>2020-07-26T11:45:58Z</time>
      </trkpt>
      <trkpt lat="51.1494634849" lon="5.047249514045">
        <ele>19.8</ele>
        <time>2020-07-26T11:46:08Z</time>
      </trkpt>
      <trkpt lat="51.149945276512" lon="5.046849362139">
        <ele>21.8</ele>
        <time>2020-07-26T11:46:18Z</time>
      </trkpt>
      <trkpt lat="51.150460176629" lon="5.046426579103">
        <ele>22.2</ele>
        <time>2020-07-26T11:46:28Z</time>
      </trkpt>
      <trkpt lat="51.150958983498" lon="5.046033384174">
        <ele>22</ele>
        <time>2020-07-26T11:46:38Z</time>
      </trkpt>
      <trkpt lat="51.151271544549" lon="5.045782513907">
        <ele>22.2</ele>
        <time>2020-07-26T11:46:44Z</time>
      </trkpt>
      <trkpt lat="51.151455443435" lon="5.045590149302">
        <ele>22.4</ele>
        <time>2020-07-26T11:46:48Z</time>
      </trkpt>
      <trkpt lat="51.151766160468" lon="5.045351851885">
        <ele>22.2</ele>
        <time>2020-07-26T11:46:54Z</time>
      </trkpt>
      <trkpt lat="51.151877136824" lon="5.045298878277">
        <ele>22.2</ele>
        <time>2020-07-26T11:46:56Z</time>
      </trkpt>
      <trkpt lat="51.152389270914" lon="5.044865869323">
        <ele>22.6</ele>
        <time>2020-07-26T11:47:06Z</time>
      </trkpt>
      <trkpt lat="51.152891011448" lon="5.044419952243">
        <ele>21.6</ele>
        <time>2020-07-26T11:47:16Z</time>
      </trkpt>
      <trkpt lat="51.153386800833" lon="5.044016615215">
        <ele>22.8</ele>
        <time>2020-07-26T11:47:27Z</time>
      </trkpt>
      <trkpt lat="51.153924918813" lon="5.043631550729">
        <ele>22.4</ele>
        <time>2020-07-26T11:47:39Z</time>
      </trkpt>
      <trkpt lat="51.154456666549" lon="5.043206336942">
        <ele>22</ele>
        <time>2020-07-26T11:47:49Z</time>
      </trkpt>
      <trkpt lat="51.154932087917" lon="5.042797886955">
        <ele>22.4</ele>
        <time>2020-07-26T11:47:58Z</time>
      </trkpt>
      <trkpt lat="51.155435672469" lon="5.042397315954">
        <ele>22.6</ele>
        <time>2020-07-26T11:48:07Z</time>
      </trkpt>
      <trkpt lat="51.155963899807" lon="5.041982160447">
        <ele>22.2</ele>
        <time>2020-07-26T11:48:17Z</time>
      </trkpt>
      <trkpt lat="51.156486343634" lon="5.041519647205">
        <ele>20.8</ele>
        <time>2020-07-26T11:48:27Z</time>
      </trkpt>
      <trkpt lat="51.157014403334" lon="5.041073143392">
        <ele>20.2</ele>
        <time>2020-07-26T11:48:37Z</time>
      </trkpt>
      <trkpt lat="51.157506588502" lon="5.040641559361">
        <ele>20.2</ele>
        <time>2020-07-26T11:48:47Z</time>
      </trkpt>
      <trkpt lat="51.157983602431" lon="5.040241742731">
        <ele>21.4</ele>
        <time>2020-07-26T11:48:57Z</time>
      </trkpt>
      <trkpt lat="51.15849162939" lon="5.039793143443">
        <ele>22.2</ele>
        <time>2020-07-26T11:49:07Z</time>
      </trkpt>
      <trkpt lat="51.158586177222" lon="5.039719801818">
        <ele>21.6</ele>
        <time>2020-07-26T11:49:09Z</time>
      </trkpt>
      <trkpt lat="51.158692292076" lon="5.039671689712">
        <ele>21.2</ele>
        <time>2020-07-26T11:49:11Z</time>
      </trkpt>
      <trkpt lat="51.159275001764" lon="5.039211439583">
        <ele>21.4</ele>
        <time>2020-07-26T11:49:21Z</time>
      </trkpt>
      <trkpt lat="51.159762157792" lon="5.038824279622">
        <ele>21.6</ele>
        <time>2020-07-26T11:49:32Z</time>
      </trkpt>
      <trkpt lat="51.160251157838" lon="5.038458493506">
        <ele>21.2</ele>
        <time>2020-07-26T11:49:42Z</time>
      </trkpt>
      <trkpt lat="51.160748204508" lon="5.038005954725">
        <ele>19.8</ele>
        <time>2020-07-26T11:49:53Z</time>
      </trkpt>
      <trkpt lat="51.161247346653" lon="5.037573783961">
        <ele>21.6</ele>
        <time>2020-07-26T11:50:04Z</time>
      </trkpt>
      <trkpt lat="51.161523781715" lon="5.037324003341">
        <ele>21.4</ele>
        <time>2020-07-26T11:50:11Z</time>
      </trkpt>
      <trkpt lat="51.162037927461" lon="5.036956876121">
        <ele>21.6</ele>
        <time>2020-07-26T11:50:22Z</time>
      </trkpt>
      <trkpt lat="51.16254008709" lon="5.036592263471">
        <ele>21.8</ele>
        <time>2020-07-26T11:50:32Z</time>
      </trkpt>
      <trkpt lat="51.163040318882" lon="5.036192698298">
        <ele>22</ele>
        <time>2020-07-26T11:50:42Z</time>
      </trkpt>
      <trkpt lat="51.163553039705" lon="5.035730939427">
        <ele>22.4</ele>
        <time>2020-07-26T11:50:52Z</time>
      </trkpt>
      <trkpt lat="51.164077243731" lon="5.035293571885">
        <ele>20.2</ele>
        <time>2020-07-26T11:51:03Z</time>
      </trkpt>
      <trkpt lat="51.164166930061" lon="5.035202292994">
        <ele>20.8</ele>
        <time>2020-07-26T11:51:04Z</time>
      </trkpt>
      <trkpt lat="51.164202134041" lon="5.035141859495">
        <ele>20.8</ele>
        <time>2020-07-26T11:51:06Z</time>
      </trkpt>
      <trkpt lat="51.164279498978" lon="5.035050999699">
        <ele>21</ele>
        <time>2020-07-26T11:51:08Z</time>
      </trkpt>
      <trkpt lat="51.164400198338" lon="5.034963995577">
        <ele>20.6</ele>
        <time>2020-07-26T11:51:11Z</time>
      </trkpt>
      <trkpt lat="51.164695157399" lon="5.035230791454">
        <ele>21.2</ele>
        <time>2020-07-26T11:51:21Z</time>
      </trkpt>
      <trkpt lat="51.164787693575" lon="5.035121742935">
        <ele>20.6</ele>
        <time>2020-07-26T11:51:28Z</time>
      </trkpt>
      <trkpt lat="51.164891964411" lon="5.034326132987">
        <ele>22.4</ele>
        <time>2020-07-26T11:51:46Z</time>
      </trkpt>
      <trkpt lat="51.164892551144" lon="5.034171906027">
        <ele>22.4</ele>
        <time>2020-07-26T11:51:48Z</time>
      </trkpt>
      <trkpt lat="51.164693313381" lon="5.033296165115">
        <ele>23.4</ele>
        <time>2020-07-26T11:51:59Z</time>
      </trkpt>
      <trkpt lat="51.164611589856" lon="5.032884278549">
        <ele>22.6</ele>
        <time>2020-07-26T11:52:04Z</time>
      </trkpt>
      <trkpt lat="51.164554006203" lon="5.032001161565">
        <ele>21.6</ele>
        <time>2020-07-26T11:52:14Z</time>
      </trkpt>
      <trkpt lat="51.164516958205" lon="5.031126175024">
        <ele>22.8</ele>
        <time>2020-07-26T11:52:24Z</time>
      </trkpt>
      <trkpt lat="51.164448561901" lon="5.030253535415">
        <ele>22.4</ele>
        <time>2020-07-26T11:52:34Z</time>
      </trkpt>
      <trkpt lat="51.164402377632" lon="5.029321384316">
        <ele>22.8</ele>
        <time>2020-07-26T11:52:45Z</time>
      </trkpt>
      <trkpt lat="51.164368095661" lon="5.028416558211">
        <ele>24</ele>
        <time>2020-07-26T11:52:58Z</time>
      </trkpt>
      <trkpt lat="51.164306740153" lon="5.027516090694">
        <ele>24.2</ele>
        <time>2020-07-26T11:53:10Z</time>
      </trkpt>
      <trkpt lat="51.164247815396" lon="5.026593662599">
        <ele>24.2</ele>
        <time>2020-07-26T11:53:21Z</time>
      </trkpt>
      <trkpt lat="51.164212443778" lon="5.025708701597">
        <ele>24</ele>
        <time>2020-07-26T11:53:32Z</time>
      </trkpt>
      <trkpt lat="51.164173887038" lon="5.02482667426">
        <ele>23.6</ele>
        <time>2020-07-26T11:53:43Z</time>
      </trkpt>
      <trkpt lat="51.164130636434" lon="5.023956716859">
        <ele>24.2</ele>
        <time>2020-07-26T11:53:55Z</time>
      </trkpt>
      <trkpt lat="51.164084116889" lon="5.023039066447">
        <ele>23.4</ele>
        <time>2020-07-26T11:54:06Z</time>
      </trkpt>
      <trkpt lat="51.164040363371" lon="5.022180089335">
        <ele>23.8</ele>
        <time>2020-07-26T11:54:17Z</time>
      </trkpt>
      <trkpt lat="51.164013876567" lon="5.021320776947">
        <ele>22</ele>
        <time>2020-07-26T11:54:27Z</time>
      </trkpt>
      <trkpt lat="51.16399853769" lon="5.020960355247">
        <ele>21.6</ele>
        <time>2020-07-26T11:54:32Z</time>
      </trkpt>
      <trkpt lat="51.164115213738" lon="5.020845523217">
        <ele>20.8</ele>
        <time>2020-07-26T11:54:36Z</time>
      </trkpt>
      <trkpt lat="51.164207330819" lon="5.020948452949">
        <ele>20.4</ele>
        <time>2020-07-26T11:54:38Z</time>
      </trkpt>
      <trkpt lat="51.164613350055" lon="5.021530156809">
        <ele>26.6</ele>
        <time>2020-07-26T11:54:47Z</time>
      </trkpt>
      <trkpt lat="51.164656684478" lon="5.021583130417">
        <ele>26.8</ele>
        <time>2020-07-26T11:54:48Z</time>
      </trkpt>
      <trkpt lat="51.16478308353" lon="5.021725287441">
        <ele>26</ele>
        <time>2020-07-26T11:54:51Z</time>
      </trkpt>
      <trkpt lat="51.164862041028" lon="5.021693436221">
        <ele>24.4</ele>
        <time>2020-07-26T11:54:53Z</time>
      </trkpt>
      <trkpt lat="51.16487947538" lon="5.021435022244">
        <ele>23.8</ele>
        <time>2020-07-26T11:54:57Z</time>
      </trkpt>
      <trkpt lat="51.164841086278" lon="5.02114450559">
        <ele>22.4</ele>
        <time>2020-07-26T11:55:01Z</time>
      </trkpt>
      <trkpt lat="51.164824071021" lon="5.02089891592">
        <ele>22.4</ele>
        <time>2020-07-26T11:55:04Z</time>
      </trkpt>
      <trkpt lat="51.164690295897" lon="5.020403797087">
        <ele>24.6</ele>
        <time>2020-07-26T11:55:10Z</time>
      </trkpt>
      <trkpt lat="51.164398438139" lon="5.019605672569">
        <ele>24.2</ele>
        <time>2020-07-26T11:55:20Z</time>
      </trkpt>
      <trkpt lat="51.16425167107" lon="5.019050204056">
        <ele>25.4</ele>
        <time>2020-07-26T11:55:28Z</time>
      </trkpt>
      <trkpt lat="51.164276397675" lon="5.018955488586">
        <ele>27</ele>
        <time>2020-07-26T11:55:30Z</time>
      </trkpt>
      <trkpt lat="51.164328533093" lon="5.018915255466">
        <ele>27.2</ele>
        <time>2020-07-26T11:55:32Z</time>
      </trkpt>
      <trkpt lat="51.164430037902" lon="5.018974347861">
        <ele>22.2</ele>
        <time>2020-07-26T11:56:02Z</time>
      </trkpt>
      <trkpt lat="51.164172126839" lon="5.018379735875">
        <ele>27.2</ele>
        <time>2020-07-26T11:56:36Z</time>
      </trkpt>
      <trkpt lat="51.164122841267" lon="5.017497876176">
        <ele>27.6</ele>
        <time>2020-07-26T11:56:46Z</time>
      </trkpt>
      <trkpt lat="51.16417874854" lon="5.016606628749">
        <ele>28.2</ele>
        <time>2020-07-26T11:56:56Z</time>
      </trkpt>
      <trkpt lat="51.164357953562" lon="5.015753351329">
        <ele>27.2</ele>
        <time>2020-07-26T11:57:07Z</time>
      </trkpt>
      <trkpt lat="51.16447379142" lon="5.014892697837">
        <ele>27.2</ele>
        <time>2020-07-26T11:57:18Z</time>
      </trkpt>
      <trkpt lat="51.164547635959" lon="5.013994493433">
        <ele>29.2</ele>
        <time>2020-07-26T11:57:28Z</time>
      </trkpt>
      <trkpt lat="51.164577391704" lon="5.013105676757">
        <ele>29</ele>
        <time>2020-07-26T11:57:38Z</time>
      </trkpt>
      <trkpt lat="51.164629862398" lon="5.012221721583">
        <ele>27.2</ele>
        <time>2020-07-26T11:57:49Z</time>
      </trkpt>
      <trkpt lat="51.164666742758" lon="5.012088281735">
        <ele>27</ele>
        <time>2020-07-26T11:57:51Z</time>
      </trkpt>
      <trkpt lat="51.164724158773" lon="5.011897090596">
        <ele>26.4</ele>
        <time>2020-07-26T11:57:54Z</time>
      </trkpt>
      <trkpt lat="51.164756345269" lon="5.011235758686">
        <ele>26.4</ele>
        <time>2020-07-26T11:58:02Z</time>
      </trkpt>
      <trkpt lat="51.164828178152" lon="5.011110197824">
        <ele>26</ele>
        <time>2020-07-26T11:58:04Z</time>
      </trkpt>
      <trkpt lat="51.164937729585" lon="5.011045824832">
        <ele>25.8</ele>
        <time>2020-07-26T11:58:06Z</time>
      </trkpt>
      <trkpt lat="51.165041665145" lon="5.01096384985">
        <ele>25.6</ele>
        <time>2020-07-26T11:58:08Z</time>
      </trkpt>
      <trkpt lat="51.165470231692" lon="5.010422211472">
        <ele>25.6</ele>
        <time>2020-07-26T11:58:17Z</time>
      </trkpt>
      <trkpt lat="51.165907180139" lon="5.009829108228">
        <ele>24.6</ele>
        <time>2020-07-26T11:58:27Z</time>
      </trkpt>
      <trkpt lat="51.166353600133" lon="5.00923382569">
        <ele>24.2</ele>
        <time>2020-07-26T11:58:37Z</time>
      </trkpt>
      <trkpt lat="51.166859112522" lon="5.008510383901">
        <ele>23.6</ele>
        <time>2020-07-26T11:58:49Z</time>
      </trkpt>
      <trkpt lat="51.16728005154" lon="5.007949634791">
        <ele>23</ele>
        <time>2020-07-26T11:58:59Z</time>
      </trkpt>
      <trkpt lat="51.167392452819" lon="5.007833294019">
        <ele>23</ele>
        <time>2020-07-26T11:59:02Z</time>
      </trkpt>
      <trkpt lat="51.167474260163" lon="5.007873694777">
        <ele>23</ele>
        <time>2020-07-26T11:59:04Z</time>
      </trkpt>
      <trkpt lat="51.167533520196" lon="5.007992214843">
        <ele>23.4</ele>
        <time>2020-07-26T11:59:06Z</time>
      </trkpt>
      <trkpt lat="51.167619267033" lon="5.008211736804">
        <ele>24.6</ele>
        <time>2020-07-26T11:59:09Z</time>
      </trkpt>
      <trkpt lat="51.167820013538" lon="5.009073060848">
        <ele>25.6</ele>
        <time>2020-07-26T11:59:19Z</time>
      </trkpt>
      <trkpt lat="51.168022436423" lon="5.009891469564">
        <ele>25</ele>
        <time>2020-07-26T11:59:28Z</time>
      </trkpt>
      <trkpt lat="51.168245562601" lon="5.010715577972">
        <ele>24.4</ele>
        <time>2020-07-26T11:59:38Z</time>
      </trkpt>
      <trkpt lat="51.168313288353" lon="5.010943314195">
        <ele>24.4</ele>
        <time>2020-07-26T11:59:41Z</time>
      </trkpt>
      <trkpt lat="51.168562398421" lon="5.011057643311">
        <ele>24.4</ele>
        <time>2020-07-26T11:59:50Z</time>
      </trkpt>
      <trkpt lat="51.168981996335" lon="5.010426067146">
        <ele>23.2</ele>
        <time>2020-07-26T12:00:00Z</time>
      </trkpt>
      <trkpt lat="51.169449622536" lon="5.009902366034">
        <ele>22.4</ele>
        <time>2020-07-26T12:00:10Z</time>
      </trkpt>
      <trkpt lat="51.169952955631" lon="5.009513613512">
        <ele>22.8</ele>
        <time>2020-07-26T12:00:20Z</time>
      </trkpt>
      <trkpt lat="51.170078181217" lon="5.009373551963">
        <ele>23</ele>
        <time>2020-07-26T12:00:23Z</time>
      </trkpt>
      <trkpt lat="51.170158396" lon="5.009155538744">
        <ele>23</ele>
        <time>2020-07-26T12:00:26Z</time>
      </trkpt>
      <trkpt lat="51.17027406622" lon="5.008281306574">
        <ele>23.4</ele>
        <time>2020-07-26T12:00:38Z</time>
      </trkpt>
      <trkpt lat="51.170146745159" lon="5.007462059668">
        <ele>24.4</ele>
        <time>2020-07-26T12:00:53Z</time>
      </trkpt>
      <trkpt lat="51.169941640066" lon="5.00662537841">
        <ele>23.8</ele>
        <time>2020-07-26T12:01:04Z</time>
      </trkpt>
      <trkpt lat="51.169881625662" lon="5.006330503168">
        <ele>23.8</ele>
        <time>2020-07-26T12:01:08Z</time>
      </trkpt>
      <trkpt lat="51.169931749424" lon="5.006218940079">
        <ele>23.6</ele>
        <time>2020-07-26T12:01:10Z</time>
      </trkpt>
      <trkpt lat="51.170405326774" lon="5.00579557031">
        <ele>23.4</ele>
        <time>2020-07-26T12:01:20Z</time>
      </trkpt>
      <trkpt lat="51.170497527674" lon="5.005685851239">
        <ele>23.4</ele>
        <time>2020-07-26T12:01:22Z</time>
      </trkpt>
      <trkpt lat="51.170902038168" lon="5.005053185427">
        <ele>23.6</ele>
        <time>2020-07-26T12:01:33Z</time>
      </trkpt>
      <trkpt lat="51.170943528573" lon="5.004996942878">
        <ele>23.6</ele>
        <time>2020-07-26T12:01:34Z</time>
      </trkpt>
      <trkpt lat="51.171038579319" lon="5.00491882357">
        <ele>23.8</ele>
        <time>2020-07-26T12:01:36Z</time>
      </trkpt>
      <trkpt lat="51.171433534447" lon="5.004830897439">
        <ele>25.4</ele>
        <time>2020-07-26T12:01:45Z</time>
      </trkpt>
      <trkpt lat="51.171833686353" lon="5.004900467209">
        <ele>26</ele>
        <time>2020-07-26T12:01:53Z</time>
      </trkpt>
      <trkpt lat="51.172373145437" lon="5.005024938424">
        <ele>25.8</ele>
        <time>2020-07-26T12:02:03Z</time>
      </trkpt>
      <trkpt lat="51.172922495163" lon="5.005091909805">
        <ele>24.6</ele>
        <time>2020-07-26T12:02:13Z</time>
      </trkpt>
      <trkpt lat="51.173477963676" lon="5.005143207033">
        <ele>22.8</ele>
        <time>2020-07-26T12:02:22Z</time>
      </trkpt>
      <trkpt lat="51.174064277581" lon="5.005215375192">
        <ele>24</ele>
        <time>2020-07-26T12:02:33Z</time>
      </trkpt>
      <trkpt lat="51.174362505583" lon="5.005326519186">
        <ele>24.6</ele>
        <time>2020-07-26T12:02:38Z</time>
      </trkpt>
      <trkpt lat="51.174856031855" lon="5.005769167325">
        <ele>24.4</ele>
        <time>2020-07-26T12:02:48Z</time>
      </trkpt>
      <trkpt lat="51.175346037729" lon="5.006190609257">
        <ele>25.4</ele>
        <time>2020-07-26T12:02:57Z</time>
      </trkpt>
      <trkpt lat="51.175834283404" lon="5.00662537841">
        <ele>24.8</ele>
        <time>2020-07-26T12:03:07Z</time>
      </trkpt>
      <trkpt lat="51.176287325099" lon="5.007020836452">
        <ele>24.2</ele>
        <time>2020-07-26T12:03:17Z</time>
      </trkpt>
      <trkpt lat="51.176380699465" lon="5.007025530316">
        <ele>23.4</ele>
        <time>2020-07-26T12:03:19Z</time>
      </trkpt>
      <trkpt lat="51.176475163478" lon="5.006972556708">
        <ele>24.2</ele>
        <time>2020-07-26T12:03:21Z</time>
      </trkpt>
      <trkpt lat="51.176537357176" lon="5.006835931738">
        <ele>24</ele>
        <time>2020-07-26T12:03:23Z</time>
      </trkpt>
      <trkpt lat="51.176720501691" lon="5.006367718804">
        <ele>25.4</ele>
        <time>2020-07-26T12:03:29Z</time>
      </trkpt>
      <trkpt lat="51.17680188994" lon="5.006256490991">
        <ele>25</ele>
        <time>2020-07-26T12:03:31Z</time>
      </trkpt>
      <trkpt lat="51.176902388921" lon="5.006199494071">
        <ele>24.2</ele>
        <time>2020-07-26T12:03:33Z</time>
      </trkpt>
      <trkpt lat="51.177441261272" lon="5.006094301226">
        <ele>23.4</ele>
        <time>2020-07-26T12:03:43Z</time>
      </trkpt>
      <trkpt lat="51.177997735613" lon="5.00608306948">
        <ele>23.2</ele>
        <time>2020-07-26T12:03:53Z</time>
      </trkpt>
      <trkpt lat="51.17856963265" lon="5.00608642224">
        <ele>18</ele>
        <time>2020-07-26T12:04:04Z</time>
      </trkpt>
      <trkpt lat="51.179121916041" lon="5.006091199923">
        <ele>16</ele>
        <time>2020-07-26T12:04:14Z</time>
      </trkpt>
      <trkpt lat="51.179700518598" lon="5.006082734204">
        <ele>15.6</ele>
        <time>2020-07-26T12:04:25Z</time>
      </trkpt>
      <trkpt lat="51.180242324614" lon="5.0059808103">
        <ele>18.2</ele>
        <time>2020-07-26T12:04:39Z</time>
      </trkpt>
      <trkpt lat="51.180425469129" lon="5.006004531077">
        <ele>16.8</ele>
        <time>2020-07-26T12:04:43Z</time>
      </trkpt>
      <trkpt lat="51.181025026436" lon="5.006031269338">
        <ele>17</ele>
        <time>2020-07-26T12:04:53Z</time>
      </trkpt>
      <trkpt lat="51.181593151618" lon="5.006036801392">
        <ele>21.4</ele>
        <time>2020-07-26T12:05:02Z</time>
      </trkpt>
      <trkpt lat="51.182171586537" lon="5.006057337047">
        <ele>24.2</ele>
        <time>2020-07-26T12:05:12Z</time>
      </trkpt>
      <trkpt lat="51.182721858272" lon="5.006092373389">
        <ele>23.4</ele>
        <time>2020-07-26T12:05:22Z</time>
      </trkpt>
      <trkpt lat="51.183294425861" lon="5.006119195469">
        <ele>23.8</ele>
        <time>2020-07-26T12:05:32Z</time>
      </trkpt>
      <trkpt lat="51.183873950427" lon="5.006134785803">
        <ele>24</ele>
        <time>2020-07-26T12:05:41Z</time>
      </trkpt>
      <trkpt lat="51.184418606289" lon="5.006166553204">
        <ele>25.2</ele>
        <time>2020-07-26T12:05:50Z</time>
      </trkpt>
      <trkpt lat="51.184986731471" lon="5.006193626741">
        <ele>23.8</ele>
        <time>2020-07-26T12:06:01Z</time>
      </trkpt>
      <trkpt lat="51.185541277975" lon="5.006233356947">
        <ele>21</ele>
        <time>2020-07-26T12:06:11Z</time>
      </trkpt>
      <trkpt lat="51.186098841963" lon="5.006251880946">
        <ele>23.8</ele>
        <time>2020-07-26T12:06:20Z</time>
      </trkpt>
      <trkpt lat="51.186682054565" lon="5.006315499567">
        <ele>24.6</ele>
        <time>2020-07-26T12:06:29Z</time>
      </trkpt>
      <trkpt lat="51.187235092327" lon="5.006325390209">
        <ele>25.2</ele>
        <time>2020-07-26T12:06:38Z</time>
      </trkpt>
      <trkpt lat="51.187799361835" lon="5.006342321647">
        <ele>25</ele>
        <time>2020-07-26T12:06:47Z</time>
      </trkpt>
      <trkpt lat="51.188356506728" lon="5.006377106532">
        <ele>23.6</ele>
        <time>2020-07-26T12:06:57Z</time>
      </trkpt>
      <trkpt lat="51.18892630829" lon="5.006430583054">
        <ele>23.2</ele>
        <time>2020-07-26T12:07:07Z</time>
      </trkpt>
      <trkpt lat="51.189512873652" lon="5.006446760121">
        <ele>22.4</ele>
        <time>2020-07-26T12:07:16Z</time>
      </trkpt>
      <trkpt lat="51.190105390163" lon="5.006487831431">
        <ele>24.4</ele>
        <time>2020-07-26T12:07:27Z</time>
      </trkpt>
      <trkpt lat="51.190676197553" lon="5.006522867773">
        <ele>24.4</ele>
        <time>2020-07-26T12:07:37Z</time>
      </trkpt>
      <trkpt lat="51.191242311079" lon="5.006570644603">
        <ele>24.6</ele>
        <time>2020-07-26T12:07:47Z</time>
      </trkpt>
      <trkpt lat="51.191821919464" lon="5.006607105868">
        <ele>21.8</ele>
        <time>2020-07-26T12:07:57Z</time>
      </trkpt>
      <trkpt lat="51.192344279472" lon="5.006624624039">
        <ele>17.4</ele>
        <time>2020-07-26T12:08:07Z</time>
      </trkpt>
      <trkpt lat="51.192458692407" lon="5.006621438917">
        <ele>17</ele>
        <time>2020-07-26T12:08:09Z</time>
      </trkpt>
      <trkpt lat="51.19299823531" lon="5.006650859386">
        <ele>17</ele>
        <time>2020-07-26T12:08:18Z</time>
      </trkpt>
      <trkpt lat="51.193541298611" lon="5.00669243361">
        <ele>19.2</ele>
        <time>2020-07-26T12:08:27Z</time>
      </trkpt>
      <trkpt lat="51.194100958074" lon="5.006700899329">
        <ele>21.4</ele>
        <time>2020-07-26T12:08:37Z</time>
      </trkpt>
      <trkpt lat="51.194193997164" lon="5.006598137235">
        <ele>21.4</ele>
        <time>2020-07-26T12:08:40Z</time>
      </trkpt>
      <trkpt lat="51.19422366909" lon="5.006282139605">
        <ele>21.6</ele>
        <time>2020-07-26T12:08:44Z</time>
      </trkpt>
      <trkpt lat="51.194234230284" lon="5.005378486966">
        <ele>21.6</ele>
        <time>2020-07-26T12:08:54Z</time>
      </trkpt>
      <trkpt lat="51.194248144238" lon="5.004503751882">
        <ele>21</ele>
        <time>2020-07-26T12:09:04Z</time>
      </trkpt>
      <trkpt lat="51.194262896382" lon="5.003607391496">
        <ele>21</ele>
        <time>2020-07-26T12:09:14Z</time>
      </trkpt>
      <trkpt lat="51.194292735946" lon="5.002733159326">
        <ele>21.4</ele>
        <time>2020-07-26T12:09:25Z</time>
      </trkpt>
      <trkpt lat="51.194347469753" lon="5.002642634806">
        <ele>20.6</ele>
        <time>2020-07-26T12:09:27Z</time>
      </trkpt>
      <trkpt lat="51.194467750018" lon="5.002649172688">
        <ele>21</ele>
        <time>2020-07-26T12:09:30Z</time>
      </trkpt>
      <trkpt lat="51.194998324288" lon="5.002816978326">
        <ele>14</ele>
        <time>2020-07-26T12:09:41Z</time>
      </trkpt>
      <trkpt lat="51.195542225779" lon="5.002944802301">
        <ele>7.2</ele>
        <time>2020-07-26T12:09:52Z</time>
      </trkpt>
      <trkpt lat="51.196118565223" lon="5.0030471453">
        <ele>5</ele>
        <time>2020-07-26T12:10:02Z</time>
      </trkpt>
      <trkpt lat="51.196340434116" lon="5.003067345679">
        <ele>8</ele>
        <time>2020-07-26T12:10:06Z</time>
      </trkpt>
      <trkpt lat="51.196905541814" lon="5.00311587688">
        <ele>16.2</ele>
        <time>2020-07-26T12:10:15Z</time>
      </trkpt>
      <trkpt lat="51.197475594833" lon="5.003196762215">
        <ele>18.8</ele>
        <time>2020-07-26T12:10:24Z</time>
      </trkpt>
      <trkpt lat="51.198015305374" lon="5.003248981452">
        <ele>18.8</ele>
        <time>2020-07-26T12:10:35Z</time>
      </trkpt>
      <trkpt lat="51.198562308168" lon="5.003328693321">
        <ele>18.2</ele>
        <time>2020-07-26T12:10:46Z</time>
      </trkpt>
      <trkpt lat="51.19915474086" lon="5.003427515922">
        <ele>20</ele>
        <time>2020-07-26T12:10:56Z</time>
      </trkpt>
      <trkpt lat="51.199734935978" lon="5.003524410686">
        <ele>18</ele>
        <time>2020-07-26T12:11:07Z</time>
      </trkpt>
      <trkpt lat="51.2003164722" lon="5.003634884128">
        <ele>15.2</ele>
        <time>2020-07-26T12:11:17Z</time>
      </trkpt>
      <trkpt lat="51.200861882433" lon="5.00373110834">
        <ele>14</ele>
        <time>2020-07-26T12:11:26Z</time>
      </trkpt>
      <trkpt lat="51.201427576864" lon="5.003805120517">
        <ele>13.6</ele>
        <time>2020-07-26T12:11:35Z</time>
      </trkpt>
      <trkpt lat="51.20200626324" lon="5.003896734684">
        <ele>10.8</ele>
        <time>2020-07-26T12:11:46Z</time>
      </trkpt>
      <trkpt lat="51.20225352929" lon="5.003922886212">
        <ele>11.2</ele>
        <time>2020-07-26T12:11:51Z</time>
      </trkpt>
      <trkpt lat="51.202344556724" lon="5.003805791069">
        <ele>12.2</ele>
        <time>2020-07-26T12:11:54Z</time>
      </trkpt>
      <trkpt lat="51.202351262244" lon="5.003652821394">
        <ele>13.2</ele>
        <time>2020-07-26T12:11:56Z</time>
      </trkpt>
      <trkpt lat="51.202374731564" lon="5.002737517914">
        <ele>16</ele>
        <time>2020-07-26T12:12:06Z</time>
      </trkpt>
      <trkpt lat="51.202400044902" lon="5.002085406094">
        <ele>17.6</ele>
        <time>2020-07-26T12:12:13Z</time>
      </trkpt>
      <trkpt lat="51.202548404532" lon="5.001215867788">
        <ele>19</ele>
        <time>2020-07-26T12:12:23Z</time>
      </trkpt>
      <trkpt lat="51.202522336823" lon="5.001072453479">
        <ele>19.2</ele>
        <time>2020-07-26T12:12:25Z</time>
      </trkpt>
      <trkpt lat="51.202442541135" lon="5.000971367765">
        <ele>19.4</ele>
        <time>2020-07-26T12:12:27Z</time>
      </trkpt>
      <trkpt lat="51.201942728438" lon="5.000616561938">
        <ele>19</ele>
        <time>2020-07-26T12:12:36Z</time>
      </trkpt>
      <trkpt lat="51.201433528013" lon="5.000256978428">
        <ele>18.8</ele>
        <time>2020-07-26T12:12:46Z</time>
      </trkpt>
      <trkpt lat="51.201230686033" lon="5.000093866654">
        <ele>19</ele>
        <time>2020-07-26T12:12:51Z</time>
      </trkpt>
      <trkpt lat="51.201236385725" lon="4.999961600272">
        <ele>20.4</ele>
        <time>2020-07-26T12:12:54Z</time>
      </trkpt>
      <trkpt lat="51.201788250021" lon="5.000103170563">
        <ele>20</ele>
        <time>2020-07-26T12:13:07Z</time>
      </trkpt>
      <trkpt lat="51.202349502045" lon="5.000239544076">
        <ele>18.8</ele>
        <time>2020-07-26T12:13:17Z</time>
      </trkpt>
      <trkpt lat="51.20293413957" lon="5.000372983924">
        <ele>19.8</ele>
        <time>2020-07-26T12:13:27Z</time>
      </trkpt>
      <trkpt lat="51.203490865368" lon="5.000488318868">
        <ele>19.4</ele>
        <time>2020-07-26T12:13:37Z</time>
      </trkpt>
      <trkpt lat="51.204072485409" lon="5.00059376317">
        <ele>16.6</ele>
        <time>2020-07-26T12:13:47Z</time>
      </trkpt>
      <trkpt lat="51.204388734496" lon="5.000215152747">
        <ele>15.2</ele>
        <time>2020-07-26T12:14:02Z</time>
      </trkpt>
      <trkpt lat="51.20435403343" lon="4.999993200035">
        <ele>17.2</ele>
        <time>2020-07-26T12:14:07Z</time>
      </trkpt>
      <trkpt lat="51.204318410355" lon="4.999896724366">
        <ele>19.6</ele>
        <time>2020-07-26T12:16:57Z</time>
      </trkpt>
      <trkpt lat="51.204194525873" lon="4.999040932376">
        <ele>19</ele>
        <time>2020-07-26T12:17:12Z</time>
      </trkpt>
      <trkpt lat="51.204048177899" lon="4.998184469834">
        <ele>14.4</ele>
        <time>2020-07-26T12:17:25Z</time>
      </trkpt>
      <trkpt lat="51.204007441865" lon="4.997973748868">
        <ele>14.4</ele>
        <time>2020-07-26T12:17:28Z</time>
      </trkpt>
      <trkpt lat="51.203936195715" lon="4.997734194166">
        <ele>13.2</ele>
        <time>2020-07-26T12:17:32Z</time>
      </trkpt>
      <trkpt lat="51.203763696213" lon="4.996820567066">
        <ele>12.6</ele>
        <time>2020-07-26T12:17:43Z</time>
      </trkpt>
      <trkpt lat="51.203631681288" lon="4.995894702392">
        <ele>12.2</ele>
        <time>2020-07-26T12:17:53Z</time>
      </trkpt>
      <trkpt lat="51.203470832627" lon="4.995045532103">
        <ele>13</ele>
        <time>2020-07-26T12:18:03Z</time>
      </trkpt>
      <trkpt lat="51.203304368093" lon="4.994170210286">
        <ele>12.6</ele>
        <time>2020-07-26T12:18:13Z</time>
      </trkpt>
      <trkpt lat="51.203131030401" lon="4.993254068616">
        <ele>10.4</ele>
        <time>2020-07-26T12:18:23Z</time>
      </trkpt>
      <trkpt lat="51.202970600835" lon="4.992350835072">
        <ele>11</ele>
        <time>2020-07-26T12:18:33Z</time>
      </trkpt>
      <trkpt lat="51.202811428554" lon="4.991467634269">
        <ele>11.6</ele>
        <time>2020-07-26T12:18:43Z</time>
      </trkpt>
      <trkpt lat="51.202640940708" lon="4.990583679095">
        <ele>12.6</ele>
        <time>2020-07-26T12:18:53Z</time>
      </trkpt>
      <trkpt lat="51.202467854473" lon="4.989729312028">
        <ele>13.4</ele>
        <time>2020-07-26T12:19:03Z</time>
      </trkpt>
      <trkpt lat="51.202304910337" lon="4.988888523639">
        <ele>12.4</ele>
        <time>2020-07-26T12:19:13Z</time>
      </trkpt>
      <trkpt lat="51.202149342273" lon="4.988057877349">
        <ele>12.8</ele>
        <time>2020-07-26T12:19:22Z</time>
      </trkpt>
      <trkpt lat="51.202027301809" lon="4.987165707913">
        <ele>12.8</ele>
        <time>2020-07-26T12:19:32Z</time>
      </trkpt>
      <trkpt lat="51.201899645472" lon="4.986266749138">
        <ele>13.6</ele>
        <time>2020-07-26T12:19:44Z</time>
      </trkpt>
      <trkpt lat="51.201695210931" lon="4.985447837508">
        <ele>14</ele>
        <time>2020-07-26T12:19:59Z</time>
      </trkpt>
      <trkpt lat="51.201493207141" lon="4.984617694132">
        <ele>13.2</ele>
        <time>2020-07-26T12:20:14Z</time>
      </trkpt>
      <trkpt lat="51.201315175585" lon="4.983794340095">
        <ele>13.6</ele>
        <time>2020-07-26T12:20:26Z</time>
      </trkpt>
      <trkpt lat="51.201272427895" lon="4.983588480631">
        <ele>13.6</ele>
        <time>2020-07-26T12:20:29Z</time>
      </trkpt>
      <trkpt lat="51.201077213444" lon="4.982784488783">
        <ele>14</ele>
        <time>2020-07-26T12:20:41Z</time>
      </trkpt>
      <trkpt lat="51.200987359476" lon="4.982758840169">
        <ele>14</ele>
        <time>2020-07-26T12:20:45Z</time>
      </trkpt>
      <trkpt lat="51.200463239269" lon="4.983016248318">
        <ele>7.8</ele>
        <time>2020-07-26T12:21:03Z</time>
      </trkpt>
      <trkpt lat="51.200315466372" lon="4.983059918017">
        <ele>5.6</ele>
        <time>2020-07-26T12:21:06Z</time>
      </trkpt>
      <trkpt lat="51.200186301293" lon="4.983049273004">
        <ele>6.8</ele>
        <time>2020-07-26T12:21:08Z</time>
      </trkpt>
      <trkpt lat="51.199597891913" lon="4.98307894493">
        <ele>11.6</ele>
        <time>2020-07-26T12:21:17Z</time>
      </trkpt>
      <trkpt lat="51.199040411744" lon="4.983081375681">
        <ele>13.2</ele>
        <time>2020-07-26T12:21:26Z</time>
      </trkpt>
      <trkpt lat="51.198736819326" lon="4.983108952132">
        <ele>13</ele>
        <time>2020-07-26T12:21:32Z</time>
      </trkpt>
      <trkpt lat="51.198681834062" lon="4.983099564404">
        <ele>13.6</ele>
        <time>2020-07-26T12:21:34Z</time>
      </trkpt>
      <trkpt lat="51.198882412929" lon="4.982878366063">
        <ele>17.2</ele>
        <time>2020-07-26T12:22:10Z</time>
      </trkpt>
      <trkpt lat="51.198982408996" lon="4.982912228939">
        <ele>18.2</ele>
        <time>2020-07-26T12:22:12Z</time>
      </trkpt>
      <trkpt lat="51.199561765924" lon="4.982977440121">
        <ele>20.4</ele>
        <time>2020-07-26T12:22:22Z</time>
      </trkpt>
      <trkpt lat="51.199679112524" lon="4.982981966347">
        <ele>20.8</ele>
        <time>2020-07-26T12:22:23Z</time>
      </trkpt>
      <trkpt lat="51.200252853579" lon="4.982920946115">
        <ele>25.4</ele>
        <time>2020-07-26T12:22:34Z</time>
      </trkpt>
      <trkpt lat="51.200788037894" lon="4.982735789944">
        <ele>25.4</ele>
        <time>2020-07-26T12:22:46Z</time>
      </trkpt>
      <trkpt lat="51.201303524744" lon="4.982462288547">
        <ele>25</ele>
        <time>2020-07-26T12:22:58Z</time>
      </trkpt>
      <trkpt lat="51.201843989656" lon="4.982234468505">
        <ele>24.6</ele>
        <time>2020-07-26T12:23:09Z</time>
      </trkpt>
      <trkpt lat="51.202369618605" lon="4.981994159432">
        <ele>23.8</ele>
        <time>2020-07-26T12:23:17Z</time>
      </trkpt>
      <trkpt lat="51.202941767099" lon="4.981655279215">
        <ele>20</ele>
        <time>2020-07-26T12:23:25Z</time>
      </trkpt>
      <trkpt lat="51.203489691902" lon="4.981275327688">
        <ele>19.4</ele>
        <time>2020-07-26T12:23:33Z</time>
      </trkpt>
      <trkpt lat="51.203971399695" lon="4.980987577061">
        <ele>18</ele>
        <time>2020-07-26T12:23:41Z</time>
      </trkpt>
      <trkpt lat="51.204084471526" lon="4.981158735459">
        <ele>17.4</ele>
        <time>2020-07-26T12:23:44Z</time>
      </trkpt>
      <trkpt lat="51.204108527579" lon="4.981341293241">
        <ele>17.2</ele>
        <time>2020-07-26T12:23:46Z</time>
      </trkpt>
      <trkpt lat="51.204184383774" lon="4.982197923421">
        <ele>16.4</ele>
        <time>2020-07-26T12:23:54Z</time>
      </trkpt>
      <trkpt lat="51.204292761741" lon="4.983028485892">
        <ele>15.8</ele>
        <time>2020-07-26T12:24:02Z</time>
      </trkpt>
      <trkpt lat="51.204564838215" lon="4.983785455281">
        <ele>12.4</ele>
        <time>2020-07-26T12:24:11Z</time>
      </trkpt>
      <trkpt lat="51.20488376951" lon="4.984495821306">
        <ele>14</ele>
        <time>2020-07-26T12:24:19Z</time>
      </trkpt>
      <trkpt lat="51.205203203719" lon="4.985238709103">
        <ele>14.8</ele>
        <time>2020-07-26T12:24:27Z</time>
      </trkpt>
      <trkpt lat="51.205503443377" lon="4.985959049589">
        <ele>13.6</ele>
        <time>2020-07-26T12:24:35Z</time>
      </trkpt>
      <trkpt lat="51.205818099903" lon="4.986713085313">
        <ele>12.8</ele>
        <time>2020-07-26T12:24:43Z</time>
      </trkpt>
      <trkpt lat="51.206146838021" lon="4.98750626451">
        <ele>12.4</ele>
        <time>2020-07-26T12:24:51Z</time>
      </trkpt>
      <trkpt lat="51.206467697153" lon="4.988278991871">
        <ele>11.4</ele>
        <time>2020-07-26T12:24:59Z</time>
      </trkpt>
      <trkpt lat="51.206780425842" lon="4.989052976517">
        <ele>11.2</ele>
        <time>2020-07-26T12:25:07Z</time>
      </trkpt>
      <trkpt lat="51.207119389878" lon="4.98982637443">
        <ele>10.8</ele>
        <time>2020-07-26T12:25:15Z</time>
      </trkpt>
      <trkpt lat="51.207452235127" lon="4.990581332163">
        <ele>12</ele>
        <time>2020-07-26T12:25:23Z</time>
      </trkpt>
      <trkpt lat="51.207782565806" lon="4.991359004845">
        <ele>11.8</ele>
        <time>2020-07-26T12:25:32Z</time>
      </trkpt>
      <trkpt lat="51.208095294495" lon="4.992101808823">
        <ele>12.2</ele>
        <time>2020-07-26T12:25:40Z</time>
      </trkpt>
      <trkpt lat="51.208322360166" lon="4.992602794986">
        <ele>13.6</ele>
        <time>2020-07-26T12:25:46Z</time>
      </trkpt>
      <trkpt lat="51.208629975896" lon="4.993358339452">
        <ele>13</ele>
        <time>2020-07-26T12:25:55Z</time>
      </trkpt>
      <trkpt lat="51.208948320458" lon="4.994109022416">
        <ele>13</ele>
        <time>2020-07-26T12:26:04Z</time>
      </trkpt>
      <trkpt lat="51.209272364712" lon="4.994865991805">
        <ele>12.8</ele>
        <time>2020-07-26T12:26:14Z</time>
      </trkpt>
      <trkpt lat="51.209595403138" lon="4.995642323383">
        <ele>13.2</ele>
        <time>2020-07-26T12:26:24Z</time>
      </trkpt>
      <trkpt lat="51.20992967331" lon="4.996430054345">
        <ele>13.6</ele>
        <time>2020-07-26T12:26:33Z</time>
      </trkpt>
      <trkpt lat="51.210258830523" lon="4.997188113381">
        <ele>13.8</ele>
        <time>2020-07-26T12:26:42Z</time>
      </trkpt>
      <trkpt lat="51.210397299511" lon="4.997550043823">
        <ele>14</ele>
        <time>2020-07-26T12:26:46Z</time>
      </trkpt>
      <trkpt lat="51.210554879231" lon="4.9979006587">
        <ele>14</ele>
        <time>2020-07-26T12:26:50Z</time>
      </trkpt>
      <trkpt lat="51.210865177169" lon="4.998605408852">
        <ele>14</ele>
        <time>2020-07-26T12:26:58Z</time>
      </trkpt>
      <trkpt lat="51.211181342437" lon="4.999355169807">
        <ele>14.6</ele>
        <time>2020-07-26T12:27:07Z</time>
      </trkpt>
      <trkpt lat="51.211247140352" lon="4.999497913564">
        <ele>14.4</ele>
        <time>2020-07-26T12:27:09Z</time>
      </trkpt>
      <trkpt lat="51.21131771595" lon="4.999536889399">
        <ele>14.6</ele>
        <time>2020-07-26T12:27:11Z</time>
      </trkpt>
      <trkpt lat="51.211365744237" lon="4.999266740762">
        <ele>13</ele>
        <time>2020-07-26T12:27:15Z</time>
      </trkpt>
      <trkpt lat="51.211342526374" lon="4.998480183266">
        <ele>13</ele>
        <time>2020-07-26T12:27:27Z</time>
      </trkpt>
      <trkpt lat="51.211326684583" lon="4.99931133247">
        <ele>14</ele>
        <time>2020-07-26T12:27:42Z</time>
      </trkpt>
      <trkpt lat="51.211280081219" lon="5.000202496078">
        <ele>16.8</ele>
        <time>2020-07-26T12:27:52Z</time>
      </trkpt>
      <trkpt lat="51.211295671553" lon="5.001102376862">
        <ele>18.4</ele>
        <time>2020-07-26T12:28:01Z</time>
      </trkpt>
      <trkpt lat="51.2112967612" lon="5.002022625663">
        <ele>18.4</ele>
        <time>2020-07-26T12:28:10Z</time>
      </trkpt>
      <trkpt lat="51.211284355988" lon="5.002930050157">
        <ele>17.8</ele>
        <time>2020-07-26T12:28:19Z</time>
      </trkpt>
      <trkpt lat="51.211278488658" lon="5.003866727482">
        <ele>17.6</ele>
        <time>2020-07-26T12:28:28Z</time>
      </trkpt>
      <trkpt lat="51.211277147554" lon="5.004761327669">
        <ele>16.8</ele>
        <time>2020-07-26T12:28:36Z</time>
      </trkpt>
      <trkpt lat="51.211276812278" lon="5.0053773135">
        <ele>17.6</ele>
        <time>2020-07-26T12:28:42Z</time>
      </trkpt>
      <trkpt lat="51.211318386502" lon="5.005562469671">
        <ele>17.6</ele>
        <time>2020-07-26T12:28:44Z</time>
      </trkpt>
      <trkpt lat="51.211389297376" lon="5.005725581445">
        <ele>16.6</ele>
        <time>2020-07-26T12:28:46Z</time>
      </trkpt>
      <trkpt lat="51.211803111779" lon="5.006370903926">
        <ele>15</ele>
        <time>2020-07-26T12:28:55Z</time>
      </trkpt>
      <trkpt lat="51.212110476052" lon="5.006871387175">
        <ele>14.8</ele>
        <time>2020-07-26T12:29:02Z</time>
      </trkpt>
      <trkpt lat="51.212515238003" lon="5.007497347467">
        <ele>14.6</ele>
        <time>2020-07-26T12:29:10Z</time>
      </trkpt>
      <trkpt lat="51.212908181475" lon="5.008178376842">
        <ele>15</ele>
        <time>2020-07-26T12:29:20Z</time>
      </trkpt>
      <trkpt lat="51.213315625634" lon="5.008870386506">
        <ele>15.2</ele>
        <time>2020-07-26T12:29:29Z</time>
      </trkpt>
      <trkpt lat="51.213402629756" lon="5.009007598209">
        <ele>15.4</ele>
        <time>2020-07-26T12:29:31Z</time>
      </trkpt>
      <trkpt lat="51.213781323998" lon="5.009703882642">
        <ele>14.6</ele>
        <time>2020-07-26T12:29:40Z</time>
      </trkpt>
      <trkpt lat="51.214181643542" lon="5.010376194841">
        <ele>14.2</ele>
        <time>2020-07-26T12:29:49Z</time>
      </trkpt>
      <trkpt lat="51.21454642383" lon="5.011021936417">
        <ele>14</ele>
        <time>2020-07-26T12:29:57Z</time>
      </trkpt>
      <trkpt lat="51.214919334561" lon="5.011668013269">
        <ele>13.8</ele>
        <time>2020-07-26T12:30:05Z</time>
      </trkpt>
      <trkpt lat="51.21531252949" lon="5.012346192798">
        <ele>14</ele>
        <time>2020-07-26T12:30:14Z</time>
      </trkpt>
      <trkpt lat="51.215700443822" lon="5.012981205542">
        <ele>14</ele>
        <time>2020-07-26T12:30:24Z</time>
      </trkpt>
      <trkpt lat="51.215788872867" lon="5.013102575454">
        <ele>14.2</ele>
        <time>2020-07-26T12:30:26Z</time>
      </trkpt>
      <trkpt lat="51.215909656046" lon="5.013134175217">
        <ele>15.6</ele>
        <time>2020-07-26T12:30:29Z</time>
      </trkpt>
      <trkpt lat="51.216179720864" lon="5.012290536982">
        <ele>18.4</ele>
        <time>2020-07-26T12:30:41Z</time>
      </trkpt>
      <trkpt lat="51.216408379096" lon="5.011501632554">
        <ele>19.6</ele>
        <time>2020-07-26T12:30:50Z</time>
      </trkpt>
      <trkpt lat="51.216651705653" lon="5.010686492779">
        <ele>21.4</ele>
        <time>2020-07-26T12:31:03Z</time>
      </trkpt>
      <trkpt lat="51.216891930907" lon="5.009848721874">
        <ele>22</ele>
        <time>2020-07-26T12:31:13Z</time>
      </trkpt>
      <trkpt lat="51.217110866135" lon="5.009052022279">
        <ele>21.2</ele>
        <time>2020-07-26T12:31:21Z</time>
      </trkpt>
      <trkpt lat="51.217356707262" lon="5.008208132587">
        <ele>21.4</ele>
        <time>2020-07-26T12:31:30Z</time>
      </trkpt>
      <trkpt lat="51.217613947773" lon="5.007388634224">
        <ele>20.6</ele>
        <time>2020-07-26T12:31:40Z</time>
      </trkpt>
      <trkpt lat="51.217871858836" lon="5.006562849436">
        <ele>20</ele>
        <time>2020-07-26T12:31:50Z</time>
      </trkpt>
      <trkpt lat="51.218113844289" lon="5.005716193717">
        <ele>23.4</ele>
        <time>2020-07-26T12:32:00Z</time>
      </trkpt>
      <trkpt lat="51.218367648221" lon="5.004958637595">
        <ele>19.8</ele>
        <time>2020-07-26T12:32:09Z</time>
      </trkpt>
      <trkpt lat="51.218631258976" lon="5.004098822293">
        <ele>15.2</ele>
        <time>2020-07-26T12:32:19Z</time>
      </trkpt>
      <trkpt lat="51.218860252484" lon="5.003274546247">
        <ele>14</ele>
        <time>2020-07-26T12:32:28Z</time>
      </trkpt>
      <trkpt lat="51.219102237937" lon="5.00243945755">
        <ele>15</ele>
        <time>2020-07-26T12:32:37Z</time>
      </trkpt>
      <trkpt lat="51.219390575297" lon="5.001672178424">
        <ele>16</ele>
        <time>2020-07-26T12:32:47Z</time>
      </trkpt>
      <trkpt lat="51.219677739191" lon="5.000873886268">
        <ele>16.8</ele>
        <time>2020-07-26T12:32:57Z</time>
      </trkpt>
      <trkpt lat="51.219855016376" lon="5.000330152415">
        <ele>19.4</ele>
        <time>2020-07-26T12:33:04Z</time>
      </trkpt>
      <trkpt lat="51.220031706828" lon="4.999767894563">
        <ele>25.6</ele>
        <time>2020-07-26T12:33:26Z</time>
      </trkpt>
      <trkpt lat="51.220292300099" lon="4.999004219654">
        <ele>26</ele>
        <time>2020-07-26T12:33:36Z</time>
      </trkpt>
      <trkpt lat="51.220531184249" lon="4.998204167299">
        <ele>22</ele>
        <time>2020-07-26T12:33:45Z</time>
      </trkpt>
      <trkpt lat="51.220760596852" lon="4.997420040554">
        <ele>19.6</ele>
        <time>2020-07-26T12:33:54Z</time>
      </trkpt>
      <trkpt lat="51.221027728005" lon="4.996614456145">
        <ele>17.6</ele>
        <time>2020-07-26T12:34:03Z</time>
      </trkpt>
      <trkpt lat="51.221307683465" lon="4.995838795119">
        <ele>13.6</ele>
        <time>2020-07-26T12:34:12Z</time>
      </trkpt>
      <trkpt lat="51.2215729706" lon="4.994982500215">
        <ele>13.6</ele>
        <time>2020-07-26T12:34:22Z</time>
      </trkpt>
      <trkpt lat="51.221821493935" lon="4.994201307135">
        <ele>13.2</ele>
        <time>2020-07-26T12:34:31Z</time>
      </trkpt>
      <trkpt lat="51.222062892655" lon="4.99338365279">
        <ele>8</ele>
        <time>2020-07-26T12:34:40Z</time>
      </trkpt>
      <trkpt lat="51.222302363538" lon="4.992517467244">
        <ele>7.2</ele>
        <time>2020-07-26T12:34:49Z</time>
      </trkpt>
      <trkpt lat="51.222483915492" lon="4.991694951397">
        <ele>14.6</ele>
        <time>2020-07-26T12:34:57Z</time>
      </trkpt>
      <trkpt lat="51.222728583153" lon="4.990927253176">
        <ele>19</ele>
        <time>2020-07-26T12:35:06Z</time>
      </trkpt>
      <trkpt lat="51.222990601347" lon="4.990111694306">
        <ele>22.6</ele>
        <time>2020-07-26T12:35:14Z</time>
      </trkpt>
      <trkpt lat="51.223221522692" lon="4.989321700231">
        <ele>26</ele>
        <time>2020-07-26T12:35:22Z</time>
      </trkpt>
      <trkpt lat="51.223450851476" lon="4.988530784147">
        <ele>27.2</ele>
        <time>2020-07-26T12:35:30Z</time>
      </trkpt>
      <trkpt lat="51.223701721743" lon="4.987719416227">
        <ele>26.8</ele>
        <time>2020-07-26T12:35:39Z</time>
      </trkpt>
      <trkpt lat="51.223967427973" lon="4.986934870387">
        <ele>22.6</ele>
        <time>2020-07-26T12:35:48Z</time>
      </trkpt>
      <trkpt lat="51.224189296866" lon="4.986113695644">
        <ele>17.6</ele>
        <time>2020-07-26T12:35:57Z</time>
      </trkpt>
      <trkpt lat="51.224358024513" lon="4.985215155964">
        <ele>13</ele>
        <time>2020-07-26T12:36:06Z</time>
      </trkpt>
      <trkpt lat="51.224538403001" lon="4.984348383685">
        <ele>13.8</ele>
        <time>2020-07-26T12:36:16Z</time>
      </trkpt>
      <trkpt lat="51.224561285588" lon="4.984279400648">
        <ele>13.6</ele>
        <time>2020-07-26T12:36:17Z</time>
      </trkpt>
      <trkpt lat="51.224731857253" lon="4.98343852844">
        <ele>11.4</ele>
        <time>2020-07-26T12:36:27Z</time>
      </trkpt>
      <trkpt lat="51.224878037589" lon="4.982526242444">
        <ele>8.2</ele>
        <time>2020-07-26T12:36:36Z</time>
      </trkpt>
      <trkpt lat="51.225021870993" lon="4.981622003072">
        <ele>10.2</ele>
        <time>2020-07-26T12:36:46Z</time>
      </trkpt>
      <trkpt lat="51.225173080469" lon="4.980713740388">
        <ele>10.8</ele>
        <time>2020-07-26T12:36:56Z</time>
      </trkpt>
      <trkpt lat="51.22526352117" lon="4.980223147781">
        <ele>11</ele>
        <time>2020-07-26T12:37:01Z</time>
      </trkpt>
      <trkpt lat="51.225387489471" lon="4.980027681873">
        <ele>11.6</ele>
        <time>2020-07-26T12:37:04Z</time>
      </trkpt>
      <trkpt lat="51.225929127849" lon="4.979809752473">
        <ele>10.6</ele>
        <time>2020-07-26T12:37:13Z</time>
      </trkpt>
      <trkpt lat="51.226485350733" lon="4.979566593554">
        <ele>10</ele>
        <time>2020-07-26T12:37:23Z</time>
      </trkpt>
      <trkpt lat="51.226575204701" lon="4.979458131768">
        <ele>10</ele>
        <time>2020-07-26T12:37:25Z</time>
      </trkpt>
      <trkpt lat="51.22691727004" lon="4.97876059005">
        <ele>10.6</ele>
        <time>2020-07-26T12:37:36Z</time>
      </trkpt>
      <trkpt lat="51.227046183662" lon="4.978400671264">
        <ele>11</ele>
        <time>2020-07-26T12:37:42Z</time>
      </trkpt>
      <trkpt lat="51.227177779492" lon="4.978250216159">
        <ele>10.8</ele>
        <time>2020-07-26T12:37:45Z</time>
      </trkpt>
      <trkpt lat="51.227694523627" lon="4.977855009574">
        <ele>10</ele>
        <time>2020-07-26T12:37:54Z</time>
      </trkpt>
      <trkpt lat="51.228227528648" lon="4.977515542624">
        <ele>9.8</ele>
        <time>2020-07-26T12:38:04Z</time>
      </trkpt>
      <trkpt lat="51.228761958592" lon="4.977189738171">
        <ele>13</ele>
        <time>2020-07-26T12:38:14Z</time>
      </trkpt>
      <trkpt lat="51.229205025826" lon="4.976923696665">
        <ele>12.6</ele>
        <time>2020-07-26T12:38:24Z</time>
      </trkpt>
      <trkpt lat="51.229799637812" lon="4.976920008629">
        <ele>11.2</ele>
        <time>2020-07-26T12:38:35Z</time>
      </trkpt>
      <trkpt lat="51.230141284056" lon="4.97697524535">
        <ele>10</ele>
        <time>2020-07-26T12:38:41Z</time>
      </trkpt>
      <trkpt lat="51.230716450034" lon="4.977076414883">
        <ele>9.6</ele>
        <time>2020-07-26T12:38:50Z</time>
      </trkpt>
      <trkpt lat="51.231274265479" lon="4.97717389638">
        <ele>9.8</ele>
        <time>2020-07-26T12:38:59Z</time>
      </trkpt>
      <trkpt lat="51.231858483909" lon="4.977269869135">
        <ele>9.4</ele>
        <time>2020-07-26T12:39:09Z</time>
      </trkpt>
      <trkpt lat="51.232401379572" lon="4.977362908225">
        <ele>10.6</ele>
        <time>2020-07-26T12:39:20Z</time>
      </trkpt>
      <trkpt lat="51.232449156402" lon="4.977382354233">
        <ele>10.6</ele>
        <time>2020-07-26T12:39:21Z</time>
      </trkpt>
      <trkpt lat="51.232954668791" lon="4.977726012133">
        <ele>8.2</ele>
        <time>2020-07-26T12:39:32Z</time>
      </trkpt>
      <trkpt lat="51.233466635243" lon="4.978096324475">
        <ele>9.4</ele>
        <time>2020-07-26T12:39:44Z</time>
      </trkpt>
      <trkpt lat="51.233993689115" lon="4.978497314571">
        <ele>8</ele>
        <time>2020-07-26T12:39:55Z</time>
      </trkpt>
      <trkpt lat="51.234531974733" lon="4.97888883312">
        <ele>8.6</ele>
        <time>2020-07-26T12:40:05Z</time>
      </trkpt>
      <trkpt lat="51.234584529246" lon="4.978914481734">
        <ele>8.6</ele>
        <time>2020-07-26T12:40:06Z</time>
      </trkpt>
      <trkpt lat="51.234693410127" lon="4.978913559725">
        <ele>9</ele>
        <time>2020-07-26T12:40:08Z</time>
      </trkpt>
      <trkpt lat="51.234803129198" lon="4.978835524236">
        <ele>9</ele>
        <time>2020-07-26T12:40:10Z</time>
      </trkpt>
      <trkpt lat="51.235196156489" lon="4.978363120352">
        <ele>11.8</ele>
        <time>2020-07-26T12:40:18Z</time>
      </trkpt>
      <trkpt lat="51.23575933635" lon="4.978100766882">
        <ele>12.4</ele>
        <time>2020-07-26T12:40:28Z</time>
      </trkpt>
      <trkpt lat="51.23631505632" lon="4.977880239093">
        <ele>16</ele>
        <time>2020-07-26T12:40:38Z</time>
      </trkpt>
      <trkpt lat="51.236855437413" lon="4.977883172758">
        <ele>21.4</ele>
        <time>2020-07-26T12:40:47Z</time>
      </trkpt>
      <trkpt lat="51.237414258686" lon="4.977828774227">
        <ele>22.8</ele>
        <time>2020-07-26T12:40:59Z</time>
      </trkpt>
      <trkpt lat="51.237580555582" lon="4.97705319702">
        <ele>14.8</ele>
        <time>2020-07-26T12:41:14Z</time>
      </trkpt>
      <trkpt lat="51.237612071526" lon="4.976906765227">
        <ele>15.8</ele>
        <time>2020-07-26T12:41:16Z</time>
      </trkpt>
      <trkpt lat="51.23787744248" lon="4.976148454734">
        <ele>18.6</ele>
        <time>2020-07-26T12:41:27Z</time>
      </trkpt>
      <trkpt lat="51.23821774762" lon="4.975425348221">
        <ele>19.4</ele>
        <time>2020-07-26T12:41:37Z</time>
      </trkpt>
      <trkpt lat="51.238486052239" lon="4.974667121547">
        <ele>18.4</ele>
        <time>2020-07-26T12:41:47Z</time>
      </trkpt>
      <trkpt lat="51.238752177564" lon="4.973903614276">
        <ele>17.4</ele>
        <time>2020-07-26T12:41:57Z</time>
      </trkpt>
      <trkpt lat="51.238999527433" lon="4.973088390682">
        <ele>18.6</ele>
        <time>2020-07-26T12:42:08Z</time>
      </trkpt>
      <trkpt lat="51.239289960268" lon="4.972276016934">
        <ele>19.2</ele>
        <time>2020-07-26T12:42:20Z</time>
      </trkpt>
      <trkpt lat="51.239572346479" lon="4.971191566712">
        <ele>20</ele>
        <time>2020-07-26T12:42:34Z</time>
      </trkpt>
      <trkpt lat="51.239658763868" lon="4.970796443946">
        <ele>19</ele>
        <time>2020-07-26T12:42:39Z</time>
      </trkpt>
      <trkpt lat="51.239679802437" lon="4.970544819308">
        <ele>17.2</ele>
        <time>2020-07-26T12:42:42Z</time>
      </trkpt>
      <trkpt lat="51.239732440769" lon="4.970411211822">
        <ele>17.8</ele>
        <time>2020-07-26T12:42:44Z</time>
      </trkpt>
      <trkpt lat="51.239832688293" lon="4.970346168278">
        <ele>18.6</ele>
        <time>2020-07-26T12:42:46Z</time>
      </trkpt>
      <trkpt lat="51.240349600066" lon="4.970033104313">
        <ele>22.4</ele>
        <time>2020-07-26T12:42:55Z</time>
      </trkpt>
      <trkpt lat="51.240874558463" lon="4.969705874937">
        <ele>23.6</ele>
        <time>2020-07-26T12:43:05Z</time>
      </trkpt>
      <trkpt lat="51.240996263651" lon="4.96915241808">
        <ele>21.4</ele>
        <time>2020-07-26T12:43:18Z</time>
      </trkpt>
      <trkpt lat="51.241011937804" lon="4.969175971219">
        <ele>23</ele>
        <time>2020-07-26T12:43:21Z</time>
      </trkpt>
      <trkpt lat="51.241032054364" lon="4.969317122415">
        <ele>37.8</ele>
        <time>2020-07-26T12:43:45Z</time>
      </trkpt>
      <trkpt lat="51.240934405229" lon="4.969420722699">
        <ele>39.4</ele>
        <time>2020-07-26T12:45:51Z</time>
      </trkpt>
      <trkpt lat="51.240929543727" lon="4.969425835658">
        <ele>39.4</ele>
        <time>2020-07-26T12:45:54Z</time>
      </trkpt>
      <trkpt lat="51.240896770498" lon="4.969026941037">
        <ele>39.6</ele>
        <time>2020-07-26T12:48:31Z</time>
      </trkpt>
      <trkpt lat="51.24072812667" lon="4.968206604484">
        <ele>26</ele>
        <time>2020-07-26T12:48:47Z</time>
      </trkpt>
      <trkpt lat="51.240597285211" lon="4.967455670063">
        <ele>17.4</ele>
        <time>2020-07-26T12:48:59Z</time>
      </trkpt>
      <trkpt lat="51.240626789499" lon="4.967271854996">
        <ele>15.8</ele>
        <time>2020-07-26T12:49:02Z</time>
      </trkpt>
      <trkpt lat="51.240676494166" lon="4.967143528107">
        <ele>16.8</ele>
        <time>2020-07-26T12:49:04Z</time>
      </trkpt>
      <trkpt lat="51.241047812336" lon="4.966446489303">
        <ele>15.4</ele>
        <time>2020-07-26T12:49:16Z</time>
      </trkpt>
      <trkpt lat="51.241163650194" lon="4.966311205437">
        <ele>15.4</ele>
        <time>2020-07-26T12:49:20Z</time>
      </trkpt>
      <trkpt lat="51.24125786275" lon="4.966214143035">
        <ele>18.6</ele>
        <time>2020-07-26T12:50:37Z</time>
      </trkpt>
      <trkpt lat="51.241374874074" lon="4.966103250498">
        <ele>17.8</ele>
        <time>2020-07-26T12:50:41Z</time>
      </trkpt>
      <trkpt lat="51.24192590018" lon="4.96575523401">
        <ele>20.8</ele>
        <time>2020-07-26T12:50:53Z</time>
      </trkpt>
      <trkpt lat="51.242476255734" lon="4.96559765429">
        <ele>23.4</ele>
        <time>2020-07-26T12:51:02Z</time>
      </trkpt>
      <trkpt lat="51.243043794183" lon="4.96540654697">
        <ele>25</ele>
        <time>2020-07-26T12:51:11Z</time>
      </trkpt>
      <trkpt lat="51.24361317665" lon="4.965258857892">
        <ele>24.8</ele>
        <time>2020-07-26T12:51:20Z</time>
      </trkpt>
      <trkpt lat="51.24420074784" lon="4.965135560143">
        <ele>25.6</ele>
        <time>2020-07-26T12:51:30Z</time>
      </trkpt>
      <trkpt lat="51.244797455301" lon="4.965046209089">
        <ele>21.8</ele>
        <time>2020-07-26T12:51:40Z</time>
      </trkpt>
      <trkpt lat="51.24534068624" lon="4.96487513451">
        <ele>21.6</ele>
        <time>2020-07-26T12:51:49Z</time>
      </trkpt>
      <trkpt lat="51.245918953521" lon="4.964726188147">
        <ele>20.6</ele>
        <time>2020-07-26T12:51:58Z</time>
      </trkpt>
      <trkpt lat="51.246461849184" lon="4.964473390043">
        <ele>15.8</ele>
        <time>2020-07-26T12:52:08Z</time>
      </trkpt>
      <trkpt lat="51.247047073442" lon="4.964314804495">
        <ele>16</ele>
        <time>2020-07-26T12:52:20Z</time>
      </trkpt>
      <trkpt lat="51.247590807295" lon="4.964166277227">
        <ele>14.2</ele>
        <time>2020-07-26T12:52:31Z</time>
      </trkpt>
      <trkpt lat="51.24814443179" lon="4.964034765216">
        <ele>13</ele>
        <time>2020-07-26T12:52:43Z</time>
      </trkpt>
      <trkpt lat="51.248677855906" lon="4.963906773603">
        <ele>9.6</ele>
        <time>2020-07-26T12:52:54Z</time>
      </trkpt>
      <trkpt lat="51.249228630555" lon="4.963763526932">
        <ele>7.6</ele>
        <time>2020-07-26T12:53:05Z</time>
      </trkpt>
      <trkpt lat="51.249800946687" lon="4.963613071827">
        <ele>7.8</ele>
        <time>2020-07-26T12:53:16Z</time>
      </trkpt>
      <trkpt lat="51.250373765733" lon="4.963459263962">
        <ele>10</ele>
        <time>2020-07-26T12:53:29Z</time>
      </trkpt>
      <trkpt lat="51.250928479875" lon="4.963340995353">
        <ele>14.4</ele>
        <time>2020-07-26T12:53:42Z</time>
      </trkpt>
      <trkpt lat="51.251471543176" lon="4.963228342617">
        <ele>15.8</ele>
        <time>2020-07-26T12:53:53Z</time>
      </trkpt>
      <trkpt lat="51.251579082953" lon="4.96316690329">
        <ele>15.8</ele>
        <time>2020-07-26T12:53:54Z</time>
      </trkpt>
      <trkpt lat="51.251629206715" lon="4.963144942712">
        <ele>16</ele>
        <time>2020-07-26T12:53:56Z</time>
      </trkpt>
      <trkpt lat="51.252172018559" lon="4.963016699642">
        <ele>16.4</ele>
        <time>2020-07-26T12:54:06Z</time>
      </trkpt>
      <trkpt lat="51.252711645281" lon="4.962913015539">
        <ele>13.6</ele>
        <time>2020-07-26T12:54:15Z</time>
      </trkpt>
      <trkpt lat="51.252901914411" lon="4.962857778818">
        <ele>11.6</ele>
        <time>2020-07-26T12:54:18Z</time>
      </trkpt>
      <trkpt lat="51.25303527044" lon="4.962757363656">
        <ele>12.8</ele>
        <time>2020-07-26T12:54:20Z</time>
      </trkpt>
      <trkpt lat="51.253144067502" lon="4.962592659321">
        <ele>11.8</ele>
        <time>2020-07-26T12:54:22Z</time>
      </trkpt>
      <trkpt lat="51.253520833907" lon="4.962048254916">
        <ele>10.2</ele>
        <time>2020-07-26T12:54:29Z</time>
      </trkpt>
      <trkpt lat="51.253629044236" lon="4.961992431462">
        <ele>10.2</ele>
        <time>2020-07-26T12:54:31Z</time>
      </trkpt>
      <trkpt lat="51.254167916587" lon="4.962221173513">
        <ele>8</ele>
        <time>2020-07-26T12:54:40Z</time>
      </trkpt>
      <trkpt lat="51.254708632956" lon="4.962345980004">
        <ele>9.4</ele>
        <time>2020-07-26T12:54:49Z</time>
      </trkpt>
      <trkpt lat="51.255296287965" lon="4.962272806017">
        <ele>9.4</ele>
        <time>2020-07-26T12:54:58Z</time>
      </trkpt>
      <trkpt lat="51.255879416748" lon="4.962109442786">
        <ele>10.8</ele>
        <time>2020-07-26T12:55:06Z</time>
      </trkpt>
      <trkpt lat="51.25646346754" lon="4.961960915518">
        <ele>11.6</ele>
        <time>2020-07-26T12:55:16Z</time>
      </trkpt>
      <trkpt lat="51.25699907095" lon="4.961846921678">
        <ele>11.2</ele>
        <time>2020-07-26T12:55:25Z</time>
      </trkpt>
      <trkpt lat="51.257546073744" lon="4.961684815732">
        <ele>12</ele>
        <time>2020-07-26T12:55:34Z</time>
      </trkpt>
      <trkpt lat="51.258111768175" lon="4.961544502726">
        <ele>15.6</ele>
        <time>2020-07-26T12:55:43Z</time>
      </trkpt>
      <trkpt lat="51.258666985231" lon="4.961409889412">
        <ele>21.6</ele>
        <time>2020-07-26T12:55:52Z</time>
      </trkpt>
      <trkpt lat="51.25924374377" lon="4.961260440135">
        <ele>27.4</ele>
        <time>2020-07-26T12:56:01Z</time>
      </trkpt>
      <trkpt lat="51.259809438201" lon="4.961119540396">
        <ele>27.4</ele>
        <time>2020-07-26T12:56:12Z</time>
      </trkpt>
      <trkpt lat="51.260356357176" lon="4.960978640657">
        <ele>25.2</ele>
        <time>2020-07-26T12:56:21Z</time>
      </trkpt>
      <trkpt lat="51.260922219245" lon="4.960803878042">
        <ele>20.2</ele>
        <time>2020-07-26T12:56:32Z</time>
      </trkpt>
      <trkpt lat="51.261454218438" lon="4.960687621089">
        <ele>13.6</ele>
        <time>2020-07-26T12:56:42Z</time>
      </trkpt>
      <trkpt lat="51.261556058523" lon="4.960634144567">
        <ele>13</ele>
        <time>2020-07-26T12:56:44Z</time>
      </trkpt>
      <trkpt lat="51.26213801384" lon="4.960494083018">
        <ele>12.6</ele>
        <time>2020-07-26T12:56:55Z</time>
      </trkpt>
      <trkpt lat="51.262686944471" lon="4.960391488562">
        <ele>12</ele>
        <time>2020-07-26T12:57:04Z</time>
      </trkpt>
      <trkpt lat="51.263267642503" lon="4.960267520261">
        <ele>12.2</ele>
        <time>2020-07-26T12:57:14Z</time>
      </trkpt>
      <trkpt lat="51.263810789623" lon="4.960116143147">
        <ele>10.2</ele>
        <time>2020-07-26T12:57:24Z</time>
      </trkpt>
      <trkpt lat="51.264398193175" lon="4.959958982522">
        <ele>9.2</ele>
        <time>2020-07-26T12:57:34Z</time>
      </trkpt>
      <trkpt lat="51.264958020276" lon="4.959826967597">
        <ele>9.8</ele>
        <time>2020-07-26T12:57:44Z</time>
      </trkpt>
      <trkpt lat="51.265469735271" lon="4.959668130592">
        <ele>10.4</ele>
        <time>2020-07-26T12:57:53Z</time>
      </trkpt>
      <trkpt lat="51.266031909304" lon="4.959544665205">
        <ele>8.8</ele>
        <time>2020-07-26T12:58:02Z</time>
      </trkpt>
      <trkpt lat="51.266092175165" lon="4.959533098183">
        <ele>8.6</ele>
        <time>2020-07-26T12:58:04Z</time>
      </trkpt>
      <trkpt lat="51.266654852112" lon="4.959329501832">
        <ele>9.8</ele>
        <time>2020-07-26T12:58:13Z</time>
      </trkpt>
      <trkpt lat="51.267217780516" lon="4.959043343766">
        <ele>10.2</ele>
        <time>2020-07-26T12:58:22Z</time>
      </trkpt>
      <trkpt lat="51.267718934317" lon="4.958648640095">
        <ele>10.4</ele>
        <time>2020-07-26T12:58:31Z</time>
      </trkpt>
      <trkpt lat="51.268230565493" lon="4.958154946185">
        <ele>11.8</ele>
        <time>2020-07-26T12:58:40Z</time>
      </trkpt>
      <trkpt lat="51.268712357105" lon="4.957621186793">
        <ele>11.6</ele>
        <time>2020-07-26T12:58:49Z</time>
      </trkpt>
      <trkpt lat="51.269164979705" lon="4.957112237825">
        <ele>12.6</ele>
        <time>2020-07-26T12:58:58Z</time>
      </trkpt>
      <trkpt lat="51.269656661959" lon="4.956578813709">
        <ele>13</ele>
        <time>2020-07-26T12:59:08Z</time>
      </trkpt>
      <trkpt lat="51.269901413439" lon="4.95630715633">
        <ele>12.8</ele>
        <time>2020-07-26T12:59:13Z</time>
      </trkpt>
      <trkpt lat="51.270378343549" lon="4.955951931408">
        <ele>13.2</ele>
        <time>2020-07-26T12:59:22Z</time>
      </trkpt>
      <trkpt lat="51.270959628314" lon="4.955623360928">
        <ele>12.6</ele>
        <time>2020-07-26T12:59:32Z</time>
      </trkpt>
      <trkpt lat="51.271511911705" lon="4.955385817882">
        <ele>15</ele>
        <time>2020-07-26T12:59:45Z</time>
      </trkpt>
      <trkpt lat="51.272076516489" lon="4.95526444797">
        <ele>15.4</ele>
        <time>2020-07-26T12:59:56Z</time>
      </trkpt>
      <trkpt lat="51.272644557852" lon="4.955197141313">
        <ele>13</ele>
        <time>2020-07-26T13:00:06Z</time>
      </trkpt>
      <trkpt lat="51.273194326673" lon="4.955138132737">
        <ele>11.8</ele>
        <time>2020-07-26T13:00:15Z</time>
      </trkpt>
      <trkpt lat="51.273753147946" lon="4.955041154154">
        <ele>10.8</ele>
        <time>2020-07-26T13:00:25Z</time>
      </trkpt>
      <trkpt lat="51.274318339463" lon="4.954939397888">
        <ele>10.8</ele>
        <time>2020-07-26T13:00:35Z</time>
      </trkpt>
      <trkpt lat="51.27488688374" lon="4.954857255268">
        <ele>10.2</ele>
        <time>2020-07-26T13:00:45Z</time>
      </trkpt>
      <trkpt lat="51.275449812144" lon="4.954787936955">
        <ele>9</ele>
        <time>2020-07-26T13:00:55Z</time>
      </trkpt>
      <trkpt lat="51.276015674213" lon="4.954705459059">
        <ele>12.4</ele>
        <time>2020-07-26T13:01:05Z</time>
      </trkpt>
      <trkpt lat="51.276577010056" lon="4.954605546811">
        <ele>13.8</ele>
        <time>2020-07-26T13:01:14Z</time>
      </trkpt>
      <trkpt lat="51.277115966226" lon="4.954518207413">
        <ele>11.2</ele>
        <time>2020-07-26T13:01:23Z</time>
      </trkpt>
      <trkpt lat="51.277668249617" lon="4.954438327906">
        <ele>11.6</ele>
        <time>2020-07-26T13:01:33Z</time>
      </trkpt>
      <trkpt lat="51.278254563522" lon="4.954364483367">
        <ele>7.2</ele>
        <time>2020-07-26T13:01:43Z</time>
      </trkpt>
      <trkpt lat="51.278621355466" lon="4.954282256928">
        <ele>10.4</ele>
        <time>2020-07-26T13:01:49Z</time>
      </trkpt>
      <trkpt lat="51.279180260558" lon="4.95415971355">
        <ele>15</ele>
        <time>2020-07-26T13:01:59Z</time>
      </trkpt>
      <trkpt lat="51.279767496472" lon="4.954117887869">
        <ele>12.8</ele>
        <time>2020-07-26T13:02:08Z</time>
      </trkpt>
      <trkpt lat="51.280654552949" lon="4.954034739421">
        <ele>13.8</ele>
        <time>2020-07-26T13:02:23Z</time>
      </trkpt>
      <trkpt lat="51.281222845769" lon="4.95395268062">
        <ele>14.6</ele>
        <time>2020-07-26T13:02:33Z</time>
      </trkpt>
      <trkpt lat="51.281771357305" lon="4.953956703932">
        <ele>13.8</ele>
        <time>2020-07-26T13:02:42Z</time>
      </trkpt>
      <trkpt lat="51.282340991229" lon="4.953947232385">
        <ele>12.6</ele>
        <time>2020-07-26T13:02:52Z</time>
      </trkpt>
      <trkpt lat="51.282922527451" lon="4.95395938614">
        <ele>10.8</ele>
        <time>2020-07-26T13:03:02Z</time>
      </trkpt>
      <trkpt lat="51.283493334841" lon="4.953966678393">
        <ele>9.6</ele>
        <time>2020-07-26T13:03:11Z</time>
      </trkpt>
      <trkpt lat="51.284041008187" lon="4.953977742501">
        <ele>8.2</ele>
        <time>2020-07-26T13:03:20Z</time>
      </trkpt>
      <trkpt lat="51.284589938818" lon="4.954000289812">
        <ele>8.2</ele>
        <time>2020-07-26T13:03:30Z</time>
      </trkpt>
      <trkpt lat="51.285167870823" lon="4.954054017791">
        <ele>7.2</ele>
        <time>2020-07-26T13:03:40Z</time>
      </trkpt>
      <trkpt lat="51.285230483616" lon="4.954061310044">
        <ele>7.6</ele>
        <time>2020-07-26T13:03:41Z</time>
      </trkpt>
      <trkpt lat="51.285825514697" lon="4.954054269248">
        <ele>9.4</ele>
        <time>2020-07-26T13:03:51Z</time>
      </trkpt>
      <trkpt lat="51.286417444475" lon="4.954055526533">
        <ele>11.2</ele>
        <time>2020-07-26T13:04:01Z</time>
      </trkpt>
      <trkpt lat="51.286693711899" lon="4.95404739609">
        <ele>11</ele>
        <time>2020-07-26T13:04:06Z</time>
      </trkpt>
      <trkpt lat="51.287235685553" lon="4.954082516251">
        <ele>9.2</ele>
        <time>2020-07-26T13:04:15Z</time>
      </trkpt>
      <trkpt lat="51.287810264798" lon="4.954104141553">
        <ele>8.2</ele>
        <time>2020-07-26T13:04:24Z</time>
      </trkpt>
      <trkpt lat="51.288372690288" lon="4.954126269769">
        <ele>8.2</ele>
        <time>2020-07-26T13:04:33Z</time>
      </trkpt>
      <trkpt lat="51.288965458256" lon="4.95414211156">
        <ele>7.6</ele>
        <time>2020-07-26T13:04:42Z</time>
      </trkpt>
      <trkpt lat="51.289536433284" lon="4.954169017459">
        <ele>8.4</ele>
        <time>2020-07-26T13:04:51Z</time>
      </trkpt>
      <trkpt lat="51.290117801868" lon="4.95419659391">
        <ele>8.2</ele>
        <time>2020-07-26T13:05:01Z</time>
      </trkpt>
      <trkpt lat="51.290708809637" lon="4.95420749038">
        <ele>9.2</ele>
        <time>2020-07-26T13:05:11Z</time>
      </trkpt>
      <trkpt lat="51.291250364196" lon="4.954229031863">
        <ele>10.6</ele>
        <time>2020-07-26T13:05:20Z</time>
      </trkpt>
      <trkpt lat="51.291847323114" lon="4.954272953019">
        <ele>9.8</ele>
        <time>2020-07-26T13:05:30Z</time>
      </trkpt>
      <trkpt lat="51.292385441094" lon="4.95419324115">
        <ele>10.2</ele>
        <time>2020-07-26T13:05:39Z</time>
      </trkpt>
      <trkpt lat="51.292922134151" lon="4.954057286732">
        <ele>10</ele>
        <time>2020-07-26T13:05:48Z</time>
      </trkpt>
      <trkpt lat="51.293466287099" lon="4.953853187467">
        <ele>13.8</ele>
        <time>2020-07-26T13:05:58Z</time>
      </trkpt>
      <trkpt lat="51.294004740355" lon="4.953627798176">
        <ele>14.2</ele>
        <time>2020-07-26T13:06:11Z</time>
      </trkpt>
      <trkpt lat="51.294525256345" lon="4.953339293178">
        <ele>14.8</ele>
        <time>2020-07-26T13:06:21Z</time>
      </trkpt>
      <trkpt lat="51.295038731539" lon="4.953043328289">
        <ele>13.4</ele>
        <time>2020-07-26T13:06:31Z</time>
      </trkpt>
      <trkpt lat="51.295567461791" lon="4.952703023149">
        <ele>12.8</ele>
        <time>2020-07-26T13:06:42Z</time>
      </trkpt>
      <trkpt lat="51.296071046343" lon="4.952393060487">
        <ele>15.8</ele>
        <time>2020-07-26T13:06:54Z</time>
      </trkpt>
      <trkpt lat="51.296534146318" lon="4.952179824951">
        <ele>20.2</ele>
        <time>2020-07-26T13:07:04Z</time>
      </trkpt>
      <trkpt lat="51.296680410473" lon="4.952096005951">
        <ele>22</ele>
        <time>2020-07-26T13:07:07Z</time>
      </trkpt>
      <trkpt lat="51.297255827908" lon="4.95192845177">
        <ele>23</ele>
        <time>2020-07-26T13:07:18Z</time>
      </trkpt>
      <trkpt lat="51.297809284765" lon="4.951781936158">
        <ele>21.6</ele>
        <time>2020-07-26T13:07:29Z</time>
      </trkpt>
      <trkpt lat="51.298384366924" lon="4.951637180745">
        <ele>20.6</ele>
        <time>2020-07-26T13:07:39Z</time>
      </trkpt>
      <trkpt lat="51.298943272016" lon="4.951480523034">
        <ele>19.8</ele>
        <time>2020-07-26T13:07:50Z</time>
      </trkpt>
      <trkpt lat="51.299504272583" lon="4.951321686029">
        <ele>18.4</ele>
        <time>2020-07-26T13:07:59Z</time>
      </trkpt>
      <trkpt lat="51.300052951757" lon="4.951191431303">
        <ele>17.4</ele>
        <time>2020-07-26T13:08:07Z</time>
      </trkpt>
      <trkpt lat="51.300635577626" lon="4.951051369754">
        <ele>16.6</ele>
        <time>2020-07-26T13:08:15Z</time>
      </trkpt>
      <trkpt lat="51.301187441922" lon="4.950907452531">
        <ele>15.8</ele>
        <time>2020-07-26T13:08:22Z</time>
      </trkpt>
      <trkpt lat="51.301732516879" lon="4.950779460918">
        <ele>16</ele>
        <time>2020-07-26T13:08:29Z</time>
      </trkpt>
      <trkpt lat="51.302289997048" lon="4.950614253669">
        <ele>14.2</ele>
        <time>2020-07-26T13:08:37Z</time>
      </trkpt>
      <trkpt lat="51.30286147499" lon="4.950446364212">
        <ele>14.2</ele>
        <time>2020-07-26T13:08:45Z</time>
      </trkpt>
      <trkpt lat="51.303441418651" lon="4.950334046752">
        <ele>14</ele>
        <time>2020-07-26T13:08:54Z</time>
      </trkpt>
      <trkpt lat="51.303484082522" lon="4.950316193305">
        <ele>14</ele>
        <time>2020-07-26T13:08:55Z</time>
      </trkpt>
      <trkpt lat="51.30352113052" lon="4.950294316546">
        <ele>14</ele>
        <time>2020-07-26T13:08:56Z</time>
      </trkpt>
      <trkpt lat="51.303500594865" lon="4.950758673806">
        <ele>15.8</ele>
        <time>2020-07-26T13:10:36Z</time>
      </trkpt>
      <trkpt lat="51.303520376149" lon="4.950806031541">
        <ele>16</ele>
        <time>2020-07-26T13:10:38Z</time>
      </trkpt>
      <trkpt lat="51.304083053096" lon="4.950545857365">
        <ele>16.8</ele>
        <time>2020-07-26T13:10:52Z</time>
      </trkpt>
      <trkpt lat="51.304672216847" lon="4.950404873807">
        <ele>16.6</ele>
        <time>2020-07-26T13:11:01Z</time>
      </trkpt>
      <trkpt lat="51.305280658968" lon="4.950255843625">
        <ele>16</ele>
        <time>2020-07-26T13:11:09Z</time>
      </trkpt>
      <trkpt lat="51.305843587372" lon="4.950115782076">
        <ele>15.6</ele>
        <time>2020-07-26T13:11:17Z</time>
      </trkpt>
      <trkpt lat="51.306391512175" lon="4.949976893993">
        <ele>16.2</ele>
        <time>2020-07-26T13:11:26Z</time>
      </trkpt>
      <trkpt lat="51.30695770952" lon="4.949808250165">
        <ele>16.8</ele>
        <time>2020-07-26T13:11:41Z</time>
      </trkpt>
      <trkpt lat="51.307217716058" lon="4.949715713989">
        <ele>18.6</ele>
        <time>2020-07-26T13:11:46Z</time>
      </trkpt>
      <trkpt lat="51.307761114635" lon="4.949586800367">
        <ele>23.4</ele>
        <time>2020-07-26T13:11:55Z</time>
      </trkpt>
      <trkpt lat="51.308343991961" lon="4.949418407996">
        <ele>24.8</ele>
        <time>2020-07-26T13:12:04Z</time>
      </trkpt>
      <trkpt lat="51.30891320679" lon="4.94932168087">
        <ele>18.8</ele>
        <time>2020-07-26T13:12:16Z</time>
      </trkpt>
      <trkpt lat="51.309024937517" lon="4.949316400273">
        <ele>17.2</ele>
        <time>2020-07-26T13:12:20Z</time>
      </trkpt>
      <trkpt lat="51.309038264738" lon="4.949362249266">
        <ele>16.6</ele>
        <time>2020-07-26T13:12:22Z</time>
      </trkpt>
      <trkpt lat="51.308972131547" lon="4.949328218752">
        <ele>15</ele>
        <time>2020-07-26T13:12:26Z</time>
      </trkpt>
      <trkpt lat="51.309520307807" lon="4.949199724225">
        <ele>16.2</ele>
        <time>2020-07-26T13:12:42Z</time>
      </trkpt>
      <trkpt lat="51.310101424934" lon="4.949002581937">
        <ele>24.4</ele>
        <time>2020-07-26T13:12:53Z</time>
      </trkpt>
      <trkpt lat="51.310686565373" lon="4.948805104373">
        <ele>33.4</ele>
        <time>2020-07-26T13:13:03Z</time>
      </trkpt>
      <trkpt lat="51.311231221235" lon="4.94876260814">
        <ele>25</ele>
        <time>2020-07-26T13:13:11Z</time>
      </trkpt>
      <trkpt lat="51.311834131302" lon="4.948715250405">
        <ele>19</ele>
        <time>2020-07-26T13:13:20Z</time>
      </trkpt>
      <trkpt lat="51.312140405928" lon="4.948729834911">
        <ele>19</ele>
        <time>2020-07-26T13:13:25Z</time>
      </trkpt>
      <trkpt lat="51.312238557977" lon="4.948799739957">
        <ele>18.2</ele>
        <time>2020-07-26T13:13:27Z</time>
      </trkpt>
      <trkpt lat="51.312331513248" lon="4.948910632494">
        <ele>17.4</ele>
        <time>2020-07-26T13:13:31Z</time>
      </trkpt>
      <trkpt lat="51.31269344369" lon="4.948284756021">
        <ele>12.8</ele>
        <time>2020-07-26T13:15:22Z</time>
      </trkpt>
      <trkpt lat="51.31263644677" lon="4.948040591274">
        <ele>12.4</ele>
        <time>2020-07-26T13:15:26Z</time>
      </trkpt>
      <trkpt lat="51.312625634119" lon="4.947129897839">
        <ele>11.2</ele>
        <time>2020-07-26T13:15:36Z</time>
      </trkpt>
      <trkpt lat="51.312628232508" lon="4.946217528024">
        <ele>11</ele>
        <time>2020-07-26T13:15:45Z</time>
      </trkpt>
      <trkpt lat="51.31264734324" lon="4.945278839043">
        <ele>10.8</ele>
        <time>2020-07-26T13:15:55Z</time>
      </trkpt>
      <trkpt lat="51.312668465628" lon="4.944448611848">
        <ele>10</ele>
        <time>2020-07-26T13:16:04Z</time>
      </trkpt>
      <trkpt lat="51.312705262169" lon="4.943533224549">
        <ele>6</ele>
        <time>2020-07-26T13:16:16Z</time>
      </trkpt>
      <trkpt lat="51.312718170295" lon="4.942597133957">
        <ele>0.6</ele>
        <time>2020-07-26T13:16:25Z</time>
      </trkpt>
      <trkpt lat="51.312701993228" lon="4.941729188212">
        <ele>1</ele>
        <time>2020-07-26T13:16:33Z</time>
      </trkpt>
      <trkpt lat="51.312687492541" lon="4.940819835881">
        <ele>5</ele>
        <time>2020-07-26T13:16:42Z</time>
      </trkpt>
      <trkpt lat="51.31267500351" lon="4.939950884308">
        <ele>7.8</ele>
        <time>2020-07-26T13:16:51Z</time>
      </trkpt>
      <trkpt lat="51.312681541392" lon="4.939084195848">
        <ele>10.2</ele>
        <time>2020-07-26T13:17:00Z</time>
      </trkpt>
      <trkpt lat="51.312687241084" lon="4.938466030723">
        <ele>11.6</ele>
        <time>2020-07-26T13:17:06Z</time>
      </trkpt>
      <trkpt lat="51.31269512007" lon="4.938281461285">
        <ele>12.4</ele>
        <time>2020-07-26T13:17:08Z</time>
      </trkpt>
      <trkpt lat="51.31268254722" lon="4.938001338187">
        <ele>13.4</ele>
        <time>2020-07-26T13:17:11Z</time>
      </trkpt>
      <trkpt lat="51.312697383183" lon="4.937097769367">
        <ele>14</ele>
        <time>2020-07-26T13:17:20Z</time>
      </trkpt>
      <trkpt lat="51.312716410096" lon="4.936204594103">
        <ele>15</ele>
        <time>2020-07-26T13:17:31Z</time>
      </trkpt>
      <trkpt lat="51.312717080648" lon="4.935294403582">
        <ele>16.8</ele>
        <time>2020-07-26T13:17:42Z</time>
      </trkpt>
      <trkpt lat="51.312724624358" lon="4.934396702092">
        <ele>16.6</ele>
        <time>2020-07-26T13:17:54Z</time>
      </trkpt>
      <trkpt lat="51.312733006258" lon="4.933462790794">
        <ele>17</ele>
        <time>2020-07-26T13:18:07Z</time>
      </trkpt>
      <trkpt lat="51.312729569679" lon="4.932569364073">
        <ele>20.4</ele>
        <time>2020-07-26T13:18:19Z</time>
      </trkpt>
      <trkpt lat="51.312745830565" lon="4.931708626762">
        <ele>18.8</ele>
        <time>2020-07-26T13:18:31Z</time>
      </trkpt>
      <trkpt lat="51.312756894673" lon="4.930824923045">
        <ele>16</ele>
        <time>2020-07-26T13:18:41Z</time>
      </trkpt>
      <trkpt lat="51.312743986547" lon="4.92996116825">
        <ele>14.2</ele>
        <time>2020-07-26T13:18:50Z</time>
      </trkpt>
      <trkpt lat="51.312895363661" lon="4.928264001138">
        <ele>11.6</ele>
        <time>2020-07-26T13:19:06Z</time>
      </trkpt>
      <trkpt lat="51.313074484864" lon="4.927423380387">
        <ele>13.2</ele>
        <time>2020-07-26T13:19:15Z</time>
      </trkpt>
      <trkpt lat="51.313314207204" lon="4.926653083777">
        <ele>14.8</ele>
        <time>2020-07-26T13:19:25Z</time>
      </trkpt>
      <trkpt lat="51.313570609525" lon="4.925922936468">
        <ele>21.6</ele>
        <time>2020-07-26T13:19:39Z</time>
      </trkpt>
      <trkpt lat="51.313583266194" lon="4.925963169588">
        <ele>20.6</ele>
        <time>2020-07-26T13:20:16Z</time>
      </trkpt>
      <trkpt lat="51.313915021796" lon="4.925242493826">
        <ele>26.6</ele>
        <time>2020-07-26T13:20:35Z</time>
      </trkpt>
      <trkpt lat="51.314314167874" lon="4.924605637064">
        <ele>20.6</ele>
        <time>2020-07-26T13:20:47Z</time>
      </trkpt>
      <trkpt lat="51.314711386115" lon="4.923950675398">
        <ele>16.4</ele>
        <time>2020-07-26T13:20:59Z</time>
      </trkpt>
      <trkpt lat="51.315084129208" lon="4.923300575234">
        <ele>14.8</ele>
        <time>2020-07-26T13:21:13Z</time>
      </trkpt>
      <trkpt lat="51.31546114707" lon="4.922644356283">
        <ele>12</ele>
        <time>2020-07-26T13:21:24Z</time>
      </trkpt>
      <trkpt lat="51.315849480497" lon="4.921966931125">
        <ele>14.2</ele>
        <time>2020-07-26T13:21:35Z</time>
      </trkpt>
      <trkpt lat="51.316211662396" lon="4.921316411866">
        <ele>14.6</ele>
        <time>2020-07-26T13:21:49Z</time>
      </trkpt>
      <trkpt lat="51.316606868981" lon="4.920721464604">
        <ele>16.6</ele>
        <time>2020-07-26T13:22:03Z</time>
      </trkpt>
      <trkpt lat="51.317085140195" lon="4.92021218036">
        <ele>17</ele>
        <time>2020-07-26T13:22:15Z</time>
      </trkpt>
      <trkpt lat="51.317596939009" lon="4.91979224717">
        <ele>17</ele>
        <time>2020-07-26T13:22:26Z</time>
      </trkpt>
      <trkpt lat="51.31810815109" lon="4.919487397467">
        <ele>19.4</ele>
        <time>2020-07-26T13:22:37Z</time>
      </trkpt>
      <trkpt lat="51.318606455045" lon="4.91912923888">
        <ele>21.2</ele>
        <time>2020-07-26T13:22:49Z</time>
      </trkpt>
      <trkpt lat="51.31908296606" lon="4.918611656555">
        <ele>23</ele>
        <time>2020-07-26T13:23:02Z</time>
      </trkpt>
      <trkpt lat="51.319492086599" lon="4.918036658215">
        <ele>22.2</ele>
        <time>2020-07-26T13:23:13Z</time>
      </trkpt>
      <trkpt lat="51.319869020642" lon="4.917343810361">
        <ele>20.4</ele>
        <time>2020-07-26T13:23:23Z</time>
      </trkpt>
      <trkpt lat="51.320246876694" lon="4.91666998942">
        <ele>16.8</ele>
        <time>2020-07-26T13:23:34Z</time>
      </trkpt>
      <trkpt lat="51.320640574537" lon="4.915995078832">
        <ele>17.2</ele>
        <time>2020-07-26T13:23:43Z</time>
      </trkpt>
      <trkpt lat="51.321047012868" lon="4.915414548438">
        <ele>15.4</ele>
        <time>2020-07-26T13:23:51Z</time>
      </trkpt>
      <trkpt lat="51.321530816136" lon="4.914843992505">
        <ele>14</ele>
        <time>2020-07-26T13:24:00Z</time>
      </trkpt>
      <trkpt lat="51.322066587184" lon="4.914444175875">
        <ele>12.6</ele>
        <time>2020-07-26T13:24:10Z</time>
      </trkpt>
      <trkpt lat="51.322587354631" lon="4.914208812123">
        <ele>12.2</ele>
        <time>2020-07-26T13:24:19Z</time>
      </trkpt>
      <trkpt lat="51.323140392393" lon="4.914127172417">
        <ele>8.4</ele>
        <time>2020-07-26T13:24:29Z</time>
      </trkpt>
      <trkpt lat="51.323698543114" lon="4.914183750242">
        <ele>6.8</ele>
        <time>2020-07-26T13:24:39Z</time>
      </trkpt>
      <trkpt lat="51.323805160882" lon="4.914211075236">
        <ele>5.8</ele>
        <time>2020-07-26T13:24:41Z</time>
      </trkpt>
      <trkpt lat="51.324232553963" lon="4.914514583835">
        <ele>6</ele>
        <time>2020-07-26T13:24:50Z</time>
      </trkpt>
      <trkpt lat="51.324338584998" lon="4.914472339059">
        <ele>5.8</ele>
        <time>2020-07-26T13:24:53Z</time>
      </trkpt>
      <trkpt lat="51.324403041809" lon="4.914240244248">
        <ele>7.6</ele>
        <time>2020-07-26T13:24:58Z</time>
      </trkpt>
      <trkpt lat="51.32478349625" lon="4.914221133516">
        <ele>13.8</ele>
        <time>2020-07-26T13:25:21Z</time>
      </trkpt>
      <trkpt lat="51.325102343726" lon="4.914223648086">
        <ele>13.8</ele>
        <time>2020-07-26T13:25:57Z</time>
      </trkpt>
      <trkpt lat="51.325683628491" lon="4.914099428328">
        <ele>20.2</ele>
        <time>2020-07-26T13:26:18Z</time>
      </trkpt>
      <trkpt lat="51.326231972389" lon="4.913879906367">
        <ele>22</ele>
        <time>2020-07-26T13:26:37Z</time>
      </trkpt>
      <trkpt lat="51.326784339599" lon="4.913653678886">
        <ele>27</ele>
        <time>2020-07-26T13:26:53Z</time>
      </trkpt>
      <trkpt lat="51.327330588022" lon="4.913389816674">
        <ele>27.2</ele>
        <time>2020-07-26T13:27:12Z</time>
      </trkpt>
      <trkpt lat="51.327852193659" lon="4.913164343564">
        <ele>25.2</ele>
        <time>2020-07-26T13:27:26Z</time>
      </trkpt>
      <trkpt lat="51.32803064431" lon="4.91310265278">
        <ele>24</ele>
        <time>2020-07-26T13:27:31Z</time>
      </trkpt>
      <trkpt lat="51.328592566886" lon="4.912889081968">
        <ele>22.6</ele>
        <time>2020-07-26T13:27:42Z</time>
      </trkpt>
      <trkpt lat="51.32913621692" lon="4.912652963845">
        <ele>21</ele>
        <time>2020-07-26T13:27:51Z</time>
      </trkpt>
      <trkpt lat="51.329675927461" lon="4.912427490735">
        <ele>19.6</ele>
        <time>2020-07-26T13:27:59Z</time>
      </trkpt>
      <trkpt lat="51.3302443041" lon="4.912260188011">
        <ele>17</ele>
        <time>2020-07-26T13:28:07Z</time>
      </trkpt>
      <trkpt lat="51.330495342005" lon="4.912221379814">
        <ele>17.2</ele>
        <time>2020-07-26T13:28:11Z</time>
      </trkpt>
      <trkpt lat="51.331040249324" lon="4.912216853588">
        <ele>16.4</ele>
        <time>2020-07-26T13:28:20Z</time>
      </trkpt>
      <trkpt lat="51.331601501348" lon="4.912315005637">
        <ele>16</ele>
        <time>2020-07-26T13:28:29Z</time>
      </trkpt>
      <trkpt lat="51.332160154983" lon="4.912547519543">
        <ele>15.6</ele>
        <time>2020-07-26T13:28:37Z</time>
      </trkpt>
      <trkpt lat="51.332668517218" lon="4.912873407815">
        <ele>12.8</ele>
        <time>2020-07-26T13:28:45Z</time>
      </trkpt>
      <trkpt lat="51.333159361282" lon="4.913314631031">
        <ele>11.6</ele>
        <time>2020-07-26T13:28:53Z</time>
      </trkpt>
      <trkpt lat="51.333640398523" lon="4.913873284666">
        <ele>10</ele>
        <time>2020-07-26T13:29:01Z</time>
      </trkpt>
      <trkpt lat="51.334109030552" lon="4.914472758154">
        <ele>8.2</ele>
        <time>2020-07-26T13:29:09Z</time>
      </trkpt>
      <trkpt lat="51.334565676464" lon="4.915080110628">
        <ele>7</ele>
        <time>2020-07-26T13:29:18Z</time>
      </trkpt>
      <trkpt lat="51.334651423301" lon="4.915221429462">
        <ele>7.8</ele>
        <time>2020-07-26T13:29:19Z</time>
      </trkpt>
      <trkpt lat="51.334979490867" lon="4.915614289115">
        <ele>7.4</ele>
        <time>2020-07-26T13:29:29Z</time>
      </trkpt>
      <trkpt lat="51.335055430881" lon="4.915308517403">
        <ele>9</ele>
        <time>2020-07-26T13:29:38Z</time>
      </trkpt>
      <trkpt lat="51.334567436663" lon="4.914739721669">
        <ele>13</ele>
        <time>2020-07-26T13:29:49Z</time>
      </trkpt>
      <trkpt lat="51.334121435764" lon="4.914170003926">
        <ele>13.6</ele>
        <time>2020-07-26T13:29:58Z</time>
      </trkpt>
      <trkpt lat="51.333595052444" lon="4.913551252068">
        <ele>14.2</ele>
        <time>2020-07-26T13:30:08Z</time>
      </trkpt>
      <trkpt lat="51.333106136217" lon="4.913024868748">
        <ele>15.6</ele>
        <time>2020-07-26T13:30:20Z</time>
      </trkpt>
      <trkpt lat="51.332592241928" lon="4.912600493151">
        <ele>15.4</ele>
        <time>2020-07-26T13:30:30Z</time>
      </trkpt>
      <trkpt lat="51.332045742048" lon="4.912277538544">
        <ele>15.8</ele>
        <time>2020-07-26T13:30:40Z</time>
      </trkpt>
      <trkpt lat="51.331518436719" lon="4.912078300781">
        <ele>15.8</ele>
        <time>2020-07-26T13:30:50Z</time>
      </trkpt>
      <trkpt lat="51.330962213835" lon="4.911989117365">
        <ele>16</ele>
        <time>2020-07-26T13:31:00Z</time>
      </trkpt>
      <trkpt lat="51.330847465624" lon="4.911981908931">
        <ele>16</ele>
        <time>2020-07-26T13:31:02Z</time>
      </trkpt>
      <trkpt lat="51.330696256148" lon="4.911979729637">
        <ele>16</ele>
        <time>2020-07-26T13:31:05Z</time>
      </trkpt>
      <trkpt lat="51.330110528976" lon="4.912065225017">
        <ele>16.2</ele>
        <time>2020-07-26T13:31:17Z</time>
      </trkpt>
      <trkpt lat="51.329555898653" lon="4.912275191612">
        <ele>17.2</ele>
        <time>2020-07-26T13:31:26Z</time>
      </trkpt>
      <trkpt lat="51.329019037958" lon="4.912504855672">
        <ele>19.8</ele>
        <time>2020-07-26T13:31:36Z</time>
      </trkpt>
      <trkpt lat="51.328488379869" lon="4.912737369578">
        <ele>22.4</ele>
        <time>2020-07-26T13:31:50Z</time>
      </trkpt>
      <trkpt lat="51.327959733436" lon="4.912967033638">
        <ele>25</ele>
        <time>2020-07-26T13:32:06Z</time>
      </trkpt>
      <trkpt lat="51.32741457466" lon="4.913225279977">
        <ele>23.8</ele>
        <time>2020-07-26T13:32:21Z</time>
      </trkpt>
      <trkpt lat="51.326836894112" lon="4.913462320109">
        <ele>21.8</ele>
        <time>2020-07-26T13:32:32Z</time>
      </trkpt>
      <trkpt lat="51.326263991247" lon="4.91370782596">
        <ele>20.4</ele>
        <time>2020-07-26T13:32:40Z</time>
      </trkpt>
      <trkpt lat="51.325649849434" lon="4.913905471162">
        <ele>17.2</ele>
        <time>2020-07-26T13:32:49Z</time>
      </trkpt>
      <trkpt lat="51.324976196131" lon="4.913958277132">
        <ele>16.4</ele>
        <time>2020-07-26T13:32:58Z</time>
      </trkpt>
      <trkpt lat="51.324369095114" lon="4.913928437568">
        <ele>14.2</ele>
        <time>2020-07-26T13:33:06Z</time>
      </trkpt>
      <trkpt lat="51.324051253466" lon="4.913880576919">
        <ele>11.6</ele>
        <time>2020-07-26T13:33:12Z</time>
      </trkpt>
      <trkpt lat="51.324010265975" lon="4.91374805908">
        <ele>10.4</ele>
        <time>2020-07-26T13:33:14Z</time>
      </trkpt>
      <trkpt lat="51.324038010064" lon="4.91361562506">
        <ele>8.4</ele>
        <time>2020-07-26T13:33:16Z</time>
      </trkpt>
      <trkpt lat="51.324105232902" lon="4.913627527358">
        <ele>7</ele>
        <time>2020-07-26T13:33:18Z</time>
      </trkpt>
      <trkpt lat="51.324522064789" lon="4.913828190044">
        <ele>3</ele>
        <time>2020-07-26T13:33:24Z</time>
      </trkpt>
      <trkpt lat="51.32463932757" lon="4.914152485755">
        <ele>0.4</ele>
        <time>2020-07-26T13:33:31Z</time>
      </trkpt>
      <trkpt lat="51.324601357563" lon="4.914275196771">
        <ele>0.4</ele>
        <time>2020-07-26T13:33:33Z</time>
      </trkpt>
      <trkpt lat="51.324306985235" lon="4.914905012737">
        <ele>6.6</ele>
        <time>2020-07-26T13:33:56Z</time>
      </trkpt>
      <trkpt lat="51.324291813996" lon="4.91488045377">
        <ele>6.2</ele>
        <time>2020-07-26T13:33:58Z</time>
      </trkpt>
      <trkpt lat="51.324534386182" lon="4.914388184783">
        <ele>9.8</ele>
        <time>2020-07-26T13:34:20Z</time>
      </trkpt>
      <trkpt lat="51.324575373673" lon="4.914267653061">
        <ele>9.8</ele>
        <time>2020-07-26T13:34:33Z</time>
      </trkpt>
      <trkpt lat="51.324607392531" lon="4.914015357871">
        <ele>10</ele>
        <time>2020-07-26T13:34:39Z</time>
      </trkpt>
      <trkpt lat="51.324127025842" lon="4.913579499071">
        <ele>14.2</ele>
        <time>2020-07-26T13:34:52Z</time>
      </trkpt>
      <trkpt lat="51.32402996344" lon="4.912996873202">
        <ele>11.8</ele>
        <time>2020-07-26T13:35:25Z</time>
      </trkpt>
      <trkpt lat="51.324040356996" lon="4.913112375784">
        <ele>12.2</ele>
        <time>2020-07-26T13:35:29Z</time>
      </trkpt>
      <trkpt lat="51.324632705869" lon="4.913958025675">
        <ele>5.2</ele>
        <time>2020-07-26T13:35:54Z</time>
      </trkpt>
      <trkpt lat="51.324478059814" lon="4.914405451497">
        <ele>16.8</ele>
        <time>2020-07-26T13:38:12Z</time>
      </trkpt>
      <trkpt lat="51.324381584145" lon="4.914417856709">
        <ele>16.6</ele>
        <time>2020-07-26T13:38:18Z</time>
      </trkpt>
      <trkpt lat="51.324401113972" lon="4.914191126314">
        <ele>16.4</ele>
        <time>2020-07-26T13:38:25Z</time>
      </trkpt>
      <trkpt lat="51.324953732639" lon="4.914201603689">
        <ele>15.8</ele>
        <time>2020-07-26T13:38:40Z</time>
      </trkpt>
      <trkpt lat="51.325379868435" lon="4.914157850171">
        <ele>14.2</ele>
        <time>2020-07-26T13:38:54Z</time>
      </trkpt>
      <trkpt lat="51.326680152582" lon="4.913686703572">
        <ele>22.8</ele>
        <time>2020-07-26T13:39:30Z</time>
      </trkpt>
      <trkpt lat="51.327227406833" lon="4.91344128154">
        <ele>26.2</ele>
        <time>2020-07-26T13:39:45Z</time>
      </trkpt>
      <trkpt lat="51.327924864732" lon="4.913152692723">
        <ele>26.2</ele>
        <time>2020-07-26T13:39:59Z</time>
      </trkpt>
      <trkpt lat="51.328027459188" lon="4.913118997485">
        <ele>25.8</ele>
        <time>2020-07-26T13:40:01Z</time>
      </trkpt>
      <trkpt lat="51.328135082784" lon="4.913091840129">
        <ele>25.2</ele>
        <time>2020-07-26T13:40:03Z</time>
      </trkpt>
      <trkpt lat="51.328675128601" lon="4.912865193553">
        <ele>22.4</ele>
        <time>2020-07-26T13:40:13Z</time>
      </trkpt>
      <trkpt lat="51.329211570201" lon="4.912621196444">
        <ele>22.2</ele>
        <time>2020-07-26T13:40:23Z</time>
      </trkpt>
      <trkpt lat="51.32959638323" lon="4.912459258136">
        <ele>21</ele>
        <time>2020-07-26T13:40:32Z</time>
      </trkpt>
      <trkpt lat="51.329092798678" lon="4.912910036718">
        <ele>19.6</ele>
        <time>2020-07-26T13:41:49Z</time>
      </trkpt>
      <trkpt lat="51.328603714813" lon="4.913273978816">
        <ele>17.6</ele>
        <time>2020-07-26T13:42:09Z</time>
      </trkpt>
      <trkpt lat="51.328595919646" lon="4.913370957399">
        <ele>16.8</ele>
        <time>2020-07-26T13:42:12Z</time>
      </trkpt>
      <trkpt lat="51.328439261935" lon="4.913269955504">
        <ele>14</ele>
        <time>2020-07-26T13:42:43Z</time>
      </trkpt>
      <trkpt lat="51.32791078314" lon="4.913433486373">
        <ele>15</ele>
        <time>2020-07-26T13:43:01Z</time>
      </trkpt>
      <trkpt lat="51.327807769589" lon="4.913337429799">
        <ele>14.8</ele>
        <time>2020-07-26T13:43:04Z</time>
      </trkpt>
      <trkpt lat="51.327758316379" lon="4.913044566213">
        <ele>14.2</ele>
        <time>2020-07-26T13:43:07Z</time>
      </trkpt>
      <trkpt lat="51.327769045211" lon="4.912882879362">
        <ele>14</ele>
        <time>2020-07-26T13:43:09Z</time>
      </trkpt>
      <trkpt lat="51.327822689371" lon="4.912022812603">
        <ele>12.4</ele>
        <time>2020-07-26T13:43:24Z</time>
      </trkpt>
      <trkpt lat="51.327784048812" lon="4.911462901683">
        <ele>10</ele>
        <time>2020-07-26T13:43:36Z</time>
      </trkpt>
      <trkpt lat="51.32779259835" lon="4.911366426014">
        <ele>7</ele>
        <time>2020-07-26T13:44:11Z</time>
      </trkpt>
      <trkpt lat="51.327825203941" lon="4.910469311257">
        <ele>6.6</ele>
        <time>2020-07-26T13:44:24Z</time>
      </trkpt>
      <trkpt lat="51.327827383235" lon="4.909572783233">
        <ele>9.2</ele>
        <time>2020-07-26T13:44:33Z</time>
      </trkpt>
      <trkpt lat="51.327873567504" lon="4.908611379303">
        <ele>10.8</ele>
        <time>2020-07-26T13:44:42Z</time>
      </trkpt>
      <trkpt lat="51.327929474777" lon="4.907701775515">
        <ele>10.2</ele>
        <time>2020-07-26T13:44:51Z</time>
      </trkpt>
      <trkpt lat="51.327981274919" lon="4.906835841426">
        <ele>15.4</ele>
        <time>2020-07-26T13:45:00Z</time>
      </trkpt>
      <trkpt lat="51.328045815549" lon="4.905940822144">
        <ele>17.8</ele>
        <time>2020-07-26T13:45:08Z</time>
      </trkpt>
      <trkpt lat="51.328173807162" lon="4.905007916674">
        <ele>18.6</ele>
        <time>2020-07-26T13:45:17Z</time>
      </trkpt>
      <trkpt lat="51.328300709128" lon="4.904140222386">
        <ele>17.8</ele>
        <time>2020-07-26T13:45:26Z</time>
      </trkpt>
      <trkpt lat="51.328408584181" lon="4.90328912426">
        <ele>15</ele>
        <time>2020-07-26T13:45:35Z</time>
      </trkpt>
      <trkpt lat="51.328539341821" lon="4.902353285125">
        <ele>12.8</ele>
        <time>2020-07-26T13:45:45Z</time>
      </trkpt>
      <trkpt lat="51.328670434737" lon="4.901495313841">
        <ele>7.4</ele>
        <time>2020-07-26T13:45:54Z</time>
      </trkpt>
      <trkpt lat="51.3288026173" lon="4.900621668404">
        <ele>1.8</ele>
        <time>2020-07-26T13:46:03Z</time>
      </trkpt>
      <trkpt lat="51.328959191192" lon="4.899697061015">
        <ele>1.4</ele>
        <time>2020-07-26T13:46:13Z</time>
      </trkpt>
      <trkpt lat="51.329066395693" lon="4.898808914891">
        <ele>2.8</ele>
        <time>2020-07-26T13:46:22Z</time>
      </trkpt>
      <trkpt lat="51.329134372902" lon="4.897941304422">
        <ele>3.2</ele>
        <time>2020-07-26T13:46:31Z</time>
      </trkpt>
      <trkpt lat="51.329229172191" lon="4.897033041738">
        <ele>5.8</ele>
        <time>2020-07-26T13:46:41Z</time>
      </trkpt>
      <trkpt lat="51.329317852693" lon="4.896141710492">
        <ele>9</ele>
        <time>2020-07-26T13:46:51Z</time>
      </trkpt>
      <trkpt lat="51.329396642553" lon="4.895245685382">
        <ele>12.4</ele>
        <time>2020-07-26T13:47:01Z</time>
      </trkpt>
      <trkpt lat="51.329482808485" lon="4.894387043546">
        <ele>11.6</ele>
        <time>2020-07-26T13:47:11Z</time>
      </trkpt>
      <trkpt lat="51.329573249186" lon="4.893476350111">
        <ele>16.4</ele>
        <time>2020-07-26T13:47:21Z</time>
      </trkpt>
      <trkpt lat="51.32972378811" lon="4.89259465805">
        <ele>16</ele>
        <time>2020-07-26T13:47:32Z</time>
      </trkpt>
      <trkpt lat="51.329854294293" lon="4.891671894679">
        <ele>16.6</ele>
        <time>2020-07-26T13:47:43Z</time>
      </trkpt>
      <trkpt lat="51.329959151862" lon="4.890770337515">
        <ele>15</ele>
        <time>2020-07-26T13:47:53Z</time>
      </trkpt>
      <trkpt lat="51.330073229521" lon="4.889845562488">
        <ele>17</ele>
        <time>2020-07-26T13:48:03Z</time>
      </trkpt>
      <trkpt lat="51.330180182565" lon="4.888988177937">
        <ele>16.8</ele>
        <time>2020-07-26T13:48:11Z</time>
      </trkpt>
      <trkpt lat="51.330307922721" lon="4.888096259958">
        <ele>16.8</ele>
        <time>2020-07-26T13:48:24Z</time>
      </trkpt>
      <trkpt lat="51.330371792799" lon="4.887986708525">
        <ele>17</ele>
        <time>2020-07-26T13:48:26Z</time>
      </trkpt>
      <trkpt lat="51.330460976215" lon="4.887974806227">
        <ele>16.2</ele>
        <time>2020-07-26T13:48:28Z</time>
      </trkpt>
      <trkpt lat="51.330601624497" lon="4.888002466497">
        <ele>15.4</ele>
        <time>2020-07-26T13:48:31Z</time>
      </trkpt>
      <trkpt lat="51.330690053542" lon="4.887980338281">
        <ele>16</ele>
        <time>2020-07-26T13:48:33Z</time>
      </trkpt>
      <trkpt lat="51.330779236958" lon="4.88790749957">
        <ele>16.6</ele>
        <time>2020-07-26T13:48:35Z</time>
      </trkpt>
      <trkpt lat="51.330848722909" lon="4.887785207649">
        <ele>18.2</ele>
        <time>2020-07-26T13:48:37Z</time>
      </trkpt>
      <trkpt lat="51.330892811703" lon="4.887638524399">
        <ele>18.4</ele>
        <time>2020-07-26T13:48:39Z</time>
      </trkpt>
      <trkpt lat="51.330997082539" lon="4.886728333878">
        <ele>18.4</ele>
        <time>2020-07-26T13:48:50Z</time>
      </trkpt>
      <trkpt lat="51.331032370338" lon="4.886308484507">
        <ele>17.6</ele>
        <time>2020-07-26T13:48:54Z</time>
      </trkpt>
      <trkpt lat="51.331026922103" lon="4.886225084602">
        <ele>17.4</ele>
        <time>2020-07-26T13:48:56Z</time>
      </trkpt>
      <trkpt lat="51.330982498033" lon="4.886086028881">
        <ele>17.2</ele>
        <time>2020-07-26T13:48:58Z</time>
      </trkpt>
      <trkpt lat="51.330902534707" lon="4.886008831582">
        <ele>16.8</ele>
        <time>2020-07-26T13:49:00Z</time>
      </trkpt>
      <trkpt lat="51.330723581142" lon="4.885917301234">
        <ele>16.6</ele>
        <time>2020-07-26T13:49:04Z</time>
      </trkpt>
      <trkpt lat="51.33064831168" lon="4.885815544968">
        <ele>16.2</ele>
        <time>2020-07-26T13:49:06Z</time>
      </trkpt>
      <trkpt lat="51.330611850415" lon="4.885668107347">
        <ele>15</ele>
        <time>2020-07-26T13:49:08Z</time>
      </trkpt>
      <trkpt lat="51.330611766596" lon="4.885525112133">
        <ele>14.2</ele>
        <time>2020-07-26T13:49:10Z</time>
      </trkpt>
      <trkpt lat="51.330648144042" lon="4.885369963164">
        <ele>13.2</ele>
        <time>2020-07-26T13:49:12Z</time>
      </trkpt>
      <trkpt lat="51.330800778441" lon="4.884538143408">
        <ele>6.4</ele>
        <time>2020-07-26T13:49:23Z</time>
      </trkpt>
      <trkpt lat="51.330883675432" lon="4.883628371982">
        <ele>6</ele>
        <time>2020-07-26T13:49:35Z</time>
      </trkpt>
      <trkpt lat="51.330901109784" lon="4.8826914432">
        <ele>4.8</ele>
        <time>2020-07-26T13:49:45Z</time>
      </trkpt>
      <trkpt lat="51.33084696271" lon="4.881791143321">
        <ele>7.4</ele>
        <time>2020-07-26T13:49:55Z</time>
      </trkpt>
      <trkpt lat="51.33077487837" lon="4.880932585304">
        <ele>14.6</ele>
        <time>2020-07-26T13:50:05Z</time>
      </trkpt>
      <trkpt lat="51.330751911964" lon="4.880763690019">
        <ele>16.6</ele>
        <time>2020-07-26T13:50:06Z</time>
      </trkpt>
      <trkpt lat="51.330660549254" lon="4.879894486989">
        <ele>16.2</ele>
        <time>2020-07-26T13:50:17Z</time>
      </trkpt>
      <trkpt lat="51.330561307558" lon="4.878983206821">
        <ele>16.2</ele>
        <time>2020-07-26T13:50:28Z</time>
      </trkpt>
      <trkpt lat="51.330522499361" lon="4.878665281354">
        <ele>16.6</ele>
        <time>2020-07-26T13:50:32Z</time>
      </trkpt>
      <trkpt lat="51.33041445667" lon="4.877747295666">
        <ele>14.2</ele>
        <time>2020-07-26T13:50:44Z</time>
      </trkpt>
      <trkpt lat="51.33030633016" lon="4.876827549779">
        <ele>14.2</ele>
        <time>2020-07-26T13:50:54Z</time>
      </trkpt>
      <trkpt lat="51.330212620518" lon="4.875968069753">
        <ele>13.2</ele>
        <time>2020-07-26T13:51:03Z</time>
      </trkpt>
      <trkpt lat="51.330172471217" lon="4.87546205445">
        <ele>13.8</ele>
        <time>2020-07-26T13:51:09Z</time>
      </trkpt>
      <trkpt lat="51.330098626678" lon="4.874603077338">
        <ele>13.8</ele>
        <time>2020-07-26T13:51:20Z</time>
      </trkpt>
      <trkpt lat="51.329956050559" lon="4.873698167414">
        <ele>17.4</ele>
        <time>2020-07-26T13:51:32Z</time>
      </trkpt>
      <trkpt lat="51.32986208946" lon="4.872801387933">
        <ele>15.4</ele>
        <time>2020-07-26T13:51:43Z</time>
      </trkpt>
      <trkpt lat="51.329773744234" lon="4.871938890423">
        <ele>14.6</ele>
        <time>2020-07-26T13:51:54Z</time>
      </trkpt>
      <trkpt lat="51.329719513341" lon="4.871545360218">
        <ele>14.6</ele>
        <time>2020-07-26T13:52:00Z</time>
      </trkpt>
      <trkpt lat="51.329708952147" lon="4.871402197366">
        <ele>14.6</ele>
        <time>2020-07-26T13:52:02Z</time>
      </trkpt>
      <trkpt lat="51.329638544187" lon="4.870903893411">
        <ele>13.6</ele>
        <time>2020-07-26T13:52:09Z</time>
      </trkpt>
      <trkpt lat="51.329528238383" lon="4.870152539895">
        <ele>14.6</ele>
        <time>2020-07-26T13:52:23Z</time>
      </trkpt>
      <trkpt lat="51.329026162573" lon="4.870111636223">
        <ele>15.4</ele>
        <time>2020-07-26T13:52:37Z</time>
      </trkpt>
      <trkpt lat="51.328924238669" lon="4.869998145297">
        <ele>15.2</ele>
        <time>2020-07-26T13:52:39Z</time>
      </trkpt>
      <trkpt lat="51.328853076338" lon="4.869822544492">
        <ele>14.6</ele>
        <time>2020-07-26T13:52:41Z</time>
      </trkpt>
      <trkpt lat="51.328591058144" lon="4.86904990095">
        <ele>12.8</ele>
        <time>2020-07-26T13:52:50Z</time>
      </trkpt>
      <trkpt lat="51.328549819196" lon="4.868894249067">
        <ele>13.6</ele>
        <time>2020-07-26T13:52:52Z</time>
      </trkpt>
      <trkpt lat="51.328524924953" lon="4.868744296876">
        <ele>12.8</ele>
        <time>2020-07-26T13:52:54Z</time>
      </trkpt>
      <trkpt lat="51.328437250279" lon="4.867848271766">
        <ele>11.8</ele>
        <time>2020-07-26T13:53:05Z</time>
      </trkpt>
      <trkpt lat="51.32837346402" lon="4.867415765726">
        <ele>11.8</ele>
        <time>2020-07-26T13:53:25Z</time>
      </trkpt>
      <trkpt lat="51.328327866484" lon="4.866777064946">
        <ele>0</ele>
        <time>2020-07-26T14:09:23Z</time>
      </trkpt>
      <trkpt lat="51.328295344712" lon="4.866430724838">
        <ele>0</ele>
        <time>2020-07-26T14:09:29Z</time>
      </trkpt>
      <trkpt lat="51.328218482689" lon="4.865537801031">
        <ele>0</ele>
        <time>2020-07-26T14:09:40Z</time>
      </trkpt>
      <trkpt lat="51.328144721969" lon="4.864633058745">
        <ele>2.2</ele>
        <time>2020-07-26T14:09:52Z</time>
      </trkpt>
      <trkpt lat="51.328064339548" lon="4.864316055287">
        <ele>5.6</ele>
        <time>2020-07-26T14:09:58Z</time>
      </trkpt>
      <trkpt lat="51.328141033933" lon="4.865202525031">
        <ele>15.4</ele>
        <time>2020-07-26T14:10:12Z</time>
      </trkpt>
      <trkpt lat="51.328201802708" lon="4.865674258363">
        <ele>17</ele>
        <time>2020-07-26T14:10:17Z</time>
      </trkpt>
      <trkpt lat="51.328290902305" lon="4.866630633153">
        <ele>17.2</ele>
        <time>2020-07-26T14:10:27Z</time>
      </trkpt>
      <trkpt lat="51.328404979964" lon="4.867474439026">
        <ele>19.4</ele>
        <time>2020-07-26T14:10:35Z</time>
      </trkpt>
      <trkpt lat="51.328495085389" lon="4.868391754162">
        <ele>18</ele>
        <time>2020-07-26T14:10:43Z</time>
      </trkpt>
      <trkpt lat="51.328521404555" lon="4.868623765154">
        <ele>18.6</ele>
        <time>2020-07-26T14:10:45Z</time>
      </trkpt>
      <trkpt lat="51.328554848336" lon="4.868966417226">
        <ele>18</ele>
        <time>2020-07-26T14:10:48Z</time>
      </trkpt>
      <trkpt lat="51.328804880413" lon="4.869785915589">
        <ele>18.4</ele>
        <time>2020-07-26T14:10:56Z</time>
      </trkpt>
      <trkpt lat="51.328892638906" lon="4.870046173584">
        <ele>19.2</ele>
        <time>2020-07-26T14:10:59Z</time>
      </trkpt>
      <trkpt lat="51.328988444023" lon="4.870173746102">
        <ele>19.2</ele>
        <time>2020-07-26T14:11:01Z</time>
      </trkpt>
      <trkpt lat="51.329096319076" lon="4.8702527036">
        <ele>19</ele>
        <time>2020-07-26T14:11:03Z</time>
      </trkpt>
      <trkpt lat="51.329526310546" lon="4.870180367803">
        <ele>18.2</ele>
        <time>2020-07-26T14:11:14Z</time>
      </trkpt>
      <trkpt lat="51.32953854812" lon="4.870080204098">
        <ele>18</ele>
        <time>2020-07-26T14:11:16Z</time>
      </trkpt>
      <trkpt lat="51.329455651129" lon="4.869137407986">
        <ele>18</ele>
        <time>2020-07-26T14:11:28Z</time>
      </trkpt>
      <trkpt lat="51.329351547931" lon="4.868249261862">
        <ele>19.2</ele>
        <time>2020-07-26T14:11:37Z</time>
      </trkpt>
      <trkpt lat="51.329333610665" lon="4.868160748998">
        <ele>19.2</ele>
        <time>2020-07-26T14:11:38Z</time>
      </trkpt>
      <trkpt lat="51.329284408912" lon="4.867907531799">
        <ele>19.4</ele>
        <time>2020-07-26T14:11:41Z</time>
      </trkpt>
      <trkpt lat="51.329169912158" lon="4.866994072337">
        <ele>19.2</ele>
        <time>2020-07-26T14:11:51Z</time>
      </trkpt>
      <trkpt lat="51.329064719313" lon="4.866147500437">
        <ele>19.4</ele>
        <time>2020-07-26T14:12:00Z</time>
      </trkpt>
      <trkpt lat="51.328955922251" lon="4.865223228324">
        <ele>18.6</ele>
        <time>2020-07-26T14:12:11Z</time>
      </trkpt>
      <trkpt lat="51.328851399958" lon="4.864282695325">
        <ele>18</ele>
        <time>2020-07-26T14:12:21Z</time>
      </trkpt>
      <trkpt lat="51.328749140778" lon="4.863411732096">
        <ele>18.6</ele>
        <time>2020-07-26T14:12:31Z</time>
      </trkpt>
      <trkpt lat="51.328537330165" lon="4.861670224733">
        <ele>21.2</ele>
        <time>2020-07-26T14:12:53Z</time>
      </trkpt>
      <trkpt lat="51.328427275818" lon="4.860792807441">
        <ele>21</ele>
        <time>2020-07-26T14:13:04Z</time>
      </trkpt>
      <trkpt lat="51.328323759353" lon="4.859894519218">
        <ele>20.4</ele>
        <time>2020-07-26T14:13:15Z</time>
      </trkpt>
      <trkpt lat="51.32825527923" lon="4.858961194653">
        <ele>21.8</ele>
        <time>2020-07-26T14:13:28Z</time>
      </trkpt>
      <trkpt lat="51.328162156321" lon="4.858032061038">
        <ele>21.8</ele>
        <time>2020-07-26T14:13:38Z</time>
      </trkpt>
      <trkpt lat="51.328037182192" lon="4.857166713682">
        <ele>19.8</ele>
        <time>2020-07-26T14:13:49Z</time>
      </trkpt>
      <trkpt lat="51.327895108987" lon="4.856294157892">
        <ele>19.8</ele>
        <time>2020-07-26T14:14:07Z</time>
      </trkpt>
      <trkpt lat="51.327854372953" lon="4.855627880661">
        <ele>19.8</ele>
        <time>2020-07-26T14:14:21Z</time>
      </trkpt>
      <trkpt lat="51.32792419418" lon="4.855513886821">
        <ele>20.2</ele>
        <time>2020-07-26T14:14:25Z</time>
      </trkpt>
      <trkpt lat="51.327830652176" lon="4.854663626885">
        <ele>18.2</ele>
        <time>2020-07-26T14:14:36Z</time>
      </trkpt>
      <trkpt lat="51.327712551205" lon="4.853764332834">
        <ele>18.8</ele>
        <time>2020-07-26T14:14:45Z</time>
      </trkpt>
      <trkpt lat="51.327601155754" lon="4.852921951884">
        <ele>18.8</ele>
        <time>2020-07-26T14:14:54Z</time>
      </trkpt>
      <trkpt lat="51.3275369504" lon="4.852003966196">
        <ele>16.6</ele>
        <time>2020-07-26T14:15:05Z</time>
      </trkpt>
      <trkpt lat="51.32743217665" lon="4.851151694604">
        <ele>17.2</ele>
        <time>2020-07-26T14:15:15Z</time>
      </trkpt>
      <trkpt lat="51.327315416783" lon="4.850272098018">
        <ele>19.8</ele>
        <time>2020-07-26T14:15:25Z</time>
      </trkpt>
      <trkpt lat="51.327182060754" lon="4.849411695983">
        <ele>22</ele>
        <time>2020-07-26T14:15:35Z</time>
      </trkpt>
      <trkpt lat="51.327164458764" lon="4.849285632207">
        <ele>22.8</ele>
        <time>2020-07-26T14:15:37Z</time>
      </trkpt>
      <trkpt lat="51.32708097504" lon="4.848384410319">
        <ele>23.6</ele>
        <time>2020-07-26T14:15:47Z</time>
      </trkpt>
      <trkpt lat="51.326966729743" lon="4.847507998855">
        <ele>23.2</ele>
        <time>2020-07-26T14:15:58Z</time>
      </trkpt>
      <trkpt lat="51.326844521641" lon="4.846633599047">
        <ele>24</ele>
        <time>2020-07-26T14:16:09Z</time>
      </trkpt>
      <trkpt lat="51.326730024887" lon="4.845733047711">
        <ele>23.8</ele>
        <time>2020-07-26T14:16:21Z</time>
      </trkpt>
      <trkpt lat="51.326647295534" lon="4.844870382563">
        <ele>24</ele>
        <time>2020-07-26T14:16:31Z</time>
      </trkpt>
      <trkpt lat="51.326515448247" lon="4.843949127934">
        <ele>25.8</ele>
        <time>2020-07-26T14:16:42Z</time>
      </trkpt>
      <trkpt lat="51.326407573194" lon="4.843046984037">
        <ele>23</ele>
        <time>2020-07-26T14:16:52Z</time>
      </trkpt>
      <trkpt lat="51.326295507191" lon="4.842124304485">
        <ele>20</ele>
        <time>2020-07-26T14:17:02Z</time>
      </trkpt>
      <trkpt lat="51.326166593569" lon="4.84121947838">
        <ele>17.8</ele>
        <time>2020-07-26T14:17:13Z</time>
      </trkpt>
      <trkpt lat="51.326119068196" lon="4.840664093686">
        <ele>19.6</ele>
        <time>2020-07-26T14:17:30Z</time>
      </trkpt>
      <trkpt lat="51.326102472034" lon="4.840602235264">
        <ele>21.8</ele>
        <time>2020-07-26T14:17:44Z</time>
      </trkpt>
      <trkpt lat="51.326059137611" lon="4.840425041898">
        <ele>22</ele>
        <time>2020-07-26T14:19:17Z</time>
      </trkpt>
      <trkpt lat="51.326192577459" lon="4.839963450665">
        <ele>22.4</ele>
        <time>2020-07-26T14:19:29Z</time>
      </trkpt>
      <trkpt lat="51.326157038203" lon="4.840140979307">
        <ele>22.2</ele>
        <time>2020-07-26T14:19:44Z</time>
      </trkpt>
      <trkpt lat="51.326207664879" lon="4.838040978081">
        <ele>19.2</ele>
        <time>2020-07-26T14:21:35Z</time>
      </trkpt>
      <trkpt lat="51.325984957796" lon="4.837242853563">
        <ele>19</ele>
        <time>2020-07-26T14:21:46Z</time>
      </trkpt>
      <trkpt lat="51.325730902407" lon="4.836474820066">
        <ele>18</ele>
        <time>2020-07-26T14:21:58Z</time>
      </trkpt>
      <trkpt lat="51.325656471135" lon="4.836293100474">
        <ele>17.8</ele>
        <time>2020-07-26T14:22:01Z</time>
      </trkpt>
      <trkpt lat="51.325465196177" lon="4.835432782258">
        <ele>17.8</ele>
        <time>2020-07-26T14:22:12Z</time>
      </trkpt>
      <trkpt lat="51.325353381631" lon="4.834637591405">
        <ele>18.4</ele>
        <time>2020-07-26T14:22:22Z</time>
      </trkpt>
      <trkpt lat="51.325227988407" lon="4.833771489678">
        <ele>18.8</ele>
        <time>2020-07-26T14:22:33Z</time>
      </trkpt>
      <trkpt lat="51.325114497481" lon="4.83290128082">
        <ele>19.6</ele>
        <time>2020-07-26T14:22:44Z</time>
      </trkpt>
      <trkpt lat="51.325025314065" lon="4.832235422684">
        <ele>20</ele>
        <time>2020-07-26T14:22:58Z</time>
      </trkpt>
      <trkpt lat="51.324914672985" lon="4.831979188001">
        <ele>20.4</ele>
        <time>2020-07-26T14:23:11Z</time>
      </trkpt>
      <trkpt lat="51.324870416553" lon="4.831651707168">
        <ele>19.6</ele>
        <time>2020-07-26T14:23:17Z</time>
      </trkpt>
      <trkpt lat="51.324738317809" lon="4.83072869234">
        <ele>19</ele>
        <time>2020-07-26T14:23:28Z</time>
      </trkpt>
      <trkpt lat="51.324613678956" lon="4.829828643918">
        <ele>19</ele>
        <time>2020-07-26T14:23:39Z</time>
      </trkpt>
      <trkpt lat="51.324499685116" lon="4.828962709829">
        <ele>19</ele>
        <time>2020-07-26T14:23:50Z</time>
      </trkpt>
      <trkpt lat="51.324389882226" lon="4.828058386638">
        <ele>20</ele>
        <time>2020-07-26T14:24:01Z</time>
      </trkpt>
      <trkpt lat="51.324326515062" lon="4.827196392042">
        <ele>22.4</ele>
        <time>2020-07-26T14:24:11Z</time>
      </trkpt>
      <trkpt lat="51.324245462089" lon="4.826312101592">
        <ele>19.8</ele>
        <time>2020-07-26T14:24:21Z</time>
      </trkpt>
      <trkpt lat="51.324158541786" lon="4.825420686527">
        <ele>18.6</ele>
        <time>2020-07-26T14:24:30Z</time>
      </trkpt>
      <trkpt lat="51.324106657825" lon="4.824515357508">
        <ele>18</ele>
        <time>2020-07-26T14:24:40Z</time>
      </trkpt>
      <trkpt lat="51.324039351168" lon="4.823619332398">
        <ele>19.2</ele>
        <time>2020-07-26T14:24:51Z</time>
      </trkpt>
      <trkpt lat="51.324011690898" lon="4.822712746094">
        <ele>19.2</ele>
        <time>2020-07-26T14:25:02Z</time>
      </trkpt>
      <trkpt lat="51.323967183009" lon="4.821849997127">
        <ele>17.6</ele>
        <time>2020-07-26T14:25:12Z</time>
      </trkpt>
      <trkpt lat="51.32393692435" lon="4.820984649771">
        <ele>18.2</ele>
        <time>2020-07-26T14:25:22Z</time>
      </trkpt>
      <trkpt lat="51.323879675973" lon="4.820088792299">
        <ele>18.6</ele>
        <time>2020-07-26T14:25:32Z</time>
      </trkpt>
      <trkpt lat="51.323825696537" lon="4.81917424319">
        <ele>24</ele>
        <time>2020-07-26T14:25:43Z</time>
      </trkpt>
      <trkpt lat="51.323740620252" lon="4.818283833953">
        <ele>26.8</ele>
        <time>2020-07-26T14:25:54Z</time>
      </trkpt>
      <trkpt lat="51.323695274173" lon="4.817394346725">
        <ele>24</ele>
        <time>2020-07-26T14:26:06Z</time>
      </trkpt>
      <trkpt lat="51.323684712979" lon="4.817264175818">
        <ele>23.6</ele>
        <time>2020-07-26T14:26:07Z</time>
      </trkpt>
      <trkpt lat="51.323633918665" lon="4.816374269495">
        <ele>22.4</ele>
        <time>2020-07-26T14:26:19Z</time>
      </trkpt>
      <trkpt lat="51.323654789596" lon="4.815987193353">
        <ele>21.4</ele>
        <time>2020-07-26T14:26:25Z</time>
      </trkpt>
      <trkpt lat="51.323624195661" lon="4.815104663102">
        <ele>20.4</ele>
        <time>2020-07-26T14:26:36Z</time>
      </trkpt>
      <trkpt lat="51.323655124872" lon="4.81421383477">
        <ele>20.6</ele>
        <time>2020-07-26T14:26:47Z</time>
      </trkpt>
      <trkpt lat="51.323684461522" lon="4.813394420226">
        <ele>20.4</ele>
        <time>2020-07-26T14:26:57Z</time>
      </trkpt>
      <trkpt lat="51.323705500091" lon="4.813243378388">
        <ele>20</ele>
        <time>2020-07-26T14:26:59Z</time>
      </trkpt>
      <trkpt lat="51.323716312742" lon="4.813032322146">
        <ele>19.8</ele>
        <time>2020-07-26T14:27:02Z</time>
      </trkpt>
      <trkpt lat="51.323817482275" lon="4.812118527408">
        <ele>19</ele>
        <time>2020-07-26T14:27:13Z</time>
      </trkpt>
      <trkpt lat="51.323919070903" lon="4.811240607202">
        <ele>18.4</ele>
        <time>2020-07-26T14:27:22Z</time>
      </trkpt>
      <trkpt lat="51.32403247801" lon="4.810363106091">
        <ele>19.4</ele>
        <time>2020-07-26T14:27:33Z</time>
      </trkpt>
      <trkpt lat="51.324143370547" lon="4.80947973765">
        <ele>19.2</ele>
        <time>2020-07-26T14:27:43Z</time>
      </trkpt>
      <trkpt lat="51.324145968936" lon="4.80939675684">
        <ele>19.4</ele>
        <time>2020-07-26T14:27:44Z</time>
      </trkpt>
      <trkpt lat="51.324153009732" lon="4.809147143858">
        <ele>19.8</ele>
        <time>2020-07-26T14:27:47Z</time>
      </trkpt>
      <trkpt lat="51.32421352705" lon="4.808744561201">
        <ele>19.2</ele>
        <time>2020-07-26T14:27:52Z</time>
      </trkpt>
      <trkpt lat="51.324394156995" lon="4.808179956417">
        <ele>19.6</ele>
        <time>2020-07-26T14:28:03Z</time>
      </trkpt>
      <trkpt lat="51.324533967087" lon="4.808204263927">
        <ele>20.4</ele>
        <time>2020-07-26T14:28:07Z</time>
      </trkpt>
      <trkpt lat="51.32458149246" lon="4.808026232371">
        <ele>20</ele>
        <time>2020-07-26T14:28:10Z</time>
      </trkpt>
      <trkpt lat="51.324649134393" lon="4.807269933534">
        <ele>21.4</ele>
        <time>2020-07-26T14:28:21Z</time>
      </trkpt>
      <trkpt lat="51.324487866637" lon="4.807161052653">
        <ele>20.2</ele>
        <time>2020-07-26T14:28:27Z</time>
      </trkpt>
      <trkpt lat="51.324506558274" lon="4.806992408825">
        <ele>20</ele>
        <time>2020-07-26T14:28:30Z</time>
      </trkpt>
      <trkpt lat="51.324653157705" lon="4.80613871231">
        <ele>18.2</ele>
        <time>2020-07-26T14:28:40Z</time>
      </trkpt>
      <trkpt lat="51.324823813189" lon="4.805298091559">
        <ele>17.8</ele>
        <time>2020-07-26T14:28:49Z</time>
      </trkpt>
      <trkpt lat="51.324930933871" lon="4.804381363156">
        <ele>18</ele>
        <time>2020-07-26T14:28:59Z</time>
      </trkpt>
      <trkpt lat="51.325042413141" lon="4.803502018027">
        <ele>19.6</ele>
        <time>2020-07-26T14:29:09Z</time>
      </trkpt>
      <trkpt lat="51.325138721172" lon="4.802641196897">
        <ele>20.8</ele>
        <time>2020-07-26T14:29:18Z</time>
      </trkpt>
      <trkpt lat="51.325252295917" lon="4.801763192872">
        <ele>20.4</ele>
        <time>2020-07-26T14:29:28Z</time>
      </trkpt>
      <trkpt lat="51.325370648345" lon="4.800845123365">
        <ele>23.2</ele>
        <time>2020-07-26T14:29:39Z</time>
      </trkpt>
      <trkpt lat="51.325494700465" lon="4.799925377478">
        <ele>19.8</ele>
        <time>2020-07-26T14:29:51Z</time>
      </trkpt>
      <trkpt lat="51.325634929652" lon="4.799070088402">
        <ele>20</ele>
        <time>2020-07-26T14:30:01Z</time>
      </trkpt>
      <trkpt lat="51.325761244885" lon="4.798158472958">
        <ele>17.4</ele>
        <time>2020-07-26T14:30:12Z</time>
      </trkpt>
      <trkpt lat="51.325896277294" lon="4.797255993785">
        <ele>16</ele>
        <time>2020-07-26T14:30:24Z</time>
      </trkpt>
      <trkpt lat="51.32603239935" lon="4.796421910916">
        <ele>18.6</ele>
        <time>2020-07-26T14:30:36Z</time>
      </trkpt>
      <trkpt lat="51.326200959359" lon="4.795546086185">
        <ele>18.4</ele>
        <time>2020-07-26T14:30:47Z</time>
      </trkpt>
      <trkpt lat="51.326290478051" lon="4.795154986731">
        <ele>18</ele>
        <time>2020-07-26T14:30:52Z</time>
      </trkpt>
      <trkpt lat="51.32638946829" lon="4.794214872827">
        <ele>21</ele>
        <time>2020-07-26T14:31:03Z</time>
      </trkpt>
      <trkpt lat="51.326426600107" lon="4.793879177732">
        <ele>20.6</ele>
        <time>2020-07-26T14:31:07Z</time>
      </trkpt>
      <trkpt lat="51.326471107996" lon="4.79359436077">
        <ele>20.4</ele>
        <time>2020-07-26T14:31:11Z</time>
      </trkpt>
      <trkpt lat="51.326611504821" lon="4.792710321777">
        <ele>19.6</ele>
        <time>2020-07-26T14:31:23Z</time>
      </trkpt>
      <trkpt lat="51.326711081793" lon="4.79180901607">
        <ele>21</ele>
        <time>2020-07-26T14:31:36Z</time>
      </trkpt>
      <trkpt lat="51.326900512733" lon="4.790527842655">
        <ele>18.6</ele>
        <time>2020-07-26T14:31:55Z</time>
      </trkpt>
      <trkpt lat="51.327020876817" lon="4.7896188256">
        <ele>18.8</ele>
        <time>2020-07-26T14:32:07Z</time>
      </trkpt>
      <trkpt lat="51.327129757698" lon="4.78875800447">
        <ele>19.4</ele>
        <time>2020-07-26T14:32:21Z</time>
      </trkpt>
      <trkpt lat="51.327300999915" lon="4.787918641004">
        <ele>18.4</ele>
        <time>2020-07-26T14:32:32Z</time>
      </trkpt>
      <trkpt lat="51.327446006785" lon="4.787030830156">
        <ele>17.2</ele>
        <time>2020-07-26T14:32:44Z</time>
      </trkpt>
      <trkpt lat="51.327543153006" lon="4.786165063705">
        <ele>21.2</ele>
        <time>2020-07-26T14:32:56Z</time>
      </trkpt>
      <trkpt lat="51.327664774375" lon="4.785256381926">
        <ele>21.6</ele>
        <time>2020-07-26T14:33:06Z</time>
      </trkpt>
      <trkpt lat="51.327706097142" lon="4.784821193678">
        <ele>21</ele>
        <time>2020-07-26T14:33:12Z</time>
      </trkpt>
      <trkpt lat="51.327680448528" lon="4.784449204956">
        <ele>20.6</ele>
        <time>2020-07-26T14:33:17Z</time>
      </trkpt>
      <trkpt lat="51.32779595111" lon="4.783588383826">
        <ele>19</ele>
        <time>2020-07-26T14:33:27Z</time>
      </trkpt>
      <trkpt lat="51.32792167961" lon="4.782692191078">
        <ele>17.8</ele>
        <time>2020-07-26T14:33:38Z</time>
      </trkpt>
      <trkpt lat="51.327969121164" lon="4.78248499051">
        <ele>17</ele>
        <time>2020-07-26T14:33:41Z</time>
      </trkpt>
      <trkpt lat="51.328044642083" lon="4.782247615102">
        <ele>16.4</ele>
        <time>2020-07-26T14:33:45Z</time>
      </trkpt>
      <trkpt lat="51.328083617918" lon="4.782034295747">
        <ele>15.8</ele>
        <time>2020-07-26T14:33:48Z</time>
      </trkpt>
      <trkpt lat="51.32806333372" lon="4.781817036899">
        <ele>15.4</ele>
        <time>2020-07-26T14:33:51Z</time>
      </trkpt>
      <trkpt lat="51.328073978733" lon="4.781670940382">
        <ele>15.8</ele>
        <time>2020-07-26T14:33:53Z</time>
      </trkpt>
      <trkpt lat="51.328192917894" lon="4.780810873623">
        <ele>16</ele>
        <time>2020-07-26T14:34:02Z</time>
      </trkpt>
      <trkpt lat="51.328321244783" lon="4.779962792981">
        <ele>15.6</ele>
        <time>2020-07-26T14:34:11Z</time>
      </trkpt>
      <trkpt lat="51.328446973283" lon="4.779123597153">
        <ele>15.2</ele>
        <time>2020-07-26T14:34:21Z</time>
      </trkpt>
      <trkpt lat="51.328544287142" lon="4.778207539302">
        <ele>17.8</ele>
        <time>2020-07-26T14:34:32Z</time>
      </trkpt>
      <trkpt lat="51.328668590719" lon="4.777296678229">
        <ele>19.8</ele>
        <time>2020-07-26T14:34:43Z</time>
      </trkpt>
      <trkpt lat="51.328826673353" lon="4.776419344756">
        <ele>17</ele>
        <time>2020-07-26T14:34:53Z</time>
      </trkpt>
      <trkpt lat="51.328948546179" lon="4.775542430378">
        <ele>18.8</ele>
        <time>2020-07-26T14:35:03Z</time>
      </trkpt>
      <trkpt lat="51.329075783421" lon="4.774638358644">
        <ele>20.4</ele>
        <time>2020-07-26T14:35:14Z</time>
      </trkpt>
      <trkpt lat="51.329213078943" lon="4.773761444266">
        <ele>20</ele>
        <time>2020-07-26T14:35:25Z</time>
      </trkpt>
      <trkpt lat="51.329307123861" lon="4.773189295772">
        <ele>20.6</ele>
        <time>2020-07-26T14:35:34Z</time>
      </trkpt>
      <trkpt lat="51.32930972225" lon="4.772955859857">
        <ele>21.2</ele>
        <time>2020-07-26T14:35:37Z</time>
      </trkpt>
      <trkpt lat="51.329446011944" lon="4.772033180305">
        <ele>18.8</ele>
        <time>2020-07-26T14:35:48Z</time>
      </trkpt>
      <trkpt lat="51.329547181477" lon="4.771128438019">
        <ele>18.2</ele>
        <time>2020-07-26T14:35:58Z</time>
      </trkpt>
      <trkpt lat="51.329599149257" lon="4.770265102319">
        <ele>19.2</ele>
        <time>2020-07-26T14:36:08Z</time>
      </trkpt>
      <trkpt lat="51.3296156616" lon="4.769360862947">
        <ele>18</ele>
        <time>2020-07-26T14:36:18Z</time>
      </trkpt>
      <trkpt lat="51.329602837293" lon="4.768422928337">
        <ele>16</ele>
        <time>2020-07-26T14:36:28Z</time>
      </trkpt>
      <trkpt lat="51.329567633313" lon="4.767508882142">
        <ele>12.8</ele>
        <time>2020-07-26T14:36:38Z</time>
      </trkpt>
      <trkpt lat="51.329498482638" lon="4.766662813156">
        <ele>11.4</ele>
        <time>2020-07-26T14:36:48Z</time>
      </trkpt>
      <trkpt lat="51.329487250892" lon="4.766509759662">
        <ele>12</ele>
        <time>2020-07-26T14:36:50Z</time>
      </trkpt>
      <trkpt lat="51.329397648381" lon="4.765611052344">
        <ele>15.8</ele>
        <time>2020-07-26T14:37:01Z</time>
      </trkpt>
      <trkpt lat="51.329388847386" lon="4.765304526261">
        <ele>15.8</ele>
        <time>2020-07-26T14:37:05Z</time>
      </trkpt>
      <trkpt lat="51.329358169632" lon="4.764866571986">
        <ele>16.2</ele>
        <time>2020-07-26T14:37:12Z</time>
      </trkpt>
      <trkpt lat="51.329031191713" lon="4.760871926084">
        <ele>20</ele>
        <time>2020-07-26T14:38:25Z</time>
      </trkpt>
      <trkpt lat="51.329027168401" lon="4.760693894528">
        <ele>20.6</ele>
        <time>2020-07-26T14:38:27Z</time>
      </trkpt>
      <trkpt lat="51.328967489273" lon="4.759837431986">
        <ele>20.2</ele>
        <time>2020-07-26T14:38:35Z</time>
      </trkpt>
      <trkpt lat="51.328928010524" lon="4.758911315855">
        <ele>19.8</ele>
        <time>2020-07-26T14:38:44Z</time>
      </trkpt>
      <trkpt lat="51.328932117655" lon="4.757995928556">
        <ele>19.6</ele>
        <time>2020-07-26T14:38:56Z</time>
      </trkpt>
      <trkpt lat="51.328988863118" lon="4.757064783285">
        <ele>18.2</ele>
        <time>2020-07-26T14:39:09Z</time>
      </trkpt>
      <trkpt lat="51.329088775366" lon="4.7561498989">
        <ele>15.2</ele>
        <time>2020-07-26T14:39:18Z</time>
      </trkpt>
      <trkpt lat="51.329203691215" lon="4.75523208085">
        <ele>15.2</ele>
        <time>2020-07-26T14:39:28Z</time>
      </trkpt>
      <trkpt lat="51.32936755736" lon="4.754317531741">
        <ele>16.6</ele>
        <time>2020-07-26T14:39:38Z</time>
      </trkpt>
      <trkpt lat="51.329548438762" lon="4.753420081708">
        <ele>17.2</ele>
        <time>2020-07-26T14:39:48Z</time>
      </trkpt>
      <trkpt lat="51.329737618245" lon="4.752518608363">
        <ele>16.2</ele>
        <time>2020-07-26T14:39:59Z</time>
      </trkpt>
      <trkpt lat="51.329899891829" lon="4.751678490526">
        <ele>16.2</ele>
        <time>2020-07-26T14:40:08Z</time>
      </trkpt>
      <trkpt lat="51.330061997775" lon="4.750854885032">
        <ele>16.2</ele>
        <time>2020-07-26T14:40:17Z</time>
      </trkpt>
      <trkpt lat="51.330226450653" lon="4.749961625949">
        <ele>16.6</ele>
        <time>2020-07-26T14:40:27Z</time>
      </trkpt>
      <trkpt lat="51.330382270174" lon="4.749109773452">
        <ele>16.8</ele>
        <time>2020-07-26T14:40:37Z</time>
      </trkpt>
      <trkpt lat="51.330546555414" lon="4.748278624248">
        <ele>16.4</ele>
        <time>2020-07-26T14:40:47Z</time>
      </trkpt>
      <trkpt lat="51.330740680218" lon="4.747430711244">
        <ele>14.4</ele>
        <time>2020-07-26T14:40:58Z</time>
      </trkpt>
      <trkpt lat="51.330783092632" lon="4.747218062441">
        <ele>14.4</ele>
        <time>2020-07-26T14:41:01Z</time>
      </trkpt>
      <trkpt lat="51.330903875811" lon="4.746464361993">
        <ele>16.2</ele>
        <time>2020-07-26T14:41:22Z</time>
      </trkpt>
      <trkpt lat="51.331080314806" lon="4.745648970761">
        <ele>16.6</ele>
        <time>2020-07-26T14:41:32Z</time>
      </trkpt>
      <trkpt lat="51.33126270495" lon="4.744757304239">
        <ele>17</ele>
        <time>2020-07-26T14:41:42Z</time>
      </trkpt>
      <trkpt lat="51.331443670171" lon="4.743882820612">
        <ele>16.6</ele>
        <time>2020-07-26T14:41:53Z</time>
      </trkpt>
      <trkpt lat="51.331633017292" lon="4.742982185457">
        <ele>18</ele>
        <time>2020-07-26T14:42:03Z</time>
      </trkpt>
      <trkpt lat="51.331788166261" lon="4.742133853358">
        <ele>18.8</ele>
        <time>2020-07-26T14:42:13Z</time>
      </trkpt>
      <trkpt lat="51.331954295519" lon="4.741264734147">
        <ele>19.2</ele>
        <time>2020-07-26T14:42:24Z</time>
      </trkpt>
      <trkpt lat="51.332137859129" lon="4.740388657959">
        <ele>17.2</ele>
        <time>2020-07-26T14:42:35Z</time>
      </trkpt>
      <trkpt lat="51.332322260929" lon="4.739482658388">
        <ele>16.2</ele>
        <time>2020-07-26T14:42:46Z</time>
      </trkpt>
      <trkpt lat="51.332486881445" lon="4.738632063176">
        <ele>16.2</ele>
        <time>2020-07-26T14:42:57Z</time>
      </trkpt>
      <trkpt lat="51.332659464766" lon="4.737795968651">
        <ele>17</ele>
        <time>2020-07-26T14:43:08Z</time>
      </trkpt>
      <trkpt lat="51.332817212124" lon="4.736941601584">
        <ele>17.4</ele>
        <time>2020-07-26T14:43:19Z</time>
      </trkpt>
      <trkpt lat="51.332984095753" lon="4.736109027457">
        <ele>17.2</ele>
        <time>2020-07-26T14:43:30Z</time>
      </trkpt>
      <trkpt lat="51.333155924703" lon="4.735196070909">
        <ele>17.2</ele>
        <time>2020-07-26T14:43:41Z</time>
      </trkpt>
      <trkpt lat="51.333253657657" lon="4.734649571029">
        <ele>18.4</ele>
        <time>2020-07-26T14:43:48Z</time>
      </trkpt>
      <trkpt lat="51.333419870734" lon="4.733830240304">
        <ele>18</ele>
        <time>2020-07-26T14:43:58Z</time>
      </trkpt>
      <trkpt lat="51.333585077983" lon="4.732963970939">
        <ele>17.6</ele>
        <time>2020-07-26T14:44:09Z</time>
      </trkpt>
      <trkpt lat="51.333757912761" lon="4.732132318821">
        <ele>18.2</ele>
        <time>2020-07-26T14:44:20Z</time>
      </trkpt>
      <trkpt lat="51.33395580942" lon="4.731271413872">
        <ele>17.6</ele>
        <time>2020-07-26T14:44:31Z</time>
      </trkpt>
      <trkpt lat="51.333995036712" lon="4.731030937161">
        <ele>17.8</ele>
        <time>2020-07-26T14:44:34Z</time>
      </trkpt>
      <trkpt lat="51.33416535692" lon="4.730157710819">
        <ele>17.2</ele>
        <time>2020-07-26T14:44:45Z</time>
      </trkpt>
      <trkpt lat="51.334339029888" lon="4.729255986017">
        <ele>15.8</ele>
        <time>2020-07-26T14:44:56Z</time>
      </trkpt>
      <trkpt lat="51.334498621264" lon="4.728396254534">
        <ele>16.4</ele>
        <time>2020-07-26T14:45:07Z</time>
      </trkpt>
      <trkpt lat="51.334657206812" lon="4.72756678171">
        <ele>15.8</ele>
        <time>2020-07-26T14:45:19Z</time>
      </trkpt>
      <trkpt lat="51.3348459672" lon="4.726692214264">
        <ele>15.6</ele>
        <time>2020-07-26T14:45:30Z</time>
      </trkpt>
      <trkpt lat="51.335081163314" lon="4.725850000952">
        <ele>18.6</ele>
        <time>2020-07-26T14:45:42Z</time>
      </trkpt>
      <trkpt lat="51.335199264285" lon="4.725235942958">
        <ele>19.6</ele>
        <time>2020-07-26T14:45:50Z</time>
      </trkpt>
      <trkpt lat="51.335201611217" lon="4.724920699699">
        <ele>19.8</ele>
        <time>2020-07-26T14:45:54Z</time>
      </trkpt>
      <trkpt lat="51.335360029127" lon="4.724079492215">
        <ele>17.2</ele>
        <time>2020-07-26T14:46:05Z</time>
      </trkpt>
      <trkpt lat="51.335540407615" lon="4.723223700225">
        <ele>16.8</ele>
        <time>2020-07-26T14:46:17Z</time>
      </trkpt>
      <trkpt lat="51.335710560185" lon="4.722338068671">
        <ele>17.8</ele>
        <time>2020-07-26T14:46:28Z</time>
      </trkpt>
      <trkpt lat="51.335886663904" lon="4.721461489569">
        <ele>18</ele>
        <time>2020-07-26T14:46:40Z</time>
      </trkpt>
      <trkpt lat="51.336072071532" lon="4.720579713689">
        <ele>19.2</ele>
        <time>2020-07-26T14:46:52Z</time>
      </trkpt>
      <trkpt lat="51.336233758383" lon="4.71970958865">
        <ele>21.8</ele>
        <time>2020-07-26T14:47:03Z</time>
      </trkpt>
      <trkpt lat="51.336422937866" lon="4.718811132789">
        <ele>21.6</ele>
        <time>2020-07-26T14:47:14Z</time>
      </trkpt>
      <trkpt lat="51.336588061296" lon="4.717919047172">
        <ele>20.6</ele>
        <time>2020-07-26T14:47:24Z</time>
      </trkpt>
      <trkpt lat="51.33673692384" lon="4.717058561318">
        <ele>20.6</ele>
        <time>2020-07-26T14:47:34Z</time>
      </trkpt>
      <trkpt lat="51.33680565542" lon="4.716642483802">
        <ele>20.4</ele>
        <time>2020-07-26T14:47:39Z</time>
      </trkpt>
      <trkpt lat="51.336968012823" lon="4.715813513892">
        <ele>19.2</ele>
        <time>2020-07-26T14:47:49Z</time>
      </trkpt>
      <trkpt lat="51.337142943076" lon="4.714933665849">
        <ele>19</ele>
        <time>2020-07-26T14:48:01Z</time>
      </trkpt>
      <trkpt lat="51.337322902469" lon="4.714100672627">
        <ele>17.8</ele>
        <time>2020-07-26T14:48:10Z</time>
      </trkpt>
      <trkpt lat="51.337481739474" lon="4.713217890919">
        <ele>17.4</ele>
        <time>2020-07-26T14:48:21Z</time>
      </trkpt>
      <trkpt lat="51.337622806851" lon="4.712361763653">
        <ele>19</ele>
        <time>2020-07-26T14:48:32Z</time>
      </trkpt>
      <trkpt lat="51.337803017701" lon="4.711466660552">
        <ele>19.8</ele>
        <time>2020-07-26T14:48:44Z</time>
      </trkpt>
      <trkpt lat="51.337989431157" lon="4.710631907131">
        <ele>18.8</ele>
        <time>2020-07-26T14:48:55Z</time>
      </trkpt>
      <trkpt lat="51.338169893464" lon="4.709782150109">
        <ele>16.4</ele>
        <time>2020-07-26T14:49:07Z</time>
      </trkpt>
      <trkpt lat="51.338352870341" lon="4.708904397541">
        <ele>15</ele>
        <time>2020-07-26T14:49:18Z</time>
      </trkpt>
      <trkpt lat="51.338519837789" lon="4.708014658856">
        <ele>16.2</ele>
        <time>2020-07-26T14:49:30Z</time>
      </trkpt>
      <trkpt lat="51.338683703934" lon="4.707141683971">
        <ele>19.2</ele>
        <time>2020-07-26T14:49:42Z</time>
      </trkpt>
      <trkpt lat="51.338867938096" lon="4.706256303874">
        <ele>17.6</ele>
        <time>2020-07-26T14:49:54Z</time>
      </trkpt>
      <trkpt lat="51.339041611064" lon="4.705371594329">
        <ele>18.4</ele>
        <time>2020-07-26T14:50:07Z</time>
      </trkpt>
      <trkpt lat="51.339219223525" lon="4.704535080709">
        <ele>16.4</ele>
        <time>2020-07-26T14:50:18Z</time>
      </trkpt>
      <trkpt lat="51.339384598412" lon="4.703676019778">
        <ele>16</ele>
        <time>2020-07-26T14:50:30Z</time>
      </trkpt>
      <trkpt lat="51.339558690475" lon="4.702830872801">
        <ele>15.4</ele>
        <time>2020-07-26T14:50:42Z</time>
      </trkpt>
      <trkpt lat="51.339735800022" lon="4.702011374438">
        <ele>15.4</ele>
        <time>2020-07-26T14:50:52Z</time>
      </trkpt>
      <trkpt lat="51.339897905968" lon="4.70114032739">
        <ele>14.6</ele>
        <time>2020-07-26T14:51:03Z</time>
      </trkpt>
      <trkpt lat="51.340058000258" lon="4.700304149046">
        <ele>13.6</ele>
        <time>2020-07-26T14:51:13Z</time>
      </trkpt>
      <trkpt lat="51.340274840011" lon="4.699508706736">
        <ele>13.6</ele>
        <time>2020-07-26T14:51:24Z</time>
      </trkpt>
      <trkpt lat="51.340448177703" lon="4.698685939432">
        <ele>14.2</ele>
        <time>2020-07-26T14:51:34Z</time>
      </trkpt>
      <trkpt lat="51.340590586184" lon="4.697773904893">
        <ele>16.8</ele>
        <time>2020-07-26T14:51:43Z</time>
      </trkpt>
      <trkpt lat="51.340758140365" lon="4.696892967203">
        <ele>16</ele>
        <time>2020-07-26T14:51:53Z</time>
      </trkpt>
      <trkpt lat="51.340907589642" lon="4.696010185495">
        <ele>15.6</ele>
        <time>2020-07-26T14:52:07Z</time>
      </trkpt>
      <trkpt lat="51.341058715299" lon="4.695156153704">
        <ele>16.8</ele>
        <time>2020-07-26T14:52:18Z</time>
      </trkpt>
      <trkpt lat="51.341208918947" lon="4.694310252356">
        <ele>16.4</ele>
        <time>2020-07-26T14:52:29Z</time>
      </trkpt>
      <trkpt lat="51.341384435933" lon="4.693413305237">
        <ele>17</ele>
        <time>2020-07-26T14:52:40Z</time>
      </trkpt>
      <trkpt lat="51.341557522168" lon="4.692538905429">
        <ele>15</ele>
        <time>2020-07-26T14:52:53Z</time>
      </trkpt>
      <trkpt lat="51.341746198737" lon="4.691668612752">
        <ele>14.2</ele>
        <time>2020-07-26T14:53:06Z</time>
      </trkpt>
      <trkpt lat="51.341922637732" lon="4.690911811001">
        <ele>15.8</ele>
        <time>2020-07-26T14:53:16Z</time>
      </trkpt>
      <trkpt lat="51.341973851141" lon="4.69076856433">
        <ele>15.8</ele>
        <time>2020-07-26T14:53:18Z</time>
      </trkpt>
      <trkpt lat="51.342156157466" lon="4.689893745427">
        <ele>16.4</ele>
        <time>2020-07-26T14:53:29Z</time>
      </trkpt>
      <trkpt lat="51.342366543156" lon="4.689002246543">
        <ele>14.2</ele>
        <time>2020-07-26T14:53:39Z</time>
      </trkpt>
      <trkpt lat="51.342539545572" lon="4.688147711838">
        <ele>12.8</ele>
        <time>2020-07-26T14:53:48Z</time>
      </trkpt>
      <trkpt lat="51.342701316242" lon="4.687290494925">
        <ele>13.2</ele>
        <time>2020-07-26T14:53:58Z</time>
      </trkpt>
      <trkpt lat="51.342859817971" lon="4.686437049867">
        <ele>16.2</ele>
        <time>2020-07-26T14:54:09Z</time>
      </trkpt>
      <trkpt lat="51.343020750451" lon="4.685593411632">
        <ele>14.4</ele>
        <time>2020-07-26T14:54:20Z</time>
      </trkpt>
      <trkpt lat="51.343182018207" lon="4.684701242196">
        <ele>14.4</ele>
        <time>2020-07-26T14:54:31Z</time>
      </trkpt>
      <trkpt lat="51.343202050948" lon="4.684634773729">
        <ele>14.8</ele>
        <time>2020-07-26T14:54:32Z</time>
      </trkpt>
      <trkpt lat="51.343234656539" lon="4.684504435184">
        <ele>14.8</ele>
        <time>2020-07-26T14:54:34Z</time>
      </trkpt>
      <trkpt lat="51.343356026451" lon="4.683655348714">
        <ele>17.4</ele>
        <time>2020-07-26T14:54:48Z</time>
      </trkpt>
      <trkpt lat="51.34353045379" lon="4.682806178425">
        <ele>19</ele>
        <time>2020-07-26T14:54:58Z</time>
      </trkpt>
      <trkpt lat="51.343680070705" lon="4.681955415575">
        <ele>20.6</ele>
        <time>2020-07-26T14:55:09Z</time>
      </trkpt>
      <trkpt lat="51.343852486388" lon="4.681077914464">
        <ele>20.4</ele>
        <time>2020-07-26T14:55:20Z</time>
      </trkpt>
      <trkpt lat="51.34402917684" lon="4.680206448321">
        <ele>20.6</ele>
        <time>2020-07-26T14:55:31Z</time>
      </trkpt>
      <trkpt lat="51.344170747131" lon="4.679374963841">
        <ele>20.2</ele>
        <time>2020-07-26T14:55:42Z</time>
      </trkpt>
      <trkpt lat="51.344283818962" lon="4.678494696703">
        <ele>19.6</ele>
        <time>2020-07-26T14:55:56Z</time>
      </trkpt>
      <trkpt lat="51.344366380677" lon="4.677582829802">
        <ele>19.8</ele>
        <time>2020-07-26T14:56:07Z</time>
      </trkpt>
      <trkpt lat="51.344409296005" lon="4.67664338645">
        <ele>18</ele>
        <time>2020-07-26T14:56:17Z</time>
      </trkpt>
      <trkpt lat="51.344358334053" lon="4.675760856199">
        <ele>18.4</ele>
        <time>2020-07-26T14:56:27Z</time>
      </trkpt>
      <trkpt lat="51.34426554642" lon="4.674902801096">
        <ele>19</ele>
        <time>2020-07-26T14:56:36Z</time>
      </trkpt>
      <trkpt lat="51.344149373286" lon="4.674008452366">
        <ele>19.8</ele>
        <time>2020-07-26T14:56:46Z</time>
      </trkpt>
      <trkpt lat="51.344021130216" lon="4.673160707">
        <ele>19.4</ele>
        <time>2020-07-26T14:56:55Z</time>
      </trkpt>
      <trkpt lat="51.344001013656" lon="4.672989380964">
        <ele>19.2</ele>
        <time>2020-07-26T14:56:57Z</time>
      </trkpt>
      <trkpt lat="51.343911578783" lon="4.672577159122">
        <ele>19.8</ele>
        <time>2020-07-26T14:57:02Z</time>
      </trkpt>
      <trkpt lat="51.343637574472" lon="4.671799402621">
        <ele>20</ele>
        <time>2020-07-26T14:57:12Z</time>
      </trkpt>
      <trkpt lat="51.34338460873" lon="4.671023490138">
        <ele>20</ele>
        <time>2020-07-26T14:57:22Z</time>
      </trkpt>
      <trkpt lat="51.343072718231" lon="4.670292672277">
        <ele>19.8</ele>
        <time>2020-07-26T14:57:32Z</time>
      </trkpt>
      <trkpt lat="51.342766192148" lon="4.669515251052">
        <ele>20.4</ele>
        <time>2020-07-26T14:57:42Z</time>
      </trkpt>
      <trkpt lat="51.342471065449" lon="4.668774039635">
        <ele>19.4</ele>
        <time>2020-07-26T14:57:51Z</time>
      </trkpt>
      <trkpt lat="51.342144171349" lon="4.667959570412">
        <ele>19</ele>
        <time>2020-07-26T14:58:01Z</time>
      </trkpt>
      <trkpt lat="51.341803363295" lon="4.667174856934">
        <ele>19.8</ele>
        <time>2020-07-26T14:58:10Z</time>
      </trkpt>
      <trkpt lat="51.341487365665" lon="4.666420066839">
        <ele>20.2</ele>
        <time>2020-07-26T14:58:19Z</time>
      </trkpt>
      <trkpt lat="51.341165165429" lon="4.665657313939">
        <ele>21.2</ele>
        <time>2020-07-26T14:58:29Z</time>
      </trkpt>
      <trkpt lat="51.340865428685" lon="4.66487352247">
        <ele>18</ele>
        <time>2020-07-26T14:58:39Z</time>
      </trkpt>
      <trkpt lat="51.340600309188" lon="4.664091155924">
        <ele>10.6</ele>
        <time>2020-07-26T14:58:49Z</time>
      </trkpt>
      <trkpt lat="51.34030845143" lon="4.663355811837">
        <ele>12</ele>
        <time>2020-07-26T14:58:58Z</time>
      </trkpt>
      <trkpt lat="51.340005697202" lon="4.662577049508">
        <ele>14</ele>
        <time>2020-07-26T14:59:07Z</time>
      </trkpt>
      <trkpt lat="51.339698081472" lon="4.661841621602">
        <ele>16.6</ele>
        <time>2020-07-26T14:59:15Z</time>
      </trkpt>
      <trkpt lat="51.339394991968" lon="4.661122538401">
        <ele>15</ele>
        <time>2020-07-26T14:59:24Z</time>
      </trkpt>
      <trkpt lat="51.339086538048" lon="4.660357606207">
        <ele>14.8</ele>
        <time>2020-07-26T14:59:34Z</time>
      </trkpt>
      <trkpt lat="51.338769450771" lon="4.659585214122">
        <ele>13.8</ele>
        <time>2020-07-26T14:59:44Z</time>
      </trkpt>
      <trkpt lat="51.338453704598" lon="4.658840147031">
        <ele>16.6</ele>
        <time>2020-07-26T14:59:54Z</time>
      </trkpt>
      <trkpt lat="51.338162768849" lon="4.658075466294">
        <ele>15.2</ele>
        <time>2020-07-26T15:00:05Z</time>
      </trkpt>
      <trkpt lat="51.337835539473" lon="4.65736669283">
        <ele>17.4</ele>
        <time>2020-07-26T15:00:23Z</time>
      </trkpt>
      <trkpt lat="51.337528510476" lon="4.656592372908">
        <ele>17.6</ele>
        <time>2020-07-26T15:00:33Z</time>
      </trkpt>
      <trkpt lat="51.33723564689" lon="4.655863315246">
        <ele>18.6</ele>
        <time>2020-07-26T15:00:42Z</time>
      </trkpt>
      <trkpt lat="51.33692635478" lon="4.655078350311">
        <ele>19</ele>
        <time>2020-07-26T15:00:52Z</time>
      </trkpt>
      <trkpt lat="51.336619325783" lon="4.65431149028">
        <ele>17.4</ele>
        <time>2020-07-26T15:01:02Z</time>
      </trkpt>
      <trkpt lat="51.336305842723" lon="4.653541780403">
        <ele>17.8</ele>
        <time>2020-07-26T15:01:12Z</time>
      </trkpt>
      <trkpt lat="51.335967800696" lon="4.652767209024">
        <ele>18.2</ele>
        <time>2020-07-26T15:01:21Z</time>
      </trkpt>
      <trkpt lat="51.33568667177" lon="4.652024740322">
        <ele>20.4</ele>
        <time>2020-07-26T15:01:30Z</time>
      </trkpt>
      <trkpt lat="51.335398166772" lon="4.651268273847">
        <ele>18</ele>
        <time>2020-07-26T15:01:39Z</time>
      </trkpt>
      <trkpt lat="51.335073871061" lon="4.650456486832">
        <ele>17.6</ele>
        <time>2020-07-26T15:01:49Z</time>
      </trkpt>
      <trkpt lat="51.33477472105" lon="4.64971401813">
        <ele>15.8</ele>
        <time>2020-07-26T15:01:59Z</time>
      </trkpt>
      <trkpt lat="51.334446318208" lon="4.648907260255">
        <ele>16.6</ele>
        <time>2020-07-26T15:02:09Z</time>
      </trkpt>
      <trkpt lat="51.334153286984" lon="4.648176442394">
        <ele>15.8</ele>
        <time>2020-07-26T15:02:18Z</time>
      </trkpt>
      <trkpt lat="51.333857489733" lon="4.647440092479">
        <ele>16</ele>
        <time>2020-07-26T15:02:27Z</time>
      </trkpt>
      <trkpt lat="51.333565129061" lon="4.646709023161">
        <ele>17.8</ele>
        <time>2020-07-26T15:02:38Z</time>
      </trkpt>
      <trkpt lat="51.333255334037" lon="4.645923890588">
        <ele>18</ele>
        <time>2020-07-26T15:02:50Z</time>
      </trkpt>
      <trkpt lat="51.332959788243" lon="4.645186870121">
        <ele>18.6</ele>
        <time>2020-07-26T15:03:00Z</time>
      </trkpt>
      <trkpt lat="51.33281670921" lon="4.644850588293">
        <ele>18.6</ele>
        <time>2020-07-26T15:03:05Z</time>
      </trkpt>
      <trkpt lat="51.332494257517" lon="4.64407383762">
        <ele>18.8</ele>
        <time>2020-07-26T15:03:16Z</time>
      </trkpt>
      <trkpt lat="51.332443211746" lon="4.643937631745">
        <ele>18.8</ele>
        <time>2020-07-26T15:03:18Z</time>
      </trkpt>
      <trkpt lat="51.332139954604" lon="4.643222655675">
        <ele>19</ele>
        <time>2020-07-26T15:03:28Z</time>
      </trkpt>
      <trkpt lat="51.331843151525" lon="4.642487646864">
        <ele>19.2</ele>
        <time>2020-07-26T15:03:38Z</time>
      </trkpt>
      <trkpt lat="51.331524555506" lon="4.641687091595">
        <ele>19.2</ele>
        <time>2020-07-26T15:03:48Z</time>
      </trkpt>
      <trkpt lat="51.331220124898" lon="4.640952753336">
        <ele>19.2</ele>
        <time>2020-07-26T15:03:59Z</time>
      </trkpt>
      <trkpt lat="51.33091988524" lon="4.640169967695">
        <ele>20.2</ele>
        <time>2020-07-26T15:04:08Z</time>
      </trkpt>
      <trkpt lat="51.330619058849" lon="4.639432025219">
        <ele>19.6</ele>
        <time>2020-07-26T15:04:17Z</time>
      </trkpt>
      <trkpt lat="51.330325021797" lon="4.638687209585">
        <ele>18.6</ele>
        <time>2020-07-26T15:04:27Z</time>
      </trkpt>
      <trkpt lat="51.330004749398" lon="4.637911129464">
        <ele>18.2</ele>
        <time>2020-07-26T15:04:38Z</time>
      </trkpt>
      <trkpt lat="51.329718507513" lon="4.637175869196">
        <ele>17</ele>
        <time>2020-07-26T15:04:48Z</time>
      </trkpt>
      <trkpt lat="51.329401001141" lon="4.636426694974">
        <ele>18</ele>
        <time>2020-07-26T15:04:58Z</time>
      </trkpt>
      <trkpt lat="51.3291378933" lon="4.63576653653">
        <ele>18</ele>
        <time>2020-07-26T15:05:09Z</time>
      </trkpt>
      <trkpt lat="51.328884424644" lon="4.635156837124">
        <ele>17.8</ele>
        <time>2020-07-26T15:05:24Z</time>
      </trkpt>
      <trkpt lat="51.328759618153" lon="4.634857435656">
        <ele>17.6</ele>
        <time>2020-07-26T15:05:29Z</time>
      </trkpt>
      <trkpt lat="51.32849164881" lon="4.634099292801">
        <ele>17.4</ele>
        <time>2020-07-26T15:05:39Z</time>
      </trkpt>
      <trkpt lat="51.328189565134" lon="4.633294127487">
        <ele>16</ele>
        <time>2020-07-26T15:05:49Z</time>
      </trkpt>
      <trkpt lat="51.327861497568" lon="4.632517879728">
        <ele>16.8</ele>
        <time>2020-07-26T15:05:59Z</time>
      </trkpt>
      <trkpt lat="51.327529490509" lon="4.631751019697">
        <ele>17.4</ele>
        <time>2020-07-26T15:06:10Z</time>
      </trkpt>
      <trkpt lat="51.327239812045" lon="4.631016597619">
        <ele>18.8</ele>
        <time>2020-07-26T15:06:19Z</time>
      </trkpt>
      <trkpt lat="51.326932866867" lon="4.630239176394">
        <ele>17.8</ele>
        <time>2020-07-26T15:06:29Z</time>
      </trkpt>
      <trkpt lat="51.326627933345" lon="4.629509280542">
        <ele>18.6</ele>
        <time>2020-07-26T15:06:39Z</time>
      </trkpt>
      <trkpt lat="51.326461301173" lon="4.629124886608">
        <ele>18.6</ele>
        <time>2020-07-26T15:06:45Z</time>
      </trkpt>
      <trkpt lat="51.326353677577" lon="4.628877788196">
        <ele>18.8</ele>
        <time>2020-07-26T15:09:31Z</time>
      </trkpt>
      <trkpt lat="51.32635007336" lon="4.628875608902">
        <ele>18.8</ele>
        <time>2020-07-26T15:09:32Z</time>
      </trkpt>
      <trkpt lat="51.326335153578" lon="4.628827329158">
        <ele>19.6</ele>
        <time>2020-07-26T15:10:24Z</time>
      </trkpt>
      <trkpt lat="51.326078080705" lon="4.628167841266">
        <ele>18.6</ele>
        <time>2020-07-26T15:10:45Z</time>
      </trkpt>
      <trkpt lat="51.325958973906" lon="4.62788335958">
        <ele>18.8</ele>
        <time>2020-07-26T15:10:53Z</time>
      </trkpt>
      <trkpt lat="51.325662338465" lon="4.627155140108">
        <ele>18.2</ele>
        <time>2020-07-26T15:11:06Z</time>
      </trkpt>
      <trkpt lat="51.325359835694" lon="4.626424322247">
        <ele>18.2</ele>
        <time>2020-07-26T15:11:16Z</time>
      </trkpt>
      <trkpt lat="51.325050543584" lon="4.625662658994">
        <ele>17.4</ele>
        <time>2020-07-26T15:11:27Z</time>
      </trkpt>
      <trkpt lat="51.324762122405" lon="4.624909293822">
        <ele>16.6</ele>
        <time>2020-07-26T15:11:36Z</time>
      </trkpt>
      <trkpt lat="51.324469175" lon="4.62417855978">
        <ele>19</ele>
        <time>2020-07-26T15:11:45Z</time>
      </trkpt>
      <trkpt lat="51.324142616176" lon="4.6234141305">
        <ele>21.6</ele>
        <time>2020-07-26T15:11:55Z</time>
      </trkpt>
      <trkpt lat="51.323821589406" lon="4.622636457818">
        <ele>19.8</ele>
        <time>2020-07-26T15:12:05Z</time>
      </trkpt>
      <trkpt lat="51.323554039158" lon="4.621872447633">
        <ele>19.8</ele>
        <time>2020-07-26T15:12:15Z</time>
      </trkpt>
      <trkpt lat="51.323275760078" lon="4.621107766896">
        <ele>18.6</ele>
        <time>2020-07-26T15:12:25Z</time>
      </trkpt>
      <trkpt lat="51.322977448257" lon="4.620378290139">
        <ele>19.8</ele>
        <time>2020-07-26T15:12:35Z</time>
      </trkpt>
      <trkpt lat="51.322644100094" lon="4.619633558324">
        <ele>18</ele>
        <time>2020-07-26T15:12:45Z</time>
      </trkpt>
      <trkpt lat="51.322328270102" lon="4.618855718004">
        <ele>17.2</ele>
        <time>2020-07-26T15:12:55Z</time>
      </trkpt>
      <trkpt lat="51.322022833666" lon="4.618073938191">
        <ele>19</ele>
        <time>2020-07-26T15:13:06Z</time>
      </trkpt>
      <trkpt lat="51.321722677827" lon="4.617348903841">
        <ele>18.4</ele>
        <time>2020-07-26T15:13:17Z</time>
      </trkpt>
      <trkpt lat="51.321405339093" lon="4.616585648027">
        <ele>17.8</ele>
        <time>2020-07-26T15:13:28Z</time>
      </trkpt>
      <trkpt lat="51.32109797482" lon="4.615829852104">
        <ele>18.2</ele>
        <time>2020-07-26T15:13:39Z</time>
      </trkpt>
      <trkpt lat="51.320789604719" lon="4.615029967387">
        <ele>15.6</ele>
        <time>2020-07-26T15:13:50Z</time>
      </trkpt>
      <trkpt lat="51.320706875366" lon="4.614843386293">
        <ele>16</ele>
        <time>2020-07-26T15:13:53Z</time>
      </trkpt>
      <trkpt lat="51.320540159375" lon="4.61443963017">
        <ele>16.8</ele>
        <time>2020-07-26T15:14:00Z</time>
      </trkpt>
      <trkpt lat="51.320458938764" lon="4.614275764025">
        <ele>17.6</ele>
        <time>2020-07-26T15:14:03Z</time>
      </trkpt>
      <trkpt lat="51.320163644427" lon="4.613518543179">
        <ele>16.6</ele>
        <time>2020-07-26T15:14:14Z</time>
      </trkpt>
      <trkpt lat="51.319862566579" lon="4.612781019798">
        <ele>15.6</ele>
        <time>2020-07-26T15:14:25Z</time>
      </trkpt>
      <trkpt lat="51.319559979989" lon="4.612027151712">
        <ele>14.6</ele>
        <time>2020-07-26T15:14:37Z</time>
      </trkpt>
      <trkpt lat="51.31953391228" lon="4.611960515607">
        <ele>14.4</ele>
        <time>2020-07-26T15:14:38Z</time>
      </trkpt>
      <trkpt lat="51.319232080061" lon="4.611199019992">
        <ele>14</ele>
        <time>2020-07-26T15:14:49Z</time>
      </trkpt>
      <trkpt lat="51.318926056892" lon="4.610484295379">
        <ele>17.2</ele>
        <time>2020-07-26T15:15:00Z</time>
      </trkpt>
      <trkpt lat="51.318626403967" lon="4.609748867473">
        <ele>17.4</ele>
        <time>2020-07-26T15:15:09Z</time>
      </trkpt>
      <trkpt lat="51.318315519296" lon="4.60899558612">
        <ele>19.2</ele>
        <time>2020-07-26T15:15:19Z</time>
      </trkpt>
      <trkpt lat="51.318009999041" lon="4.608233084677">
        <ele>19.8</ele>
        <time>2020-07-26T15:15:30Z</time>
      </trkpt>
      <trkpt lat="51.317865159809" lon="4.607871070416">
        <ele>19.4</ele>
        <time>2020-07-26T15:15:36Z</time>
      </trkpt>
      <trkpt lat="51.317559723373" lon="4.607112843742">
        <ele>18.6</ele>
        <time>2020-07-26T15:15:48Z</time>
      </trkpt>
      <trkpt lat="51.317257807335" lon="4.606318658717">
        <ele>18.6</ele>
        <time>2020-07-26T15:15:58Z</time>
      </trkpt>
      <trkpt lat="51.316950107786" lon="4.605550709039">
        <ele>19</ele>
        <time>2020-07-26T15:16:08Z</time>
      </trkpt>
      <trkpt lat="51.316662440978" lon="4.604919132874">
        <ele>18.6</ele>
        <time>2020-07-26T15:16:17Z</time>
      </trkpt>
      <trkpt lat="51.316362536596" lon="4.60413827507">
        <ele>19</ele>
        <time>2020-07-26T15:16:29Z</time>
      </trkpt>
      <trkpt lat="51.316055339961" lon="4.60336043475">
        <ele>19</ele>
        <time>2020-07-26T15:16:39Z</time>
      </trkpt>
      <trkpt lat="51.315728110585" lon="4.602598352402">
        <ele>18</ele>
        <time>2020-07-26T15:16:49Z</time>
      </trkpt>
      <trkpt lat="51.315398199001" lon="4.60187600026">
        <ele>16.6</ele>
        <time>2020-07-26T15:16:59Z</time>
      </trkpt>
      <trkpt lat="51.31511413641" lon="4.601122048355">
        <ele>12.2</ele>
        <time>2020-07-26T15:17:09Z</time>
      </trkpt>
      <trkpt lat="51.314822111014" lon="4.600339514171">
        <ele>13</ele>
        <time>2020-07-26T15:17:18Z</time>
      </trkpt>
      <trkpt lat="51.314511813076" lon="4.599532337201">
        <ele>16</ele>
        <time>2020-07-26T15:17:26Z</time>
      </trkpt>
      <trkpt lat="51.314236802937" lon="4.598790539051">
        <ele>17.6</ele>
        <time>2020-07-26T15:17:34Z</time>
      </trkpt>
      <trkpt lat="51.313924241886" lon="4.598048405625">
        <ele>19.6</ele>
        <time>2020-07-26T15:17:44Z</time>
      </trkpt>
      <trkpt lat="51.313629282825" lon="4.597326807854">
        <ele>19.4</ele>
        <time>2020-07-26T15:17:53Z</time>
      </trkpt>
      <trkpt lat="51.313307166408" lon="4.596539160711">
        <ele>19.6</ele>
        <time>2020-07-26T15:18:03Z</time>
      </trkpt>
      <trkpt lat="51.313005418008" lon="4.595749837188">
        <ele>19.6</ele>
        <time>2020-07-26T15:18:14Z</time>
      </trkpt>
      <trkpt lat="51.312713141155" lon="4.595008374314">
        <ele>17.6</ele>
        <time>2020-07-26T15:18:23Z</time>
      </trkpt>
      <trkpt lat="51.312384905951" lon="4.594281915041">
        <ele>19</ele>
        <time>2020-07-26T15:18:34Z</time>
      </trkpt>
      <trkpt lat="51.312334949827" lon="4.594157779102">
        <ele>18.4</ele>
        <time>2020-07-26T15:18:36Z</time>
      </trkpt>
      <trkpt lat="51.312057928032" lon="4.593409945984">
        <ele>15</ele>
        <time>2020-07-26T15:18:45Z</time>
      </trkpt>
      <trkpt lat="51.311745618438" lon="4.592677787019">
        <ele>12</ele>
        <time>2020-07-26T15:18:53Z</time>
      </trkpt>
      <trkpt lat="51.311436913061" lon="4.591957781809">
        <ele>11.8</ele>
        <time>2020-07-26T15:19:02Z</time>
      </trkpt>
      <trkpt lat="51.311134242652" lon="4.591211625071">
        <ele>13.4</ele>
        <time>2020-07-26T15:19:11Z</time>
      </trkpt>
      <trkpt lat="51.310842468713" lon="4.590484914341">
        <ele>14.4</ele>
        <time>2020-07-26T15:19:20Z</time>
      </trkpt>
      <trkpt lat="51.310470144715" lon="4.589587715765">
        <ele>13.2</ele>
        <time>2020-07-26T15:19:32Z</time>
      </trkpt>
      <trkpt lat="51.310169066867" lon="4.5888220292">
        <ele>15</ele>
        <time>2020-07-26T15:19:42Z</time>
      </trkpt>
      <trkpt lat="51.309875029815" lon="4.588066903829">
        <ele>16</ele>
        <time>2020-07-26T15:19:52Z</time>
      </trkpt>
      <trkpt lat="51.309561714393" lon="4.587284453464">
        <ele>16.4</ele>
        <time>2020-07-26T15:20:01Z</time>
      </trkpt>
      <trkpt lat="51.30924680641" lon="4.586526981161">
        <ele>19</ele>
        <time>2020-07-26T15:20:10Z</time>
      </trkpt>
      <trkpt lat="51.308932149884" lon="4.58574168095">
        <ele>18</ele>
        <time>2020-07-26T15:20:20Z</time>
      </trkpt>
      <trkpt lat="51.308640208307" lon="4.58494288588">
        <ele>15.8</ele>
        <time>2020-07-26T15:20:30Z</time>
      </trkpt>
      <trkpt lat="51.308322701935" lon="4.58417258927">
        <ele>13.6</ele>
        <time>2020-07-26T15:20:40Z</time>
      </trkpt>
      <trkpt lat="51.308017768413" lon="4.583445291807">
        <ele>14.4</ele>
        <time>2020-07-26T15:20:51Z</time>
      </trkpt>
      <trkpt lat="51.307699842946" lon="4.58267306736">
        <ele>16.8</ele>
        <time>2020-07-26T15:21:01Z</time>
      </trkpt>
      <trkpt lat="51.307389628827" lon="4.581866058028">
        <ele>17</ele>
        <time>2020-07-26T15:21:11Z</time>
      </trkpt>
      <trkpt lat="51.307066003668" lon="4.581126774448">
        <ele>14.4</ele>
        <time>2020-07-26T15:21:21Z</time>
      </trkpt>
      <trkpt lat="51.306767356571" lon="4.580367793403">
        <ele>11.2</ele>
        <time>2020-07-26T15:21:32Z</time>
      </trkpt>
      <trkpt lat="51.306464686162" lon="4.579594311671">
        <ele>10.6</ele>
        <time>2020-07-26T15:21:42Z</time>
      </trkpt>
      <trkpt lat="51.306157070432" lon="4.578871708072">
        <ele>15</ele>
        <time>2020-07-26T15:21:52Z</time>
      </trkpt>
      <trkpt lat="51.305867811063" lon="4.578138543279">
        <ele>15.6</ele>
        <time>2020-07-26T15:22:02Z</time>
      </trkpt>
      <trkpt lat="51.305558267496" lon="4.577365480642">
        <ele>15</ele>
        <time>2020-07-26T15:22:12Z</time>
      </trkpt>
      <trkpt lat="51.305251322318" lon="4.576637764084">
        <ele>12.4</ele>
        <time>2020-07-26T15:22:22Z</time>
      </trkpt>
      <trkpt lat="51.30494270076" lon="4.575884398912">
        <ele>10.8</ele>
        <time>2020-07-26T15:22:35Z</time>
      </trkpt>
      <trkpt lat="51.304639778894" lon="4.575105301307">
        <ele>12</ele>
        <time>2020-07-26T15:22:46Z</time>
      </trkpt>
      <trkpt lat="51.304338114313" lon="4.574336261982">
        <ele>10.6</ele>
        <time>2020-07-26T15:22:55Z</time>
      </trkpt>
      <trkpt lat="51.304134182686" lon="4.573864193374">
        <ele>11</ele>
        <time>2020-07-26T15:23:00Z</time>
      </trkpt>
      <trkpt lat="51.304070564065" lon="4.573696471555">
        <ele>11</ele>
        <time>2020-07-26T15:23:02Z</time>
      </trkpt>
      <trkpt lat="51.303762948335" lon="4.572903627634">
        <ele>12.2</ele>
        <time>2020-07-26T15:23:12Z</time>
      </trkpt>
      <trkpt lat="51.303439742271" lon="4.57213198992">
        <ele>13.2</ele>
        <time>2020-07-26T15:23:21Z</time>
      </trkpt>
      <trkpt lat="51.303123409365" lon="4.571363453509">
        <ele>11.4</ele>
        <time>2020-07-26T15:23:31Z</time>
      </trkpt>
      <trkpt lat="51.30280866902" lon="4.570591061424">
        <ele>11.8</ele>
        <time>2020-07-26T15:23:42Z</time>
      </trkpt>
      <trkpt lat="51.302490408277" lon="4.569821267728">
        <ele>13.6</ele>
        <time>2020-07-26T15:23:53Z</time>
      </trkpt>
      <trkpt lat="51.302185307117" lon="4.569032782395">
        <ele>13.8</ele>
        <time>2020-07-26T15:24:06Z</time>
      </trkpt>
      <trkpt lat="51.301999731851" lon="4.568594660482">
        <ele>14.6</ele>
        <time>2020-07-26T15:24:11Z</time>
      </trkpt>
      <trkpt lat="51.30168130347" lon="4.567813886497">
        <ele>13.4</ele>
        <time>2020-07-26T15:24:23Z</time>
      </trkpt>
      <trkpt lat="51.301503020457" lon="4.567420440111">
        <ele>12.4</ele>
        <time>2020-07-26T15:24:30Z</time>
      </trkpt>
      <trkpt lat="51.301199930953" lon="4.56666112379">
        <ele>12.6</ele>
        <time>2020-07-26T15:24:41Z</time>
      </trkpt>
      <trkpt lat="51.300968087599" lon="4.56610121287">
        <ele>12.2</ele>
        <time>2020-07-26T15:24:49Z</time>
      </trkpt>
      <trkpt lat="51.300663237896" lon="4.565331000079">
        <ele>10.2</ele>
        <time>2020-07-26T15:25:02Z</time>
      </trkpt>
      <trkpt lat="51.300359226383" lon="4.564577634907">
        <ele>10.4</ele>
        <time>2020-07-26T15:25:13Z</time>
      </trkpt>
      <trkpt lat="51.300042474382" lon="4.563838854241">
        <ele>12.2</ele>
        <time>2020-07-26T15:25:24Z</time>
      </trkpt>
      <trkpt lat="51.299988914041" lon="4.563710862628">
        <ele>12.8</ele>
        <time>2020-07-26T15:25:26Z</time>
      </trkpt>
      <trkpt lat="51.299679538112" lon="4.562936961801">
        <ele>15.4</ele>
        <time>2020-07-26T15:25:36Z</time>
      </trkpt>
      <trkpt lat="51.299362702292" lon="4.562141268034">
        <ele>12.8</ele>
        <time>2020-07-26T15:25:46Z</time>
      </trkpt>
      <trkpt lat="51.299074197294" lon="4.561396117124">
        <ele>10.6</ele>
        <time>2020-07-26T15:25:55Z</time>
      </trkpt>
      <trkpt lat="51.298770856333" lon="4.560664963987">
        <ele>10</ele>
        <time>2020-07-26T15:26:04Z</time>
      </trkpt>
      <trkpt lat="51.298469862304" lon="4.559926937692">
        <ele>9.2</ele>
        <time>2020-07-26T15:26:14Z</time>
      </trkpt>
      <trkpt lat="51.298173813596" lon="4.559187905569">
        <ele>8</ele>
        <time>2020-07-26T15:26:24Z</time>
      </trkpt>
      <trkpt lat="51.297852535369" lon="4.558473097137">
        <ele>7.4</ele>
        <time>2020-07-26T15:26:40Z</time>
      </trkpt>
      <trkpt lat="51.297829485144" lon="4.55841752514">
        <ele>7.4</ele>
        <time>2020-07-26T15:26:41Z</time>
      </trkpt>
      <trkpt lat="51.29754315944" lon="4.557669189108">
        <ele>8.6</ele>
        <time>2020-07-26T15:26:52Z</time>
      </trkpt>
      <trkpt lat="51.297270831509" lon="4.556997798918">
        <ele>8.8</ele>
        <time>2020-07-26T15:27:01Z</time>
      </trkpt>
      <trkpt lat="51.296965897987" lon="4.556234459285">
        <ele>10.2</ele>
        <time>2020-07-26T15:27:11Z</time>
      </trkpt>
      <trkpt lat="51.296655180954" lon="4.555456032232">
        <ele>10.2</ele>
        <time>2020-07-26T15:27:22Z</time>
      </trkpt>
      <trkpt lat="51.296346475577" lon="4.554680203568">
        <ele>7.4</ele>
        <time>2020-07-26T15:27:32Z</time>
      </trkpt>
      <trkpt lat="51.296044308082" lon="4.553907895302">
        <ele>6.8</ele>
        <time>2020-07-26T15:27:43Z</time>
      </trkpt>
      <trkpt lat="51.295743062596" lon="4.553157379976">
        <ele>9</ele>
        <time>2020-07-26T15:27:54Z</time>
      </trkpt>
      <trkpt lat="51.295412061365" lon="4.552352717576">
        <ele>9.6</ele>
        <time>2020-07-26T15:28:03Z</time>
      </trkpt>
      <trkpt lat="51.295091621328" lon="4.551636400402">
        <ele>8.2</ele>
        <time>2020-07-26T15:28:12Z</time>
      </trkpt>
      <trkpt lat="51.295037222797" lon="4.551502876735">
        <ele>8.6</ele>
        <time>2020-07-26T15:28:14Z</time>
      </trkpt>
      <trkpt lat="51.294752238197" lon="4.550760743309">
        <ele>9.6</ele>
        <time>2020-07-26T15:28:24Z</time>
      </trkpt>
      <trkpt lat="51.294620977643" lon="4.550471986854">
        <ele>10.6</ele>
        <time>2020-07-26T15:28:28Z</time>
      </trkpt>
      <trkpt lat="51.294543864163" lon="4.550250620875">
        <ele>11.2</ele>
        <time>2020-07-26T15:28:31Z</time>
      </trkpt>
      <trkpt lat="51.294243037772" lon="4.54950924182">
        <ele>10.4</ele>
        <time>2020-07-26T15:28:41Z</time>
      </trkpt>
      <trkpt lat="51.293937014603" lon="4.548715224433">
        <ele>8.4</ele>
        <time>2020-07-26T15:28:51Z</time>
      </trkpt>
      <trkpt lat="51.293625040285" lon="4.547995303042">
        <ele>6.2</ele>
        <time>2020-07-26T15:29:00Z</time>
      </trkpt>
      <trkpt lat="51.293255733771" lon="4.547356686081">
        <ele>6</ele>
        <time>2020-07-26T15:29:09Z</time>
      </trkpt>
      <trkpt lat="51.292809732872" lon="4.546731815436">
        <ele>6.6</ele>
        <time>2020-07-26T15:29:19Z</time>
      </trkpt>
      <trkpt lat="51.292347303449" lon="4.54616151096">
        <ele>6.8</ele>
        <time>2020-07-26T15:29:30Z</time>
      </trkpt>
      <trkpt lat="51.29187112771" lon="4.545569832639">
        <ele>6.4</ele>
        <time>2020-07-26T15:29:41Z</time>
      </trkpt>
      <trkpt lat="51.291422863698" lon="4.544987290589">
        <ele>6</ele>
        <time>2020-07-26T15:29:50Z</time>
      </trkpt>
      <trkpt lat="51.29096923527" lon="4.54442142852">
        <ele>6</ele>
        <time>2020-07-26T15:29:58Z</time>
      </trkpt>
      <trkpt lat="51.29049901068" lon="4.543827822362">
        <ele>5.8</ele>
        <time>2020-07-26T15:30:07Z</time>
      </trkpt>
      <trkpt lat="51.290043370596" lon="4.543246956692">
        <ele>6.4</ele>
        <time>2020-07-26T15:30:16Z</time>
      </trkpt>
      <trkpt lat="51.289597202059" lon="4.542688805971">
        <ele>6.6</ele>
        <time>2020-07-26T15:30:26Z</time>
      </trkpt>
      <trkpt lat="51.289509024471" lon="4.542584032221">
        <ele>6.8</ele>
        <time>2020-07-26T15:30:28Z</time>
      </trkpt>
      <trkpt lat="51.289060173726" lon="4.542031245916">
        <ele>7.2</ele>
        <time>2020-07-26T15:30:37Z</time>
      </trkpt>
      <trkpt lat="51.288638564156" lon="4.541475945041">
        <ele>6.8</ele>
        <time>2020-07-26T15:30:45Z</time>
      </trkpt>
      <trkpt lat="51.288178649303" lon="4.54088510491">
        <ele>6.6</ele>
        <time>2020-07-26T15:30:54Z</time>
      </trkpt>
      <trkpt lat="51.287717393346" lon="4.540286553431">
        <ele>6.6</ele>
        <time>2020-07-26T15:31:04Z</time>
      </trkpt>
      <trkpt lat="51.287280444899" lon="4.539720523724">
        <ele>6.8</ele>
        <time>2020-07-26T15:31:13Z</time>
      </trkpt>
      <trkpt lat="51.286823966625" lon="4.539139574235">
        <ele>7.2</ele>
        <time>2020-07-26T15:31:22Z</time>
      </trkpt>
      <trkpt lat="51.286374948242" lon="4.538562145144">
        <ele>6.6</ele>
        <time>2020-07-26T15:31:31Z</time>
      </trkpt>
      <trkpt lat="51.28593422794" lon="4.538016231997">
        <ele>6.2</ele>
        <time>2020-07-26T15:31:40Z</time>
      </trkpt>
      <trkpt lat="51.285503146823" lon="4.537468474832">
        <ele>6.6</ele>
        <time>2020-07-26T15:31:49Z</time>
      </trkpt>
      <trkpt lat="51.285018840641" lon="4.536852321363">
        <ele>6.8</ele>
        <time>2020-07-26T15:31:57Z</time>
      </trkpt>
      <trkpt lat="51.284571163362" lon="4.536278664127">
        <ele>6.4</ele>
        <time>2020-07-26T15:32:07Z</time>
      </trkpt>
      <trkpt lat="51.284436047134" lon="4.536102476589">
        <ele>6.4</ele>
        <time>2020-07-26T15:32:11Z</time>
      </trkpt>
      <trkpt lat="51.28408769537" lon="4.535651195093">
        <ele>6.8</ele>
        <time>2020-07-26T15:32:21Z</time>
      </trkpt>
      <trkpt lat="51.283643706127" lon="4.535093714924">
        <ele>7</ele>
        <time>2020-07-26T15:32:32Z</time>
      </trkpt>
      <trkpt lat="51.283191083527" lon="4.534517124023">
        <ele>7.6</ele>
        <time>2020-07-26T15:32:43Z</time>
      </trkpt>
      <trkpt lat="51.282508713048" lon="4.5336607453">
        <ele>7.4</ele>
        <time>2020-07-26T15:32:59Z</time>
      </trkpt>
      <trkpt lat="51.282059107932" lon="4.533079376716">
        <ele>7.2</ele>
        <time>2020-07-26T15:33:09Z</time>
      </trkpt>
      <trkpt lat="51.281619896372" lon="4.53253589432">
        <ele>6.8</ele>
        <time>2020-07-26T15:33:19Z</time>
      </trkpt>
      <trkpt lat="51.281184875762" lon="4.531959471057">
        <ele>6.4</ele>
        <time>2020-07-26T15:33:30Z</time>
      </trkpt>
      <trkpt lat="51.280735522103" lon="4.531388076934">
        <ele>6.6</ele>
        <time>2020-07-26T15:33:41Z</time>
      </trkpt>
      <trkpt lat="51.280319276949" lon="4.53083939776">
        <ele>6.4</ele>
        <time>2020-07-26T15:33:50Z</time>
      </trkpt>
      <trkpt lat="51.279875706801" lon="4.530262052488">
        <ele>7.2</ele>
        <time>2020-07-26T15:34:00Z</time>
      </trkpt>
      <trkpt lat="51.279654424641" lon="4.529976984069">
        <ele>7.2</ele>
        <time>2020-07-26T15:34:05Z</time>
      </trkpt>
      <trkpt lat="51.279232312157" lon="4.529427718162">
        <ele>7.4</ele>
        <time>2020-07-26T15:34:15Z</time>
      </trkpt>
      <trkpt lat="51.278781533575" lon="4.528855485849">
        <ele>7.6</ele>
        <time>2020-07-26T15:34:25Z</time>
      </trkpt>
      <trkpt lat="51.278332599011" lon="4.528304962657">
        <ele>7.2</ele>
        <time>2020-07-26T15:34:35Z</time>
      </trkpt>
      <trkpt lat="51.27787922204" lon="4.527742704805">
        <ele>6.8</ele>
        <time>2020-07-26T15:34:44Z</time>
      </trkpt>
      <trkpt lat="51.277791798823" lon="4.527629465336">
        <ele>6.4</ele>
        <time>2020-07-26T15:34:46Z</time>
      </trkpt>
      <trkpt lat="51.277733796075" lon="4.52751932717">
        <ele>7</ele>
        <time>2020-07-26T15:34:48Z</time>
      </trkpt>
      <trkpt lat="51.277552076483" lon="4.527203664816">
        <ele>7</ele>
        <time>2020-07-26T15:35:19Z</time>
      </trkpt>
      <trkpt lat="51.277456103728" lon="4.527158570194">
        <ele>7.2</ele>
        <time>2020-07-26T15:35:22Z</time>
      </trkpt>
      <trkpt lat="51.277375134574" lon="4.527087994596">
        <ele>7.2</ele>
        <time>2020-07-26T15:35:24Z</time>
      </trkpt>
      <trkpt lat="51.276905580536" lon="4.526503943804">
        <ele>6.6</ele>
        <time>2020-07-26T15:35:35Z</time>
      </trkpt>
      <trkpt lat="51.276453544669" lon="4.525910756741">
        <ele>7.2</ele>
        <time>2020-07-26T15:35:45Z</time>
      </trkpt>
      <trkpt lat="51.276013243462" lon="4.525344727034">
        <ele>5.8</ele>
        <time>2020-07-26T15:35:55Z</time>
      </trkpt>
      <trkpt lat="51.275551903686" lon="4.524740811139">
        <ele>4.6</ele>
        <time>2020-07-26T15:36:06Z</time>
      </trkpt>
      <trkpt lat="51.275369597361" lon="4.524530760725">
        <ele>6</ele>
        <time>2020-07-26T15:36:10Z</time>
      </trkpt>
      <trkpt lat="51.274916555666" lon="4.523956349118">
        <ele>8.2</ele>
        <time>2020-07-26T15:36:20Z</time>
      </trkpt>
      <trkpt lat="51.274491090422" lon="4.523383865348">
        <ele>9.8</ele>
        <time>2020-07-26T15:36:30Z</time>
      </trkpt>
      <trkpt lat="51.274036875261" lon="4.522815740166">
        <ele>8.8</ele>
        <time>2020-07-26T15:36:41Z</time>
      </trkpt>
      <trkpt lat="51.273603028117" lon="4.522262283309">
        <ele>7.2</ele>
        <time>2020-07-26T15:36:50Z</time>
      </trkpt>
      <trkpt lat="51.273137832667" lon="4.521661803993">
        <ele>9.6</ele>
        <time>2020-07-26T15:37:00Z</time>
      </trkpt>
      <trkpt lat="51.272699710754" lon="4.52111555557">
        <ele>10.4</ele>
        <time>2020-07-26T15:37:09Z</time>
      </trkpt>
      <trkpt lat="51.272240298815" lon="4.520530918045">
        <ele>10.8</ele>
        <time>2020-07-26T15:37:19Z</time>
      </trkpt>
      <trkpt lat="51.271777785573" lon="4.519941670475">
        <ele>8.6</ele>
        <time>2020-07-26T15:37:30Z</time>
      </trkpt>
      <trkpt lat="51.271343519334" lon="4.519383352116">
        <ele>6.8</ele>
        <time>2020-07-26T15:37:40Z</time>
      </trkpt>
      <trkpt lat="51.270918976099" lon="4.518812628545">
        <ele>7.8</ele>
        <time>2020-07-26T15:37:51Z</time>
      </trkpt>
      <trkpt lat="51.270481273281" lon="4.518261602439">
        <ele>6.8</ele>
        <time>2020-07-26T15:38:02Z</time>
      </trkpt>
      <trkpt lat="51.270063687023" lon="4.51771585693">
        <ele>6.2</ele>
        <time>2020-07-26T15:38:11Z</time>
      </trkpt>
      <trkpt lat="51.269603855989" lon="4.51716348972">
        <ele>6.2</ele>
        <time>2020-07-26T15:38:20Z</time>
      </trkpt>
      <trkpt lat="51.269172523415" lon="4.516619755867">
        <ele>7</ele>
        <time>2020-07-26T15:38:29Z</time>
      </trkpt>
      <trkpt lat="51.268704897214" lon="4.5160587553">
        <ele>7.6</ele>
        <time>2020-07-26T15:38:39Z</time>
      </trkpt>
      <trkpt lat="51.268262249075" lon="4.515537820215">
        <ele>7</ele>
        <time>2020-07-26T15:38:51Z</time>
      </trkpt>
      <trkpt lat="51.267786827707" lon="4.515117970844">
        <ele>7.8</ele>
        <time>2020-07-26T15:39:02Z</time>
      </trkpt>
      <trkpt lat="51.267283578431" lon="4.514723267173">
        <ele>8.4</ele>
        <time>2020-07-26T15:39:13Z</time>
      </trkpt>
      <trkpt lat="51.266756524559" lon="4.514389164639">
        <ele>7</ele>
        <time>2020-07-26T15:39:25Z</time>
      </trkpt>
      <trkpt lat="51.266214467086" lon="4.514060342702">
        <ele>6.4</ele>
        <time>2020-07-26T15:39:35Z</time>
      </trkpt>
      <trkpt lat="51.265692861449" lon="4.513782482717">
        <ele>5.8</ele>
        <time>2020-07-26T15:39:44Z</time>
      </trkpt>
      <trkpt lat="51.265169244156" lon="4.513541586911">
        <ele>8</ele>
        <time>2020-07-26T15:39:53Z</time>
      </trkpt>
      <trkpt lat="51.264621654629" lon="4.513256769949">
        <ele>9</ele>
        <time>2020-07-26T15:40:04Z</time>
      </trkpt>
      <trkpt lat="51.26406249808" lon="4.512966337114">
        <ele>5.2</ele>
        <time>2020-07-26T15:40:15Z</time>
      </trkpt>
      <trkpt lat="51.263519770055" lon="4.512678251211">
        <ele>4.8</ele>
        <time>2020-07-26T15:40:25Z</time>
      </trkpt>
      <trkpt lat="51.262955835823" lon="4.512404163081">
        <ele>2.4</ele>
        <time>2020-07-26T15:40:37Z</time>
      </trkpt>
      <trkpt lat="51.262417382567" lon="4.512121944508">
        <ele>3.2</ele>
        <time>2020-07-26T15:40:47Z</time>
      </trkpt>
      <trkpt lat="51.261878594035" lon="4.511847437283">
        <ele>5.4</ele>
        <time>2020-07-26T15:40:59Z</time>
      </trkpt>
      <trkpt lat="51.261492942816" lon="4.511728749579">
        <ele>5.6</ele>
        <time>2020-07-26T15:41:11Z</time>
      </trkpt>
      <trkpt lat="51.260913921164" lon="4.511411159388">
        <ele>7.2</ele>
        <time>2020-07-26T15:41:21Z</time>
      </trkpt>
      <trkpt lat="51.260341688851" lon="4.511121397105">
        <ele>6.4</ele>
        <time>2020-07-26T15:41:29Z</time>
      </trkpt>
      <trkpt lat="51.259808851468" lon="4.510842950387">
        <ele>6</ele>
        <time>2020-07-26T15:41:37Z</time>
      </trkpt>
      <trkpt lat="51.259250030195" lon="4.510542878367">
        <ele>5.4</ele>
        <time>2020-07-26T15:41:46Z</time>
      </trkpt>
      <trkpt lat="51.258696657157" lon="4.510277004499">
        <ele>5</ele>
        <time>2020-07-26T15:41:55Z</time>
      </trkpt>
      <trkpt lat="51.258177314633" lon="4.509995624116">
        <ele>5</ele>
        <time>2020-07-26T15:42:04Z</time>
      </trkpt>
      <trkpt lat="51.257597873886" lon="4.50975053736">
        <ele>6.6</ele>
        <time>2020-07-26T15:42:14Z</time>
      </trkpt>
      <trkpt lat="51.257066712883" lon="4.509477622696">
        <ele>6.6</ele>
        <time>2020-07-26T15:42:23Z</time>
      </trkpt>
      <trkpt lat="51.256535384242" lon="4.509188363327">
        <ele>5.8</ele>
        <time>2020-07-26T15:42:32Z</time>
      </trkpt>
      <trkpt lat="51.256002798316" lon="4.508922992373">
        <ele>6.6</ele>
        <time>2020-07-26T15:42:41Z</time>
      </trkpt>
      <trkpt lat="51.255477420824" lon="4.508684527318">
        <ele>8.2</ele>
        <time>2020-07-26T15:42:52Z</time>
      </trkpt>
      <trkpt lat="51.255390249064" lon="4.508649071881">
        <ele>8.2</ele>
        <time>2020-07-26T15:42:54Z</time>
      </trkpt>
      <trkpt lat="51.254860177708" lon="4.508404655677">
        <ele>7.4</ele>
        <time>2020-07-26T15:43:04Z</time>
      </trkpt>
      <trkpt lat="51.254301859349" lon="4.508130232271">
        <ele>6.6</ele>
        <time>2020-07-26T15:43:15Z</time>
      </trkpt>
      <trkpt lat="51.25377287764" lon="4.507858491073">
        <ele>6.4</ele>
        <time>2020-07-26T15:43:26Z</time>
      </trkpt>
      <trkpt lat="51.25324481794" lon="4.507570740446">
        <ele>5.8</ele>
        <time>2020-07-26T15:43:36Z</time>
      </trkpt>
      <trkpt lat="51.252739557008" lon="4.507272260987">
        <ele>6.8</ele>
        <time>2020-07-26T15:43:46Z</time>
      </trkpt>
      <trkpt lat="51.252325239691" lon="4.507063216401">
        <ele>6.4</ele>
        <time>2020-07-26T15:44:38Z</time>
      </trkpt>
      <trkpt lat="51.252283330191" lon="4.507042764565">
        <ele>6.4</ele>
        <time>2020-07-26T15:44:39Z</time>
      </trkpt>
      <trkpt lat="51.25172601766" lon="4.506752080273">
        <ele>7</ele>
        <time>2020-07-26T15:44:50Z</time>
      </trkpt>
      <trkpt lat="51.251171638794" lon="4.506462150352">
        <ele>6.8</ele>
        <time>2020-07-26T15:45:00Z</time>
      </trkpt>
      <trkpt lat="51.250638801411" lon="4.506191079706">
        <ele>6.4</ele>
        <time>2020-07-26T15:45:10Z</time>
      </trkpt>
      <trkpt lat="51.250083249079" lon="4.505907603848">
        <ele>7.6</ele>
        <time>2020-07-26T15:45:22Z</time>
      </trkpt>
      <trkpt lat="51.249519231028" lon="4.505642819627">
        <ele>4.2</ele>
        <time>2020-07-26T15:45:31Z</time>
      </trkpt>
      <trkpt lat="51.248996703382" lon="4.505383651279">
        <ele>5.2</ele>
        <time>2020-07-26T15:45:39Z</time>
      </trkpt>
      <trkpt lat="51.248451125511" lon="4.505098247584">
        <ele>5.4</ele>
        <time>2020-07-26T15:45:48Z</time>
      </trkpt>
      <trkpt lat="51.247884760528" lon="4.504810329319">
        <ele>5.2</ele>
        <time>2020-07-26T15:45:58Z</time>
      </trkpt>
      <trkpt lat="51.247367345841" lon="4.504545964193">
        <ele>3.8</ele>
        <time>2020-07-26T15:46:06Z</time>
      </trkpt>
      <trkpt lat="51.246821516513" lon="4.504290148605">
        <ele>0.6</ele>
        <time>2020-07-26T15:46:15Z</time>
      </trkpt>
      <trkpt lat="51.246300246152" lon="4.504044223659">
        <ele>0.4</ele>
        <time>2020-07-26T15:46:24Z</time>
      </trkpt>
      <trkpt lat="51.245787609148" lon="4.503772733918">
        <ele>0</ele>
        <time>2020-07-26T15:46:33Z</time>
      </trkpt>
      <trkpt lat="51.24521495774" lon="4.503511386276">
        <ele>2</ele>
        <time>2020-07-26T15:46:42Z</time>
      </trkpt>
      <trkpt lat="51.244665188919" lon="4.503245009494">
        <ele>2.2</ele>
        <time>2020-07-26T15:46:53Z</time>
      </trkpt>
      <trkpt lat="51.244497634738" lon="4.503024816981">
        <ele>1.2</ele>
        <time>2020-07-26T15:47:01Z</time>
      </trkpt>
      <trkpt lat="51.244243076435" lon="4.50285223366">
        <ele>1.4</ele>
        <time>2020-07-26T15:47:08Z</time>
      </trkpt>
      <trkpt lat="51.244178451986" lon="4.50273237249">
        <ele>0.8</ele>
        <time>2020-07-26T15:47:10Z</time>
      </trkpt>
      <trkpt lat="51.244180296004" lon="4.502576720607">
        <ele>0.6</ele>
        <time>2020-07-26T15:47:12Z</time>
      </trkpt>
      <trkpt lat="51.244330834928" lon="4.501735177847">
        <ele>0.4</ele>
        <time>2020-07-26T15:47:22Z</time>
      </trkpt>
      <trkpt lat="51.244311640377" lon="4.501576927575">
        <ele>0</ele>
        <time>2020-07-26T15:47:24Z</time>
      </trkpt>
      <trkpt lat="51.244223965703" lon="4.501200412627">
        <ele>0</ele>
        <time>2020-07-26T15:47:32Z</time>
      </trkpt>
      <trkpt lat="51.244226480273" lon="4.501152635797">
        <ele>0</ele>
        <time>2020-07-26T15:47:35Z</time>
      </trkpt>
      <trkpt lat="51.244272999818" lon="4.501119611111">
        <ele>0.4</ele>
        <time>2020-07-26T15:47:38Z</time>
      </trkpt>
      <trkpt lat="51.244286746134" lon="4.500365743025">
        <ele>2</ele>
        <time>2020-07-26T15:48:20Z</time>
      </trkpt>
      <trkpt lat="51.243814174612" lon="4.49926058951">
        <ele>5.2</ele>
        <time>2020-07-26T15:48:37Z</time>
      </trkpt>
      <trkpt lat="51.243468337418" lon="4.49859841941">
        <ele>9</ele>
        <time>2020-07-26T15:48:47Z</time>
      </trkpt>
      <trkpt lat="51.243158458575" lon="4.497809431163">
        <ele>4.6</ele>
        <time>2020-07-26T15:48:57Z</time>
      </trkpt>
      <trkpt lat="51.242854195605" lon="4.497000074899">
        <ele>1.2</ele>
        <time>2020-07-26T15:49:07Z</time>
      </trkpt>
      <trkpt lat="51.242565606788" lon="4.496206979521">
        <ele>0.8</ele>
        <time>2020-07-26T15:49:17Z</time>
      </trkpt>
      <trkpt lat="51.242344827542" lon="4.495394102859">
        <ele>0</ele>
        <time>2020-07-26T15:49:27Z</time>
      </trkpt>
      <trkpt lat="51.242194372437" lon="4.494484499071">
        <ele>1</ele>
        <time>2020-07-26T15:49:39Z</time>
      </trkpt>
      <trkpt lat="51.242023633134" lon="4.493592916368">
        <ele>2.2</ele>
        <time>2020-07-26T15:49:49Z</time>
      </trkpt>
      <trkpt lat="51.241972671182" lon="4.493128475289">
        <ele>2.4</ele>
        <time>2020-07-26T15:49:55Z</time>
      </trkpt>
      <trkpt lat="51.241854318754" lon="4.492247537599">
        <ele>5.4</ele>
        <time>2020-07-26T15:50:07Z</time>
      </trkpt>
      <trkpt lat="51.241549888146" lon="4.491548487139">
        <ele>5.6</ele>
        <time>2020-07-26T15:50:20Z</time>
      </trkpt>
      <trkpt lat="51.241073125674" lon="4.491158477332">
        <ele>4.2</ele>
        <time>2020-07-26T15:50:30Z</time>
      </trkpt>
      <trkpt lat="51.240539617739" lon="4.49087701313">
        <ele>3.2</ele>
        <time>2020-07-26T15:50:44Z</time>
      </trkpt>
      <trkpt lat="51.240037206653" lon="4.490673416779">
        <ele>4.2</ele>
        <time>2020-07-26T15:50:58Z</time>
      </trkpt>
      <trkpt lat="51.239505794193" lon="4.490428078566">
        <ele>4.8</ele>
        <time>2020-07-26T15:51:11Z</time>
      </trkpt>
      <trkpt lat="51.238975387561" lon="4.490163964897">
        <ele>3.8</ele>
        <time>2020-07-26T15:51:21Z</time>
      </trkpt>
      <trkpt lat="51.238382954869" lon="4.489992387404">
        <ele>2</ele>
        <time>2020-07-26T15:51:30Z</time>
      </trkpt>
      <trkpt lat="51.237812231298" lon="4.490053156179">
        <ele>0</ele>
        <time>2020-07-26T15:51:38Z</time>
      </trkpt>
      <trkpt lat="51.237283836322" lon="4.490319030047">
        <ele>0</ele>
        <time>2020-07-26T15:51:45Z</time>
      </trkpt>
      <trkpt lat="51.236751585672" lon="4.490436795742">
        <ele>0</ele>
        <time>2020-07-26T15:51:52Z</time>
      </trkpt>
      <trkpt lat="51.2364005517" lon="4.490336212942">
        <ele>0.6</ele>
        <time>2020-07-26T15:51:58Z</time>
      </trkpt>
      <trkpt lat="51.236334250871" lon="4.490246358974">
        <ele>1.4</ele>
        <time>2020-07-26T15:52:00Z</time>
      </trkpt>
      <trkpt lat="51.236300890909" lon="4.490125072881">
        <ele>2.2</ele>
        <time>2020-07-26T15:52:02Z</time>
      </trkpt>
      <trkpt lat="51.236279181788" lon="4.489941257814">
        <ele>1.8</ele>
        <time>2020-07-26T15:52:05Z</time>
      </trkpt>
      <trkpt lat="51.236310110999" lon="4.489799352247">
        <ele>1</ele>
        <time>2020-07-26T15:52:07Z</time>
      </trkpt>
      <trkpt lat="51.236345734074" lon="4.489597348457">
        <ele>0.6</ele>
        <time>2020-07-26T15:52:10Z</time>
      </trkpt>
      <trkpt lat="51.236376160371" lon="4.488808779305">
        <ele>0</ele>
        <time>2020-07-26T15:52:21Z</time>
      </trkpt>
      <trkpt lat="51.236395857836" lon="4.488588419154">
        <ele>0</ele>
        <time>2020-07-26T15:52:24Z</time>
      </trkpt>
      <trkpt lat="51.236380183683" lon="4.487666996887">
        <ele>0</ele>
        <time>2020-07-26T15:52:36Z</time>
      </trkpt>
      <trkpt lat="51.236352439594" lon="4.486740294023">
        <ele>0</ele>
        <time>2020-07-26T15:52:48Z</time>
      </trkpt>
      <trkpt lat="51.236330562835" lon="4.485851896442">
        <ele>0</ele>
        <time>2020-07-26T15:52:59Z</time>
      </trkpt>
      <trkpt lat="51.236328886455" lon="4.484987974009">
        <ele>0</ele>
        <time>2020-07-26T15:53:10Z</time>
      </trkpt>
      <trkpt lat="51.236312038836" lon="4.484085662474">
        <ele>0</ele>
        <time>2020-07-26T15:53:20Z</time>
      </trkpt>
      <trkpt lat="51.236291670819" lon="4.483171783917">
        <ele>0</ele>
        <time>2020-07-26T15:53:30Z</time>
      </trkpt>
      <trkpt lat="51.23627901415" lon="4.482305430733">
        <ele>0</ele>
        <time>2020-07-26T15:53:39Z</time>
      </trkpt>
      <trkpt lat="51.236312122655" lon="4.481405885225">
        <ele>0</ele>
        <time>2020-07-26T15:53:49Z</time>
      </trkpt>
      <trkpt lat="51.236349589748" lon="4.48054296862">
        <ele>0</ele>
        <time>2020-07-26T15:53:59Z</time>
      </trkpt>
      <trkpt lat="51.236375908914" lon="4.479654738677">
        <ele>0</ele>
        <time>2020-07-26T15:54:10Z</time>
      </trkpt>
      <trkpt lat="51.236375154543" lon="4.478779752136">
        <ele>0</ele>
        <time>2020-07-26T15:54:21Z</time>
      </trkpt>
      <trkpt lat="51.236289156249" lon="4.477880206628">
        <ele>0</ele>
        <time>2020-07-26T15:54:32Z</time>
      </trkpt>
      <trkpt lat="51.236251270061" lon="4.477543840981">
        <ele>0</ele>
        <time>2020-07-26T15:54:37Z</time>
      </trkpt>
      <trkpt lat="51.236043985674" lon="4.476694251597">
        <ele>0</ele>
        <time>2020-07-26T15:54:52Z</time>
      </trkpt>
      <trkpt lat="51.235840137866" lon="4.47583317901">
        <ele>0</ele>
        <time>2020-07-26T15:55:03Z</time>
      </trkpt>
      <trkpt lat="51.235656490437" lon="4.475019045063">
        <ele>3.4</ele>
        <time>2020-07-26T15:55:15Z</time>
      </trkpt>
      <trkpt lat="51.235485583496" lon="4.474198373234">
        <ele>6</ele>
        <time>2020-07-26T15:55:27Z</time>
      </trkpt>
      <trkpt lat="51.235363878308" lon="4.473860666483">
        <ele>2.8</ele>
        <time>2020-07-26T15:55:35Z</time>
      </trkpt>
      <trkpt lat="51.235345857223" lon="4.473870557125">
        <ele>2.8</ele>
        <time>2020-07-26T15:55:37Z</time>
      </trkpt>
      <trkpt lat="51.234994823251" lon="4.473782798632">
        <ele>5.2</ele>
        <time>2020-07-26T15:55:52Z</time>
      </trkpt>
      <trkpt lat="51.234628869497" lon="4.473070588589">
        <ele>0</ele>
        <time>2020-07-26T15:56:03Z</time>
      </trkpt>
      <trkpt lat="51.23427238729" lon="4.472336334149">
        <ele>0</ele>
        <time>2020-07-26T15:56:13Z</time>
      </trkpt>
      <trkpt lat="51.233970890347" lon="4.471553213232">
        <ele>3.6</ele>
        <time>2020-07-26T15:56:25Z</time>
      </trkpt>
      <trkpt lat="51.233625220791" lon="4.470860784473">
        <ele>2</ele>
        <time>2020-07-26T15:56:37Z</time>
      </trkpt>
      <trkpt lat="51.233296482673" lon="4.470175731786">
        <ele>3</ele>
        <time>2020-07-26T15:56:48Z</time>
      </trkpt>
      <trkpt lat="51.233201096651" lon="4.469939613663">
        <ele>3</ele>
        <time>2020-07-26T15:56:52Z</time>
      </trkpt>
      <trkpt lat="51.232861294425" lon="4.469241485212">
        <ele>2</ele>
        <time>2020-07-26T15:57:03Z</time>
      </trkpt>
      <trkpt lat="51.232517971801" lon="4.468515445034">
        <ele>5</ele>
        <time>2020-07-26T15:57:16Z</time>
      </trkpt>
      <trkpt lat="51.232173308073" lon="4.467765516441">
        <ele>6</ele>
        <time>2020-07-26T15:57:28Z</time>
      </trkpt>
      <trkpt lat="51.231976920156" lon="4.467423115826">
        <ele>6.2</ele>
        <time>2020-07-26T15:57:35Z</time>
      </trkpt>
      <trkpt lat="51.231569308359" lon="4.46716377984">
        <ele>0</ele>
        <time>2020-07-26T15:57:44Z</time>
      </trkpt>
      <trkpt lat="51.231179717647" lon="4.467185740418">
        <ele>0</ele>
        <time>2020-07-26T15:57:51Z</time>
      </trkpt>
      <trkpt lat="51.230960950057" lon="4.467262602441">
        <ele>0</ele>
        <time>2020-07-26T15:57:55Z</time>
      </trkpt>
      <trkpt lat="51.230862462732" lon="4.467324125587">
        <ele>0</ele>
        <time>2020-07-26T15:57:57Z</time>
      </trkpt>
      <trkpt lat="51.230768836909" lon="4.467325047596">
        <ele>0</ele>
        <time>2020-07-26T15:57:59Z</time>
      </trkpt>
      <trkpt lat="51.230726508314" lon="4.466486354682">
        <ele>0</ele>
        <time>2020-07-26T15:58:12Z</time>
      </trkpt>
      <trkpt lat="51.230782415587" lon="4.465625952647">
        <ele>0</ele>
        <time>2020-07-26T15:58:22Z</time>
      </trkpt>
      <trkpt lat="51.230752995118" lon="4.464749289726">
        <ele>0</ele>
        <time>2020-07-26T15:58:35Z</time>
      </trkpt>
      <trkpt lat="51.23052232523" lon="4.463960720574">
        <ele>1.8</ele>
        <time>2020-07-26T15:58:49Z</time>
      </trkpt>
      <trkpt lat="51.230259636484" lon="4.463156896364">
        <ele>1.8</ele>
        <time>2020-07-26T15:59:05Z</time>
      </trkpt>
      <trkpt lat="51.230059979626" lon="4.46233245268">
        <ele>0</ele>
        <time>2020-07-26T15:59:20Z</time>
      </trkpt>
      <trkpt lat="51.229859819854" lon="4.461520330389">
        <ele>0</ele>
        <time>2020-07-26T15:59:36Z</time>
      </trkpt>
      <trkpt lat="51.229488166408" lon="4.460958575451">
        <ele>0.4</ele>
        <time>2020-07-26T15:59:52Z</time>
      </trkpt>
      <trkpt lat="51.228911491688" lon="4.461026385022">
        <ele>0</ele>
        <time>2020-07-26T16:00:05Z</time>
      </trkpt>
      <trkpt lat="51.228586190149" lon="4.461039460786">
        <ele>5.2</ele>
        <time>2020-07-26T16:00:11Z</time>
      </trkpt>
      <trkpt lat="51.228495665629" lon="4.460969974835">
        <ele>4.8</ele>
        <time>2020-07-26T16:00:13Z</time>
      </trkpt>
      <trkpt lat="51.228110768781" lon="4.460332782797">
        <ele>2.4</ele>
        <time>2020-07-26T16:00:25Z</time>
      </trkpt>
      <trkpt lat="51.228421569633" lon="4.459684191375">
        <ele>1</ele>
        <time>2020-07-26T16:00:39Z</time>
      </trkpt>
      <trkpt lat="51.228461970391" lon="4.459558379056">
        <ele>0.6</ele>
        <time>2020-07-26T16:00:41Z</time>
      </trkpt>
      <trkpt lat="51.228571270367" lon="4.458691774415">
        <ele>5.2</ele>
        <time>2020-07-26T16:00:57Z</time>
      </trkpt>
      <trkpt lat="51.228816105666" lon="4.458181819619">
        <ele>7.2</ele>
        <time>2020-07-26T16:01:10Z</time>
      </trkpt>
      <trkpt lat="51.22936394665" lon="4.458013091972">
        <ele>12.8</ele>
        <time>2020-07-26T16:01:23Z</time>
      </trkpt>
      <trkpt lat="51.22952907008" lon="4.457948383704">
        <ele>13.6</ele>
        <time>2020-07-26T16:01:28Z</time>
      </trkpt>
      <trkpt lat="51.229768624782" lon="4.457854171148">
        <ele>0.6</ele>
        <time>2020-07-26T16:03:14Z</time>
      </trkpt>
      <trkpt lat="51.229232769915" lon="4.458007979013">
        <ele>0.2</ele>
        <time>2020-07-26T16:03:28Z</time>
      </trkpt>
      <trkpt lat="51.228675457384" lon="4.458256167072">
        <ele>4.4</ele>
        <time>2020-07-26T16:03:43Z</time>
      </trkpt>
      <trkpt lat="51.228552830187" lon="4.458234960865">
        <ele>5.8</ele>
        <time>2020-07-26T16:03:46Z</time>
      </trkpt>
      <trkpt lat="51.228445625686" lon="4.457374391192">
        <ele>5.6</ele>
        <time>2020-07-26T16:03:59Z</time>
      </trkpt>
      <trkpt lat="51.22853413855" lon="4.457209603038">
        <ele>6</ele>
        <time>2020-07-26T16:04:02Z</time>
      </trkpt>
      <trkpt lat="51.229104191569" lon="4.456990164896">
        <ele>7.8</ele>
        <time>2020-07-26T16:04:13Z</time>
      </trkpt>
      <trkpt lat="51.229662845204" lon="4.456717753146">
        <ele>13.6</ele>
        <time>2020-07-26T16:04:24Z</time>
      </trkpt>
      <trkpt lat="51.229704084152" lon="4.456706437581">
        <ele>14.4</ele>
        <time>2020-07-26T16:04:25Z</time>
      </trkpt>
      <trkpt lat="51.229779102157" lon="4.456858904342">
        <ele>13.6</ele>
        <time>2020-07-26T16:04:28Z</time>
      </trkpt>
      <trkpt lat="51.229859065483" lon="4.457724000241">
        <ele>8.4</ele>
        <time>2020-07-26T16:04:38Z</time>
      </trkpt>
      <trkpt lat="51.229968952192" lon="4.4585924489">
        <ele>4.2</ele>
        <time>2020-07-26T16:04:49Z</time>
      </trkpt>
      <trkpt lat="51.229972221133" lon="4.458749944801">
        <ele>3.8</ele>
        <time>2020-07-26T16:04:51Z</time>
      </trkpt>
      <trkpt lat="51.229908183417" lon="4.458915403507">
        <ele>1.6</ele>
        <time>2020-07-26T16:04:54Z</time>
      </trkpt>
      <trkpt lat="51.229809193178" lon="4.458960917224">
        <ele>0.8</ele>
        <time>2020-07-26T16:04:56Z</time>
      </trkpt>
      <trkpt lat="51.229697294813" lon="4.4589863982">
        <ele>1.2</ele>
        <time>2020-07-26T16:04:58Z</time>
      </trkpt>
      <trkpt lat="51.229160098842" lon="4.459129393414">
        <ele>1.4</ele>
        <time>2020-07-26T16:05:09Z</time>
      </trkpt>
      <trkpt lat="51.228708062975" lon="4.459237603743">
        <ele>2.6</ele>
        <time>2020-07-26T16:05:18Z</time>
      </trkpt>
      <trkpt lat="51.228624830708" lon="4.459160993177">
        <ele>4.8</ele>
        <time>2020-07-26T16:05:20Z</time>
      </trkpt>
      <trkpt lat="51.228592895669" lon="4.459015148117">
        <ele>4.8</ele>
        <time>2020-07-26T16:05:22Z</time>
      </trkpt>
      <trkpt lat="51.228575545136" lon="4.458621031179">
        <ele>4.2</ele>
        <time>2020-07-26T16:05:27Z</time>
      </trkpt>
      <trkpt lat="51.228564229571" lon="4.458396228621">
        <ele>3.2</ele>
        <time>2020-07-26T16:05:30Z</time>
      </trkpt>
      <trkpt lat="51.228718959445" lon="4.458186681121">
        <ele>5.4</ele>
        <time>2020-07-26T16:05:36Z</time>
      </trkpt>
      <trkpt lat="51.228841670461" lon="4.458148459657">
        <ele>7.6</ele>
        <time>2020-07-26T16:05:39Z</time>
      </trkpt>
      <trkpt lat="51.229375848948" lon="4.457997585457">
        <ele>11.8</ele>
        <time>2020-07-26T16:05:51Z</time>
      </trkpt>
      <trkpt lat="51.23045359365" lon="4.45764948515">
        <ele>20</ele>
        <time>2020-07-26T16:06:16Z</time>
      </trkpt>
      <trkpt lat="51.230505896706" lon="4.457633978635">
        <ele>19.4</ele>
        <time>2020-07-26T16:06:18Z</time>
      </trkpt>
      <trkpt lat="51.230642018762" lon="4.457630961151">
        <ele>10.8</ele>
        <time>2020-07-26T16:07:50Z</time>
      </trkpt>
      <trkpt lat="51.231182735131" lon="4.457579747742">
        <ele>8.4</ele>
        <time>2020-07-26T16:08:05Z</time>
      </trkpt>
      <trkpt lat="51.231235876377" lon="4.457770435967">
        <ele>7.2</ele>
        <time>2020-07-26T16:08:07Z</time>
      </trkpt>
      <trkpt lat="51.231299914093" lon="4.45832590448">
        <ele>5.2</ele>
        <time>2020-07-26T16:08:15Z</time>
      </trkpt>
      <trkpt lat="51.231276277135" lon="4.458475605214">
        <ele>5</ele>
        <time>2020-07-26T16:08:17Z</time>
      </trkpt>
      <trkpt lat="51.231199498931" lon="4.458554311255">
        <ele>4.6</ele>
        <time>2020-07-26T16:08:19Z</time>
      </trkpt>
      <trkpt lat="51.231097072113" lon="4.458600411705">
        <ele>4.2</ele>
        <time>2020-07-26T16:08:21Z</time>
      </trkpt>
      <trkpt lat="51.230540094858" lon="4.458728738594">
        <ele>1.4</ele>
        <time>2020-07-26T16:08:31Z</time>
      </trkpt>
      <trkpt lat="51.229984961621" lon="4.458872236722">
        <ele>0</ele>
        <time>2020-07-26T16:08:41Z</time>
      </trkpt>
      <trkpt lat="51.229421195027" lon="4.459009196968">
        <ele>0</ele>
        <time>2020-07-26T16:08:51Z</time>
      </trkpt>
      <trkpt lat="51.22884762161" lon="4.45915822715">
        <ele>0</ele>
        <time>2020-07-26T16:09:02Z</time>
      </trkpt>
      <trkpt lat="51.22870010017" lon="4.459192090026">
        <ele>0</ele>
        <time>2020-07-26T16:09:05Z</time>
      </trkpt>
      <trkpt lat="51.228604043596" lon="4.459146241033">
        <ele>0</ele>
        <time>2020-07-26T16:09:07Z</time>
      </trkpt>
      <trkpt lat="51.228556685861" lon="4.459035348496">
        <ele>0</ele>
        <time>2020-07-26T16:09:09Z</time>
      </trkpt>
      <trkpt lat="51.228554590386" lon="4.45886569884">
        <ele>0.4</ele>
        <time>2020-07-26T16:09:11Z</time>
      </trkpt>
      <trkpt lat="51.228570851272" lon="4.458261531488">
        <ele>0</ele>
        <time>2020-07-26T16:09:19Z</time>
      </trkpt>
      <trkpt lat="51.22910410775" lon="4.45806606558">
        <ele>5.6</ele>
        <time>2020-07-26T16:09:32Z</time>
      </trkpt>
      <trkpt lat="51.229185747456" lon="4.458039327319">
        <ele>7.2</ele>
        <time>2020-07-26T16:09:34Z</time>
      </trkpt>
      <trkpt lat="51.229749849326" lon="4.45788753111">
        <ele>13.4</ele>
        <time>2020-07-26T16:09:51Z</time>
      </trkpt>
      <trkpt lat="51.22981992201" lon="4.457776554754">
        <ele>14.2</ele>
        <time>2020-07-26T16:09:54Z</time>
      </trkpt>
      <trkpt lat="51.229814138499" lon="4.457632972807">
        <ele>14.8</ele>
        <time>2020-07-26T16:09:56Z</time>
      </trkpt>
      <trkpt lat="51.229748508222" lon="4.456913302873">
        <ele>12.8</ele>
        <time>2020-07-26T16:10:05Z</time>
      </trkpt>
      <trkpt lat="51.229804499314" lon="4.456805763096">
        <ele>11.8</ele>
        <time>2020-07-26T16:10:07Z</time>
      </trkpt>
      <trkpt lat="51.229888150676" lon="4.456761506664">
        <ele>11.8</ele>
        <time>2020-07-26T16:10:09Z</time>
      </trkpt>
      <trkpt lat="51.230419898412" lon="4.456578697425">
        <ele>7.8</ele>
        <time>2020-07-26T16:10:20Z</time>
      </trkpt>
      <trkpt lat="51.230946281732" lon="4.45636370169">
        <ele>12</ele>
        <time>2020-07-26T16:10:31Z</time>
      </trkpt>
      <trkpt lat="51.231096401561" lon="4.456296562671">
        <ele>12.4</ele>
        <time>2020-07-26T16:10:34Z</time>
      </trkpt>
      <trkpt lat="51.231262195543" lon="4.456347105528">
        <ele>14</ele>
        <time>2020-07-26T16:10:40Z</time>
      </trkpt>
      <trkpt lat="51.231234619092" lon="4.457209854495">
        <ele>9</ele>
        <time>2020-07-26T16:10:49Z</time>
      </trkpt>
      <trkpt lat="51.231207210279" lon="4.457386712585">
        <ele>8.2</ele>
        <time>2020-07-26T16:10:51Z</time>
      </trkpt>
      <trkpt lat="51.231132192274" lon="4.457534150206">
        <ele>6.6</ele>
        <time>2020-07-26T16:10:53Z</time>
      </trkpt>
      <trkpt lat="51.23097327145" lon="4.457605312537">
        <ele>7.2</ele>
        <time>2020-07-26T16:10:55Z</time>
      </trkpt>
      <trkpt lat="51.230438841506" lon="4.45775174433">
        <ele>6.2</ele>
        <time>2020-07-26T16:11:05Z</time>
      </trkpt>
      <trkpt lat="51.2298710516" lon="4.457896667381">
        <ele>5.8</ele>
        <time>2020-07-26T16:11:17Z</time>
      </trkpt>
      <trkpt lat="51.229665527412" lon="4.457934302112">
        <ele>5.4</ele>
        <time>2020-07-26T16:11:23Z</time>
      </trkpt>
    </trkseg>
  </trk>
</gpx>